<?xml version='1.0' encoding='UTF-8'?><gpx version="1.1" creator="JPX - https://github.com/jenetics/jpx" xmlns="http://www.topografix.com/GPX/1/1"><trk><trkseg><trkpt lat="44.61064018803967" lon="10.471462347979884"><ele>248.0</ele><time>2026-04-12T08:47:58.999Z</time></trkpt><trkpt lat="44.610605617254436" lon="10.471359472475665"><ele>248.0</ele><time>2026-04-12T08:47:59.999Z</time></trkpt><trkpt lat="44.61058442702782" lon="10.47123211921886"><ele>248.0</ele><time>2026-04-12T08:48:00.999Z</time></trkpt><trkpt lat="44.610567090364675" lon="10.471089921350353"><ele>248.0</ele><time>2026-04-12T08:48:01.999Z</time></trkpt><trkpt lat="44.61054041969547" lon="10.470956100308547"><ele>248.0</ele><time>2026-04-12T08:48:02.999Z</time></trkpt><trkpt lat="44.610501562209045" lon="10.470838585192972"><ele>248.2</ele><time>2026-04-12T08:48:04.999Z</time></trkpt><trkpt lat="44.61047830183007" lon="10.470736587084863"><ele>248.4</ele><time>2026-04-12T08:48:06.999Z</time></trkpt><trkpt lat="44.61047197279136" lon="10.470644150717987"><ele>248.59999999999997</ele><time>2026-04-12T08:48:07.999Z</time></trkpt><trkpt lat="44.61046422499678" lon="10.4705222360458"><ele>248.79999999999998</ele><time>2026-04-12T08:48:08.999Z</time></trkpt><trkpt lat="44.610439505350186" lon="10.470379507034284"><ele>249.0</ele><time>2026-04-12T08:48:09.999Z</time></trkpt><trkpt lat="44.61042058621212" lon="10.47020546532948"><ele>249.39999999999998</ele><time>2026-04-12T08:48:10.999Z</time></trkpt><trkpt lat="44.61041669269165" lon="10.470074223315262"><ele>249.79999999999998</ele><time>2026-04-12T08:48:11.999Z</time></trkpt><trkpt lat="44.61042020161647" lon="10.469901973160832"><ele>250.20000000000002</ele><time>2026-04-12T08:48:12.999Z</time></trkpt><trkpt lat="44.610421751253966" lon="10.469758688668904"><ele>250.60000000000002</ele><time>2026-04-12T08:48:13.999Z</time></trkpt><trkpt lat="44.61039484153864" lon="10.46964302171441"><ele>251.0</ele><time>2026-04-12T08:48:14.999Z</time></trkpt><trkpt lat="44.61035434489724" lon="10.469558430405451"><ele>251.28571428571425</ele><time>2026-04-12T08:48:15.999Z</time></trkpt><trkpt lat="44.61029876435303" lon="10.469515510802243"><ele>251.57142857142856</ele><time>2026-04-12T08:48:16.999Z</time></trkpt><trkpt lat="44.61023551004396" lon="10.469482869759233"><ele>251.85714285714286</ele><time>2026-04-12T08:48:17.999Z</time></trkpt><trkpt lat="44.61017282732816" lon="10.46950355446919"><ele>252.14285714285714</ele><time>2026-04-12T08:48:18.999Z</time></trkpt><trkpt lat="44.610108690138965" lon="10.469555526574418"><ele>252.42857142857144</ele><time>2026-04-12T08:48:19.999Z</time></trkpt><trkpt lat="44.610057870313796" lon="10.469634804454953"><ele>252.71428571428575</ele><time>2026-04-12T08:48:20.999Z</time></trkpt><trkpt lat="44.61000025697888" lon="10.469696386508986"><ele>253.00000000000003</ele><time>2026-04-12T08:48:21.999Z</time></trkpt><trkpt lat="44.60985445860003" lon="10.469708166545951"><ele>253.0</ele><time>2026-04-12T08:48:23.999Z</time></trkpt><trkpt lat="44.6097369430572" lon="10.469696948000841"><ele>253.0</ele><time>2026-04-12T08:48:24.999Z</time></trkpt><trkpt lat="44.60965011774238" lon="10.469689694503959"><ele>253.0</ele><time>2026-04-12T08:48:25.999Z</time></trkpt><trkpt lat="44.609588894594744" lon="10.469636443589692"><ele>253.0</ele><time>2026-04-12T08:48:26.999Z</time></trkpt><trkpt lat="44.60950569570704" lon="10.469557398337415"><ele>253.0</ele><time>2026-04-12T08:48:27.999Z</time></trkpt><trkpt lat="44.60941838637921" lon="10.469482020924264"><ele>255.4</ele><time>2026-04-12T08:48:28.999Z</time></trkpt><trkpt lat="44.60932726520897" lon="10.469409124847463"><ele>257.8</ele><time>2026-04-12T08:48:29.999Z</time></trkpt><trkpt lat="44.60923647050466" lon="10.469341443486217"><ele>260.2</ele><time>2026-04-12T08:48:30.999Z</time></trkpt><trkpt lat="44.60915729352034" lon="10.469263341320946"><ele>262.6</ele><time>2026-04-12T08:48:31.999Z</time></trkpt><trkpt lat="44.60908054937226" lon="10.469201322327093"><ele>265.0</ele><time>2026-04-12T08:48:32.999Z</time></trkpt><trkpt lat="44.609008815937905" lon="10.4691569709784"><ele>265.0</ele><time>2026-04-12T08:48:33.999Z</time></trkpt><trkpt lat="44.608944302583446" lon="10.469053373193187"><ele>265.0</ele><time>2026-04-12T08:48:37.999Z</time></trkpt><trkpt lat="44.60888449164397" lon="10.469095551933075"><ele>265.0</ele><time>2026-04-12T08:48:44.999Z</time></trkpt><trkpt lat="44.60881338627012" lon="10.46919823802126"><ele>265.0</ele><time>2026-04-12T08:49:24Z</time></trkpt><trkpt lat="44.60874676448295" lon="10.46929449105377"><ele>265.0</ele><time>2026-04-12T08:49:26Z</time></trkpt><trkpt lat="44.608674788805544" lon="10.469392709934416"><ele>265.2857142857143</ele><time>2026-04-12T08:49:28Z</time></trkpt><trkpt lat="44.608599608860786" lon="10.469372892998779"><ele>265.57142857142856</ele><time>2026-04-12T08:49:30Z</time></trkpt><trkpt lat="44.608538064641465" lon="10.469344562178891"><ele>265.8571428571429</ele><time>2026-04-12T08:49:42Z</time></trkpt><trkpt lat="44.6084746648457" lon="10.469315135843772"><ele>266.1428571428571</ele><time>2026-04-12T08:49:49Z</time></trkpt><trkpt lat="44.60844462715781" lon="10.469231558497944"><ele>266.42857142857144</ele><time>2026-04-12T08:49:55Z</time></trkpt><trkpt lat="44.608445592041875" lon="10.469139176592302"><ele>266.7142857142857</ele><time>2026-04-12T08:50:15.999Z</time></trkpt><trkpt lat="44.60840316267198" lon="10.469050633244708"><ele>267.0</ele><time>2026-04-12T08:50:17.999Z</time></trkpt><trkpt lat="44.608387058230655" lon="10.468934698118673"><ele>267.0</ele><time>2026-04-12T08:50:20.999Z</time></trkpt><trkpt lat="44.60837753787346" lon="10.468819829900823"><ele>267.0</ele><time>2026-04-12T08:50:22.999Z</time></trkpt><trkpt lat="44.608285998994596" lon="10.468731079075171"><ele>267.0</ele><time>2026-04-12T08:50:24.999Z</time></trkpt><trkpt lat="44.60815222478068" lon="10.468696336755155"><ele>267.0</ele><time>2026-04-12T08:50:26.999Z</time></trkpt><trkpt lat="44.60806105788953" lon="10.468683901386836"><ele>267.0</ele><time>2026-04-12T08:50:27.999Z</time></trkpt><trkpt lat="44.607985188401656" lon="10.46867291820455"><ele>268.1666666666667</ele><time>2026-04-12T08:50:28.999Z</time></trkpt><trkpt lat="44.607918873732494" lon="10.46863083235974"><ele>269.3333333333333</ele><time>2026-04-12T08:50:29.999Z</time></trkpt><trkpt lat="44.60783678085094" lon="10.468550795181692"><ele>270.5</ele><time>2026-04-12T08:50:31.999Z</time></trkpt><trkpt lat="44.60779476472571" lon="10.468466383970577"><ele>271.66666666666663</ele><time>2026-04-12T08:50:33.999Z</time></trkpt><trkpt lat="44.607713033390105" lon="10.46834000016955"><ele>272.8333333333333</ele><time>2026-04-12T08:50:35.999Z</time></trkpt><trkpt lat="44.60766291645187" lon="10.46827212484114"><ele>274.0</ele><time>2026-04-12T08:50:36.999Z</time></trkpt><trkpt lat="44.607620064549685" lon="10.468206994252593"><ele>274.0</ele><time>2026-04-12T08:50:37.999Z</time></trkpt><trkpt lat="44.6075592167092" lon="10.468130285839706"><ele>274.0</ele><time>2026-04-12T08:50:39.999Z</time></trkpt><trkpt lat="44.60745378390617" lon="10.468067155671672"><ele>274.0</ele><time>2026-04-12T08:50:41.999Z</time></trkpt><trkpt lat="44.60736057334966" lon="10.467978771238347"><ele>274.0</ele><time>2026-04-12T08:50:43.999Z</time></trkpt><trkpt lat="44.60725698079789" lon="10.467857447229528"><ele>274.0</ele><time>2026-04-12T08:50:45.999Z</time></trkpt><trkpt lat="44.60718438285548" lon="10.467777972779526"><ele>275.16666666666663</ele><time>2026-04-12T08:50:46.999Z</time></trkpt><trkpt lat="44.60711987032735" lon="10.467707435070514"><ele>276.3333333333333</ele><time>2026-04-12T08:50:47.999Z</time></trkpt><trkpt lat="44.60706763885284" lon="10.467620161804124"><ele>277.5</ele><time>2026-04-12T08:50:48.999Z</time></trkpt><trkpt lat="44.60700755392631" lon="10.467535238601203"><ele>278.6666666666667</ele><time>2026-04-12T08:50:49.999Z</time></trkpt><trkpt lat="44.606957476180966" lon="10.46745711073099"><ele>279.83333333333337</ele><time>2026-04-12T08:50:50.999Z</time></trkpt><trkpt lat="44.60690574715828" lon="10.467354164510374"><ele>281.0</ele><time>2026-04-12T08:50:52.999Z</time></trkpt><trkpt lat="44.6068787844049" lon="10.467237934720748"><ele>284.0</ele><time>2026-04-12T08:50:54.999Z</time></trkpt><trkpt lat="44.6068651736234" lon="10.467108789407295"><ele>287.0</ele><time>2026-04-12T08:50:57Z</time></trkpt><trkpt lat="44.60683164018726" lon="10.467032045814838"><ele>290.0</ele><time>2026-04-12T08:51:00Z</time></trkpt><trkpt lat="44.60678871014164" lon="10.46690985666185"><ele>293.0</ele><time>2026-04-12T08:51:03Z</time></trkpt><trkpt lat="44.60672865922028" lon="10.466824213034645"><ele>296.0</ele><time>2026-04-12T08:51:05Z</time></trkpt><trkpt lat="44.606652076243826" lon="10.466709432244786"><ele>296.0</ele><time>2026-04-12T08:51:07Z</time></trkpt><trkpt lat="44.606550865386126" lon="10.466588619250459"><ele>296.0</ele><time>2026-04-12T08:51:09Z</time></trkpt><trkpt lat="44.60651207110542" lon="10.466504959061751"><ele>296.0</ele><time>2026-04-12T08:51:10Z</time></trkpt><trkpt lat="44.60637508722002" lon="10.466332126647531"><ele>296.0</ele><time>2026-04-12T08:51:12Z</time></trkpt><trkpt lat="44.60631224027706" lon="10.466201559557744"><ele>297.40000000000003</ele><time>2026-04-12T08:51:13Z</time></trkpt><trkpt lat="44.6062639854327" lon="10.466133223409145"><ele>298.8</ele><time>2026-04-12T08:51:14Z</time></trkpt><trkpt lat="44.60620510071905" lon="10.466092033806495"><ele>300.20000000000005</ele><time>2026-04-12T08:51:15Z</time></trkpt><trkpt lat="44.606090919666634" lon="10.466013841625852"><ele>301.6</ele><time>2026-04-12T08:51:17Z</time></trkpt><trkpt lat="44.60600505439277" lon="10.465966988794719"><ele>303.0</ele><time>2026-04-12T08:51:18Z</time></trkpt><trkpt lat="44.60592942402116" lon="10.465865377490429"><ele>303.0</ele><time>2026-04-12T08:51:19Z</time></trkpt><trkpt lat="44.60587458545877" lon="10.465800125058628"><ele>303.0</ele><time>2026-04-12T08:51:20Z</time></trkpt><trkpt lat="44.605841239901906" lon="10.465691238722243"><ele>303.0</ele><time>2026-04-12T08:51:21Z</time></trkpt><trkpt lat="44.60578604881211" lon="10.465595887649275"><ele>303.0</ele><time>2026-04-12T08:51:22Z</time></trkpt><trkpt lat="44.60575330865073" lon="10.465488861886799"><ele>303.0</ele><time>2026-04-12T08:51:23Z</time></trkpt><trkpt lat="44.605708067022945" lon="10.465405724768052"><ele>303.0</ele><time>2026-04-12T08:51:24Z</time></trkpt><trkpt lat="44.605634446155186" lon="10.465264851700814"><ele>305.6666666666667</ele><time>2026-04-12T08:51:26Z</time></trkpt><trkpt lat="44.60561055888632" lon="10.465179805516643"><ele>308.3333333333333</ele><time>2026-04-12T08:51:28Z</time></trkpt><trkpt lat="44.60555917900136" lon="10.465120697362538"><ele>311.0</ele><time>2026-04-12T08:51:30Z</time></trkpt><trkpt lat="44.605622785376276" lon="10.465054935036838"><ele>313.66666666666663</ele><time>2026-04-12T08:51:34Z</time></trkpt><trkpt lat="44.60571060935786" lon="10.465047407495613"><ele>316.3333333333333</ele><time>2026-04-12T08:51:37Z</time></trkpt><trkpt lat="44.60578036071154" lon="10.46501110387574"><ele>319.0</ele><time>2026-04-12T08:51:39Z</time></trkpt><trkpt lat="44.60595963330593" lon="10.464939752159491"><ele>319.0</ele><time>2026-04-12T08:51:40Z</time></trkpt><trkpt lat="44.606056719737815" lon="10.464912587642186"><ele>319.0</ele><time>2026-04-12T08:51:41Z</time></trkpt><trkpt lat="44.606103340396125" lon="10.464789253092304"><ele>319.0</ele><time>2026-04-12T08:51:43Z</time></trkpt><trkpt lat="44.60626518975641" lon="10.464791257930866"><ele>319.0</ele><time>2026-04-12T08:51:46Z</time></trkpt><trkpt lat="44.60633438092551" lon="10.464777431767763"><ele>319.0</ele><time>2026-04-12T08:51:47Z</time></trkpt><trkpt lat="44.60639127356338" lon="10.464816263551855"><ele>322.66666666666663</ele><time>2026-04-12T08:51:48Z</time></trkpt><trkpt lat="44.60645915516095" lon="10.464875330965459"><ele>326.3333333333333</ele><time>2026-04-12T08:51:49Z</time></trkpt><trkpt lat="44.60651597157724" lon="10.46491379178481"><ele>330.0</ele><time>2026-04-12T08:51:50Z</time></trkpt><trkpt lat="44.60659631775411" lon="10.464956957561569"><ele>333.6666666666667</ele><time>2026-04-12T08:51:52Z</time></trkpt><trkpt lat="44.606731796442276" lon="10.465006405885816"><ele>337.33333333333337</ele><time>2026-04-12T08:51:54Z</time></trkpt><trkpt lat="44.60680373128198" lon="10.465040158139475"><ele>341.0</ele><time>2026-04-12T08:51:55Z</time></trkpt><trkpt lat="44.60687720793353" lon="10.465087363276501"><ele>341.0</ele><time>2026-04-12T08:51:56Z</time></trkpt><trkpt lat="44.60694307841352" lon="10.465179921829842"><ele>341.0</ele><time>2026-04-12T08:51:57Z</time></trkpt><trkpt lat="44.60706069486233" lon="10.465225995221017"><ele>341.0</ele><time>2026-04-12T08:51:59Z</time></trkpt><trkpt lat="44.60707579873601" lon="10.465328725185833"><ele>341.0</ele><time>2026-04-12T08:52:00Z</time></trkpt><trkpt lat="44.60715654512237" lon="10.465373068251832"><ele>341.0</ele><time>2026-04-12T08:52:02Z</time></trkpt><trkpt lat="44.60723169066341" lon="10.465408439315173"><ele>340.5</ele><time>2026-04-12T08:52:04Z</time></trkpt><trkpt lat="44.60735363966502" lon="10.465461706193697"><ele>340.0</ele><time>2026-04-12T08:52:06Z</time></trkpt><trkpt lat="44.607410402114525" lon="10.465503495749486"><ele>339.5</ele><time>2026-04-12T08:52:07Z</time></trkpt><trkpt lat="44.60745393501908" lon="10.465576374429196"><ele>339.0</ele><time>2026-04-12T08:52:08Z</time></trkpt><trkpt lat="44.607519281295744" lon="10.465681957756697"><ele>338.5</ele><time>2026-04-12T08:52:09Z</time></trkpt><trkpt lat="44.60756764128853" lon="10.465757291120292"><ele>338.0</ele><time>2026-04-12T08:52:10Z</time></trkpt><trkpt lat="44.60763362791033" lon="10.465835951128476"><ele>338.0</ele><time>2026-04-12T08:52:12Z</time></trkpt><trkpt lat="44.60767617245021" lon="10.46595758406948"><ele>338.0</ele><time>2026-04-12T08:52:14Z</time></trkpt><trkpt lat="44.607716665769516" lon="10.46604740476911"><ele>338.0</ele><time>2026-04-12T08:52:16Z</time></trkpt><trkpt lat="44.60778482257565" lon="10.466054210138655"><ele>338.0</ele><time>2026-04-12T08:52:19Z</time></trkpt><trkpt lat="44.60784823403535" lon="10.466010188207141"><ele>338.0</ele><time>2026-04-12T08:52:21.999Z</time></trkpt><trkpt lat="44.60787746424925" lon="10.465928877234148"><ele>338.0</ele><time>2026-04-12T08:52:23.999Z</time></trkpt><trkpt lat="44.60786358039666" lon="10.465840793922814"><ele>338.0</ele><time>2026-04-12T08:52:26.999Z</time></trkpt><trkpt lat="44.607866498629875" lon="10.465737542806615"><ele>337.0</ele><time>2026-04-12T08:52:28.999Z</time></trkpt><trkpt lat="44.60791177974123" lon="10.465646835326417"><ele>336.0</ele><time>2026-04-12T08:52:29.999Z</time></trkpt><trkpt lat="44.60782978593784" lon="10.46550111239873"><ele>335.0</ele><time>2026-04-12T08:52:30.999Z</time></trkpt><trkpt lat="44.60777568094777" lon="10.465395520094443"><ele>334.0</ele><time>2026-04-12T08:52:31.999Z</time></trkpt><trkpt lat="44.60771660217235" lon="10.465270112058459"><ele>333.0</ele><time>2026-04-12T08:52:32.999Z</time></trkpt><trkpt lat="44.607734681402015" lon="10.46515913948702"><ele>336.5</ele><time>2026-04-12T08:52:33.999Z</time></trkpt><trkpt lat="44.607680049203516" lon="10.465025137288363"><ele>340.0</ele><time>2026-04-12T08:52:36.999Z</time></trkpt><trkpt lat="44.60763794504828" lon="10.464952267975088"><ele>343.5</ele><time>2026-04-12T08:52:38.999Z</time></trkpt><trkpt lat="44.60760107555361" lon="10.464857612943268"><ele>347.0</ele><time>2026-04-12T08:52:40.999Z</time></trkpt><trkpt lat="44.60753541552915" lon="10.464766008680147"><ele>350.5</ele><time>2026-04-12T08:52:42.999Z</time></trkpt><trkpt lat="44.60746298968058" lon="10.464681781972255"><ele>354.0</ele><time>2026-04-12T08:52:44.999Z</time></trkpt><trkpt lat="44.607380374543" lon="10.464683617398224"><ele>354.0</ele><time>2026-04-12T08:52:48.999Z</time></trkpt><trkpt lat="44.60729407437925" lon="10.464674741256152"><ele>354.0</ele><time>2026-04-12T08:52:50.999Z</time></trkpt><trkpt lat="44.60717231117586" lon="10.464663819123729"><ele>354.0</ele><time>2026-04-12T08:52:51.999Z</time></trkpt><trkpt lat="44.60711674456765" lon="10.464592428501534"><ele>354.0</ele><time>2026-04-12T08:52:52.999Z</time></trkpt><trkpt lat="44.60707578632309" lon="10.4645039891027"><ele>354.0</ele><time>2026-04-12T08:52:53.999Z</time></trkpt><trkpt lat="44.60701260200731" lon="10.464407893037144"><ele>356.0</ele><time>2026-04-12T08:52:54.999Z</time></trkpt><trkpt lat="44.606956040421174" lon="10.464331592115085"><ele>358.0</ele><time>2026-04-12T08:52:55.999Z</time></trkpt><trkpt lat="44.606922126933505" lon="10.464252541796549"><ele>360.0</ele><time>2026-04-12T08:52:56.999Z</time></trkpt><trkpt lat="44.60688215036202" lon="10.464134932579293"><ele>362.0</ele><time>2026-04-12T08:52:58.999Z</time></trkpt><trkpt lat="44.60684574682028" lon="10.464021987777127"><ele>364.0</ele><time>2026-04-12T08:53:03Z</time></trkpt><trkpt lat="44.60679448175992" lon="10.463884575770408"><ele>366.0</ele><time>2026-04-12T08:53:05Z</time></trkpt><trkpt lat="44.60674310732555" lon="10.463818649892874"><ele>370.25</ele><time>2026-04-12T08:53:07Z</time></trkpt><trkpt lat="44.60670748045704" lon="10.46370834226517"><ele>374.5</ele><time>2026-04-12T08:53:10Z</time></trkpt><trkpt lat="44.606705779326234" lon="10.463588823421421"><ele>378.75</ele><time>2026-04-12T08:53:12Z</time></trkpt><trkpt lat="44.606618550299764" lon="10.463255510060966"><ele>383.0</ele><time>2026-04-12T08:53:13Z</time></trkpt><trkpt lat="44.6065795506223" lon="10.463133142559876"><ele>383.0</ele><time>2026-04-12T08:53:14Z</time></trkpt><trkpt lat="44.60653497768042" lon="10.463014152427732"><ele>383.0</ele><time>2026-04-12T08:53:15Z</time></trkpt><trkpt lat="44.60650240604303" lon="10.462912335883802"><ele>383.0</ele><time>2026-04-12T08:53:17Z</time></trkpt><trkpt lat="44.60646895217355" lon="10.462762293778713"><ele>383.0</ele><time>2026-04-12T08:56:54.999Z</time></trkpt><trkpt lat="44.60639628148728" lon="10.46265370699296"><ele>383.0</ele><time>2026-04-12T08:56:55.999Z</time></trkpt><trkpt lat="44.606298847636495" lon="10.462557327201012"><ele>383.0</ele><time>2026-04-12T08:56:56.999Z</time></trkpt><trkpt lat="44.60618710460719" lon="10.462414586031208"><ele>383.0</ele><time>2026-04-12T08:56:57.999Z</time></trkpt><trkpt lat="44.606090526265696" lon="10.462284906842877"><ele>383.0</ele><time>2026-04-12T08:56:58.999Z</time></trkpt><trkpt lat="44.605983705923656" lon="10.462131089652488"><ele>383.0</ele><time>2026-04-12T08:56:59.999Z</time></trkpt><trkpt lat="44.60591459679723" lon="10.462002414750948"><ele>385.33333333333337</ele><time>2026-04-12T08:57:00.999Z</time></trkpt><trkpt lat="44.6058989079311" lon="10.461912544843667"><ele>387.6666666666667</ele><time>2026-04-12T08:57:02.999Z</time></trkpt><trkpt lat="44.60585749846362" lon="10.461811770185717"><ele>390.0</ele><time>2026-04-12T08:57:03.999Z</time></trkpt><trkpt lat="44.60580009177191" lon="10.461730325155084"><ele>392.33333333333337</ele><time>2026-04-12T08:57:04.999Z</time></trkpt><trkpt lat="44.60573338087296" lon="10.461722150480846"><ele>394.6666666666667</ele><time>2026-04-12T08:57:05.999Z</time></trkpt><trkpt lat="44.605672256310044" lon="10.461700798057413"><ele>397.0</ele><time>2026-04-12T08:57:06.999Z</time></trkpt><trkpt lat="44.60559299899514" lon="10.461642226508335"><ele>397.0</ele><time>2026-04-12T08:57:07.999Z</time></trkpt><trkpt lat="44.605477691625495" lon="10.461506406418339"><ele>397.0</ele><time>2026-04-12T08:57:09.999Z</time></trkpt><trkpt lat="44.60542265668394" lon="10.461380937199628"><ele>397.0</ele><time>2026-04-12T08:57:10.999Z</time></trkpt><trkpt lat="44.605372526931134" lon="10.461261888088476"><ele>397.0</ele><time>2026-04-12T08:57:11.999Z</time></trkpt><trkpt lat="44.6053264595495" lon="10.461144826446509"><ele>397.0</ele><time>2026-04-12T08:57:12.999Z</time></trkpt><trkpt lat="44.6052802231738" lon="10.461044381851229"><ele>396.8</ele><time>2026-04-12T08:57:13.999Z</time></trkpt><trkpt lat="44.605265940780654" lon="10.460861833071437"><ele>396.6</ele><time>2026-04-12T08:57:16Z</time></trkpt><trkpt lat="44.60522663532896" lon="10.460779746415309"><ele>396.40000000000003</ele><time>2026-04-12T08:57:17Z</time></trkpt><trkpt lat="44.6051488929971" lon="10.460700309480591"><ele>396.20000000000005</ele><time>2026-04-12T08:57:18Z</time></trkpt><trkpt lat="44.60508708777579" lon="10.460645069163654"><ele>396.0</ele><time>2026-04-12T08:57:19Z</time></trkpt><trkpt lat="44.60500544285797" lon="10.460629167693394"><ele>396.0</ele><time>2026-04-12T08:57:20Z</time></trkpt><trkpt lat="44.6049359950525" lon="10.460691814558842"><ele>396.0</ele><time>2026-04-12T08:57:21Z</time></trkpt><trkpt lat="44.60487161954962" lon="10.460716217457907"><ele>396.0</ele><time>2026-04-12T08:57:22Z</time></trkpt><trkpt lat="44.60477784486367" lon="10.460723710810592"><ele>396.0</ele><time>2026-04-12T08:57:23Z</time></trkpt><trkpt lat="44.604670311193004" lon="10.460735364208295"><ele>396.0</ele><time>2026-04-12T08:57:24Z</time></trkpt><trkpt lat="44.60457583712428" lon="10.460751108140359"><ele>396.0</ele><time>2026-04-12T08:57:25Z</time></trkpt><trkpt lat="44.604488483061594" lon="10.46076073165379"><ele>396.4</ele><time>2026-04-12T08:57:26Z</time></trkpt><trkpt lat="44.60440833848083" lon="10.460785875115434"><ele>396.8</ele><time>2026-04-12T08:57:27Z</time></trkpt><trkpt lat="44.60431460005062" lon="10.460798151369843"><ele>397.2</ele><time>2026-04-12T08:57:28Z</time></trkpt><trkpt lat="44.6041949592023" lon="10.460803402299849"><ele>397.59999999999997</ele><time>2026-04-12T08:57:29Z</time></trkpt><trkpt lat="44.60405639367103" lon="10.4607866088058"><ele>398.0</ele><time>2026-04-12T08:57:30Z</time></trkpt><trkpt lat="44.60390619695049" lon="10.460736345621694"><ele>398.0</ele><time>2026-04-12T08:57:31Z</time></trkpt><trkpt lat="44.603788517301396" lon="10.460696901970236"><ele>398.0</ele><time>2026-04-12T08:57:32Z</time></trkpt><trkpt lat="44.603702727708395" lon="10.460660534331147"><ele>398.0</ele><time>2026-04-12T08:57:33Z</time></trkpt><trkpt lat="44.60363860682214" lon="10.460638809269364"><ele>398.0</ele><time>2026-04-12T08:57:34Z</time></trkpt><trkpt lat="44.60351432971051" lon="10.46058690724728"><ele>398.0</ele><time>2026-04-12T08:57:36Z</time></trkpt><trkpt lat="44.60343473490109" lon="10.46051478127543"><ele>398.79999999999995</ele><time>2026-04-12T08:57:37Z</time></trkpt><trkpt lat="44.60336099854562" lon="10.460427870454218"><ele>399.6</ele><time>2026-04-12T08:57:38Z</time></trkpt><trkpt lat="44.603281647774565" lon="10.460362493089994"><ele>400.4</ele><time>2026-04-12T08:57:39Z</time></trkpt><trkpt lat="44.60319854476928" lon="10.46031459827474"><ele>401.20000000000005</ele><time>2026-04-12T08:57:40Z</time></trkpt><trkpt lat="44.603113344901445" lon="10.460275813573546"><ele>402.0</ele><time>2026-04-12T08:57:41Z</time></trkpt><trkpt lat="44.603036657734854" lon="10.460209528291427"><ele>402.0</ele><time>2026-04-12T08:57:42Z</time></trkpt><trkpt lat="44.6029683043941" lon="10.460128639250291"><ele>402.0</ele><time>2026-04-12T08:57:43Z</time></trkpt><trkpt lat="44.60289456125569" lon="10.460061357519118"><ele>402.0</ele><time>2026-04-12T08:57:44Z</time></trkpt><trkpt lat="44.60283057485679" lon="10.460002077632453"><ele>402.0</ele><time>2026-04-12T08:57:45Z</time></trkpt><trkpt lat="44.6027662613318" lon="10.45996748927157"><ele>402.0</ele><time>2026-04-12T08:57:46Z</time></trkpt><trkpt lat="44.602706757553946" lon="10.459931017098134"><ele>402.0</ele><time>2026-04-12T08:57:47Z</time></trkpt><trkpt lat="44.602649740770524" lon="10.459870570732546"><ele>400.8333333333333</ele><time>2026-04-12T08:57:48Z</time></trkpt><trkpt lat="44.60258763809718" lon="10.45981795852546"><ele>399.66666666666663</ele><time>2026-04-12T08:57:49Z</time></trkpt><trkpt lat="44.602527318022375" lon="10.45975774223663"><ele>398.5</ele><time>2026-04-12T08:57:50Z</time></trkpt><trkpt lat="44.60246795375163" lon="10.459666276730431"><ele>397.3333333333333</ele><time>2026-04-12T08:57:51Z</time></trkpt><trkpt lat="44.60241377769261" lon="10.459572487311467"><ele>396.16666666666663</ele><time>2026-04-12T08:57:52Z</time></trkpt><trkpt lat="44.602344859067586" lon="10.459490378923894"><ele>395.0</ele><time>2026-04-12T08:57:53Z</time></trkpt><trkpt lat="44.60226484084165" lon="10.459415361994287"><ele>394.99999999999994</ele><time>2026-04-12T08:57:54Z</time></trkpt><trkpt lat="44.60218531483759" lon="10.459338228703205"><ele>395.0</ele><time>2026-04-12T08:57:55Z</time></trkpt><trkpt lat="44.602112869822406" lon="10.45925288116631"><ele>395.0</ele><time>2026-04-12T08:57:56Z</time></trkpt><trkpt lat="44.602043243504646" lon="10.459192526067449"><ele>395.0</ele><time>2026-04-12T08:57:57Z</time></trkpt><trkpt lat="44.601972425413436" lon="10.459151631990169"><ele>394.99999999999994</ele><time>2026-04-12T08:57:58Z</time></trkpt><trkpt lat="44.60188499513418" lon="10.459121808344781"><ele>395.0</ele><time>2026-04-12T08:57:59Z</time></trkpt><trkpt lat="44.6017965230841" lon="10.459107061764703"><ele>395.99999999999994</ele><time>2026-04-12T08:58:00Z</time></trkpt><trkpt lat="44.601716610916554" lon="10.459098901495922"><ele>397.0</ele><time>2026-04-12T08:58:01Z</time></trkpt><trkpt lat="44.601637523369114" lon="10.459079804764617"><ele>398.0</ele><time>2026-04-12T08:58:02Z</time></trkpt><trkpt lat="44.601553398028386" lon="10.459081766484381"><ele>399.0</ele><time>2026-04-12T08:58:03Z</time></trkpt><trkpt lat="44.601461761254114" lon="10.459104547009353"><ele>399.99999999999994</ele><time>2026-04-12T08:58:04Z</time></trkpt><trkpt lat="44.60136476079775" lon="10.45911854679198"><ele>401.0</ele><time>2026-04-12T08:58:05Z</time></trkpt><trkpt lat="44.60127735902762" lon="10.459099046094565"><ele>401.0</ele><time>2026-04-12T08:58:06Z</time></trkpt><trkpt lat="44.60118709512063" lon="10.459055573414371"><ele>401.0</ele><time>2026-04-12T08:58:07Z</time></trkpt><trkpt lat="44.60109103334866" lon="10.459000673248182"><ele>401.0</ele><time>2026-04-12T08:58:08Z</time></trkpt><trkpt lat="44.60099402319023" lon="10.458948617826255"><ele>401.0</ele><time>2026-04-12T08:58:09Z</time></trkpt><trkpt lat="44.60089305402628" lon="10.458912849153817"><ele>401.0</ele><time>2026-04-12T08:58:10Z</time></trkpt><trkpt lat="44.60079159535642" lon="10.45888225870768"><ele>403.0</ele><time>2026-04-12T08:58:11Z</time></trkpt><trkpt lat="44.6006843838436" lon="10.45885760871481"><ele>405.0</ele><time>2026-04-12T08:58:12Z</time></trkpt><trkpt lat="44.600565744303196" lon="10.458841251596064"><ele>407.0</ele><time>2026-04-12T08:58:13Z</time></trkpt><trkpt lat="44.600451341563755" lon="10.45884792216153"><ele>409.0</ele><time>2026-04-12T08:58:14Z</time></trkpt><trkpt lat="44.600348534360585" lon="10.4588617802638"><ele>411.0</ele><time>2026-04-12T08:58:15Z</time></trkpt><trkpt lat="44.60023368565603" lon="10.458874902812237"><ele>413.6</ele><time>2026-04-12T08:58:16Z</time></trkpt><trkpt lat="44.60011402758345" lon="10.458886468297354"><ele>416.20000000000005</ele><time>2026-04-12T08:58:17Z</time></trkpt><trkpt lat="44.59999840554435" lon="10.458903815222333"><ele>418.79999999999995</ele><time>2026-04-12T08:58:18Z</time></trkpt><trkpt lat="44.599896806943384" lon="10.45891991644989"><ele>421.4</ele><time>2026-04-12T08:58:19Z</time></trkpt><trkpt lat="44.59978885711145" lon="10.45891445144593"><ele>424.0</ele><time>2026-04-12T08:58:20Z</time></trkpt><trkpt lat="44.59969490024472" lon="10.458889801649299"><ele>424.0</ele><time>2026-04-12T08:58:21Z</time></trkpt><trkpt lat="44.59961166965143" lon="10.458843048300768"><ele>424.0</ele><time>2026-04-12T08:58:22Z</time></trkpt><trkpt lat="44.59951606479914" lon="10.458753788991693"><ele>424.0</ele><time>2026-04-12T08:58:23Z</time></trkpt><trkpt lat="44.59941792136994" lon="10.458644445299202"><ele>424.0</ele><time>2026-04-12T08:58:24Z</time></trkpt><trkpt lat="44.59932852079503" lon="10.458533570807283"><ele>424.0</ele><time>2026-04-12T08:58:25Z</time></trkpt><trkpt lat="44.5992421821661" lon="10.458412374488192"><ele>428.25</ele><time>2026-04-12T08:58:26Z</time></trkpt><trkpt lat="44.599156598797144" lon="10.458300688214395"><ele>432.5</ele><time>2026-04-12T08:58:27Z</time></trkpt><trkpt lat="44.599052667442486" lon="10.458219545889103"><ele>436.75</ele><time>2026-04-12T08:58:28Z</time></trkpt><trkpt lat="44.59894418812124" lon="10.458135861218468"><ele>441.0</ele><time>2026-04-12T08:58:29Z</time></trkpt><trkpt lat="44.598821142833145" lon="10.458095893645213"><ele>441.0</ele><time>2026-04-12T08:58:29.999Z</time></trkpt><trkpt lat="44.598711663286146" lon="10.458009285955319"><ele>441.0</ele><time>2026-04-12T08:58:30.999Z</time></trkpt><trkpt lat="44.59860457805224" lon="10.457926709367166"><ele>441.0</ele><time>2026-04-12T08:58:31.999Z</time></trkpt><trkpt lat="44.59847711113785" lon="10.457846248807089"><ele>441.0</ele><time>2026-04-12T08:58:32.999Z</time></trkpt><trkpt lat="44.598345542789986" lon="10.457797704575768"><ele>442.5</ele><time>2026-04-12T08:58:33.999Z</time></trkpt><trkpt lat="44.59823313402827" lon="10.457724325817313"><ele>444.0</ele><time>2026-04-12T08:58:34.999Z</time></trkpt><trkpt lat="44.59812011171513" lon="10.457648955372377"><ele>445.5</ele><time>2026-04-12T08:58:35.999Z</time></trkpt><trkpt lat="44.59805325929975" lon="10.457510650830832"><ele>447.0</ele><time>2026-04-12T08:58:36.999Z</time></trkpt><trkpt lat="44.59797399343214" lon="10.457438648486958"><ele>447.0</ele><time>2026-04-12T08:58:37.999Z</time></trkpt><trkpt lat="44.59789150648806" lon="10.457379716288283"><ele>447.00000000000006</ele><time>2026-04-12T08:58:38.999Z</time></trkpt><trkpt lat="44.597799436757484" lon="10.457325648005499"><ele>447.00000000000006</ele><time>2026-04-12T08:58:39.999Z</time></trkpt><trkpt lat="44.59769184112343" lon="10.457290284563337"><ele>447.0</ele><time>2026-04-12T08:58:40.999Z</time></trkpt><trkpt lat="44.59758241009006" lon="10.457271122488038"><ele>447.0</ele><time>2026-04-12T08:58:41.999Z</time></trkpt><trkpt lat="44.597497028522795" lon="10.457203137905516"><ele>447.6</ele><time>2026-04-12T08:58:42.999Z</time></trkpt><trkpt lat="44.597402708511574" lon="10.457150118252997"><ele>448.20000000000005</ele><time>2026-04-12T08:58:43.999Z</time></trkpt><trkpt lat="44.597314669916" lon="10.457105609147447"><ele>448.8</ele><time>2026-04-12T08:58:44.999Z</time></trkpt><trkpt lat="44.59723218528067" lon="10.457064135896895"><ele>449.4</ele><time>2026-04-12T08:58:45.999Z</time></trkpt><trkpt lat="44.597147601753946" lon="10.457021480653472"><ele>450.0</ele><time>2026-04-12T08:58:46.999Z</time></trkpt><trkpt lat="44.59706361054124" lon="10.456994579607564"><ele>448.8333333333333</ele><time>2026-04-12T08:58:47.999Z</time></trkpt><trkpt lat="44.597003184929584" lon="10.456932808420113"><ele>447.66666666666663</ele><time>2026-04-12T08:58:48.999Z</time></trkpt><trkpt lat="44.59692570761517" lon="10.45688657805098"><ele>446.5</ele><time>2026-04-12T08:58:49.999Z</time></trkpt><trkpt lat="44.59684118239395" lon="10.456857142362466"><ele>445.3333333333333</ele><time>2026-04-12T08:58:50.999Z</time></trkpt><trkpt lat="44.59675092982544" lon="10.456852063265165"><ele>444.16666666666663</ele><time>2026-04-12T08:58:51.999Z</time></trkpt><trkpt lat="44.59667830718246" lon="10.456872011251093"><ele>443.0</ele><time>2026-04-12T08:58:52.999Z</time></trkpt><trkpt lat="44.59661703768061" lon="10.456899949883288"><ele>442.99999999999994</ele><time>2026-04-12T08:58:53.999Z</time></trkpt><trkpt lat="44.59655220327417" lon="10.45693152444825"><ele>443.0</ele><time>2026-04-12T08:58:54.999Z</time></trkpt><trkpt lat="44.59646649974706" lon="10.456861154085747"><ele>443.0</ele><time>2026-04-12T08:58:55.999Z</time></trkpt><trkpt lat="44.596383210372395" lon="10.456831493748341"><ele>443.0</ele><time>2026-04-12T08:58:56.999Z</time></trkpt><trkpt lat="44.59630663037388" lon="10.456801579684567"><ele>442.99999999999994</ele><time>2026-04-12T08:58:57.999Z</time></trkpt><trkpt lat="44.596240733540185" lon="10.456775838740985"><ele>443.0</ele><time>2026-04-12T08:58:58.999Z</time></trkpt><trkpt lat="44.596174151092626" lon="10.456749794445214"><ele>443.8333333333333</ele><time>2026-04-12T08:58:59.999Z</time></trkpt><trkpt lat="44.59607504499249" lon="10.456710292854277"><ele>444.66666666666663</ele><time>2026-04-12T08:59:01.999Z</time></trkpt><trkpt lat="44.59599863528569" lon="10.456679618594507"><ele>445.5</ele><time>2026-04-12T08:59:03.999Z</time></trkpt><trkpt lat="44.59593513660972" lon="10.456672710012747"><ele>446.33333333333337</ele><time>2026-04-12T08:59:05.999Z</time></trkpt><trkpt lat="44.59583677665327" lon="10.4566213302791"><ele>447.1666666666667</ele><time>2026-04-12T08:59:07.999Z</time></trkpt><trkpt lat="44.59576312443263" lon="10.456584523687122"><ele>448.0</ele><time>2026-04-12T08:59:08.999Z</time></trkpt><trkpt lat="44.59567566207465" lon="10.456551105885397"><ele>448.0</ele><time>2026-04-12T08:59:09.999Z</time></trkpt><trkpt lat="44.59557413336271" lon="10.456537644127902"><ele>447.99999999999994</ele><time>2026-04-12T08:59:10.999Z</time></trkpt><trkpt lat="44.59544733103792" lon="10.456491172709494"><ele>447.99999999999994</ele><time>2026-04-12T08:59:11.999Z</time></trkpt><trkpt lat="44.59535108685711" lon="10.456456770212778"><ele>448.0</ele><time>2026-04-12T08:59:12.999Z</time></trkpt><trkpt lat="44.595274383508254" lon="10.456424540360967"><ele>448.0</ele><time>2026-04-12T08:59:13.999Z</time></trkpt><trkpt lat="44.595198935449204" lon="10.456395616042164"><ele>448.79999999999995</ele><time>2026-04-12T08:59:14.999Z</time></trkpt><trkpt lat="44.59512317085052" lon="10.456373592017734"><ele>449.59999999999997</ele><time>2026-04-12T08:59:15.999Z</time></trkpt><trkpt lat="44.59504225352769" lon="10.456348366096066"><ele>450.40000000000003</ele><time>2026-04-12T08:59:16.999Z</time></trkpt><trkpt lat="44.594968843971415" lon="10.45630089297772"><ele>451.20000000000005</ele><time>2026-04-12T08:59:17.999Z</time></trkpt><trkpt lat="44.59487877772928" lon="10.456270098832363"><ele>452.0</ele><time>2026-04-12T08:59:18.999Z</time></trkpt><trkpt lat="44.59475871079175" lon="10.456263843176576"><ele>452.0</ele><time>2026-04-12T08:59:19.999Z</time></trkpt><trkpt lat="44.59463545385539" lon="10.456242661826263"><ele>452.0</ele><time>2026-04-12T08:59:21Z</time></trkpt><trkpt lat="44.594525504683496" lon="10.456259943683612"><ele>452.0</ele><time>2026-04-12T08:59:22Z</time></trkpt><trkpt lat="44.59441829658025" lon="10.456286294938826"><ele>452.0</ele><time>2026-04-12T08:59:23Z</time></trkpt><trkpt lat="44.59430306703272" lon="10.456326685412261"><ele>456.0</ele><time>2026-04-12T08:59:24Z</time></trkpt><trkpt lat="44.5941956041165" lon="10.456337970336245"><ele>460.0</ele><time>2026-04-12T08:59:25Z</time></trkpt><trkpt lat="44.59408560996616" lon="10.456346693131337"><ele>464.0</ele><time>2026-04-12T08:59:26Z</time></trkpt><trkpt lat="44.59396722344357" lon="10.45637531262233"><ele>468.0</ele><time>2026-04-12T08:59:27Z</time></trkpt><trkpt lat="44.593826144472246" lon="10.456386569695109"><ele>468.0</ele><time>2026-04-12T08:59:28Z</time></trkpt><trkpt lat="44.5936970608715" lon="10.45640295056734"><ele>468.0</ele><time>2026-04-12T08:59:29Z</time></trkpt><trkpt lat="44.593552986730984" lon="10.456424112002285"><ele>468.0</ele><time>2026-04-12T08:59:30Z</time></trkpt><trkpt lat="44.59343905492544" lon="10.456412441609626"><ele>468.0</ele><time>2026-04-12T08:59:31Z</time></trkpt><trkpt lat="44.593328535757585" lon="10.456415482362665"><ele>471.25</ele><time>2026-04-12T08:59:32Z</time></trkpt><trkpt lat="44.593222371086384" lon="10.456415302504901"><ele>474.5</ele><time>2026-04-12T08:59:33Z</time></trkpt><trkpt lat="44.59310797320432" lon="10.456437030578762"><ele>477.75</ele><time>2026-04-12T08:59:34Z</time></trkpt><trkpt lat="44.59296937670686" lon="10.45643234816083"><ele>481.0</ele><time>2026-04-12T08:59:35Z</time></trkpt><trkpt lat="44.592849640860656" lon="10.456406668848242"><ele>481.25</ele><time>2026-04-12T08:59:36Z</time></trkpt><trkpt lat="44.59274523661923" lon="10.456382260787484"><ele>481.5</ele><time>2026-04-12T08:59:37Z</time></trkpt><trkpt lat="44.59262076570973" lon="10.456350602076625"><ele>481.75</ele><time>2026-04-12T08:59:38Z</time></trkpt><trkpt lat="44.59249892717751" lon="10.45634446618865"><ele>482.0</ele><time>2026-04-12T08:59:39Z</time></trkpt><trkpt lat="44.592387435124394" lon="10.45633479078054"><ele>482.0</ele><time>2026-04-12T08:59:40Z</time></trkpt><trkpt lat="44.592263633329935" lon="10.45630111398004"><ele>482.0</ele><time>2026-04-12T08:59:41Z</time></trkpt><trkpt lat="44.59213744256154" lon="10.456313776461267"><ele>482.0</ele><time>2026-04-12T08:59:42Z</time></trkpt><trkpt lat="44.59200296928565" lon="10.456285011623029"><ele>482.0</ele><time>2026-04-12T08:59:43Z</time></trkpt><trkpt lat="44.59186896810076" lon="10.456270366998435"><ele>484.8</ele><time>2026-04-12T08:59:44Z</time></trkpt><trkpt lat="44.591746889450334" lon="10.456245233892691"><ele>487.6</ele><time>2026-04-12T08:59:45Z</time></trkpt><trkpt lat="44.59165390444675" lon="10.456209445480148"><ele>490.40000000000003</ele><time>2026-04-12T08:59:46Z</time></trkpt><trkpt lat="44.5915819486304" lon="10.456149623888233"><ele>493.20000000000005</ele><time>2026-04-12T08:59:47Z</time></trkpt><trkpt lat="44.59152578464975" lon="10.456057609654033"><ele>496.0</ele><time>2026-04-12T08:59:48Z</time></trkpt><trkpt lat="44.59147975173808" lon="10.455966575707865"><ele>496.00000000000006</ele><time>2026-04-12T08:59:49Z</time></trkpt><trkpt lat="44.59143580449568" lon="10.455883175234918"><ele>496.0</ele><time>2026-04-12T08:59:50Z</time></trkpt><trkpt lat="44.59139679528815" lon="10.455800983848773"><ele>496.0</ele><time>2026-04-12T08:59:51Z</time></trkpt><trkpt lat="44.59134616480797" lon="10.455720744763102"><ele>496.0</ele><time>2026-04-12T08:59:52Z</time></trkpt><trkpt lat="44.591297019054736" lon="10.455632056779478"><ele>496.00000000000006</ele><time>2026-04-12T08:59:53Z</time></trkpt><trkpt lat="44.59123955292492" lon="10.455557177990512"><ele>496.0</ele><time>2026-04-12T08:59:54Z</time></trkpt><trkpt lat="44.59116702396607" lon="10.45547627429928"><ele>498.6</ele><time>2026-04-12T08:59:55Z</time></trkpt><trkpt lat="44.59109782890905" lon="10.455385109319469"><ele>501.20000000000005</ele><time>2026-04-12T08:59:56Z</time></trkpt><trkpt lat="44.59101786577848" lon="10.455323161237875"><ele>503.79999999999995</ele><time>2026-04-12T08:59:57Z</time></trkpt><trkpt lat="44.590924477849775" lon="10.455294692039853"><ele>506.4</ele><time>2026-04-12T08:59:58Z</time></trkpt><trkpt lat="44.590825573735245" lon="10.455235367679135"><ele>509.0</ele><time>2026-04-12T08:59:59Z</time></trkpt><trkpt lat="44.5907068756715" lon="10.455234430113801"><ele>509.0</ele><time>2026-04-12T09:00:00Z</time></trkpt><trkpt lat="44.59058630733978" lon="10.455222183236868"><ele>509.0</ele><time>2026-04-12T09:00:01Z</time></trkpt><trkpt lat="44.59047058911857" lon="10.455176463082983"><ele>509.0</ele><time>2026-04-12T09:00:02Z</time></trkpt><trkpt lat="44.59034894974194" lon="10.455144942888454"><ele>509.0</ele><time>2026-04-12T09:00:03Z</time></trkpt><trkpt lat="44.590224521679986" lon="10.455090213783333"><ele>509.79999999999995</ele><time>2026-04-12T09:00:04Z</time></trkpt><trkpt lat="44.5900981111275" lon="10.455043350968431"><ele>510.59999999999997</ele><time>2026-04-12T09:00:05Z</time></trkpt><trkpt lat="44.589985771369776" lon="10.454999961017704"><ele>511.4</ele><time>2026-04-12T09:00:06Z</time></trkpt><trkpt lat="44.589897184611864" lon="10.454960765046156"><ele>512.1999999999999</ele><time>2026-04-12T09:00:07Z</time></trkpt><trkpt lat="44.58983486010908" lon="10.45493279415311"><ele>513.0</ele><time>2026-04-12T09:00:08Z</time></trkpt><trkpt lat="44.58974995062204" lon="10.4548810687745"><ele>513.0</ele><time>2026-04-12T09:00:10Z</time></trkpt><trkpt lat="44.5896659550079" lon="10.454829037622407"><ele>513.0</ele><time>2026-04-12T09:00:13Z</time></trkpt><trkpt lat="44.58958911882216" lon="10.454720693681892"><ele>513.0</ele><time>2026-04-12T09:00:15Z</time></trkpt><trkpt lat="44.58955154347184" lon="10.454614972048553"><ele>513.0</ele><time>2026-04-12T09:00:17Z</time></trkpt><trkpt lat="44.58951733158697" lon="10.454511109467134"><ele>513.0</ele><time>2026-04-12T09:00:19Z</time></trkpt><trkpt lat="44.58947922547625" lon="10.454382086612075"><ele>513.1666666666666</ele><time>2026-04-12T09:00:21Z</time></trkpt><trkpt lat="44.58942892099896" lon="10.454219473074893"><ele>513.3333333333334</ele><time>2026-04-12T09:00:23Z</time></trkpt><trkpt lat="44.58939702454865" lon="10.454131428848315"><ele>513.5</ele><time>2026-04-12T09:00:24Z</time></trkpt><trkpt lat="44.58936126217986" lon="10.45403965446241"><ele>513.6666666666667</ele><time>2026-04-12T09:00:25Z</time></trkpt><trkpt lat="44.58932995819016" lon="10.45393736420491"><ele>513.8333333333334</ele><time>2026-04-12T09:00:26Z</time></trkpt><trkpt lat="44.589289180629216" lon="10.453842987485263"><ele>514.0</ele><time>2026-04-12T09:00:27Z</time></trkpt><trkpt lat="44.589246507441175" lon="10.453747841229495"><ele>514.0</ele><time>2026-04-12T09:00:27.999Z</time></trkpt><trkpt lat="44.589208879424014" lon="10.453653667811064"><ele>514.0</ele><time>2026-04-12T09:00:28.999Z</time></trkpt><trkpt lat="44.58916749022295" lon="10.453549232076217"><ele>514.0</ele><time>2026-04-12T09:00:29.999Z</time></trkpt><trkpt lat="44.58911945056876" lon="10.453429531265517"><ele>514.0</ele><time>2026-04-12T09:00:30.999Z</time></trkpt><trkpt lat="44.58907871275328" lon="10.45329957024742"><ele>514.0</ele><time>2026-04-12T09:00:31.999Z</time></trkpt><trkpt lat="44.58903951744836" lon="10.453157770293277"><ele>514.0</ele><time>2026-04-12T09:00:32.999Z</time></trkpt><trkpt lat="44.58900670352691" lon="10.453029662394826"><ele>514.0</ele><time>2026-04-12T09:00:33.999Z</time></trkpt><trkpt lat="44.588977552832525" lon="10.452902377059841"><ele>514.0</ele><time>2026-04-12T09:00:34.999Z</time></trkpt><trkpt lat="44.5889364885311" lon="10.452763775847085"><ele>514.0</ele><time>2026-04-12T09:00:35.999Z</time></trkpt><trkpt lat="44.588878843745206" lon="10.45263952261"><ele>514.0</ele><time>2026-04-12T09:00:36.999Z</time></trkpt><trkpt lat="44.58881508609311" lon="10.452527611417144"><ele>514.4</ele><time>2026-04-12T09:00:37.999Z</time></trkpt><trkpt lat="44.58875121579786" lon="10.452426729721632"><ele>514.8</ele><time>2026-04-12T09:00:38.999Z</time></trkpt><trkpt lat="44.58868236213125" lon="10.452340060394832"><ele>515.2</ele><time>2026-04-12T09:00:39.999Z</time></trkpt><trkpt lat="44.58862252126745" lon="10.452242380441305"><ele>515.6</ele><time>2026-04-12T09:00:40.999Z</time></trkpt><trkpt lat="44.5885784800255" lon="10.452124481893206"><ele>516.0</ele><time>2026-04-12T09:00:41.999Z</time></trkpt><trkpt lat="44.58851718710371" lon="10.45202695027083"><ele>513.2</ele><time>2026-04-12T09:00:42.999Z</time></trkpt><trkpt lat="44.58847292370532" lon="10.451915436233316"><ele>510.40000000000003</ele><time>2026-04-12T09:00:43.999Z</time></trkpt><trkpt lat="44.588441540308274" lon="10.451816134969413"><ele>507.6</ele><time>2026-04-12T09:00:44.999Z</time></trkpt><trkpt lat="44.58840872556013" lon="10.451652659865456"><ele>504.8</ele><time>2026-04-12T09:00:46.999Z</time></trkpt><trkpt lat="44.58835590592126" lon="10.45148577699921"><ele>502.0</ele><time>2026-04-12T09:00:48.999Z</time></trkpt><trkpt lat="44.588304359005605" lon="10.451404498883985"><ele>502.00000000000006</ele><time>2026-04-12T09:00:49.999Z</time></trkpt><trkpt lat="44.588226584949005" lon="10.451380440715145"><ele>502.0</ele><time>2026-04-12T09:00:50.999Z</time></trkpt><trkpt lat="44.58819283220199" lon="10.451265100006204"><ele>502.0</ele><time>2026-04-12T09:00:52.999Z</time></trkpt><trkpt lat="44.588166329594976" lon="10.451125565683299"><ele>502.0</ele><time>2026-04-12T09:00:54.999Z</time></trkpt><trkpt lat="44.588163434272104" lon="10.450980668499078"><ele>502.00000000000006</ele><time>2026-04-12T09:00:56.999Z</time></trkpt><trkpt lat="44.58816247893257" lon="10.450889592542465"><ele>502.0</ele><time>2026-04-12T09:00:57.999Z</time></trkpt><trkpt lat="44.58815674142558" lon="10.450729235363184"><ele>501.6</ele><time>2026-04-12T09:00:59.999Z</time></trkpt><trkpt lat="44.58815899340006" lon="10.45055730089547"><ele>501.20000000000005</ele><time>2026-04-12T09:01:01.999Z</time></trkpt><trkpt lat="44.588081418141215" lon="10.450464957860351"><ele>500.8</ele><time>2026-04-12T09:01:02.999Z</time></trkpt><trkpt lat="44.58806588312154" lon="10.450348038697587"><ele>500.4</ele><time>2026-04-12T09:01:03.999Z</time></trkpt><trkpt lat="44.58804020671773" lon="10.450250374361207"><ele>500.0</ele><time>2026-04-12T09:01:04.999Z</time></trkpt><trkpt lat="44.58801092701566" lon="10.450129745929466"><ele>499.49999999999994</ele><time>2026-04-12T09:01:05.999Z</time></trkpt><trkpt lat="44.5879880384181" lon="10.450033665910206"><ele>499.0</ele><time>2026-04-12T09:01:06.999Z</time></trkpt><trkpt lat="44.58797933121457" lon="10.44993667147636"><ele>498.5</ele><time>2026-04-12T09:01:07.999Z</time></trkpt><trkpt lat="44.587995908912205" lon="10.449827113060715"><ele>498.0</ele><time>2026-04-12T09:01:08.999Z</time></trkpt><trkpt lat="44.588027585433046" lon="10.449708951627306"><ele>497.49999999999994</ele><time>2026-04-12T09:01:09.999Z</time></trkpt><trkpt lat="44.588036000671096" lon="10.449593722922481"><ele>497.0</ele><time>2026-04-12T09:01:10.999Z</time></trkpt><trkpt lat="44.58804239153119" lon="10.449492309825784"><ele>494.66666666666663</ele><time>2026-04-12T09:01:11.999Z</time></trkpt><trkpt lat="44.58803869918889" lon="10.449379860241802"><ele>492.3333333333333</ele><time>2026-04-12T09:01:12.999Z</time></trkpt><trkpt lat="44.588032919534285" lon="10.449265513351303"><ele>490.0</ele><time>2026-04-12T09:01:13.999Z</time></trkpt><trkpt lat="44.58803375070316" lon="10.449175545614166"><ele>487.66666666666663</ele><time>2026-04-12T09:01:14.999Z</time></trkpt><trkpt lat="44.58807703795223" lon="10.449035760408606"><ele>485.3333333333333</ele><time>2026-04-12T09:01:16.999Z</time></trkpt><trkpt lat="44.58812119472666" lon="10.448966105710365"><ele>483.0</ele><time>2026-04-12T09:01:17.999Z</time></trkpt><trkpt lat="44.588200132837244" lon="10.448834729424929"><ele>478.6666666666667</ele><time>2026-04-12T09:01:19.999Z</time></trkpt><trkpt lat="44.58815074513741" lon="10.448740940006157"><ele>474.33333333333337</ele><time>2026-04-12T09:01:21.999Z</time></trkpt><trkpt lat="44.5881117207573" lon="10.448660703736984"><ele>470.0</ele><time>2026-04-12T09:01:23.999Z</time></trkpt><trkpt lat="44.58814926455678" lon="10.44855192853342"><ele>465.6666666666667</ele><time>2026-04-12T09:01:27Z</time></trkpt><trkpt lat="44.58821389779229" lon="10.448547521217645"><ele>461.33333333333337</ele><time>2026-04-12T09:01:31Z</time></trkpt><trkpt lat="44.58828095908032" lon="10.448565872956749"><ele>457.0</ele><time>2026-04-12T09:01:35Z</time></trkpt><trkpt lat="44.5883282021878" lon="10.44845471063837"><ele>457.0</ele><time>2026-04-12T09:01:39Z</time></trkpt><trkpt lat="44.588401644869386" lon="10.448427380306294"><ele>457.00000000000006</ele><time>2026-04-12T09:01:41Z</time></trkpt><trkpt lat="44.58847476747974" lon="10.448377693148087"><ele>457.00000000000006</ele><time>2026-04-12T09:01:44Z</time></trkpt><trkpt lat="44.5885483484614" lon="10.44836871202127"><ele>457.0</ele><time>2026-04-12T09:01:45Z</time></trkpt><trkpt lat="44.58864197729702" lon="10.448268672841264"><ele>457.0</ele><time>2026-04-12T09:01:47Z</time></trkpt><trkpt lat="44.58872712146072" lon="10.448167564286935"><ele>455.6</ele><time>2026-04-12T09:01:49Z</time></trkpt><trkpt lat="44.58879590585728" lon="10.44812249434152"><ele>454.20000000000005</ele><time>2026-04-12T09:01:50Z</time></trkpt><trkpt lat="44.588830190102705" lon="10.447975533339257"><ele>452.8</ele><time>2026-04-12T09:01:53Z</time></trkpt><trkpt lat="44.588840306488926" lon="10.447860331168371"><ele>451.4</ele><time>2026-04-12T09:01:56Z</time></trkpt><trkpt lat="44.588854691853626" lon="10.447734399215786"><ele>450.0</ele><time>2026-04-12T09:01:58Z</time></trkpt><trkpt lat="44.58896482817013" lon="10.447320599942891"><ele>448.1666666666667</ele><time>2026-04-12T09:02:01Z</time></trkpt><trkpt lat="44.58898728645097" lon="10.447221082944377"><ele>446.33333333333337</ele><time>2026-04-12T09:02:02Z</time></trkpt><trkpt lat="44.589002259645575" lon="10.447123994123537"><ele>444.5</ele><time>2026-04-12T09:02:03Z</time></trkpt><trkpt lat="44.589033319836425" lon="10.446999298679177"><ele>442.6666666666667</ele><time>2026-04-12T09:02:04Z</time></trkpt><trkpt lat="44.589022093339075" lon="10.446867452726739"><ele>440.83333333333337</ele><time>2026-04-12T09:02:05Z</time></trkpt><trkpt lat="44.58900014659217" lon="10.446741689163453"><ele>439.0</ele><time>2026-04-12T09:02:06Z</time></trkpt><trkpt lat="44.588977976441136" lon="10.446623824144492"><ele>438.6666666666667</ele><time>2026-04-12T09:02:07Z</time></trkpt><trkpt lat="44.588956312649756" lon="10.446514854741919"><ele>438.33333333333337</ele><time>2026-04-12T09:02:08Z</time></trkpt><trkpt lat="44.58893935288833" lon="10.446404563866636"><ele>438.0</ele><time>2026-04-12T09:02:09Z</time></trkpt><trkpt lat="44.588929648199674" lon="10.446315940189189"><ele>437.66666666666663</ele><time>2026-04-12T09:02:10Z</time></trkpt><trkpt lat="44.58891830703898" lon="10.446198409713713"><ele>437.3333333333333</ele><time>2026-04-12T09:02:48Z</time></trkpt><trkpt lat="44.5888263221218" lon="10.446149618130615"><ele>437.0</ele><time>2026-04-12T09:02:50Z</time></trkpt><trkpt lat="44.58875146784343" lon="10.446137730863292"><ele>436.8333333333333</ele><time>2026-04-12T09:02:51Z</time></trkpt><trkpt lat="44.588677749768294" lon="10.446113507952163"><ele>436.66666666666663</ele><time>2026-04-12T09:02:51.999Z</time></trkpt><trkpt lat="44.58861361506789" lon="10.446068790085567"><ele>436.5</ele><time>2026-04-12T09:02:52.999Z</time></trkpt><trkpt lat="44.588557679882804" lon="10.446007242656355"><ele>436.33333333333337</ele><time>2026-04-12T09:02:53.999Z</time></trkpt><trkpt lat="44.588537063606324" lon="10.445915902160149"><ele>436.1666666666667</ele><time>2026-04-12T09:02:54.999Z</time></trkpt><trkpt lat="44.58855188356303" lon="10.44579223666576"><ele>436.0</ele><time>2026-04-12T09:02:55.999Z</time></trkpt><trkpt lat="44.588589620821935" lon="10.445666658224068"><ele>433.4</ele><time>2026-04-12T09:02:56.999Z</time></trkpt><trkpt lat="44.58860931298595" lon="10.445542304235657"><ele>430.8</ele><time>2026-04-12T09:02:57.999Z</time></trkpt><trkpt lat="44.58858045105094" lon="10.445427718584225"><ele>428.2</ele><time>2026-04-12T09:02:58.999Z</time></trkpt><trkpt lat="44.5885185809231" lon="10.44532695615383"><ele>425.59999999999997</ele><time>2026-04-12T09:02:59.999Z</time></trkpt><trkpt lat="44.58843017515755" lon="10.445293047730306"><ele>423.0</ele><time>2026-04-12T09:03:00.999Z</time></trkpt><trkpt lat="44.58833737442509" lon="10.445248573681024"><ele>422.5</ele><time>2026-04-12T09:03:01.999Z</time></trkpt><trkpt lat="44.58826664287051" lon="10.445230617152433"><ele>422.0</ele><time>2026-04-12T09:03:02.999Z</time></trkpt><trkpt lat="44.58819437649634" lon="10.445179305006063"><ele>421.5</ele><time>2026-04-12T09:03:03.999Z</time></trkpt><trkpt lat="44.58811836139882" lon="10.445137430482507"><ele>421.0</ele><time>2026-04-12T09:03:04.999Z</time></trkpt><trkpt lat="44.588036830736684" lon="10.445095759943325"><ele>420.5</ele><time>2026-04-12T09:03:05.999Z</time></trkpt><trkpt lat="44.587962292689966" lon="10.445032099961749"><ele>420.0</ele><time>2026-04-12T09:03:06.999Z</time></trkpt><trkpt lat="44.58788539995872" lon="10.44498178468833"><ele>418.0</ele><time>2026-04-12T09:03:07.999Z</time></trkpt><trkpt lat="44.587822527765404" lon="10.444937404854002"><ele>416.0</ele><time>2026-04-12T09:03:08.999Z</time></trkpt><trkpt lat="44.58775908496484" lon="10.444891322785878"><ele>414.0</ele><time>2026-04-12T09:03:09.999Z</time></trkpt><trkpt lat="44.587682643834896" lon="10.44482569515892"><ele>412.0</ele><time>2026-04-12T09:03:11.999Z</time></trkpt><trkpt lat="44.58760773330783" lon="10.444752506220594"><ele>410.0</ele><time>2026-04-12T09:03:13.999Z</time></trkpt><trkpt lat="44.58752320750016" lon="10.44464986089488"><ele>408.0</ele><time>2026-04-12T09:03:15.999Z</time></trkpt><trkpt lat="44.58752691640746" lon="10.444533886249676"><ele>408.0</ele><time>2026-04-12T09:03:17.999Z</time></trkpt><trkpt lat="44.58748605633186" lon="10.444420201768565"><ele>408.0</ele><time>2026-04-12T09:03:19.999Z</time></trkpt><trkpt lat="44.587022635110245" lon="10.444571290698557"><ele>405.3333333333333</ele><time>2026-04-12T09:03:20.999Z</time></trkpt><trkpt lat="44.586967609186054" lon="10.444477410972594"><ele>402.66666666666663</ele><time>2026-04-12T09:03:21.999Z</time></trkpt><trkpt lat="44.58690982723564" lon="10.444387785053523"><ele>400.0</ele><time>2026-04-12T09:03:22.999Z</time></trkpt><trkpt lat="44.586857065553254" lon="10.44430655138341"><ele>397.3333333333333</ele><time>2026-04-12T09:03:23.999Z</time></trkpt><trkpt lat="44.58681871654557" lon="10.444233276968442"><ele>394.66666666666663</ele><time>2026-04-12T09:03:24.999Z</time></trkpt><trkpt lat="44.58671559558577" lon="10.444163504895233"><ele>392.0</ele><time>2026-04-12T09:03:26.999Z</time></trkpt><trkpt lat="44.58664621508559" lon="10.444127640793756"><ele>391.99999999999994</ele><time>2026-04-12T09:03:27.999Z</time></trkpt><trkpt lat="44.58659961118972" lon="10.444066317917034"><ele>392.0</ele><time>2026-04-12T09:03:28.999Z</time></trkpt><trkpt lat="44.586556951490266" lon="10.443951176801235"><ele>392.0</ele><time>2026-04-12T09:03:29.999Z</time></trkpt><trkpt lat="44.58651454700188" lon="10.443829281016264"><ele>392.0</ele><time>2026-04-12T09:03:30.999Z</time></trkpt><trkpt lat="44.58647022620402" lon="10.443720276547442"><ele>391.99999999999994</ele><time>2026-04-12T09:03:31.999Z</time></trkpt><trkpt lat="44.58641773645445" lon="10.443605993442906"><ele>392.0</ele><time>2026-04-12T09:03:33Z</time></trkpt><trkpt lat="44.58637524503224" lon="10.443494272245163"><ele>392.3333333333333</ele><time>2026-04-12T09:03:34Z</time></trkpt><trkpt lat="44.586355237085485" lon="10.44339691184848"><ele>392.66666666666663</ele><time>2026-04-12T09:03:35Z</time></trkpt><trkpt lat="44.58632700411171" lon="10.443308755807736"><ele>393.0</ele><time>2026-04-12T09:03:36Z</time></trkpt><trkpt lat="44.58629958365654" lon="10.443202069196731"><ele>393.33333333333337</ele><time>2026-04-12T09:03:37Z</time></trkpt><trkpt lat="44.58630444757244" lon="10.44307566173493"><ele>393.6666666666667</ele><time>2026-04-12T09:03:38Z</time></trkpt><trkpt lat="44.58630329589136" lon="10.442960086822263"><ele>394.0</ele><time>2026-04-12T09:03:39Z</time></trkpt><trkpt lat="44.586314758527585" lon="10.442864245355976"><ele>392.83333333333337</ele><time>2026-04-12T09:03:40Z</time></trkpt><trkpt lat="44.586319570161365" lon="10.442762531134083"><ele>391.6666666666667</ele><time>2026-04-12T09:03:41Z</time></trkpt><trkpt lat="44.58632059767563" lon="10.442666375988386"><ele>390.5</ele><time>2026-04-12T09:03:43Z</time></trkpt><trkpt lat="44.58623780292551" lon="10.442606033194247"><ele>389.33333333333337</ele><time>2026-04-12T09:03:45Z</time></trkpt><trkpt lat="44.58611029354053" lon="10.442617715371892"><ele>388.1666666666667</ele><time>2026-04-12T09:03:47Z</time></trkpt><trkpt lat="44.586031388002894" lon="10.442612510361913"><ele>387.0</ele><time>2026-04-12T09:03:48Z</time></trkpt><trkpt lat="44.58596605399078" lon="10.442593879376178"><ele>382.0</ele><time>2026-04-12T09:03:49Z</time></trkpt><trkpt lat="44.585868675974254" lon="10.442534920062363"><ele>377.0</ele><time>2026-04-12T09:03:51Z</time></trkpt><trkpt lat="44.58578503675259" lon="10.442445687729034"><ele>372.0</ele><time>2026-04-12T09:03:53Z</time></trkpt><trkpt lat="44.58577370169507" lon="10.442269971526184"><ele>367.0</ele><time>2026-04-12T09:03:55Z</time></trkpt><trkpt lat="44.58578454730516" lon="10.442157797026972"><ele>362.0</ele><time>2026-04-12T09:03:56Z</time></trkpt><trkpt lat="44.585786440861646" lon="10.442063019697578"><ele>361.57142857142856</ele><time>2026-04-12T09:03:57Z</time></trkpt><trkpt lat="44.58577619345179" lon="10.441971933115266"><ele>361.1428571428571</ele><time>2026-04-12T09:03:58Z</time></trkpt><trkpt lat="44.585769037697695" lon="10.44187438145534"><ele>360.7142857142857</ele><time>2026-04-12T09:03:59Z</time></trkpt><trkpt lat="44.585749375391686" lon="10.441765901610117"><ele>360.2857142857143</ele><time>2026-04-12T09:04:00Z</time></trkpt><trkpt lat="44.58572252747434" lon="10.441652841284204"><ele>359.8571428571429</ele><time>2026-04-12T09:04:01Z</time></trkpt><trkpt lat="44.5857213522149" lon="10.441555171847638"><ele>359.42857142857144</ele><time>2026-04-12T09:04:02Z</time></trkpt><trkpt lat="44.58571486424093" lon="10.441459856588681"><ele>359.0</ele><time>2026-04-12T09:04:03Z</time></trkpt><trkpt lat="44.58571611886764" lon="10.441356064510282"><ele>356.83333333333337</ele><time>2026-04-12T09:04:05Z</time></trkpt><trkpt lat="44.585647579451674" lon="10.441296584672195"><ele>354.6666666666667</ele><time>2026-04-12T09:04:09Z</time></trkpt><trkpt lat="44.58562910853362" lon="10.441210830757054"><ele>352.5</ele><time>2026-04-12T09:04:18Z</time></trkpt><trkpt lat="44.58556870177112" lon="10.441165648631433"><ele>350.3333333333333</ele><time>2026-04-12T09:04:25Z</time></trkpt><trkpt lat="44.58550572028617" lon="10.441231646462825"><ele>348.16666666666663</ele><time>2026-04-12T09:04:28Z</time></trkpt><trkpt lat="44.58543292987797" lon="10.44125745839661"><ele>346.0</ele><time>2026-04-12T09:04:30Z</time></trkpt><trkpt lat="44.58534289568247" lon="10.441232158561577"><ele>341.20000000000005</ele><time>2026-04-12T09:04:32Z</time></trkpt><trkpt lat="44.58523210714047" lon="10.44123763634536"><ele>336.40000000000003</ele><time>2026-04-12T09:04:34Z</time></trkpt><trkpt lat="44.58511867313976" lon="10.441255522933574"><ele>331.6</ele><time>2026-04-12T09:04:36Z</time></trkpt><trkpt lat="44.58502048909196" lon="10.441245784199646"><ele>326.8</ele><time>2026-04-12T09:04:38Z</time></trkpt><trkpt lat="44.58495064427368" lon="10.441185590683256"><ele>322.0</ele><time>2026-04-12T09:04:40Z</time></trkpt><trkpt lat="44.584846395373994" lon="10.441101215299256"><ele>322.0</ele><time>2026-04-12T09:04:42Z</time></trkpt><trkpt lat="44.58478027024277" lon="10.44104994980018"><ele>322.0</ele><time>2026-04-12T09:04:43Z</time></trkpt><trkpt lat="44.58471002139084" lon="10.441014262002398"><ele>322.0</ele><time>2026-04-12T09:04:44Z</time></trkpt><trkpt lat="44.5846432159692" lon="10.441009813518079"><ele>322.0</ele><time>2026-04-12T09:04:45Z</time></trkpt><trkpt lat="44.58454181630267" lon="10.4409968832362"><ele>322.0</ele><time>2026-04-12T09:04:47Z</time></trkpt><trkpt lat="44.58442466619823" lon="10.44094696818796"><ele>322.0</ele><time>2026-04-12T09:04:49Z</time></trkpt><trkpt lat="44.584365635360285" lon="10.44090862753159"><ele>318.6</ele><time>2026-04-12T09:04:50Z</time></trkpt><trkpt lat="44.58430602807601" lon="10.440870131383601"><ele>315.20000000000005</ele><time>2026-04-12T09:04:51Z</time></trkpt><trkpt lat="44.584197028319586" lon="10.440795925117097"><ele>311.8</ele><time>2026-04-12T09:04:52.999Z</time></trkpt><trkpt lat="44.584089948045715" lon="10.44072611402029"><ele>308.4</ele><time>2026-04-12T09:04:54.999Z</time></trkpt><trkpt lat="44.5839955904328" lon="10.440667994459277"><ele>305.0</ele><time>2026-04-12T09:04:56.999Z</time></trkpt><trkpt lat="44.583901434143485" lon="10.440600894266463"><ele>305.0</ele><time>2026-04-12T09:04:58.999Z</time></trkpt><trkpt lat="44.58380145376815" lon="10.440545057563277"><ele>305.0</ele><time>2026-04-12T09:05:00.999Z</time></trkpt><trkpt lat="44.58370074726748" lon="10.440479408093042"><ele>305.0</ele><time>2026-04-12T09:05:02.999Z</time></trkpt><trkpt lat="44.58362423413956" lon="10.440426438770015"><ele>305.0</ele><time>2026-04-12T09:05:04.999Z</time></trkpt><trkpt lat="44.58368704150419" lon="10.44048299765266"><ele>305.0</ele><time>2026-04-12T09:05:30.999Z</time></trkpt><trkpt lat="44.58373898783987" lon="10.440535846128116"><ele>305.0</ele><time>2026-04-12T09:05:35.999Z</time></trkpt><trkpt lat="44.58367939176799" lon="10.440460784615551"><ele>302.0</ele><time>2026-04-12T09:05:48Z</time></trkpt><trkpt lat="44.58360970972344" lon="10.440405488533283"><ele>299.0</ele><time>2026-04-12T09:05:54Z</time></trkpt><trkpt lat="44.58354053846314" lon="10.440364328888512"><ele>296.0</ele><time>2026-04-12T09:06:19Z</time></trkpt><trkpt lat="44.583474364089376" lon="10.440326644769794"><ele>293.0</ele><time>2026-04-12T09:06:21Z</time></trkpt><trkpt lat="44.58338379758604" lon="10.440245067677687"><ele>290.0</ele><time>2026-04-12T09:06:23Z</time></trkpt><trkpt lat="44.58328575868299" lon="10.440151956058932"><ele>290.0</ele><time>2026-04-12T09:06:25Z</time></trkpt><trkpt lat="44.583179564728326" lon="10.440035492209555"><ele>290.0</ele><time>2026-04-12T09:06:27Z</time></trkpt><trkpt lat="44.58311715546551" lon="10.439976030464296"><ele>290.0</ele><time>2026-04-12T09:06:28Z</time></trkpt><trkpt lat="44.583055832512784" lon="10.439912511331249"><ele>290.0</ele><time>2026-04-12T09:06:29Z</time></trkpt><trkpt lat="44.582997597113724" lon="10.43985698450472"><ele>290.0</ele><time>2026-04-12T09:06:30Z</time></trkpt><trkpt lat="44.58293678264775" lon="10.439828560975874"><ele>290.0</ele><time>2026-04-12T09:06:31Z</time></trkpt><trkpt lat="44.582869346574974" lon="10.439836900769391"><ele>290.6</ele><time>2026-04-12T09:06:33Z</time></trkpt><trkpt lat="44.58278128545064" lon="10.439693832591098"><ele>291.2</ele><time>2026-04-12T09:08:41Z</time></trkpt><trkpt lat="44.58278170255768" lon="10.439586215016314"><ele>291.8</ele><time>2026-04-12T09:08:42Z</time></trkpt><trkpt lat="44.58280573841405" lon="10.43947560994615"><ele>292.4</ele><time>2026-04-12T09:08:43Z</time></trkpt><trkpt lat="44.58283914680927" lon="10.439338915959244"><ele>293.0</ele><time>2026-04-12T09:08:45Z</time></trkpt><trkpt lat="44.582914605961975" lon="10.439267563944407"><ele>293.0</ele><time>2026-04-12T09:08:47Z</time></trkpt><trkpt lat="44.58300264899764" lon="10.439135491281531"><ele>293.0</ele><time>2026-04-12T09:08:49Z</time></trkpt><trkpt lat="44.58303048056204" lon="10.439047211338014"><ele>293.0</ele><time>2026-04-12T09:08:50Z</time></trkpt><trkpt lat="44.58306498380296" lon="10.438958815302525"><ele>293.0</ele><time>2026-04-12T09:08:51Z</time></trkpt><trkpt lat="44.58312976736167" lon="10.438820951392284"><ele>293.0</ele><time>2026-04-12T09:08:53Z</time></trkpt><trkpt lat="44.58314132419326" lon="10.438733233192442"><ele>295.1666666666667</ele><time>2026-04-12T09:08:54Z</time></trkpt><trkpt lat="44.58316537404786" lon="10.438620623250422"><ele>297.33333333333337</ele><time>2026-04-12T09:08:56Z</time></trkpt><trkpt lat="44.58311151520954" lon="10.438510664502537"><ele>299.5</ele><time>2026-04-12T09:08:58Z</time></trkpt><trkpt lat="44.58308053182146" lon="10.438433020692269"><ele>301.6666666666667</ele><time>2026-04-12T09:08:59Z</time></trkpt><trkpt lat="44.58306087616268" lon="10.438337669942346"><ele>303.8333333333333</ele><time>2026-04-12T09:09:00Z</time></trkpt><trkpt lat="44.583026946807784" lon="10.438251516553692"><ele>306.0</ele><time>2026-04-12T09:09:00.999Z</time></trkpt><trkpt lat="44.58297328730416" lon="10.438179396367556"><ele>306.0</ele><time>2026-04-12T09:09:01.999Z</time></trkpt><trkpt lat="44.582899487622484" lon="10.438099531062452"><ele>306.0</ele><time>2026-04-12T09:09:02.999Z</time></trkpt><trkpt lat="44.58279591085045" lon="10.438015791643753"><ele>306.0</ele><time>2026-04-12T09:09:03.999Z</time></trkpt><trkpt lat="44.58270012523492" lon="10.437935616820221"><ele>306.0</ele><time>2026-04-12T09:09:04.999Z</time></trkpt><trkpt lat="44.582604322280694" lon="10.43785142414948"><ele>306.0</ele><time>2026-04-12T09:09:05.999Z</time></trkpt><trkpt lat="44.58250980167514" lon="10.43778266901458"><ele>312.5</ele><time>2026-04-12T09:09:06.999Z</time></trkpt><trkpt lat="44.58239376290918" lon="10.437699028169861"><ele>319.0</ele><time>2026-04-12T09:09:07.999Z</time></trkpt><trkpt lat="44.58227696129321" lon="10.437609976049"><ele>325.5</ele><time>2026-04-12T09:09:08.999Z</time></trkpt><trkpt lat="44.5821908619834" lon="10.43752320336431"><ele>332.0</ele><time>2026-04-12T09:09:09.999Z</time></trkpt><trkpt lat="44.58210131322263" lon="10.437438916734658"><ele>334.20000000000005</ele><time>2026-04-12T09:09:10.999Z</time></trkpt><trkpt lat="44.582004540111974" lon="10.437354324245637"><ele>336.4</ele><time>2026-04-12T09:09:11.999Z</time></trkpt><trkpt lat="44.581923469659245" lon="10.437277469407482"><ele>338.6</ele><time>2026-04-12T09:09:12.999Z</time></trkpt><trkpt lat="44.58184021478531" lon="10.437234089264697"><ele>340.79999999999995</ele><time>2026-04-12T09:09:14.999Z</time></trkpt><trkpt lat="44.58176026514261" lon="10.437306651534804"><ele>343.0</ele><time>2026-04-12T09:09:16.999Z</time></trkpt><trkpt lat="44.58170429251093" lon="10.437257040515847"><ele>343.0</ele><time>2026-04-12T09:09:28.999Z</time></trkpt><trkpt lat="44.58164509264325" lon="10.437322251006032"><ele>343.0</ele><time>2026-04-12T09:09:32.999Z</time></trkpt><trkpt lat="44.58153925439627" lon="10.437363706151105"><ele>343.0</ele><time>2026-04-12T09:09:35.999Z</time></trkpt><trkpt lat="44.58146094409401" lon="10.437284397868131"><ele>343.0</ele><time>2026-04-12T09:10:13Z</time></trkpt><trkpt lat="44.58140204457104" lon="10.437235700912428"><ele>343.0</ele><time>2026-04-12T09:10:25Z</time></trkpt><trkpt lat="44.58135401507768" lon="10.437175762482578"><ele>343.0</ele><time>2026-04-12T09:10:26Z</time></trkpt><trkpt lat="44.581301991398924" lon="10.437107367730624"><ele>343.79999999999995</ele><time>2026-04-12T09:10:27Z</time></trkpt><trkpt lat="44.58125352318963" lon="10.43702493095606"><ele>344.6</ele><time>2026-04-12T09:10:28Z</time></trkpt><trkpt lat="44.58121213325796" lon="10.436919842819952"><ele>345.4</ele><time>2026-04-12T09:10:30Z</time></trkpt><trkpt lat="44.581167584008945" lon="10.436808632113818"><ele>346.20000000000005</ele><time>2026-04-12T09:10:32Z</time></trkpt><trkpt lat="44.58107857825417" lon="10.436678654070537"><ele>347.0</ele><time>2026-04-12T09:10:34Z</time></trkpt><trkpt lat="44.581027420394875" lon="10.436592991204396"><ele>350.0</ele><time>2026-04-12T09:10:35Z</time></trkpt><trkpt lat="44.58096306249792" lon="10.43650360011207"><ele>353.0</ele><time>2026-04-12T09:10:36Z</time></trkpt><trkpt lat="44.58088272281659" lon="10.436420522331403"><ele>356.0</ele><time>2026-04-12T09:10:37Z</time></trkpt><trkpt lat="44.580780009784306" lon="10.436316794579703"><ele>359.0</ele><time>2026-04-12T09:10:38Z</time></trkpt><trkpt lat="44.580663672161535" lon="10.436204887792352"><ele>360.4</ele><time>2026-04-12T09:10:39Z</time></trkpt><trkpt lat="44.58056357725059" lon="10.436095915407458"><ele>361.79999999999995</ele><time>2026-04-12T09:10:40Z</time></trkpt><trkpt lat="44.58047050191785" lon="10.436003438972712"><ele>363.20000000000005</ele><time>2026-04-12T09:10:41Z</time></trkpt><trkpt lat="44.5803961657267" lon="10.435926101177174"><ele>364.6</ele><time>2026-04-12T09:10:42Z</time></trkpt><trkpt lat="44.580345650250905" lon="10.435856709638212"><ele>366.0</ele><time>2026-04-12T09:10:43Z</time></trkpt><trkpt lat="44.580308612784066" lon="10.435700058077582"><ele>367.7142857142857</ele><time>2026-04-12T09:10:45Z</time></trkpt><trkpt lat="44.5802900589021" lon="10.435608519583445"><ele>369.42857142857144</ele><time>2026-04-12T09:10:46Z</time></trkpt><trkpt lat="44.58027831963532" lon="10.43550329773253"><ele>371.1428571428571</ele><time>2026-04-12T09:10:47Z</time></trkpt><trkpt lat="44.58027533426938" lon="10.435386025062291"><ele>372.8571428571429</ele><time>2026-04-12T09:10:48Z</time></trkpt><trkpt lat="44.58024839069832" lon="10.435292283826188"><ele>374.57142857142856</ele><time>2026-04-12T09:10:49Z</time></trkpt><trkpt lat="44.580200459880366" lon="10.435219138423296"><ele>376.2857142857143</ele><time>2026-04-12T09:10:50Z</time></trkpt><trkpt lat="44.58013571735875" lon="10.435162742938415"><ele>378.0</ele><time>2026-04-12T09:10:51Z</time></trkpt><trkpt lat="44.58006387522852" lon="10.43508952159374"><ele>378.79999999999995</ele><time>2026-04-12T09:10:52Z</time></trkpt><trkpt lat="44.57998940057719" lon="10.435016742801805"><ele>379.6</ele><time>2026-04-12T09:10:53Z</time></trkpt><trkpt lat="44.57991674024051" lon="10.43496013286233"><ele>380.4</ele><time>2026-04-12T09:10:54Z</time></trkpt><trkpt lat="44.579846066035564" lon="10.434923047836671"><ele>381.20000000000005</ele><time>2026-04-12T09:10:55Z</time></trkpt><trkpt lat="44.579771262334525" lon="10.434835846604004"><ele>382.0</ele><time>2026-04-12T09:10:57Z</time></trkpt><trkpt lat="44.57967147842502" lon="10.434763777045921"><ele>382.0</ele><time>2026-04-12T09:10:59Z</time></trkpt><trkpt lat="44.579622000328456" lon="10.434700807238007"><ele>382.0</ele><time>2026-04-12T09:11:00Z</time></trkpt><trkpt lat="44.579585378526396" lon="10.434590342861423"><ele>382.0</ele><time>2026-04-12T09:11:01Z</time></trkpt><trkpt lat="44.57954371219296" lon="10.434462933769813"><ele>382.0</ele><time>2026-04-12T09:11:02Z</time></trkpt><trkpt lat="44.579470436887526" lon="10.434357267270984"><ele>382.0</ele><time>2026-04-12T09:11:03Z</time></trkpt><trkpt lat="44.57937279510643" lon="10.434268944652336"><ele>387.75</ele><time>2026-04-12T09:11:04Z</time></trkpt><trkpt lat="44.57925891932871" lon="10.434176553886875"><ele>393.5</ele><time>2026-04-12T09:11:05Z</time></trkpt><trkpt lat="44.57914650140379" lon="10.434071891873167"><ele>399.25</ele><time>2026-04-12T09:11:06Z</time></trkpt><trkpt lat="44.57903840658012" lon="10.433971274354933"><ele>405.0</ele><time>2026-04-12T09:11:06.999Z</time></trkpt><trkpt lat="44.57891595328797" lon="10.433864828306378"><ele>406.25</ele><time>2026-04-12T09:11:07.999Z</time></trkpt><trkpt lat="44.578805889723874" lon="10.43375925522358"><ele>407.5</ele><time>2026-04-12T09:11:08.999Z</time></trkpt><trkpt lat="44.57872545688011" lon="10.433654932862332"><ele>408.75</ele><time>2026-04-12T09:11:09.999Z</time></trkpt><trkpt lat="44.57864267571395" lon="10.433548923438467"><ele>410.0</ele><time>2026-04-12T09:11:10.999Z</time></trkpt><trkpt lat="44.578555834605474" lon="10.433456319635322"><ele>412.66666666666663</ele><time>2026-04-12T09:11:11.999Z</time></trkpt><trkpt lat="44.578479420604516" lon="10.433379995448893"><ele>415.3333333333333</ele><time>2026-04-12T09:11:12.999Z</time></trkpt><trkpt lat="44.57840078345335" lon="10.4333055604357"><ele>418.0</ele><time>2026-04-12T09:11:13.999Z</time></trkpt><trkpt lat="44.57831365034202" lon="10.43322000138547"><ele>420.66666666666663</ele><time>2026-04-12T09:11:14.999Z</time></trkpt><trkpt lat="44.57824095908468" lon="10.433153260596006"><ele>423.3333333333333</ele><time>2026-04-12T09:11:15.999Z</time></trkpt><trkpt lat="44.57818504681674" lon="10.433105724133366"><ele>426.0</ele><time>2026-04-12T09:11:16.999Z</time></trkpt><trkpt lat="44.57821351998638" lon="10.433014726222499"><ele>426.0</ele><time>2026-04-12T09:11:19.999Z</time></trkpt><trkpt lat="44.578232182019306" lon="10.432881755204075"><ele>426.0</ele><time>2026-04-12T09:11:52.999Z</time></trkpt><trkpt lat="44.57827486472733" lon="10.432784620034264"><ele>426.0</ele><time>2026-04-12T09:11:53.999Z</time></trkpt><trkpt lat="44.578322679381664" lon="10.432680153940177"><ele>426.0</ele><time>2026-04-12T09:11:54.999Z</time></trkpt><trkpt lat="44.578363777437666" lon="10.432586953187803"><ele>426.0</ele><time>2026-04-12T09:11:55.999Z</time></trkpt><trkpt lat="44.578405506221735" lon="10.432487736979942"><ele>426.0</ele><time>2026-04-12T09:11:57Z</time></trkpt><trkpt lat="44.57844976353172" lon="10.432374250479034"><ele>426.0</ele><time>2026-04-12T09:11:58Z</time></trkpt><trkpt lat="44.578507347532714" lon="10.432241264595788"><ele>426.0</ele><time>2026-04-12T09:11:59Z</time></trkpt><trkpt lat="44.578569815243426" lon="10.432105751331846"><ele>426.0</ele><time>2026-04-12T09:12:00Z</time></trkpt><trkpt lat="44.57862953947376" lon="10.431961546367129"><ele>426.0</ele><time>2026-04-12T09:12:01Z</time></trkpt><trkpt lat="44.57868005269408" lon="10.431811981094787"><ele>426.5</ele><time>2026-04-12T09:12:02Z</time></trkpt><trkpt lat="44.57874227665477" lon="10.431678805798995"><ele>427.0</ele><time>2026-04-12T09:12:03Z</time></trkpt><trkpt lat="44.57879707776179" lon="10.431526320362414"><ele>427.5</ele><time>2026-04-12T09:12:04Z</time></trkpt><trkpt lat="44.57883699072184" lon="10.431353350111081"><ele>428.0</ele><time>2026-04-12T09:12:05Z</time></trkpt><trkpt lat="44.57888185477717" lon="10.431200368618464"><ele>428.25</ele><time>2026-04-12T09:12:06Z</time></trkpt><trkpt lat="44.5789103138668" lon="10.431042173544128"><ele>428.5</ele><time>2026-04-12T09:12:07Z</time></trkpt><trkpt lat="44.57895917489293" lon="10.430893059445586"><ele>428.75</ele><time>2026-04-12T09:12:08Z</time></trkpt><trkpt lat="44.57898521582297" lon="10.430733546851956"><ele>429.0</ele><time>2026-04-12T09:12:09Z</time></trkpt><trkpt lat="44.579044024751276" lon="10.430576003633403"><ele>427.25</ele><time>2026-04-12T09:12:10Z</time></trkpt><trkpt lat="44.57911176606834" lon="10.430421444270369"><ele>425.5</ele><time>2026-04-12T09:12:11Z</time></trkpt><trkpt lat="44.57919848405212" lon="10.430273761637503"><ele>423.75</ele><time>2026-04-12T09:12:12Z</time></trkpt><trkpt lat="44.57929472152712" lon="10.430136336254566"><ele>422.0</ele><time>2026-04-12T09:12:13Z</time></trkpt><trkpt lat="44.579392962111164" lon="10.43000845436762"><ele>422.0</ele><time>2026-04-12T09:12:14Z</time></trkpt><trkpt lat="44.579485478775645" lon="10.429885492992112"><ele>422.0</ele><time>2026-04-12T09:12:15Z</time></trkpt><trkpt lat="44.57956134444885" lon="10.429766818330384"><ele>422.0</ele><time>2026-04-12T09:12:16Z</time></trkpt><trkpt lat="44.57962441573414" lon="10.429667828411025"><ele>422.0</ele><time>2026-04-12T09:12:17Z</time></trkpt><trkpt lat="44.57969969595823" lon="10.429585338852222"><ele>422.0</ele><time>2026-04-12T09:12:18Z</time></trkpt><trkpt lat="44.579704061204076" lon="10.429400347971873"><ele>422.6</ele><time>2026-04-12T09:12:19Z</time></trkpt><trkpt lat="44.57973276786628" lon="10.429235599795268"><ele>423.20000000000005</ele><time>2026-04-12T09:12:20Z</time></trkpt><trkpt lat="44.57977144129792" lon="10.429089329850695"><ele>423.8</ele><time>2026-04-12T09:12:21Z</time></trkpt><trkpt lat="44.57978962733102" lon="10.428942250042345"><ele>424.4</ele><time>2026-04-12T09:12:22Z</time></trkpt><trkpt lat="44.57978980633296" lon="10.428800948038635"><ele>425.0</ele><time>2026-04-12T09:12:23Z</time></trkpt><trkpt lat="44.57979120441795" lon="10.42866840645432"><ele>425.0</ele><time>2026-04-12T09:12:24Z</time></trkpt><trkpt lat="44.57980193398334" lon="10.428577982210655"><ele>425.0</ele><time>2026-04-12T09:12:25Z</time></trkpt><trkpt lat="44.57978090767948" lon="10.428453985572764"><ele>425.0</ele><time>2026-04-12T09:12:27Z</time></trkpt><trkpt lat="44.57970656392178" lon="10.428447187471281"><ele>425.0</ele><time>2026-04-12T09:12:28Z</time></trkpt><trkpt lat="44.57963357515769" lon="10.428688323050551"><ele>425.0</ele><time>2026-04-12T09:12:30Z</time></trkpt><trkpt lat="44.57959688147242" lon="10.42883182576675"><ele>425.0</ele><time>2026-04-12T09:12:31Z</time></trkpt><trkpt lat="44.57954632157707" lon="10.42897779151592"><ele>425.0</ele><time>2026-04-12T09:12:32Z</time></trkpt><trkpt lat="44.5794661905569" lon="10.42908816082639"><ele>425.0</ele><time>2026-04-12T09:12:33Z</time></trkpt><trkpt lat="44.579373442234655" lon="10.429142184914475"><ele>425.0</ele><time>2026-04-12T09:12:34Z</time></trkpt><trkpt lat="44.579269071437345" lon="10.42920393096691"><ele>425.0</ele><time>2026-04-12T09:12:35Z</time></trkpt><trkpt lat="44.57918318338928" lon="10.429301307541769"><ele>423.0</ele><time>2026-04-12T09:12:36Z</time></trkpt><trkpt lat="44.5790936805163" lon="10.429373744754175"><ele>421.0</ele><time>2026-04-12T09:12:37Z</time></trkpt><trkpt lat="44.5790090069224" lon="10.429452228183864"><ele>419.0</ele><time>2026-04-12T09:12:38Z</time></trkpt><trkpt lat="44.57892230752406" lon="10.429516932140174"><ele>417.0</ele><time>2026-04-12T09:12:39Z</time></trkpt><trkpt lat="44.578826193354345" lon="10.429550488368198"><ele>415.0</ele><time>2026-04-12T09:12:40Z</time></trkpt><trkpt lat="44.57873173699644" lon="10.429595871889665"><ele>413.0</ele><time>2026-04-12T09:12:41Z</time></trkpt><trkpt lat="44.57863154587203" lon="10.429641951535139"><ele>411.0</ele><time>2026-04-12T09:12:42Z</time></trkpt><trkpt lat="44.578532738161265" lon="10.429715478880789"><ele>409.0</ele><time>2026-04-12T09:12:43Z</time></trkpt><trkpt lat="44.57841355390263" lon="10.429775958616274"><ele>407.0</ele><time>2026-04-12T09:12:44Z</time></trkpt><trkpt lat="44.57829306291149" lon="10.429803848721134"><ele>407.0</ele><time>2026-04-12T09:12:45Z</time></trkpt><trkpt lat="44.57817623328124" lon="10.429847200116448"><ele>407.0</ele><time>2026-04-12T09:12:46Z</time></trkpt><trkpt lat="44.57805805750662" lon="10.429897244939404"><ele>407.0</ele><time>2026-04-12T09:12:47Z</time></trkpt><trkpt lat="44.57794664188617" lon="10.42997046865714"><ele>407.0</ele><time>2026-04-12T09:12:48Z</time></trkpt><trkpt lat="44.57784876040133" lon="10.430073203284607"><ele>404.6</ele><time>2026-04-12T09:12:49Z</time></trkpt><trkpt lat="44.577750291103804" lon="10.430149557015067"><ele>402.20000000000005</ele><time>2026-04-12T09:12:50Z</time></trkpt><trkpt lat="44.57765198630094" lon="10.430209269586063"><ele>399.8</ele><time>2026-04-12T09:12:51Z</time></trkpt><trkpt lat="44.57755221730376" lon="10.430258878418952"><ele>397.4</ele><time>2026-04-12T09:12:52Z</time></trkpt><trkpt lat="44.57746027559548" lon="10.43030921155348"><ele>395.0</ele><time>2026-04-12T09:12:53Z</time></trkpt><trkpt lat="44.577374769537606" lon="10.430379082004746"><ele>395.0</ele><time>2026-04-12T09:12:54Z</time></trkpt><trkpt lat="44.57729578846431" lon="10.430460082500495"><ele>395.0</ele><time>2026-04-12T09:12:55Z</time></trkpt><trkpt lat="44.577216828359816" lon="10.430530667645018"><ele>395.0</ele><time>2026-04-12T09:12:56Z</time></trkpt><trkpt lat="44.57717437161624" lon="10.430651569134701"><ele>395.0</ele><time>2026-04-12T09:12:57Z</time></trkpt><trkpt lat="44.577115441970705" lon="10.430749841858598"><ele>395.0</ele><time>2026-04-12T09:12:58Z</time></trkpt><trkpt lat="44.57708938994808" lon="10.430878450563934"><ele>394.2</ele><time>2026-04-12T09:12:59Z</time></trkpt><trkpt lat="44.57706229768239" lon="10.431004813237418"><ele>393.4</ele><time>2026-04-12T09:13:00Z</time></trkpt><trkpt lat="44.57702323615644" lon="10.431127511589713"><ele>392.6</ele><time>2026-04-12T09:13:01Z</time></trkpt><trkpt lat="44.577019839416764" lon="10.431254448072844"><ele>391.8</ele><time>2026-04-12T09:13:02Z</time></trkpt><trkpt lat="44.57699329928261" lon="10.431373250675813"><ele>391.0</ele><time>2026-04-12T09:13:03Z</time></trkpt><trkpt lat="44.57696045313367" lon="10.431493607648159"><ele>391.0</ele><time>2026-04-12T09:13:04Z</time></trkpt><trkpt lat="44.57690841159877" lon="10.431608357113383"><ele>391.0</ele><time>2026-04-12T09:13:05Z</time></trkpt><trkpt lat="44.57682428900327" lon="10.431695942746261"><ele>391.0</ele><time>2026-04-12T09:13:06Z</time></trkpt><trkpt lat="44.57671868937695" lon="10.431731456636058"><ele>391.0</ele><time>2026-04-12T09:13:07Z</time></trkpt><trkpt lat="44.57661453739157" lon="10.43169131163383"><ele>391.0</ele><time>2026-04-12T09:13:08Z</time></trkpt><trkpt lat="44.576513247744" lon="10.431650728315356"><ele>391.0</ele><time>2026-04-12T09:13:09Z</time></trkpt><trkpt lat="44.57642392200946" lon="10.43158300783663"><ele>391.0</ele><time>2026-04-12T09:13:10Z</time></trkpt><trkpt lat="44.576325494364546" lon="10.431556022590826"><ele>391.0</ele><time>2026-04-12T09:13:11Z</time></trkpt><trkpt lat="44.57622784465412" lon="10.431555342908146"><ele>391.0</ele><time>2026-04-12T09:13:11.999Z</time></trkpt><trkpt lat="44.5761289851414" lon="10.431558430847392"><ele>391.0</ele><time>2026-04-12T09:13:12.999Z</time></trkpt><trkpt lat="44.5760327058119" lon="10.431588270069987"><ele>390.1666666666667</ele><time>2026-04-12T09:13:13.999Z</time></trkpt><trkpt lat="44.57594238461113" lon="10.431623962232958"><ele>389.33333333333337</ele><time>2026-04-12T09:13:14.999Z</time></trkpt><trkpt lat="44.575862690911194" lon="10.431667422209646"><ele>388.5</ele><time>2026-04-12T09:13:15.999Z</time></trkpt><trkpt lat="44.575789294304315" lon="10.431718684784759"><ele>387.66666666666663</ele><time>2026-04-12T09:13:16.999Z</time></trkpt><trkpt lat="44.57571857904403" lon="10.43177631686494"><ele>386.8333333333333</ele><time>2026-04-12T09:13:17.999Z</time></trkpt><trkpt lat="44.57565229098575" lon="10.431833968911901"><ele>386.0</ele><time>2026-04-12T09:13:18.999Z</time></trkpt><trkpt lat="44.57558673942281" lon="10.431893429359677"><ele>385.99999999999994</ele><time>2026-04-12T09:13:19.999Z</time></trkpt><trkpt lat="44.57553062510402" lon="10.43197524464757"><ele>386.0</ele><time>2026-04-12T09:13:20.999Z</time></trkpt><trkpt lat="44.575457644295405" lon="10.431956358415732"><ele>386.0</ele><time>2026-04-12T09:13:21.999Z</time></trkpt><trkpt lat="44.57537453833173" lon="10.431949308347331"><ele>386.0</ele><time>2026-04-12T09:13:22.999Z</time></trkpt><trkpt lat="44.57529051805343" lon="10.431955535540787"><ele>385.99999999999994</ele><time>2026-04-12T09:13:23.999Z</time></trkpt><trkpt lat="44.57522533109174" lon="10.431965829777365"><ele>386.0</ele><time>2026-04-12T09:13:24.999Z</time></trkpt><trkpt lat="44.57515837534126" lon="10.431978767719151"><ele>384.99999999999994</ele><time>2026-04-12T09:13:25.999Z</time></trkpt><trkpt lat="44.575099967792084" lon="10.431906756471225"><ele>384.0</ele><time>2026-04-12T09:13:26.999Z</time></trkpt><trkpt lat="44.575033124030455" lon="10.431849635352709"><ele>383.0</ele><time>2026-04-12T09:13:27.999Z</time></trkpt><trkpt lat="44.574961798278956" lon="10.431788684127923"><ele>382.0</ele><time>2026-04-12T09:13:28.999Z</time></trkpt><trkpt lat="44.57489310346468" lon="10.431729981169058"><ele>381.0</ele><time>2026-04-12T09:13:29.999Z</time></trkpt><trkpt lat="44.57481643966253" lon="10.431679224053804"><ele>380.0</ele><time>2026-04-12T09:13:30.999Z</time></trkpt><trkpt lat="44.574745477922896" lon="10.431607835729984"><ele>380.0</ele><time>2026-04-12T09:13:31.999Z</time></trkpt><trkpt lat="44.57467493131902" lon="10.431538442008266"><ele>380.0</ele><time>2026-04-12T09:13:32.999Z</time></trkpt><trkpt lat="44.574599597659095" lon="10.431467850607502"><ele>380.0</ele><time>2026-04-12T09:13:33.999Z</time></trkpt><trkpt lat="44.574523960769035" lon="10.431400076759825"><ele>380.0</ele><time>2026-04-12T09:13:34.999Z</time></trkpt><trkpt lat="44.574446143933514" lon="10.431341392342242"><ele>380.0</ele><time>2026-04-12T09:13:35.999Z</time></trkpt><trkpt lat="44.57436250828637" lon="10.431296518965624"><ele>380.0</ele><time>2026-04-12T09:13:36.999Z</time></trkpt><trkpt lat="44.57425685451218" lon="10.43126407677603"><ele>376.25</ele><time>2026-04-12T09:13:37.999Z</time></trkpt><trkpt lat="44.574153530324296" lon="10.431221911645233"><ele>372.5</ele><time>2026-04-12T09:13:38.999Z</time></trkpt><trkpt lat="44.57405091732293" lon="10.43114898539511"><ele>368.75</ele><time>2026-04-12T09:13:39.999Z</time></trkpt><trkpt lat="44.57395570871846" lon="10.431057458699732"><ele>365.0</ele><time>2026-04-12T09:13:40.999Z</time></trkpt><trkpt lat="44.57385998094155" lon="10.430973795656598"><ele>365.0</ele><time>2026-04-12T09:13:41.999Z</time></trkpt><trkpt lat="44.57376842423891" lon="10.430888074660768"><ele>365.0</ele><time>2026-04-12T09:13:42.999Z</time></trkpt><trkpt lat="44.57368437879376" lon="10.430795737568026"><ele>365.0</ele><time>2026-04-12T09:13:43.999Z</time></trkpt><trkpt lat="44.573612177751" lon="10.430702699317674"><ele>365.0</ele><time>2026-04-12T09:13:44.999Z</time></trkpt><trkpt lat="44.57354606095506" lon="10.430583578240299"><ele>365.0</ele><time>2026-04-12T09:13:45.999Z</time></trkpt><trkpt lat="44.57347508611806" lon="10.430453398707266"><ele>365.0</ele><time>2026-04-12T09:13:46.999Z</time></trkpt><trkpt lat="44.57340171964685" lon="10.430332140493139"><ele>365.0</ele><time>2026-04-12T09:13:47.999Z</time></trkpt><trkpt lat="44.57334163577685" lon="10.430215925831288"><ele>365.0</ele><time>2026-04-12T09:13:48.999Z</time></trkpt><trkpt lat="44.57327137435097" lon="10.430106974094585"><ele>365.0</ele><time>2026-04-12T09:13:49.999Z</time></trkpt><trkpt lat="44.57320967841583" lon="10.430021694492853"><ele>365.0</ele><time>2026-04-12T09:13:50.999Z</time></trkpt><trkpt lat="44.57316399747748" lon="10.429925796825218"><ele>365.0</ele><time>2026-04-12T09:13:51.999Z</time></trkpt><trkpt lat="44.57314921072235" lon="10.429833542923992"><ele>365.0</ele><time>2026-04-12T09:13:52.999Z</time></trkpt><trkpt lat="44.573162177719276" lon="10.429736660642885"><ele>365.0</ele><time>2026-04-12T09:13:53.999Z</time></trkpt><trkpt lat="44.573192659706386" lon="10.429620054779232"><ele>365.0</ele><time>2026-04-12T09:13:54.999Z</time></trkpt><trkpt lat="44.5732234613034" lon="10.429482514723624"><ele>365.0</ele><time>2026-04-12T09:13:55.999Z</time></trkpt><trkpt lat="44.57326187542853" lon="10.429342468886684"><ele>365.0</ele><time>2026-04-12T09:13:56.999Z</time></trkpt><trkpt lat="44.57329924138846" lon="10.429208688890748"><ele>362.6</ele><time>2026-04-12T09:13:57.999Z</time></trkpt><trkpt lat="44.57333075177548" lon="10.429071411182347"><ele>360.2</ele><time>2026-04-12T09:13:58.999Z</time></trkpt><trkpt lat="44.57334962494827" lon="10.42893651627528"><ele>357.79999999999995</ele><time>2026-04-12T09:13:59.999Z</time></trkpt><trkpt lat="44.573371575576225" lon="10.4288089998356"><ele>355.4</ele><time>2026-04-12T09:14:00.999Z</time></trkpt><trkpt lat="44.57340931324596" lon="10.428703300326982"><ele>353.0</ele><time>2026-04-12T09:14:01.999Z</time></trkpt><trkpt lat="44.573447692535446" lon="10.428597707482941"><ele>351.0</ele><time>2026-04-12T09:14:03Z</time></trkpt><trkpt lat="44.57348396052948" lon="10.428485293407823"><ele>349.0</ele><time>2026-04-12T09:14:04Z</time></trkpt><trkpt lat="44.57350378812859" lon="10.428392859600583"><ele>347.0</ele><time>2026-04-12T09:14:05Z</time></trkpt><trkpt lat="44.57350780039651" lon="10.428292135286696"><ele>345.0</ele><time>2026-04-12T09:14:06Z</time></trkpt><trkpt lat="44.5734894443533" lon="10.428202868771697"><ele>343.0</ele><time>2026-04-12T09:14:07Z</time></trkpt><trkpt lat="44.573445758072" lon="10.428111915982713"><ele>341.0</ele><time>2026-04-12T09:14:08Z</time></trkpt><trkpt lat="44.573385785250636" lon="10.428011909492273"><ele>339.1666666666667</ele><time>2026-04-12T09:14:09Z</time></trkpt><trkpt lat="44.573329889085976" lon="10.42793271695427"><ele>337.33333333333337</ele><time>2026-04-12T09:14:10Z</time></trkpt><trkpt lat="44.5732851482432" lon="10.42786164825119"><ele>335.5</ele><time>2026-04-12T09:14:11Z</time></trkpt><trkpt lat="44.57320976390476" lon="10.427715947745412"><ele>333.6666666666667</ele><time>2026-04-12T09:14:13Z</time></trkpt><trkpt lat="44.57316611939874" lon="10.427648409526565"><ele>331.8333333333333</ele><time>2026-04-12T09:14:14Z</time></trkpt><trkpt lat="44.573112556446524" lon="10.427573869594115"><ele>330.0</ele><time>2026-04-12T09:14:15Z</time></trkpt><trkpt lat="44.573052948329114" lon="10.427534178343048"><ele>330.0</ele><time>2026-04-12T09:14:16Z</time></trkpt><trkpt lat="44.57298406351976" lon="10.427542729999109"><ele>330.0</ele><time>2026-04-12T09:14:17Z</time></trkpt><trkpt lat="44.57291316643566" lon="10.427571491927953"><ele>330.0</ele><time>2026-04-12T09:14:18Z</time></trkpt><trkpt lat="44.57285001977981" lon="10.427586216452848"><ele>330.0</ele><time>2026-04-12T09:14:19Z</time></trkpt><trkpt lat="44.57277207605546" lon="10.427611753797445"><ele>330.0</ele><time>2026-04-12T09:14:20Z</time></trkpt><trkpt lat="44.5727212961752" lon="10.427692679092466"><ele>330.0</ele><time>2026-04-12T09:14:21Z</time></trkpt><trkpt lat="44.57269471411459" lon="10.427813667545944"><ele>328.6666666666667</ele><time>2026-04-12T09:14:23Z</time></trkpt><trkpt lat="44.57259880734328" lon="10.42787489687059"><ele>327.3333333333333</ele><time>2026-04-12T09:14:25Z</time></trkpt><trkpt lat="44.57254242792731" lon="10.427914534911276"><ele>326.0</ele><time>2026-04-12T09:14:26Z</time></trkpt><trkpt lat="44.572498280683426" lon="10.427982768375252"><ele>324.66666666666663</ele><time>2026-04-12T09:14:27Z</time></trkpt><trkpt lat="44.57247351441444" lon="10.428069389247566"><ele>323.3333333333333</ele><time>2026-04-12T09:14:28Z</time></trkpt><trkpt lat="44.572407051092334" lon="10.428160190557414"><ele>322.0</ele><time>2026-04-12T09:14:30Z</time></trkpt><trkpt lat="44.572321882011856" lon="10.428135845192644"><ele>322.0</ele><time>2026-04-12T09:14:33Z</time></trkpt><trkpt lat="44.572227002442446" lon="10.428171690858017"><ele>322.0</ele><time>2026-04-12T09:14:34Z</time></trkpt><trkpt lat="44.5721317879342" lon="10.42818621286523"><ele>322.0</ele><time>2026-04-12T09:14:36Z</time></trkpt><trkpt lat="44.572041950774526" lon="10.42819328761892"><ele>322.0</ele><time>2026-04-12T09:14:38Z</time></trkpt><trkpt lat="44.57194141745042" lon="10.428214911276333"><ele>322.0</ele><time>2026-04-12T09:14:40Z</time></trkpt><trkpt lat="44.57187264159999" lon="10.428210907022589"><ele>317.20000000000005</ele><time>2026-04-12T09:14:43Z</time></trkpt><trkpt lat="44.571805978930996" lon="10.428233231733032"><ele>312.40000000000003</ele><time>2026-04-12T09:14:45Z</time></trkpt><trkpt lat="44.57161285334451" lon="10.428225638686909"><ele>307.6</ele><time>2026-04-12T09:14:46Z</time></trkpt><trkpt lat="44.57156751438861" lon="10.428324996833844"><ele>302.8</ele><time>2026-04-12T09:14:48Z</time></trkpt><trkpt lat="44.57153599226589" lon="10.428461652251315"><ele>298.0</ele><time>2026-04-12T09:14:50Z</time></trkpt><trkpt lat="44.57150812796982" lon="10.428586935997123"><ele>298.0</ele><time>2026-04-12T09:14:51Z</time></trkpt><trkpt lat="44.5714775399055" lon="10.428678098943527"><ele>298.0</ele><time>2026-04-12T09:14:52Z</time></trkpt><trkpt lat="44.57140016410576" lon="10.428771326384783"><ele>298.0</ele><time>2026-04-12T09:14:53Z</time></trkpt><trkpt lat="44.57135402770064" lon="10.428842672860535"><ele>298.0</ele><time>2026-04-12T09:14:54Z</time></trkpt><trkpt lat="44.57129606938142" lon="10.428957796597448"><ele>298.0</ele><time>2026-04-12T09:14:56Z</time></trkpt><trkpt lat="44.57119876534392" lon="10.429126535640451"><ele>298.66666666666663</ele><time>2026-04-12T09:14:58Z</time></trkpt><trkpt lat="44.5711260762758" lon="10.42916717494834"><ele>299.3333333333333</ele><time>2026-04-12T09:14:59Z</time></trkpt><trkpt lat="44.571033483724655" lon="10.42920775037878"><ele>300.0</ele><time>2026-04-12T09:15:01Z</time></trkpt><trkpt lat="44.57097198072812" lon="10.429184761022958"><ele>300.6666666666667</ele><time>2026-04-12T09:15:28.999Z</time></trkpt><trkpt lat="44.57089103171822" lon="10.429245255185126"><ele>301.33333333333337</ele><time>2026-04-12T09:15:32.999Z</time></trkpt><trkpt lat="44.57080760156093" lon="10.429322170666584"><ele>302.0</ele><time>2026-04-12T09:15:34.999Z</time></trkpt><trkpt lat="44.57073158265915" lon="10.429424450106263"><ele>302.0</ele><time>2026-04-12T09:15:36.999Z</time></trkpt><trkpt lat="44.570667989399155" lon="10.429416422192018"><ele>302.0</ele><time>2026-04-12T09:15:37.999Z</time></trkpt><trkpt lat="44.57053404149282" lon="10.429477330007654"><ele>302.0</ele><time>2026-04-12T09:15:39.999Z</time></trkpt><trkpt lat="44.570422624439146" lon="10.42949115850284"><ele>302.0</ele><time>2026-04-12T09:15:40.999Z</time></trkpt><trkpt lat="44.570331841336404" lon="10.429480668783231"><ele>302.0</ele><time>2026-04-12T09:15:41.999Z</time></trkpt><trkpt lat="44.57020934326345" lon="10.429497178989475"><ele>304.1666666666667</ele><time>2026-04-12T09:15:43.999Z</time></trkpt><trkpt lat="44.57014235501506" lon="10.429554814646197"><ele>306.33333333333337</ele><time>2026-04-12T09:15:44.999Z</time></trkpt><trkpt lat="44.570047998022254" lon="10.429551233807748"><ele>308.5</ele><time>2026-04-12T09:15:46.999Z</time></trkpt><trkpt lat="44.569987640688" lon="10.429490460909829"><ele>310.6666666666667</ele><time>2026-04-12T09:15:47.999Z</time></trkpt><trkpt lat="44.56991143002635" lon="10.429404753481812"><ele>312.8333333333333</ele><time>2026-04-12T09:15:48.999Z</time></trkpt><trkpt lat="44.569852175527835" lon="10.429313586490023"><ele>315.0</ele><time>2026-04-12T09:15:49.999Z</time></trkpt><trkpt lat="44.56980216028778" lon="10.429210567520508"><ele>315.0</ele><time>2026-04-12T09:15:50.999Z</time></trkpt><trkpt lat="44.569766959096086" lon="10.429120666120225"><ele>315.0</ele><time>2026-04-12T09:15:51.999Z</time></trkpt><trkpt lat="44.56979469013941" lon="10.42898164319595"><ele>315.0</ele><time>2026-04-12T09:15:53.999Z</time></trkpt><trkpt lat="44.56984276116657" lon="10.42890361355969"><ele>315.0</ele><time>2026-04-12T09:15:54.999Z</time></trkpt><trkpt lat="44.569909600318844" lon="10.428809444087637"><ele>315.0</ele><time>2026-04-12T09:15:55.999Z</time></trkpt><trkpt lat="44.569977708253056" lon="10.428704444664534"><ele>315.0</ele><time>2026-04-12T09:15:56.999Z</time></trkpt><trkpt lat="44.57005475845654" lon="10.428613191784864"><ele>318.0</ele><time>2026-04-12T09:15:57.999Z</time></trkpt><trkpt lat="44.57011122716115" lon="10.428522435376104"><ele>321.0</ele><time>2026-04-12T09:15:58.999Z</time></trkpt><trkpt lat="44.57016279176901" lon="10.428414038773104"><ele>324.0</ele><time>2026-04-12T09:15:59.999Z</time></trkpt><trkpt lat="44.57017831653963" lon="10.428316186582007"><ele>327.0</ele><time>2026-04-12T09:16:00.999Z</time></trkpt><trkpt lat="44.57011546430405" lon="10.428163643162906"><ele>330.0</ele><time>2026-04-12T09:16:02.999Z</time></trkpt><trkpt lat="44.570065075552726" lon="10.428080811628458"><ele>330.0</ele><time>2026-04-12T09:16:03.999Z</time></trkpt><trkpt lat="44.570006261558" lon="10.428044149652793"><ele>330.0</ele><time>2026-04-12T09:16:04.999Z</time></trkpt><trkpt lat="44.56994499603802" lon="10.428014948369919"><ele>330.0</ele><time>2026-04-12T09:16:05.999Z</time></trkpt><trkpt lat="44.56992745201044" lon="10.427856254141206"><ele>330.0</ele><time>2026-04-12T09:16:07.999Z</time></trkpt><trkpt lat="44.56992688798551" lon="10.427736276713464"><ele>330.0</ele><time>2026-04-12T09:16:09Z</time></trkpt><trkpt lat="44.56984455796748" lon="10.427625453003817"><ele>330.0</ele><time>2026-04-12T09:16:11Z</time></trkpt><trkpt lat="44.56976574514674" lon="10.427623782985709"><ele>330.8</ele><time>2026-04-12T09:16:12Z</time></trkpt><trkpt lat="44.56967973859727" lon="10.427566087696169"><ele>331.6</ele><time>2026-04-12T09:16:13Z</time></trkpt><trkpt lat="44.56960328271708" lon="10.427497896089795"><ele>332.4</ele><time>2026-04-12T09:16:14Z</time></trkpt><trkpt lat="44.56948217503707" lon="10.427496500959474"><ele>333.2</ele><time>2026-04-12T09:16:16Z</time></trkpt><trkpt lat="44.56938120075004" lon="10.427488460067252"><ele>334.0</ele><time>2026-04-12T09:16:17Z</time></trkpt><trkpt lat="44.569284989028056" lon="10.427479591345092"><ele>337.3333333333333</ele><time>2026-04-12T09:16:18Z</time></trkpt><trkpt lat="44.569214515304694" lon="10.427483052355338"><ele>340.66666666666663</ele><time>2026-04-12T09:16:19Z</time></trkpt><trkpt lat="44.56915504955466" lon="10.427523855338956"><ele>344.0</ele><time>2026-04-12T09:16:20Z</time></trkpt><trkpt lat="44.569084153123484" lon="10.427594629622405"><ele>347.3333333333333</ele><time>2026-04-12T09:16:21Z</time></trkpt><trkpt lat="44.56900427001801" lon="10.427641054505937"><ele>350.6666666666667</ele><time>2026-04-12T09:16:22Z</time></trkpt><trkpt lat="44.56891227665205" lon="10.427623997124869"><ele>354.0</ele><time>2026-04-12T09:16:23Z</time></trkpt><trkpt lat="44.56878486838345" lon="10.427612886918377"><ele>357.4</ele><time>2026-04-12T09:16:24Z</time></trkpt><trkpt lat="44.568657650058555" lon="10.427616503116688"><ele>360.79999999999995</ele><time>2026-04-12T09:16:25Z</time></trkpt><trkpt lat="44.56855797375563" lon="10.427607875630589"><ele>364.20000000000005</ele><time>2026-04-12T09:16:26Z</time></trkpt><trkpt lat="44.5684995275792" lon="10.427552999384485"><ele>367.6</ele><time>2026-04-12T09:16:27Z</time></trkpt><trkpt lat="44.56843648389124" lon="10.427536665130505"><ele>371.0</ele><time>2026-04-12T09:16:28Z</time></trkpt><trkpt lat="44.56833810527973" lon="10.427594618494966"><ele>371.0</ele><time>2026-04-12T09:16:30Z</time></trkpt><trkpt lat="44.56820265958487" lon="10.427630798528632"><ele>371.0</ele><time>2026-04-12T09:16:32Z</time></trkpt><trkpt lat="44.56812597694111" lon="10.427651137134754"><ele>371.0</ele><time>2026-04-12T09:16:33Z</time></trkpt><trkpt lat="44.56802820408124" lon="10.427558313907522"><ele>371.0</ele><time>2026-04-12T09:16:35Z</time></trkpt><trkpt lat="44.567962416011945" lon="10.427509481951672"><ele>371.0</ele><time>2026-04-12T09:16:36Z</time></trkpt><trkpt lat="44.567884909863004" lon="10.427424560576421"><ele>373.5</ele><time>2026-04-12T09:16:37Z</time></trkpt><trkpt lat="44.56781203994226" lon="10.42736213386051"><ele>376.0</ele><time>2026-04-12T09:16:38Z</time></trkpt><trkpt lat="44.56773666785793" lon="10.4273195327518"><ele>378.5</ele><time>2026-04-12T09:16:39Z</time></trkpt><trkpt lat="44.567645443210296" lon="10.42726792080096"><ele>381.0</ele><time>2026-04-12T09:16:40Z</time></trkpt><trkpt lat="44.56759345905835" lon="10.427209434686663"><ele>383.49999999999994</ele><time>2026-04-12T09:16:41Z</time></trkpt><trkpt lat="44.56748760731804" lon="10.427160760455905"><ele>386.0</ele><time>2026-04-12T09:16:43Z</time></trkpt><trkpt lat="44.56741644965055" lon="10.427115415126906"><ele>387.3333333333333</ele><time>2026-04-12T09:16:44Z</time></trkpt><trkpt lat="44.56737201289868" lon="10.427044567497846"><ele>388.66666666666663</ele><time>2026-04-12T09:16:45Z</time></trkpt><trkpt lat="44.56731334284442" lon="10.426956654156484"><ele>390.0</ele><time>2026-04-12T09:16:46Z</time></trkpt><trkpt lat="44.56726123546394" lon="10.426895317075031"><ele>391.33333333333337</ele><time>2026-04-12T09:16:47Z</time></trkpt><trkpt lat="44.5672870737914" lon="10.426802001956563"><ele>392.6666666666667</ele><time>2026-04-12T09:16:50Z</time></trkpt><trkpt lat="44.56724252609281" lon="10.426709489279412"><ele>394.0</ele><time>2026-04-12T09:18:00.999Z</time></trkpt><trkpt lat="44.567173768689116" lon="10.426598983947018"><ele>394.0</ele><time>2026-04-12T09:18:01.999Z</time></trkpt><trkpt lat="44.56707527975258" lon="10.426462806121265"><ele>394.0</ele><time>2026-04-12T09:18:02.999Z</time></trkpt><trkpt lat="44.56697005017986" lon="10.42629223598384"><ele>394.0</ele><time>2026-04-12T09:18:03.999Z</time></trkpt><trkpt lat="44.566866688017065" lon="10.426133778107538"><ele>396.0</ele><time>2026-04-12T09:18:04.999Z</time></trkpt><trkpt lat="44.56677501357726" lon="10.426012576709045"><ele>398.0</ele><time>2026-04-12T09:18:05.999Z</time></trkpt><trkpt lat="44.566681891915906" lon="10.425955150319002"><ele>400.0</ele><time>2026-04-12T09:18:06.999Z</time></trkpt><trkpt lat="44.56661494282994" lon="10.425877235047306"><ele>402.0</ele><time>2026-04-12T09:18:07.999Z</time></trkpt><trkpt lat="44.56658991335554" lon="10.425783320183609"><ele>404.0</ele><time>2026-04-12T09:18:08.999Z</time></trkpt><trkpt lat="44.566569879624005" lon="10.425623588142464"><ele>404.0</ele><time>2026-04-12T09:18:09.999Z</time></trkpt><trkpt lat="44.56654162222692" lon="10.42550531294791"><ele>404.0</ele><time>2026-04-12T09:18:10.999Z</time></trkpt><trkpt lat="44.56649411691919" lon="10.42538819988559"><ele>404.0</ele><time>2026-04-12T09:18:11.999Z</time></trkpt><trkpt lat="44.56645776988347" lon="10.425218905735711"><ele>404.0</ele><time>2026-04-12T09:18:12.999Z</time></trkpt><trkpt lat="44.56642524715455" lon="10.425016535059155"><ele>403.75</ele><time>2026-04-12T09:18:13.999Z</time></trkpt><trkpt lat="44.56641994869626" lon="10.424882592011015"><ele>403.5</ele><time>2026-04-12T09:18:15Z</time></trkpt><trkpt lat="44.566437193249456" lon="10.424778323192113"><ele>403.25</ele><time>2026-04-12T09:18:16Z</time></trkpt><trkpt lat="44.56649926889256" lon="10.424627477803762"><ele>403.0</ele><time>2026-04-12T09:18:17Z</time></trkpt><trkpt lat="44.566565727696556" lon="10.424398356092642"><ele>403.5</ele><time>2026-04-12T09:18:18Z</time></trkpt><trkpt lat="44.5666114405544" lon="10.424189927000773"><ele>404.0</ele><time>2026-04-12T09:18:19Z</time></trkpt><trkpt lat="44.5666479895079" lon="10.423980048383974"><ele>404.5</ele><time>2026-04-12T09:18:20Z</time></trkpt><trkpt lat="44.566683387031695" lon="10.423794398629962"><ele>405.0</ele><time>2026-04-12T09:18:21Z</time></trkpt><trkpt lat="44.56671093082239" lon="10.423661783423903"><ele>405.0</ele><time>2026-04-12T09:18:22Z</time></trkpt><trkpt lat="44.56674051408192" lon="10.423573089432352"><ele>405.0</ele><time>2026-04-12T09:18:23Z</time></trkpt><trkpt lat="44.5667810137489" lon="10.423471649188361"><ele>405.0</ele><time>2026-04-12T09:18:24Z</time></trkpt><trkpt lat="44.56681326723636" lon="10.423366755123563"><ele>405.0</ele><time>2026-04-12T09:18:25Z</time></trkpt><trkpt lat="44.566870172469244" lon="10.423279397793195"><ele>405.0</ele><time>2026-04-12T09:18:26Z</time></trkpt><trkpt lat="44.56695176437364" lon="10.423215986132313"><ele>405.0</ele><time>2026-04-12T09:18:27Z</time></trkpt><trkpt lat="44.56704032616364" lon="10.423156969965397"><ele>404.5</ele><time>2026-04-12T09:18:28Z</time></trkpt><trkpt lat="44.567113600169186" lon="10.423120268210678"><ele>404.0</ele><time>2026-04-12T09:18:29Z</time></trkpt><trkpt lat="44.56719006736797" lon="10.423079160234744"><ele>403.5</ele><time>2026-04-12T09:18:30Z</time></trkpt><trkpt lat="44.567252976480475" lon="10.423036152416824"><ele>403.0</ele><time>2026-04-12T09:18:31Z</time></trkpt><trkpt lat="44.567255549012934" lon="10.422885359763413"><ele>402.5</ele><time>2026-04-12T09:18:33Z</time></trkpt><trkpt lat="44.56728891982423" lon="10.422799478462386"><ele>402.0</ele><time>2026-04-12T09:18:34Z</time></trkpt><trkpt lat="44.56730340848185" lon="10.422700425316798"><ele>402.0</ele><time>2026-04-12T09:18:35Z</time></trkpt><trkpt lat="44.567319675997226" lon="10.422595879549162"><ele>402.0</ele><time>2026-04-12T09:18:36Z</time></trkpt><trkpt lat="44.56733646556689" lon="10.422505704289412"><ele>402.0</ele><time>2026-04-12T09:18:37Z</time></trkpt><trkpt lat="44.56736988376985" lon="10.422353471340665"><ele>402.0</ele><time>2026-04-12T09:18:39Z</time></trkpt><trkpt lat="44.567418799414384" lon="10.42219230050539"><ele>402.0</ele><time>2026-04-12T09:18:41Z</time></trkpt><trkpt lat="44.56747817008046" lon="10.4220347657906"><ele>402.5</ele><time>2026-04-12T09:18:43Z</time></trkpt><trkpt lat="44.56750840303822" lon="10.421956656597615"><ele>403.0</ele><time>2026-04-12T09:18:44Z</time></trkpt><trkpt lat="44.5675530305495" lon="10.42184200681802"><ele>403.5</ele><time>2026-04-12T09:18:46Z</time></trkpt><trkpt lat="44.56759895489845" lon="10.421727834632744"><ele>404.0</ele><time>2026-04-12T09:18:48Z</time></trkpt><trkpt lat="44.56763083120068" lon="10.421643572128456"><ele>404.5</ele><time>2026-04-12T09:18:49Z</time></trkpt><trkpt lat="44.5676693802191" lon="10.421508595704374"><ele>405.0</ele><time>2026-04-12T09:18:51Z</time></trkpt><trkpt lat="44.56764273211358" lon="10.421355062312582"><ele>405.1666666666667</ele><time>2026-04-12T09:18:53Z</time></trkpt><trkpt lat="44.56754606366251" lon="10.421298319374099"><ele>405.33333333333337</ele><time>2026-04-12T09:18:55Z</time></trkpt><trkpt lat="44.567488084850545" lon="10.421245315312762"><ele>405.5</ele><time>2026-04-12T09:18:58Z</time></trkpt><trkpt lat="44.567401809240536" lon="10.421174227866883"><ele>405.6666666666667</ele><time>2026-04-12T09:19:11Z</time></trkpt><trkpt lat="44.56733430781038" lon="10.421126154061625"><ele>405.83333333333337</ele><time>2026-04-12T09:19:12Z</time></trkpt><trkpt lat="44.56727026078311" lon="10.421064275007575"><ele>406.0</ele><time>2026-04-12T09:19:13Z</time></trkpt><trkpt lat="44.56720708925099" lon="10.421006640387974"><ele>406.00000000000006</ele><time>2026-04-12T09:19:14Z</time></trkpt><trkpt lat="44.567133611323676" lon="10.42094873675011"><ele>406.0</ele><time>2026-04-12T09:19:15Z</time></trkpt><trkpt lat="44.567066972590425" lon="10.420886340932011"><ele>406.0</ele><time>2026-04-12T09:19:16Z</time></trkpt><trkpt lat="44.56700932499544" lon="10.420809110368255"><ele>406.0</ele><time>2026-04-12T09:19:17Z</time></trkpt><trkpt lat="44.566965724953086" lon="10.420708526523969"><ele>406.00000000000006</ele><time>2026-04-12T09:19:18Z</time></trkpt><trkpt lat="44.566963048445" lon="10.420573251195501"><ele>406.0</ele><time>2026-04-12T09:19:19Z</time></trkpt><trkpt lat="44.56694917516827" lon="10.420442043984925"><ele>407.33333333333337</ele><time>2026-04-12T09:19:20Z</time></trkpt><trkpt lat="44.56694267349271" lon="10.420307629572509"><ele>408.6666666666667</ele><time>2026-04-12T09:19:21Z</time></trkpt><trkpt lat="44.56692793009462" lon="10.420176698227744"><ele>410.0</ele><time>2026-04-12T09:19:22Z</time></trkpt><trkpt lat="44.566931719763325" lon="10.420052223535322"><ele>411.33333333333337</ele><time>2026-04-12T09:19:23Z</time></trkpt><trkpt lat="44.566958232707975" lon="10.419933390745205"><ele>412.6666666666667</ele><time>2026-04-12T09:19:23.999Z</time></trkpt><trkpt lat="44.56698089139747" lon="10.419826266245797"><ele>414.0</ele><time>2026-04-12T09:19:24.999Z</time></trkpt><trkpt lat="44.56701238357298" lon="10.41973289459261"><ele>413.1666666666667</ele><time>2026-04-12T09:19:25.999Z</time></trkpt><trkpt lat="44.56705137052921" lon="10.419632937141136"><ele>412.33333333333337</ele><time>2026-04-12T09:19:26.999Z</time></trkpt><trkpt lat="44.56708193873959" lon="10.419536974262277"><ele>411.5</ele><time>2026-04-12T09:19:27.999Z</time></trkpt><trkpt lat="44.567087513709346" lon="10.41943761417904"><ele>410.6666666666667</ele><time>2026-04-12T09:19:28.999Z</time></trkpt><trkpt lat="44.56708357082307" lon="10.419270992261298"><ele>409.83333333333337</ele><time>2026-04-12T09:19:30.999Z</time></trkpt><trkpt lat="44.56704723125056" lon="10.419168553161247"><ele>409.0</ele><time>2026-04-12T09:19:32.999Z</time></trkpt><trkpt lat="44.56695525578207" lon="10.419131783855725"><ele>410.6666666666667</ele><time>2026-04-12T09:19:35.999Z</time></trkpt><trkpt lat="44.56686712106955" lon="10.419163320501124"><ele>412.33333333333337</ele><time>2026-04-12T09:19:37.999Z</time></trkpt><trkpt lat="44.5667949731414" lon="10.419182414888663"><ele>414.0</ele><time>2026-04-12T09:19:38.999Z</time></trkpt><trkpt lat="44.566719889174024" lon="10.419203236510167"><ele>415.66666666666663</ele><time>2026-04-12T09:19:39.999Z</time></trkpt><trkpt lat="44.5666447826258" lon="10.41921024614983"><ele>417.3333333333333</ele><time>2026-04-12T09:19:40.999Z</time></trkpt><trkpt lat="44.56656468851076" lon="10.41921058623656"><ele>419.0</ele><time>2026-04-12T09:19:41.999Z</time></trkpt><trkpt lat="44.566483599199664" lon="10.419206535813474"><ele>418.99999999999994</ele><time>2026-04-12T09:19:42.999Z</time></trkpt><trkpt lat="44.566405075432385" lon="10.419210872415489"><ele>419.0</ele><time>2026-04-12T09:19:43.999Z</time></trkpt><trkpt lat="44.56631645028367" lon="10.419212024541807"><ele>419.0</ele><time>2026-04-12T09:19:44.999Z</time></trkpt><trkpt lat="44.56622724921424" lon="10.419216527081792"><ele>419.0</ele><time>2026-04-12T09:19:45.999Z</time></trkpt><trkpt lat="44.56613848187748" lon="10.419225091631736"><ele>418.99999999999994</ele><time>2026-04-12T09:19:46.999Z</time></trkpt><trkpt lat="44.56604369321712" lon="10.41923006677893"><ele>419.0</ele><time>2026-04-12T09:19:47.999Z</time></trkpt><trkpt lat="44.5659411257368" lon="10.41923395017943"><ele>419.0</ele><time>2026-04-12T09:19:48.999Z</time></trkpt><trkpt lat="44.565834511825585" lon="10.419234051058162"><ele>419.0</ele><time>2026-04-12T09:19:49.999Z</time></trkpt><trkpt lat="44.5657222429978" lon="10.419240572722263"><ele>419.0</ele><time>2026-04-12T09:19:50.999Z</time></trkpt><trkpt lat="44.56560358780962" lon="10.419242408733796"><ele>419.0</ele><time>2026-04-12T09:19:51.999Z</time></trkpt><trkpt lat="44.565484544394266" lon="10.419251306267832"><ele>419.0</ele><time>2026-04-12T09:19:52.999Z</time></trkpt><trkpt lat="44.56536089707831" lon="10.419260111325867"><ele>419.0</ele><time>2026-04-12T09:19:53.999Z</time></trkpt><trkpt lat="44.5652296598917" lon="10.4192643279734"><ele>419.0</ele><time>2026-04-12T09:19:54.999Z</time></trkpt><trkpt lat="44.56509313471703" lon="10.419271242555178"><ele>419.0</ele><time>2026-04-12T09:19:55.999Z</time></trkpt><trkpt lat="44.56494935982493" lon="10.41930638236473"><ele>419.0</ele><time>2026-04-12T09:19:56.999Z</time></trkpt><trkpt lat="44.56480159803238" lon="10.419346816805975"><ele>419.0</ele><time>2026-04-12T09:19:57.999Z</time></trkpt><trkpt lat="44.56466015270906" lon="10.419396403983372"><ele>419.0</ele><time>2026-04-12T09:19:58.999Z</time></trkpt><trkpt lat="44.564522384192045" lon="10.4194462874395"><ele>419.0</ele><time>2026-04-12T09:19:59.999Z</time></trkpt><trkpt lat="44.56436730850012" lon="10.419500804320645"><ele>419.0</ele><time>2026-04-12T09:20:00.999Z</time></trkpt><trkpt lat="44.56420113133026" lon="10.419561828231751"><ele>419.0</ele><time>2026-04-12T09:20:01.999Z</time></trkpt><trkpt lat="44.56404890303636" lon="10.419609859518767"><ele>419.0</ele><time>2026-04-12T09:20:02.999Z</time></trkpt><trkpt lat="44.563910745027464" lon="10.419638733597354"><ele>419.0</ele><time>2026-04-12T09:20:03.999Z</time></trkpt><trkpt lat="44.5637708218394" lon="10.419642906620815"><ele>419.0</ele><time>2026-04-12T09:20:04.999Z</time></trkpt><trkpt lat="44.56363631533955" lon="10.419583183414165"><ele>419.0</ele><time>2026-04-12T09:20:05.999Z</time></trkpt><trkpt lat="44.563498528838764" lon="10.419538644319797"><ele>419.0</ele><time>2026-04-12T09:20:06.999Z</time></trkpt><trkpt lat="44.56335647764607" lon="10.41944611042461"><ele>420.3333333333333</ele><time>2026-04-12T09:20:07.999Z</time></trkpt><trkpt lat="44.563188707013104" lon="10.419360620198146"><ele>421.66666666666663</ele><time>2026-04-12T09:20:08.999Z</time></trkpt><trkpt lat="44.56303456326167" lon="10.419283014964751"><ele>423.0</ele><time>2026-04-12T09:20:09.999Z</time></trkpt><trkpt lat="44.5629032810949" lon="10.41922259377438"><ele>424.5</ele><time>2026-04-12T09:20:10.999Z</time></trkpt><trkpt lat="44.562777828116786" lon="10.419184596284444"><ele>426.0</ele><time>2026-04-12T09:20:11.999Z</time></trkpt><trkpt lat="44.56265385041388" lon="10.419157957293985"><ele>427.5</ele><time>2026-04-12T09:20:12.999Z</time></trkpt><trkpt lat="44.56253183884752" lon="10.41914312429955"><ele>429.0</ele><time>2026-04-12T09:20:13.999Z</time></trkpt><trkpt lat="44.56241344457134" lon="10.419147995545611"><ele>429.0</ele><time>2026-04-12T09:20:14.999Z</time></trkpt><trkpt lat="44.56228931621593" lon="10.419168733135583"><ele>429.0</ele><time>2026-04-12T09:20:15.999Z</time></trkpt><trkpt lat="44.56216329445079" lon="10.419210551045875"><ele>429.0</ele><time>2026-04-12T09:20:16.999Z</time></trkpt><trkpt lat="44.562034084598466" lon="10.41925645570841"><ele>429.0</ele><time>2026-04-12T09:20:17.999Z</time></trkpt><trkpt lat="44.5619063183217" lon="10.419300687834978"><ele>430.25</ele><time>2026-04-12T09:20:18.999Z</time></trkpt><trkpt lat="44.56178627238542" lon="10.419351578831245"><ele>431.5</ele><time>2026-04-12T09:20:20Z</time></trkpt><trkpt lat="44.56167148910597" lon="10.419417271124834"><ele>432.75</ele><time>2026-04-12T09:20:21Z</time></trkpt><trkpt lat="44.56156367722165" lon="10.419487700089874"><ele>434.0</ele><time>2026-04-12T09:20:22Z</time></trkpt><trkpt lat="44.561465522343575" lon="10.41955722798465"><ele>434.0</ele><time>2026-04-12T09:20:23Z</time></trkpt><trkpt lat="44.561365590541534" lon="10.41962124981472"><ele>434.0</ele><time>2026-04-12T09:20:24Z</time></trkpt><trkpt lat="44.56126764302235" lon="10.419684629715"><ele>434.0</ele><time>2026-04-12T09:20:25Z</time></trkpt><trkpt lat="44.561164778487324" lon="10.419756296990618"><ele>434.0</ele><time>2026-04-12T09:20:26Z</time></trkpt><trkpt lat="44.561057314575955" lon="10.419816017801026"><ele>434.0</ele><time>2026-04-12T09:20:27Z</time></trkpt><trkpt lat="44.560952510807" lon="10.41986115163592"><ele>435.0</ele><time>2026-04-12T09:20:28Z</time></trkpt><trkpt lat="44.560846858160915" lon="10.419875404117056"><ele>436.0</ele><time>2026-04-12T09:20:29Z</time></trkpt><trkpt lat="44.56073749921512" lon="10.419855863958908"><ele>437.0</ele><time>2026-04-12T09:20:30Z</time></trkpt><trkpt lat="44.56063471104451" lon="10.419813761827983"><ele>438.0</ele><time>2026-04-12T09:20:31Z</time></trkpt><trkpt lat="44.560541906697885" lon="10.419755105290795"><ele>439.0</ele><time>2026-04-12T09:20:32Z</time></trkpt><trkpt lat="44.56045451780561" lon="10.419686985671147"><ele>439.1666666666667</ele><time>2026-04-12T09:20:33Z</time></trkpt><trkpt lat="44.56037537577047" lon="10.419622445638257"><ele>439.33333333333337</ele><time>2026-04-12T09:20:34Z</time></trkpt><trkpt lat="44.56030559531239" lon="10.419565311898648"><ele>439.5</ele><time>2026-04-12T09:20:35Z</time></trkpt><trkpt lat="44.5602414739357" lon="10.419514041475884"><ele>439.66666666666663</ele><time>2026-04-12T09:20:36Z</time></trkpt><trkpt lat="44.56016534739585" lon="10.419417577367666"><ele>439.8333333333333</ele><time>2026-04-12T09:20:38Z</time></trkpt><trkpt lat="44.5602014823533" lon="10.419289379666484"><ele>440.0</ele><time>2026-04-12T09:20:40Z</time></trkpt><trkpt lat="44.56020671752943" lon="10.41918013385216"><ele>440.75</ele><time>2026-04-12T09:20:41Z</time></trkpt><trkpt lat="44.560203127989546" lon="10.419047647966869"><ele>441.5</ele><time>2026-04-12T09:20:42Z</time></trkpt><trkpt lat="44.56018487189759" lon="10.418895485852685"><ele>442.25</ele><time>2026-04-12T09:20:43Z</time></trkpt><trkpt lat="44.56013802372038" lon="10.418722674259485"><ele>443.0</ele><time>2026-04-12T09:20:44Z</time></trkpt><trkpt lat="44.56009106396976" lon="10.418575950403094"><ele>444.0</ele><time>2026-04-12T09:20:45Z</time></trkpt><trkpt lat="44.560062268691375" lon="10.41847092160578"><ele>444.99999999999994</ele><time>2026-04-12T09:20:46Z</time></trkpt><trkpt lat="44.56012068209519" lon="10.418356311216758"><ele>445.99999999999994</ele><time>2026-04-12T09:20:47Z</time></trkpt><trkpt lat="44.56014994837177" lon="10.418211827983818"><ele>447.0</ele><time>2026-04-12T09:20:48Z</time></trkpt><trkpt lat="44.56013454838705" lon="10.418045364595036"><ele>448.0</ele><time>2026-04-12T09:20:49Z</time></trkpt><trkpt lat="44.56011341561299" lon="10.417903341782544"><ele>449.79999999999995</ele><time>2026-04-12T09:20:50Z</time></trkpt><trkpt lat="44.56010303041591" lon="10.417767499978098"><ele>451.59999999999997</ele><time>2026-04-12T09:20:51Z</time></trkpt><trkpt lat="44.56008080045459" lon="10.41761367516573"><ele>453.40000000000003</ele><time>2026-04-12T09:20:52Z</time></trkpt><trkpt lat="44.560065280132974" lon="10.41747667265112"><ele>455.20000000000005</ele><time>2026-04-12T09:20:53Z</time></trkpt><trkpt lat="44.56006784630289" lon="10.417352269845198"><ele>457.0</ele><time>2026-04-12T09:20:54Z</time></trkpt><trkpt lat="44.56013447821891" lon="10.417302425063713"><ele>457.0</ele><time>2026-04-12T09:20:55Z</time></trkpt><trkpt lat="44.56020417206747" lon="10.41718798061876"><ele>457.00000000000006</ele><time>2026-04-12T09:20:56Z</time></trkpt><trkpt lat="44.56024746179667" lon="10.417065179457902"><ele>457.00000000000006</ele><time>2026-04-12T09:20:57Z</time></trkpt><trkpt lat="44.56022225072759" lon="10.416935427350774"><ele>457.0</ele><time>2026-04-12T09:20:58Z</time></trkpt><trkpt lat="44.56019463568974" lon="10.416797883291016"><ele>457.0</ele><time>2026-04-12T09:20:59Z</time></trkpt><trkpt lat="44.56015475389827" lon="10.416691279201537"><ele>457.83333333333337</ele><time>2026-04-12T09:21:00Z</time></trkpt><trkpt lat="44.56016485882337" lon="10.416592170845018"><ele>458.6666666666667</ele><time>2026-04-12T09:21:01Z</time></trkpt><trkpt lat="44.560164946693526" lon="10.4164931149343"><ele>459.5</ele><time>2026-04-12T09:21:04Z</time></trkpt><trkpt lat="44.56004902935368" lon="10.41648741091518"><ele>460.33333333333337</ele><time>2026-04-12T09:21:05Z</time></trkpt><trkpt lat="44.559987144191126" lon="10.416507232488547"><ele>461.1666666666667</ele><time>2026-04-12T09:21:06Z</time></trkpt><trkpt lat="44.55988127120159" lon="10.416528584885945"><ele>462.0</ele><time>2026-04-12T09:21:08Z</time></trkpt><trkpt lat="44.55979635583995" lon="10.416524711429133"><ele>462.0</ele><time>2026-04-12T09:21:09Z</time></trkpt><trkpt lat="44.559715765365475" lon="10.416517833765205"><ele>462.00000000000006</ele><time>2026-04-12T09:21:10Z</time></trkpt><trkpt lat="44.55963563834885" lon="10.416518732576009"><ele>462.00000000000006</ele><time>2026-04-12T09:21:11Z</time></trkpt><trkpt lat="44.55953721410909" lon="10.41651701683118"><ele>462.0</ele><time>2026-04-12T09:21:12Z</time></trkpt><trkpt lat="44.55941987302437" lon="10.416517830382366"><ele>462.0</ele><time>2026-04-12T09:21:13Z</time></trkpt><trkpt lat="44.5593150736887" lon="10.416526275533903"><ele>462.0</ele><time>2026-04-12T09:21:14Z</time></trkpt><trkpt lat="44.559222383087494" lon="10.416520810951093"><ele>462.0</ele><time>2026-04-12T09:21:15Z</time></trkpt><trkpt lat="44.55914098821232" lon="10.416515663865058"><ele>462.0</ele><time>2026-04-12T09:21:16Z</time></trkpt><trkpt lat="44.55906403857229" lon="10.41651162515808"><ele>462.0</ele><time>2026-04-12T09:21:17Z</time></trkpt><trkpt lat="44.55899450364163" lon="10.416510694648402"><ele>462.0</ele><time>2026-04-12T09:21:18Z</time></trkpt><trkpt lat="44.55889031060348" lon="10.416512836450124"><ele>462.0</ele><time>2026-04-12T09:21:20Z</time></trkpt><trkpt lat="44.55882550732883" lon="10.416471157649877"><ele>460.25</ele><time>2026-04-12T09:21:22Z</time></trkpt><trkpt lat="44.55882636858104" lon="10.416317256519857"><ele>458.5</ele><time>2026-04-12T09:21:24Z</time></trkpt><trkpt lat="44.558845916992304" lon="10.4161579443036"><ele>456.75</ele><time>2026-04-12T09:21:26Z</time></trkpt><trkpt lat="44.558864013093675" lon="10.416008592116706"><ele>455.0</ele><time>2026-04-12T09:21:27.999Z</time></trkpt><trkpt lat="44.558835347984086" lon="10.415838760439925"><ele>455.0</ele><time>2026-04-12T09:21:29.999Z</time></trkpt><trkpt lat="44.55879656676229" lon="10.415758205243433"><ele>455.0</ele><time>2026-04-12T09:21:30.999Z</time></trkpt><trkpt lat="44.558704634367345" lon="10.415688794733965"><ele>455.0</ele><time>2026-04-12T09:21:32.999Z</time></trkpt><trkpt lat="44.558600269116546" lon="10.415660737578321"><ele>455.0</ele><time>2026-04-12T09:21:34.999Z</time></trkpt><trkpt lat="44.558507965612826" lon="10.415536081001862"><ele>455.0</ele><time>2026-04-12T09:21:36.999Z</time></trkpt><trkpt lat="44.55845933298278" lon="10.415463467234824"><ele>452.2857142857143</ele><time>2026-04-12T09:21:37.999Z</time></trkpt><trkpt lat="44.558416700363104" lon="10.415376741079438"><ele>449.57142857142856</ele><time>2026-04-12T09:21:38.999Z</time></trkpt><trkpt lat="44.55837589706884" lon="10.415283760668617"><ele>446.8571428571429</ele><time>2026-04-12T09:21:39.999Z</time></trkpt><trkpt lat="44.55833604858086" lon="10.415195681309724"><ele>444.1428571428571</ele><time>2026-04-12T09:21:40.999Z</time></trkpt><trkpt lat="44.55830934735688" lon="10.415103115313816"><ele>441.42857142857144</ele><time>2026-04-12T09:21:41.999Z</time></trkpt><trkpt lat="44.5582919125181" lon="10.41500891605547"><ele>438.7142857142857</ele><time>2026-04-12T09:21:42.999Z</time></trkpt><trkpt lat="44.55826882078886" lon="10.414905902641925"><ele>436.0</ele><time>2026-04-12T09:21:43.999Z</time></trkpt><trkpt lat="44.558244332526094" lon="10.414818522789552"><ele>436.0</ele><time>2026-04-12T09:21:44.999Z</time></trkpt><trkpt lat="44.5582233167929" lon="10.414725885940141"><ele>436.0</ele><time>2026-04-12T09:21:45.999Z</time></trkpt><trkpt lat="44.55818778254042" lon="10.414566074794186"><ele>436.0</ele><time>2026-04-12T09:21:47.999Z</time></trkpt><trkpt lat="44.55811167157" lon="10.414473153644924"><ele>436.0</ele><time>2026-04-12T09:21:49.999Z</time></trkpt><trkpt lat="44.558082962663924" lon="10.414361854622944"><ele>436.0</ele><time>2026-04-12T09:21:51.999Z</time></trkpt><trkpt lat="44.55812277497946" lon="10.4142652176631"><ele>433.4</ele><time>2026-04-12T09:21:52.999Z</time></trkpt><trkpt lat="44.55815548018719" lon="10.414101202146444"><ele>430.8</ele><time>2026-04-12T09:21:54.999Z</time></trkpt><trkpt lat="44.55809634152972" lon="10.414070733455922"><ele>428.2</ele><time>2026-04-12T09:21:56.999Z</time></trkpt><trkpt lat="44.5580208767598" lon="10.414148070086917"><ele>425.59999999999997</ele><time>2026-04-12T09:21:59.999Z</time></trkpt><trkpt lat="44.557963067262854" lon="10.414192677243058"><ele>423.0</ele><time>2026-04-12T09:22:01.999Z</time></trkpt><trkpt lat="44.557695870998565" lon="10.414330609573222"><ele>422.0</ele><time>2026-04-12T09:22:03.999Z</time></trkpt><trkpt lat="44.55762144855563" lon="10.414368485244873"><ele>421.0</ele><time>2026-04-12T09:22:04.999Z</time></trkpt><trkpt lat="44.557557272147356" lon="10.414399723483978"><ele>420.0</ele><time>2026-04-12T09:22:05.999Z</time></trkpt><trkpt lat="44.557460847698906" lon="10.414358429518957"><ele>419.0</ele><time>2026-04-12T09:22:07.999Z</time></trkpt><trkpt lat="44.55739036299433" lon="10.414344768683991"><ele>418.0</ele><time>2026-04-12T09:22:09.999Z</time></trkpt><trkpt lat="44.55731275452073" lon="10.414368245321494"><ele>417.0</ele><time>2026-04-12T09:22:11.999Z</time></trkpt><trkpt lat="44.557216645560736" lon="10.414334090626218"><ele>417.0</ele><time>2026-04-12T09:22:12.999Z</time></trkpt><trkpt lat="44.557146453247924" lon="10.414293928329622"><ele>417.0</ele><time>2026-04-12T09:22:13.999Z</time></trkpt><trkpt lat="44.557062050831746" lon="10.414255663953499"><ele>417.0</ele><time>2026-04-12T09:22:14.999Z</time></trkpt><trkpt lat="44.55699851600204" lon="10.414235882696849"><ele>417.0</ele><time>2026-04-12T09:22:15.999Z</time></trkpt><trkpt lat="44.55691661744106" lon="10.414183363624225"><ele>417.0</ele><time>2026-04-12T09:22:17.999Z</time></trkpt><trkpt lat="44.556889982126386" lon="10.414265958796866"><ele>417.0</ele><time>2026-04-12T09:22:18.999Z</time></trkpt><trkpt lat="44.5568386391024" lon="10.414327171663064"><ele>415.6</ele><time>2026-04-12T09:22:19.999Z</time></trkpt><trkpt lat="44.55677135998687" lon="10.414345595656432"><ele>414.20000000000005</ele><time>2026-04-12T09:22:20.999Z</time></trkpt><trkpt lat="44.556643177601245" lon="10.414262100161137"><ele>412.8</ele><time>2026-04-12T09:22:21.999Z</time></trkpt><trkpt lat="44.5565668267624" lon="10.414253583800894"><ele>411.4</ele><time>2026-04-12T09:22:22.999Z</time></trkpt><trkpt lat="44.55644602598182" lon="10.414281737422861"><ele>410.0</ele><time>2026-04-12T09:22:24.999Z</time></trkpt><trkpt lat="44.55638173633472" lon="10.414312695965702"><ele>409.99999999999994</ele><time>2026-04-12T09:22:26Z</time></trkpt><trkpt lat="44.55625536042845" lon="10.41431948213619"><ele>410.0</ele><time>2026-04-12T09:22:28Z</time></trkpt><trkpt lat="44.556188243091626" lon="10.414288723231506"><ele>410.0</ele><time>2026-04-12T09:22:29Z</time></trkpt><trkpt lat="44.55612127623244" lon="10.41429644808125"><ele>410.0</ele><time>2026-04-12T09:22:30Z</time></trkpt><trkpt lat="44.556053406586585" lon="10.414326567333973"><ele>409.99999999999994</ele><time>2026-04-12T09:22:31Z</time></trkpt><trkpt lat="44.555991887734095" lon="10.414442208862571"><ele>410.0</ele><time>2026-04-12T09:22:33Z</time></trkpt><trkpt lat="44.555895868813586" lon="10.414448291750544"><ele>410.49999999999994</ele><time>2026-04-12T09:22:35Z</time></trkpt><trkpt lat="44.555853876198356" lon="10.414347411729114"><ele>411.0</ele><time>2026-04-12T09:22:38Z</time></trkpt><trkpt lat="44.55577522319254" lon="10.41434747511552"><ele>411.5</ele><time>2026-04-12T09:22:41Z</time></trkpt><trkpt lat="44.555714524469664" lon="10.414315042209978"><ele>412.0</ele><time>2026-04-12T09:22:42Z</time></trkpt><trkpt lat="44.55564417198453" lon="10.414325584625661"><ele>412.49999999999994</ele><time>2026-04-12T09:22:43Z</time></trkpt><trkpt lat="44.55557481207343" lon="10.41432126715333"><ele>413.0</ele><time>2026-04-12T09:22:44Z</time></trkpt><trkpt lat="44.555499001632654" lon="10.414254851199562"><ele>413.0</ele><time>2026-04-12T09:22:46Z</time></trkpt><trkpt lat="44.55543544843479" lon="10.4141344276103"><ele>413.0</ele><time>2026-04-12T09:23:46.999Z</time></trkpt><trkpt lat="44.55535247697328" lon="10.413977139610916"><ele>413.0</ele><time>2026-04-12T09:23:48.999Z</time></trkpt><trkpt lat="44.55531730989912" lon="10.413882105513917"><ele>413.0</ele><time>2026-04-12T09:23:49.999Z</time></trkpt><trkpt lat="44.5552829181297" lon="10.413774436766298"><ele>413.0</ele><time>2026-04-12T09:23:50.999Z</time></trkpt><trkpt lat="44.555256229561415" lon="10.413671830134216"><ele>417.16666666666663</ele><time>2026-04-12T09:23:51.999Z</time></trkpt><trkpt lat="44.55525007338045" lon="10.413573392495097"><ele>421.3333333333333</ele><time>2026-04-12T09:23:52.999Z</time></trkpt><trkpt lat="44.555265000903404" lon="10.413456815376847"><ele>425.5</ele><time>2026-04-12T09:23:53.999Z</time></trkpt><trkpt lat="44.55528968797057" lon="10.413345853099715"><ele>429.66666666666663</ele><time>2026-04-12T09:23:54.999Z</time></trkpt><trkpt lat="44.555318327184786" lon="10.413255737042434"><ele>433.8333333333333</ele><time>2026-04-12T09:23:55.999Z</time></trkpt><trkpt lat="44.55530790263346" lon="10.413147218703223"><ele>438.0</ele><time>2026-04-12T09:23:56.999Z</time></trkpt><trkpt lat="44.555286580816315" lon="10.413001065616472"><ele>436.79999999999995</ele><time>2026-04-12T09:23:57.999Z</time></trkpt><trkpt lat="44.55523365674035" lon="10.41285890811185"><ele>435.59999999999997</ele><time>2026-04-12T09:23:58.999Z</time></trkpt><trkpt lat="44.55518907410576" lon="10.412769559772828"><ele>434.40000000000003</ele><time>2026-04-12T09:23:59.999Z</time></trkpt><trkpt lat="44.55513330288486" lon="10.412703665335"><ele>433.20000000000005</ele><time>2026-04-12T09:24:00.999Z</time></trkpt><trkpt lat="44.55500786909914" lon="10.41268401063519"><ele>432.0</ele><time>2026-04-12T09:24:01.999Z</time></trkpt><trkpt lat="44.55487608248393" lon="10.412701389841034"><ele>432.0</ele><time>2026-04-12T09:24:02.999Z</time></trkpt><trkpt lat="44.55474476786233" lon="10.412682826368616"><ele>432.00000000000006</ele><time>2026-04-12T09:24:03.999Z</time></trkpt><trkpt lat="44.55462934926456" lon="10.412689005295645"><ele>432.00000000000006</ele><time>2026-04-12T09:24:04.999Z</time></trkpt><trkpt lat="44.55452519231496" lon="10.412699924371037"><ele>432.0</ele><time>2026-04-12T09:24:05.999Z</time></trkpt><trkpt lat="44.55443956624411" lon="10.412724635044817"><ele>432.0</ele><time>2026-04-12T09:24:06.999Z</time></trkpt><trkpt lat="44.554351721621366" lon="10.41272369031517"><ele>432.40000000000003</ele><time>2026-04-12T09:24:07.999Z</time></trkpt><trkpt lat="44.55425486351842" lon="10.412722558362281"><ele>432.80000000000007</ele><time>2026-04-12T09:24:08.999Z</time></trkpt><trkpt lat="44.554165215076225" lon="10.412729437542591"><ele>433.2</ele><time>2026-04-12T09:24:09.999Z</time></trkpt><trkpt lat="44.55407015058867" lon="10.412748676546794"><ele>433.6</ele><time>2026-04-12T09:24:10.999Z</time></trkpt><trkpt lat="44.55398348753605" lon="10.412778958888861"><ele>434.0</ele><time>2026-04-12T09:24:11.999Z</time></trkpt><trkpt lat="44.55389628826053" lon="10.41280344133641"><ele>433.99999999999994</ele><time>2026-04-12T09:24:12.999Z</time></trkpt><trkpt lat="44.55382579316789" lon="10.41282624023572"><ele>434.0</ele><time>2026-04-12T09:24:13.999Z</time></trkpt><trkpt lat="44.55372713389208" lon="10.412869526017893"><ele>434.0</ele><time>2026-04-12T09:24:15.999Z</time></trkpt><trkpt lat="44.5536251124382" lon="10.41289657543778"><ele>434.0</ele><time>2026-04-12T09:24:17.999Z</time></trkpt><trkpt lat="44.55355970855741" lon="10.412857525617854"><ele>433.99999999999994</ele><time>2026-04-12T09:24:19.999Z</time></trkpt><trkpt lat="44.553535952066255" lon="10.412760452133158"><ele>434.0</ele><time>2026-04-12T09:24:21.999Z</time></trkpt><trkpt lat="44.553508609273685" lon="10.412645138352476"><ele>435.4</ele><time>2026-04-12T09:24:23.999Z</time></trkpt><trkpt lat="44.55349176680806" lon="10.412555260369599"><ele>436.79999999999995</ele><time>2026-04-12T09:24:24.999Z</time></trkpt><trkpt lat="44.553468432208334" lon="10.412443054451986"><ele>438.20000000000005</ele><time>2026-04-12T09:24:25.999Z</time></trkpt><trkpt lat="44.553430029286176" lon="10.412302576348653"><ele>439.6</ele><time>2026-04-12T09:24:26.999Z</time></trkpt><trkpt lat="44.553387051340415" lon="10.412117963328434"><ele>441.0</ele><time>2026-04-12T09:24:27.999Z</time></trkpt><trkpt lat="44.55334941916649" lon="10.411917827027425"><ele>441.0</ele><time>2026-04-12T09:24:28.999Z</time></trkpt><trkpt lat="44.55335781020841" lon="10.411735946806008"><ele>441.0</ele><time>2026-04-12T09:24:29.999Z</time></trkpt><trkpt lat="44.55339953009822" lon="10.411590181249238"><ele>441.0</ele><time>2026-04-12T09:24:30.999Z</time></trkpt><trkpt lat="44.55347266637339" lon="10.411465287508895"><ele>441.0</ele><time>2026-04-12T09:24:32Z</time></trkpt><trkpt lat="44.553565545411026" lon="10.41135503473114"><ele>442.0</ele><time>2026-04-12T09:24:33Z</time></trkpt><trkpt lat="44.553626425739324" lon="10.411280721037977"><ele>443.0</ele><time>2026-04-12T09:24:34Z</time></trkpt><trkpt lat="44.55361853922862" lon="10.411137751952545"><ele>444.0</ele><time>2026-04-12T09:24:36Z</time></trkpt><trkpt lat="44.55352123371156" lon="10.411074559379873"><ele>445.0</ele><time>2026-04-12T09:24:37Z</time></trkpt><trkpt lat="44.55341760601614" lon="10.411017608826791"><ele>446.0</ele><time>2026-04-12T09:24:38Z</time></trkpt><trkpt lat="44.55329367274748" lon="10.410930948962553"><ele>446.0</ele><time>2026-04-12T09:24:39Z</time></trkpt><trkpt lat="44.553184332381555" lon="10.4108663548097"><ele>446.0</ele><time>2026-04-12T09:24:40Z</time></trkpt><trkpt lat="44.55306455190071" lon="10.41079804862469"><ele>446.0</ele><time>2026-04-12T09:24:41Z</time></trkpt><trkpt lat="44.55297401502973" lon="10.410759238822557"><ele>446.0</ele><time>2026-04-12T09:24:42Z</time></trkpt><trkpt lat="44.55292565343945" lon="10.410696786157583"><ele>446.0</ele><time>2026-04-12T09:24:43Z</time></trkpt><trkpt lat="44.552923533622945" lon="10.410528863826933"><ele>447.0</ele><time>2026-04-12T09:24:45Z</time></trkpt><trkpt lat="44.552958784943804" lon="10.41038280775359"><ele>448.0</ele><time>2026-04-12T09:24:46Z</time></trkpt><trkpt lat="44.55303393076609" lon="10.410247946763269"><ele>449.0</ele><time>2026-04-12T09:24:47Z</time></trkpt><trkpt lat="44.553110200387785" lon="10.410087074902695"><ele>450.0</ele><time>2026-04-12T09:24:48Z</time></trkpt><trkpt lat="44.55316558412802" lon="10.409928036155335"><ele>450.0</ele><time>2026-04-12T09:24:49Z</time></trkpt><trkpt lat="44.5532054359889" lon="10.409831953700403"><ele>450.0</ele><time>2026-04-12T09:24:50Z</time></trkpt><trkpt lat="44.553269199868524" lon="10.409754470826499"><ele>450.0</ele><time>2026-04-12T09:24:51Z</time></trkpt><trkpt lat="44.55336487852322" lon="10.409694390473593"><ele>450.0</ele><time>2026-04-12T09:24:52Z</time></trkpt><trkpt lat="44.553434023654226" lon="10.409656342910667"><ele>450.0</ele><time>2026-04-12T09:24:53Z</time></trkpt><trkpt lat="44.55345121072252" lon="10.409510334272682"><ele>450.0</ele><time>2026-04-12T09:24:55Z</time></trkpt><trkpt lat="44.55338551042963" lon="10.409377828663807"><ele>452.4</ele><time>2026-04-12T09:24:57Z</time></trkpt><trkpt lat="44.55337350043279" lon="10.409290157447247"><ele>454.8</ele><time>2026-04-12T09:24:58Z</time></trkpt><trkpt lat="44.55341261743421" lon="10.409097846494356"><ele>457.20000000000005</ele><time>2026-04-12T09:25:00Z</time></trkpt><trkpt lat="44.55344342234196" lon="10.408954081590041"><ele>459.6</ele><time>2026-04-12T09:25:01Z</time></trkpt><trkpt lat="44.553431994290314" lon="10.408862832261958"><ele>462.0</ele><time>2026-04-12T09:25:02Z</time></trkpt><trkpt lat="44.55338032399356" lon="10.408758469347276"><ele>463.20000000000005</ele><time>2026-04-12T09:25:03Z</time></trkpt><trkpt lat="44.55333791968148" lon="10.408687809770203"><ele>464.40000000000003</ele><time>2026-04-12T09:25:04Z</time></trkpt><trkpt lat="44.553258716501816" lon="10.408644229785253"><ele>465.59999999999997</ele><time>2026-04-12T09:25:05Z</time></trkpt><trkpt lat="44.553170697727744" lon="10.408617204463164"><ele>466.79999999999995</ele><time>2026-04-12T09:25:06Z</time></trkpt><trkpt lat="44.553045505320775" lon="10.408604609293961"><ele>468.0</ele><time>2026-04-12T09:25:07Z</time></trkpt><trkpt lat="44.55293032065235" lon="10.408570529977222"><ele>472.79999999999995</ele><time>2026-04-12T09:25:08Z</time></trkpt><trkpt lat="44.552824760395374" lon="10.408527617982696"><ele>477.59999999999997</ele><time>2026-04-12T09:25:09Z</time></trkpt><trkpt lat="44.552728775023176" lon="10.408483335287924"><ele>482.40000000000003</ele><time>2026-04-12T09:25:10Z</time></trkpt><trkpt lat="44.55266765758243" lon="10.408446507934281"><ele>487.20000000000005</ele><time>2026-04-12T09:25:11Z</time></trkpt><trkpt lat="44.5526045275607" lon="10.408356870598842"><ele>492.0</ele><time>2026-04-12T09:25:12Z</time></trkpt><trkpt lat="44.552611890311674" lon="10.408193573221938"><ele>492.0</ele><time>2026-04-12T09:25:13Z</time></trkpt><trkpt lat="44.55262593269703" lon="10.408050873978729"><ele>492.00000000000006</ele><time>2026-04-12T09:25:14Z</time></trkpt><trkpt lat="44.5526696640253" lon="10.407953304381978"><ele>492.00000000000006</ele><time>2026-04-12T09:25:15Z</time></trkpt><trkpt lat="44.552700500995" lon="10.407843682005538"><ele>492.0</ele><time>2026-04-12T09:25:17Z</time></trkpt><trkpt lat="44.55256393744494" lon="10.40782130776034"><ele>492.0</ele><time>2026-04-12T09:25:19Z</time></trkpt><trkpt lat="44.55246037939764" lon="10.40785803796385"><ele>492.0</ele><time>2026-04-12T09:25:20Z</time></trkpt><trkpt lat="44.552344193497575" lon="10.407839523984537"><ele>492.00000000000006</ele><time>2026-04-12T09:25:21Z</time></trkpt><trkpt lat="44.55225470019449" lon="10.407855020842021"><ele>492.00000000000006</ele><time>2026-04-12T09:25:22Z</time></trkpt><trkpt lat="44.55218124942515" lon="10.407892408434156"><ele>492.0</ele><time>2026-04-12T09:25:23Z</time></trkpt><trkpt lat="44.552077283210174" lon="10.40791006994984"><ele>492.0</ele><time>2026-04-12T09:25:25Z</time></trkpt><trkpt lat="44.55205272394775" lon="10.408013400859415"><ele>495.75</ele><time>2026-04-12T09:25:30Z</time></trkpt><trkpt lat="44.55199034572134" lon="10.408178299204337"><ele>499.5</ele><time>2026-04-12T09:25:31Z</time></trkpt><trkpt lat="44.55189632705784" lon="10.408294482189604"><ele>503.25</ele><time>2026-04-12T09:25:32Z</time></trkpt><trkpt lat="44.55178927873456" lon="10.408354345624582"><ele>507.0</ele><time>2026-04-12T09:25:33Z</time></trkpt><trkpt lat="44.551696384375354" lon="10.408413007960648"><ele>507.0</ele><time>2026-04-12T09:25:34Z</time></trkpt><trkpt lat="44.55163183336382" lon="10.408414212583041"><ele>507.00000000000006</ele><time>2026-04-12T09:25:35Z</time></trkpt><trkpt lat="44.551544656550256" lon="10.408353563003208"><ele>507.00000000000006</ele><time>2026-04-12T09:25:36Z</time></trkpt><trkpt lat="44.5514410860233" lon="10.408264432594796"><ele>507.0</ele><time>2026-04-12T09:25:37Z</time></trkpt><trkpt lat="44.551337443793784" lon="10.408185321217674"><ele>507.0</ele><time>2026-04-12T09:25:38Z</time></trkpt><trkpt lat="44.55123435999213" lon="10.408167748466909"><ele>510.20000000000005</ele><time>2026-04-12T09:25:39Z</time></trkpt><trkpt lat="44.551126262075016" lon="10.408185805986458"><ele>513.4000000000001</ele><time>2026-04-12T09:25:40Z</time></trkpt><trkpt lat="44.551027313606724" lon="10.408223800637897"><ele>516.5999999999999</ele><time>2026-04-12T09:25:41Z</time></trkpt><trkpt lat="44.550939383566764" lon="10.40818021539205"><ele>519.8</ele><time>2026-04-12T09:25:42.999Z</time></trkpt><trkpt lat="44.55093067431079" lon="10.408007984746995"><ele>523.0</ele><time>2026-04-12T09:25:44.999Z</time></trkpt><trkpt lat="44.55081635555077" lon="10.408071784537992"><ele>523.0</ele><time>2026-04-12T09:25:47.999Z</time></trkpt><trkpt lat="44.55072725127527" lon="10.408171426820738"><ele>523.0</ele><time>2026-04-12T09:25:48.999Z</time></trkpt><trkpt lat="44.550641639331246" lon="10.408244061904389"><ele>523.0</ele><time>2026-04-12T09:25:49.999Z</time></trkpt><trkpt lat="44.55057225264088" lon="10.408309505837723"><ele>523.0</ele><time>2026-04-12T09:25:50.999Z</time></trkpt><trkpt lat="44.55049065868847" lon="10.408368766273991"><ele>523.0</ele><time>2026-04-12T09:25:51.999Z</time></trkpt><trkpt lat="44.55039119526065" lon="10.408456580477923"><ele>526.8</ele><time>2026-04-12T09:25:52.999Z</time></trkpt><trkpt lat="44.5502825711839" lon="10.408554442836628"><ele>530.5999999999999</ele><time>2026-04-12T09:25:53.999Z</time></trkpt><trkpt lat="44.55019245145922" lon="10.408638554163806"><ele>534.4000000000001</ele><time>2026-04-12T09:25:54.999Z</time></trkpt><trkpt lat="44.550119329187474" lon="10.408704023908449"><ele>538.2</ele><time>2026-04-12T09:25:55.999Z</time></trkpt><trkpt lat="44.55005335426435" lon="10.408748522352473"><ele>542.0</ele><time>2026-04-12T09:25:56.999Z</time></trkpt><trkpt lat="44.54998780527702" lon="10.408796365157867"><ele>542.0</ele><time>2026-04-12T09:25:57.999Z</time></trkpt><trkpt lat="44.54990361274691" lon="10.408821626307367"><ele>542.0</ele><time>2026-04-12T09:25:58.999Z</time></trkpt><trkpt lat="44.54980222241006" lon="10.40887897409734"><ele>542.0</ele><time>2026-04-12T09:25:59.999Z</time></trkpt><trkpt lat="44.549710447275565" lon="10.408956427006189"><ele>542.0</ele><time>2026-04-12T09:26:00.999Z</time></trkpt><trkpt lat="44.54962980595343" lon="10.409057273728276"><ele>542.0</ele><time>2026-04-12T09:26:01.999Z</time></trkpt><trkpt lat="44.549542734343326" lon="10.409178635835161"><ele>545.8000000000001</ele><time>2026-04-12T09:26:02.999Z</time></trkpt><trkpt lat="44.5494594278563" lon="10.409302989678515"><ele>549.6</ele><time>2026-04-12T09:26:03.999Z</time></trkpt><trkpt lat="44.5493750571894" lon="10.409396886610123"><ele>553.4000000000001</ele><time>2026-04-12T09:26:04.999Z</time></trkpt><trkpt lat="44.54931612765035" lon="10.409477631911729"><ele>557.2</ele><time>2026-04-12T09:26:05.999Z</time></trkpt><trkpt lat="44.549246690566946" lon="10.409526277837504"><ele>561.0</ele><time>2026-04-12T09:26:06.999Z</time></trkpt><trkpt lat="44.54916211549235" lon="10.409576993197131"><ele>561.0</ele><time>2026-04-12T09:26:07.999Z</time></trkpt><trkpt lat="44.549035931354" lon="10.409648194767945"><ele>561.0</ele><time>2026-04-12T09:26:08.999Z</time></trkpt><trkpt lat="44.54886028071092" lon="10.409707719687573"><ele>561.0</ele><time>2026-04-12T09:26:09.999Z</time></trkpt><trkpt lat="44.54869799676725" lon="10.409710067526277"><ele>561.75</ele><time>2026-04-12T09:26:10.999Z</time></trkpt><trkpt lat="44.54854881392669" lon="10.409730906590326"><ele>562.5</ele><time>2026-04-12T09:26:11.999Z</time></trkpt><trkpt lat="44.54843598748493" lon="10.409752976451554"><ele>563.25</ele><time>2026-04-12T09:26:12.999Z</time></trkpt><trkpt lat="44.548330801096476" lon="10.409873154893495"><ele>564.0</ele><time>2026-04-12T09:26:13.999Z</time></trkpt><trkpt lat="44.54821654493765" lon="10.409995601654593"><ele>564.0</ele><time>2026-04-12T09:26:14.999Z</time></trkpt><trkpt lat="44.54810771481139" lon="10.410110008852174"><ele>564.0</ele><time>2026-04-12T09:26:15.999Z</time></trkpt><trkpt lat="44.548006341772215" lon="10.410210505425384"><ele>564.0</ele><time>2026-04-12T09:26:16.999Z</time></trkpt><trkpt lat="44.54790149629831" lon="10.410343264086308"><ele>564.0</ele><time>2026-04-12T09:26:17.999Z</time></trkpt><trkpt lat="44.54781687237197" lon="10.410521572155861"><ele>565.5</ele><time>2026-04-12T09:26:18.999Z</time></trkpt><trkpt lat="44.54773195617453" lon="10.410655686152465"><ele>567.0</ele><time>2026-04-12T09:26:19.999Z</time></trkpt><trkpt lat="44.547649161229835" lon="10.410777529524951"><ele>568.5</ele><time>2026-04-12T09:26:20.999Z</time></trkpt><trkpt lat="44.54754318404717" lon="10.410890717439383"><ele>570.0</ele><time>2026-04-12T09:26:21.999Z</time></trkpt><trkpt lat="44.547460832629966" lon="10.410960199701584"><ele>570.0</ele><time>2026-04-12T09:26:22.999Z</time></trkpt><trkpt lat="44.54739716061699" lon="10.411031049103489"><ele>570.0</ele><time>2026-04-12T09:26:23.999Z</time></trkpt><trkpt lat="44.54733029836843" lon="10.411064732571434"><ele>570.0</ele><time>2026-04-12T09:26:24.999Z</time></trkpt><trkpt lat="44.54723981021648" lon="10.41108769635357"><ele>570.0</ele><time>2026-04-12T09:26:25.999Z</time></trkpt><trkpt lat="44.54711479377945" lon="10.4110986304304"><ele>570.0</ele><time>2026-04-12T09:26:26.999Z</time></trkpt><trkpt lat="44.54701531671745" lon="10.41112750410373"><ele>569.75</ele><time>2026-04-12T09:26:27.999Z</time></trkpt><trkpt lat="44.54691723923052" lon="10.411179014324475"><ele>569.5</ele><time>2026-04-12T09:26:28.999Z</time></trkpt><trkpt lat="44.54681878938156" lon="10.411264721059384"><ele>569.25</ele><time>2026-04-12T09:26:29.999Z</time></trkpt><trkpt lat="44.546712186565664" lon="10.411365917200675"><ele>569.0</ele><time>2026-04-12T09:26:30.999Z</time></trkpt><trkpt lat="44.54659165169618" lon="10.41148025134434"><ele>569.0</ele><time>2026-04-12T09:26:31.999Z</time></trkpt><trkpt lat="44.54647209899745" lon="10.411572750643444"><ele>569.0</ele><time>2026-04-12T09:26:32.999Z</time></trkpt><trkpt lat="44.54636303151135" lon="10.411637286910118"><ele>569.0</ele><time>2026-04-12T09:26:33.999Z</time></trkpt><trkpt lat="44.546265498719464" lon="10.411718166942443"><ele>569.0</ele><time>2026-04-12T09:26:34.999Z</time></trkpt><trkpt lat="44.546184502935844" lon="10.411806910570682"><ele>570.4</ele><time>2026-04-12T09:26:35.999Z</time></trkpt><trkpt lat="44.54610069333815" lon="10.411869213778187"><ele>571.8</ele><time>2026-04-12T09:26:36.999Z</time></trkpt><trkpt lat="44.54601853621078" lon="10.411912345134846"><ele>573.2</ele><time>2026-04-12T09:26:38Z</time></trkpt><trkpt lat="44.5459278302468" lon="10.411894229691521"><ele>574.6</ele><time>2026-04-12T09:26:39Z</time></trkpt><trkpt lat="44.54582602843845" lon="10.411827691332373"><ele>576.0</ele><time>2026-04-12T09:26:40Z</time></trkpt><trkpt lat="44.545704513331046" lon="10.411726814480234"><ele>576.0</ele><time>2026-04-12T09:26:41Z</time></trkpt><trkpt lat="44.54559641787702" lon="10.411665121944406"><ele>576.0</ele><time>2026-04-12T09:26:42Z</time></trkpt><trkpt lat="44.545490521456294" lon="10.411634010471301"><ele>576.0</ele><time>2026-04-12T09:26:43Z</time></trkpt><trkpt lat="44.5453627828554" lon="10.411647796393707"><ele>576.0</ele><time>2026-04-12T09:26:44Z</time></trkpt><trkpt lat="44.54520278416224" lon="10.411643068381036"><ele>578.25</ele><time>2026-04-12T09:26:45Z</time></trkpt><trkpt lat="44.54505513186603" lon="10.41161374873259"><ele>580.5</ele><time>2026-04-12T09:26:46Z</time></trkpt><trkpt lat="44.54494455026723" lon="10.411571724031802"><ele>582.75</ele><time>2026-04-12T09:26:47Z</time></trkpt><trkpt lat="44.54483296018122" lon="10.411510354645134"><ele>585.0</ele><time>2026-04-12T09:26:48Z</time></trkpt><trkpt lat="44.54474309669739" lon="10.41145840196284"><ele>585.0</ele><time>2026-04-12T09:26:49Z</time></trkpt><trkpt lat="44.54466604458396" lon="10.411420316904222"><ele>585.0</ele><time>2026-04-12T09:26:50Z</time></trkpt><trkpt lat="44.544597351498595" lon="10.41141012427779"><ele>585.0</ele><time>2026-04-12T09:26:51Z</time></trkpt><trkpt lat="44.54453080837228" lon="10.411409723944756"><ele>585.0</ele><time>2026-04-12T09:26:52Z</time></trkpt><trkpt lat="44.544464078743644" lon="10.411414551653204"><ele>585.0</ele><time>2026-04-12T09:26:53Z</time></trkpt><trkpt lat="44.54439871250699" lon="10.41141607071942"><ele>585.0</ele><time>2026-04-12T09:26:54Z</time></trkpt><trkpt lat="44.54431486171768" lon="10.411434538478137"><ele>585.0</ele><time>2026-04-12T09:26:56Z</time></trkpt><trkpt lat="44.54428534492348" lon="10.411539706600195"><ele>584.3333333333334</ele><time>2026-04-12T09:26:59Z</time></trkpt><trkpt lat="44.5443050062516" lon="10.41166092658673"><ele>583.6666666666666</ele><time>2026-04-12T09:27:01Z</time></trkpt><trkpt lat="44.544307956349826" lon="10.411752141815835"><ele>583.0</ele><time>2026-04-12T09:27:03Z</time></trkpt><trkpt lat="44.544305803817934" lon="10.4118842397576"><ele>582.3333333333333</ele><time>2026-04-12T09:27:06Z</time></trkpt><trkpt lat="44.54430950946127" lon="10.411988880089552"><ele>581.6666666666666</ele><time>2026-04-12T09:27:08Z</time></trkpt><trkpt lat="44.54431879961635" lon="10.412091839092522"><ele>581.0</ele><time>2026-04-12T09:27:10Z</time></trkpt><trkpt lat="44.54431803621243" lon="10.412204409578615"><ele>580.5</ele><time>2026-04-12T09:27:12Z</time></trkpt><trkpt lat="44.54431792850152" lon="10.412320154422893"><ele>580.0</ele><time>2026-04-12T09:27:14Z</time></trkpt><trkpt lat="44.54432035108552" lon="10.412429034272945"><ele>579.5</ele><time>2026-04-12T09:27:16Z</time></trkpt><trkpt lat="44.54432974185988" lon="10.412544822726652"><ele>579.0</ele><time>2026-04-12T09:27:20Z</time></trkpt><trkpt lat="44.54433699479622" lon="10.412637934178111"><ele>578.5</ele><time>2026-04-12T09:27:23Z</time></trkpt><trkpt lat="44.544346271129584" lon="10.41273564873086"><ele>578.0</ele><time>2026-04-12T09:27:27Z</time></trkpt><trkpt lat="44.544341393870575" lon="10.412847720375655"><ele>578.0</ele><time>2026-04-12T09:27:31Z</time></trkpt><trkpt lat="44.54434593955588" lon="10.412941977362067"><ele>578.0</ele><time>2026-04-12T09:27:33Z</time></trkpt><trkpt lat="44.54434981134791" lon="10.413053638589732"><ele>578.0</ele><time>2026-04-12T09:27:35Z</time></trkpt><trkpt lat="44.54434139459708" lon="10.41315039781448"><ele>578.0</ele><time>2026-04-12T09:27:37Z</time></trkpt><trkpt lat="44.5443325641258" lon="10.413278629732783"><ele>578.0</ele><time>2026-04-12T09:27:39Z</time></trkpt><trkpt lat="44.54432765986365" lon="10.413426681411677"><ele>578.0</ele><time>2026-04-12T09:27:41Z</time></trkpt><trkpt lat="44.54431290070054" lon="10.413519420734792"><ele>577.1999999999999</ele><time>2026-04-12T09:27:43Z</time></trkpt><trkpt lat="44.54422324443094" lon="10.413573430377346"><ele>576.4</ele><time>2026-04-12T09:27:45Z</time></trkpt><trkpt lat="44.54410755729233" lon="10.413546139000859"><ele>575.5999999999999</ele><time>2026-04-12T09:27:47Z</time></trkpt><trkpt lat="44.5439965966151" lon="10.413480165857939"><ele>574.8</ele><time>2026-04-12T09:27:49Z</time></trkpt><trkpt lat="44.54393412467036" lon="10.413453065723344"><ele>574.0</ele><time>2026-04-12T09:27:50Z</time></trkpt><trkpt lat="44.54380860384017" lon="10.413415800849911"><ele>574.0</ele><time>2026-04-12T09:27:52Z</time></trkpt><trkpt lat="44.543748511895004" lon="10.413384151386488"><ele>574.0</ele><time>2026-04-12T09:27:53Z</time></trkpt><trkpt lat="44.54368682815367" lon="10.413343032606072"><ele>574.0</ele><time>2026-04-12T09:27:53.999Z</time></trkpt><trkpt lat="44.54362090065404" lon="10.413307471639218"><ele>574.0</ele><time>2026-04-12T09:27:54.999Z</time></trkpt><trkpt lat="44.54354698598692" lon="10.413279064373302"><ele>574.0</ele><time>2026-04-12T09:27:55.999Z</time></trkpt><trkpt lat="44.54347783026724" lon="10.413236851102004"><ele>574.0</ele><time>2026-04-12T09:27:56.999Z</time></trkpt><trkpt lat="44.54339230132784" lon="10.413180149505768"><ele>571.75</ele><time>2026-04-12T09:27:58.999Z</time></trkpt><trkpt lat="44.54328924816572" lon="10.413405891774504"><ele>569.5</ele><time>2026-04-12T09:28:01.999Z</time></trkpt><trkpt lat="44.54323835304866" lon="10.413569947448437"><ele>567.25</ele><time>2026-04-12T09:28:03.999Z</time></trkpt><trkpt lat="44.54320648751653" lon="10.413654117537329"><ele>565.0</ele><time>2026-04-12T09:28:04.999Z</time></trkpt><trkpt lat="44.54315964355186" lon="10.41373267019457"><ele>565.0</ele><time>2026-04-12T09:28:05.999Z</time></trkpt><trkpt lat="44.54310203602396" lon="10.413801568850161"><ele>565.0</ele><time>2026-04-12T09:28:06.999Z</time></trkpt><trkpt lat="44.543039841343514" lon="10.413870626991367"><ele>565.0</ele><time>2026-04-12T09:28:07.999Z</time></trkpt><trkpt lat="44.54295732241918" lon="10.413929661137669"><ele>565.0</ele><time>2026-04-12T09:28:08.999Z</time></trkpt><trkpt lat="44.54290314745083" lon="10.413985538751408"><ele>565.0</ele><time>2026-04-12T09:28:09.999Z</time></trkpt><trkpt lat="44.54284441191221" lon="10.414064210072215"><ele>565.0</ele><time>2026-04-12T09:28:10.999Z</time></trkpt><trkpt lat="44.54277806867388" lon="10.414145748106302"><ele>564.0</ele><time>2026-04-12T09:28:11.999Z</time></trkpt><trkpt lat="44.542704705683704" lon="10.414194495680634"><ele>563.0</ele><time>2026-04-12T09:28:12.999Z</time></trkpt><trkpt lat="44.54264204355718" lon="10.41427194394011"><ele>562.0</ele><time>2026-04-12T09:28:13.999Z</time></trkpt><trkpt lat="44.542581569316106" lon="10.414333163555058"><ele>561.0</ele><time>2026-04-12T09:28:14.999Z</time></trkpt><trkpt lat="44.54252835453927" lon="10.414404817418921"><ele>560.0</ele><time>2026-04-12T09:28:15.999Z</time></trkpt><trkpt lat="44.54245869737559" lon="10.414464937203604"><ele>559.0</ele><time>2026-04-12T09:28:16.999Z</time></trkpt><trkpt lat="44.542402448559656" lon="10.414519820471995"><ele>559.0</ele><time>2026-04-12T09:28:17.999Z</time></trkpt><trkpt lat="44.542301290294596" lon="10.414609420362215"><ele>559.0</ele><time>2026-04-12T09:28:19.999Z</time></trkpt><trkpt lat="44.54221458165598" lon="10.414708200270194"><ele>559.0</ele><time>2026-04-12T09:28:21.999Z</time></trkpt><trkpt lat="44.54212249341927" lon="10.41480168622221"><ele>559.0</ele><time>2026-04-12T09:28:23.999Z</time></trkpt><trkpt lat="44.54204614237688" lon="10.414898059204399"><ele>559.0</ele><time>2026-04-12T09:28:25.999Z</time></trkpt><trkpt lat="44.54197647871794" lon="10.414965702963713"><ele>557.8333333333334</ele><time>2026-04-12T09:28:27.999Z</time></trkpt><trkpt lat="44.541898058160626" lon="10.414930476964933"><ele>556.6666666666667</ele><time>2026-04-12T09:28:28.999Z</time></trkpt><trkpt lat="44.5417945207627" lon="10.414925561657661"><ele>555.5</ele><time>2026-04-12T09:28:30.999Z</time></trkpt><trkpt lat="44.54169833265978" lon="10.414918588133997"><ele>554.3333333333334</ele><time>2026-04-12T09:28:32.999Z</time></trkpt><trkpt lat="44.54161927983037" lon="10.414916029874199"><ele>553.1666666666666</ele><time>2026-04-12T09:28:34.999Z</time></trkpt><trkpt lat="44.541538049667054" lon="10.414911151345587"><ele>552.0</ele><time>2026-04-12T09:28:36.999Z</time></trkpt><trkpt lat="44.541404557025466" lon="10.414909645392207"><ele>552.0</ele><time>2026-04-12T09:28:38.999Z</time></trkpt><trkpt lat="44.54132688188834" lon="10.41493943047783"><ele>552.0</ele><time>2026-04-12T09:28:39.999Z</time></trkpt><trkpt lat="44.54126314631028" lon="10.414969590860977"><ele>552.0</ele><time>2026-04-12T09:28:40.999Z</time></trkpt><trkpt lat="44.54118972946578" lon="10.415012633293754"><ele>552.0</ele><time>2026-04-12T09:28:41.999Z</time></trkpt><trkpt lat="44.54112020948458" lon="10.415056192777008"><ele>552.0</ele><time>2026-04-12T09:28:42.999Z</time></trkpt><trkpt lat="44.541043575882334" lon="10.415100747957801"><ele>552.0</ele><time>2026-04-12T09:28:44Z</time></trkpt><trkpt lat="44.54096652965024" lon="10.415150357571711"><ele>551.8333333333334</ele><time>2026-04-12T09:28:45Z</time></trkpt><trkpt lat="44.540894210486435" lon="10.415206275152137"><ele>551.6666666666666</ele><time>2026-04-12T09:28:46Z</time></trkpt><trkpt lat="44.540829973012045" lon="10.41527189580315"><ele>551.5</ele><time>2026-04-12T09:28:47Z</time></trkpt><trkpt lat="44.54077966325833" lon="10.415344801548937"><ele>551.3333333333333</ele><time>2026-04-12T09:28:48Z</time></trkpt><trkpt lat="44.54072096068596" lon="10.415421228041023"><ele>551.1666666666666</ele><time>2026-04-12T09:28:49Z</time></trkpt><trkpt lat="44.540669204413526" lon="10.415503672488923"><ele>551.0</ele><time>2026-04-12T09:28:50Z</time></trkpt><trkpt lat="44.54062540322918" lon="10.415587201519578"><ele>551.1666666666666</ele><time>2026-04-12T09:28:51Z</time></trkpt><trkpt lat="44.540576035262724" lon="10.415680787951759"><ele>551.3333333333333</ele><time>2026-04-12T09:28:52Z</time></trkpt><trkpt lat="44.54051965531785" lon="10.415778682915233"><ele>551.5</ele><time>2026-04-12T09:28:53Z</time></trkpt><trkpt lat="44.540470961375284" lon="10.415851903326306"><ele>551.6666666666666</ele><time>2026-04-12T09:28:54Z</time></trkpt><trkpt lat="44.54041517042127" lon="10.415908222978478"><ele>551.8333333333334</ele><time>2026-04-12T09:28:55Z</time></trkpt><trkpt lat="44.54035000713408" lon="10.41594987325438"><ele>552.0</ele><time>2026-04-12T09:28:56Z</time></trkpt><trkpt lat="44.54028540735899" lon="10.415978631684954"><ele>552.0</ele><time>2026-04-12T09:28:57Z</time></trkpt><trkpt lat="44.54021831544292" lon="10.415991393914398"><ele>552.0</ele><time>2026-04-12T09:28:58Z</time></trkpt><trkpt lat="44.54013681277993" lon="10.415993433839517"><ele>552.0</ele><time>2026-04-12T09:28:59Z</time></trkpt><trkpt lat="44.54004049719283" lon="10.415981418565192"><ele>552.0</ele><time>2026-04-12T09:29:00Z</time></trkpt><trkpt lat="44.539935276807334" lon="10.41597143768085"><ele>552.0</ele><time>2026-04-12T09:29:01Z</time></trkpt><trkpt lat="44.53983919652506" lon="10.415977064652246"><ele>552.0</ele><time>2026-04-12T09:29:02Z</time></trkpt><trkpt lat="44.539741553851954" lon="10.415983733734212"><ele>552.0</ele><time>2026-04-12T09:29:03Z</time></trkpt><trkpt lat="44.53964984048818" lon="10.415992052162043"><ele>552.0</ele><time>2026-04-12T09:29:04Z</time></trkpt><trkpt lat="44.53955763048104" lon="10.415998454586806"><ele>552.0</ele><time>2026-04-12T09:29:05Z</time></trkpt><trkpt lat="44.53945901456893" lon="10.416004082863774"><ele>552.0</ele><time>2026-04-12T09:29:06Z</time></trkpt><trkpt lat="44.53934770268566" lon="10.416004328847555"><ele>552.0</ele><time>2026-04-12T09:29:07Z</time></trkpt><trkpt lat="44.539227955868284" lon="10.41600907509547"><ele>552.5</ele><time>2026-04-12T09:29:08Z</time></trkpt><trkpt lat="44.53910426748622" lon="10.416018364705211"><ele>553.0</ele><time>2026-04-12T09:29:09Z</time></trkpt><trkpt lat="44.538986534527744" lon="10.416035722362937"><ele>553.5</ele><time>2026-04-12T09:29:10Z</time></trkpt><trkpt lat="44.53886344729841" lon="10.416045898138997"><ele>554.0</ele><time>2026-04-12T09:29:11Z</time></trkpt><trkpt lat="44.53873286836876" lon="10.41603240465105"><ele>555.75</ele><time>2026-04-12T09:29:12Z</time></trkpt><trkpt lat="44.53859886586618" lon="10.415991295301643"><ele>557.5</ele><time>2026-04-12T09:29:13Z</time></trkpt><trkpt lat="44.53846152165536" lon="10.415919532770886"><ele>559.25</ele><time>2026-04-12T09:29:14Z</time></trkpt><trkpt lat="44.53832755293367" lon="10.41584714613961"><ele>561.0</ele><time>2026-04-12T09:29:15Z</time></trkpt><trkpt lat="44.53818719465886" lon="10.415765439583229"><ele>561.0</ele><time>2026-04-12T09:29:16Z</time></trkpt><trkpt lat="44.53806316167591" lon="10.415696403893362"><ele>561.0</ele><time>2026-04-12T09:29:17Z</time></trkpt><trkpt lat="44.53794771286497" lon="10.415638399209072"><ele>561.0</ele><time>2026-04-12T09:29:18Z</time></trkpt><trkpt lat="44.53782092517811" lon="10.415597368019656"><ele>561.0</ele><time>2026-04-12T09:29:19Z</time></trkpt><trkpt lat="44.53768773997677" lon="10.41557764470999"><ele>562.25</ele><time>2026-04-12T09:29:20Z</time></trkpt><trkpt lat="44.53756289199775" lon="10.415568367544914"><ele>563.5</ele><time>2026-04-12T09:29:21Z</time></trkpt><trkpt lat="44.537438928648015" lon="10.41557969235592"><ele>564.75</ele><time>2026-04-12T09:29:22Z</time></trkpt><trkpt lat="44.537322683830595" lon="10.415599575637755"><ele>566.0</ele><time>2026-04-12T09:29:23Z</time></trkpt><trkpt lat="44.53721284305199" lon="10.415626518101286"><ele>566.0</ele><time>2026-04-12T09:29:24Z</time></trkpt><trkpt lat="44.537102254795386" lon="10.415653796309272"><ele>566.0</ele><time>2026-04-12T09:29:25Z</time></trkpt><trkpt lat="44.536999116257526" lon="10.415697310566276"><ele>566.0</ele><time>2026-04-12T09:29:26Z</time></trkpt><trkpt lat="44.53689423494126" lon="10.415718134162441"><ele>566.0</ele><time>2026-04-12T09:29:27Z</time></trkpt><trkpt lat="44.53677694531253" lon="10.415743024707513"><ele>566.0</ele><time>2026-04-12T09:29:28Z</time></trkpt><trkpt lat="44.53665958342427" lon="10.41576854996428"><ele>566.4</ele><time>2026-04-12T09:29:29Z</time></trkpt><trkpt lat="44.53655007422523" lon="10.415798218420797"><ele>566.8</ele><time>2026-04-12T09:29:30Z</time></trkpt><trkpt lat="44.53645012894329" lon="10.415828406238433"><ele>567.1999999999999</ele><time>2026-04-12T09:29:31Z</time></trkpt><trkpt lat="44.53634385838442" lon="10.415856258359351"><ele>567.6</ele><time>2026-04-12T09:29:32Z</time></trkpt><trkpt lat="44.53624001866903" lon="10.41589376497155"><ele>568.0</ele><time>2026-04-12T09:29:33Z</time></trkpt><trkpt lat="44.53614409413734" lon="10.415918354707348"><ele>568.2857142857142</ele><time>2026-04-12T09:29:34Z</time></trkpt><trkpt lat="44.536079971504954" lon="10.415916830511163"><ele>568.5714285714286</ele><time>2026-04-12T09:29:35Z</time></trkpt><trkpt lat="44.53601211309492" lon="10.415937384834503"><ele>568.8571428571429</ele><time>2026-04-12T09:29:37Z</time></trkpt><trkpt lat="44.53597527476171" lon="10.415857270728164"><ele>569.1428571428571</ele><time>2026-04-12T09:29:46Z</time></trkpt><trkpt lat="44.535968068350385" lon="10.415762641545603"><ele>569.4285714285714</ele><time>2026-04-12T09:33:16Z</time></trkpt><trkpt lat="44.53589932476133" lon="10.415741447545068"><ele>569.7142857142857</ele><time>2026-04-12T09:33:24.015Z</time></trkpt><trkpt lat="44.53594473194779" lon="10.41586493142919"><ele>570.0</ele><time>2026-04-12T09:33:29Z</time></trkpt><trkpt lat="44.53585523931935" lon="10.415694674052363"><ele>570.0</ele><time>2026-04-12T09:34:16.999Z</time></trkpt><trkpt lat="44.535790463019914" lon="10.415681116292639"><ele>570.0</ele><time>2026-04-12T09:34:26.999Z</time></trkpt><trkpt lat="44.53593188759206" lon="10.415718371689927"><ele>570.0</ele><time>2026-04-12T09:34:49.999Z</time></trkpt><trkpt lat="44.535941892961795" lon="10.4158274506827"><ele>570.0</ele><time>2026-04-12T09:37:29Z</time></trkpt><trkpt lat="44.53601088272274" lon="10.41579746962076"><ele>570.0</ele><time>2026-04-12T09:38:29.999Z</time></trkpt><trkpt lat="44.53594189180187" lon="10.415834521506046"><ele>570.0</ele><time>2026-04-12T09:41:41.999Z</time></trkpt><trkpt lat="44.536004872937994" lon="10.415860313100024"><ele>570.0</ele><time>2026-04-12T09:56:21Z</time></trkpt><trkpt lat="44.53594488965617" lon="10.415891236043958"><ele>570.0</ele><time>2026-04-12T09:59:44Z</time></trkpt><trkpt lat="44.53582648194992" lon="10.415912955621135"><ele>570.0</ele><time>2026-04-12T09:59:47Z</time></trkpt><trkpt lat="44.53576300469149" lon="10.415916373230354"><ele>570.0</ele><time>2026-04-12T09:59:48Z</time></trkpt><trkpt lat="44.53569788630074" lon="10.415930392191473"><ele>570.0</ele><time>2026-04-12T09:59:49Z</time></trkpt><trkpt lat="44.535627318853194" lon="10.415927093780507"><ele>570.0</ele><time>2026-04-12T09:59:50Z</time></trkpt><trkpt lat="44.53550567013321" lon="10.415919593924853"><ele>570.0</ele><time>2026-04-12T09:59:51.999Z</time></trkpt><trkpt lat="44.53540518455858" lon="10.415911974613907"><ele>570.0</ele><time>2026-04-12T09:59:53.999Z</time></trkpt><trkpt lat="44.53534009917865" lon="10.415883881629066"><ele>570.0</ele><time>2026-04-12T09:59:54.999Z</time></trkpt><trkpt lat="44.5352027176391" lon="10.415861289896268"><ele>570.0</ele><time>2026-04-12T09:59:56.999Z</time></trkpt><trkpt lat="44.5351008597407" lon="10.415825801898402"><ele>570.0</ele><time>2026-04-12T09:59:57.999Z</time></trkpt><trkpt lat="44.53500191242818" lon="10.41579960360547"><ele>570.4</ele><time>2026-04-12T09:59:58.999Z</time></trkpt><trkpt lat="44.53491934149893" lon="10.41578841409902"><ele>570.8</ele><time>2026-04-12T09:59:59.999Z</time></trkpt><trkpt lat="44.53482147816477" lon="10.415768143368146"><ele>571.2</ele><time>2026-04-12T10:00:00.999Z</time></trkpt><trkpt lat="44.534714610082105" lon="10.415752808045395"><ele>571.6</ele><time>2026-04-12T10:00:01.999Z</time></trkpt><trkpt lat="44.53460029752348" lon="10.415728512228846"><ele>572.0</ele><time>2026-04-12T10:00:02.999Z</time></trkpt><trkpt lat="44.53448546819604" lon="10.415717414050505"><ele>572.5</ele><time>2026-04-12T10:00:03.999Z</time></trkpt><trkpt lat="44.534368406538135" lon="10.415702302996854"><ele>573.0</ele><time>2026-04-12T10:00:04.999Z</time></trkpt><trkpt lat="44.534243043800586" lon="10.415680520688923"><ele>573.5</ele><time>2026-04-12T10:00:05.999Z</time></trkpt><trkpt lat="44.53409449071858" lon="10.415644422625716"><ele>574.0</ele><time>2026-04-12T10:00:06.999Z</time></trkpt><trkpt lat="44.5339654853586" lon="10.415625968145056"><ele>574.0</ele><time>2026-04-12T10:00:07.999Z</time></trkpt><trkpt lat="44.5338389172527" lon="10.415597062015204"><ele>574.0</ele><time>2026-04-12T10:00:08.999Z</time></trkpt><trkpt lat="44.53371466579075" lon="10.415557668812447"><ele>574.0</ele><time>2026-04-12T10:00:09.999Z</time></trkpt><trkpt lat="44.533604630986254" lon="10.415540065762626"><ele>574.0</ele><time>2026-04-12T10:00:10.999Z</time></trkpt><trkpt lat="44.53349337313437" lon="10.415515416834298"><ele>573.8</ele><time>2026-04-12T10:00:12Z</time></trkpt><trkpt lat="44.533383177828256" lon="10.415488782765067"><ele>573.5999999999999</ele><time>2026-04-12T10:00:13Z</time></trkpt><trkpt lat="44.53327117985876" lon="10.415457819659615"><ele>573.4</ele><time>2026-04-12T10:00:14Z</time></trkpt><trkpt lat="44.53316812716518" lon="10.415438422370718"><ele>573.1999999999999</ele><time>2026-04-12T10:00:15Z</time></trkpt><trkpt lat="44.53305971477051" lon="10.415420608491715"><ele>573.0</ele><time>2026-04-12T10:00:16Z</time></trkpt><trkpt lat="44.53295348882356" lon="10.415402277567404"><ele>573.25</ele><time>2026-04-12T10:00:17Z</time></trkpt><trkpt lat="44.53284276926001" lon="10.415366390760367"><ele>573.5</ele><time>2026-04-12T10:00:18Z</time></trkpt><trkpt lat="44.532730801006224" lon="10.41535832059976"><ele>573.75</ele><time>2026-04-12T10:00:19Z</time></trkpt><trkpt lat="44.5326200567781" lon="10.4153566328637"><ele>574.0</ele><time>2026-04-12T10:00:20Z</time></trkpt><trkpt lat="44.53250494319125" lon="10.41535800814475"><ele>574.0</ele><time>2026-04-12T10:00:21Z</time></trkpt><trkpt lat="44.53238723966621" lon="10.415363684480376"><ele>574.0</ele><time>2026-04-12T10:00:22Z</time></trkpt><trkpt lat="44.53227157034347" lon="10.415369293374285"><ele>574.0</ele><time>2026-04-12T10:00:23Z</time></trkpt><trkpt lat="44.53215918943767" lon="10.415372009839228"><ele>574.0</ele><time>2026-04-12T10:00:24Z</time></trkpt><trkpt lat="44.532051075435575" lon="10.41537372944093"><ele>575.0</ele><time>2026-04-12T10:00:25Z</time></trkpt><trkpt lat="44.53193986556719" lon="10.415375672173093"><ele>576.0</ele><time>2026-04-12T10:00:26Z</time></trkpt><trkpt lat="44.53182042420149" lon="10.415372090784938"><ele>577.0</ele><time>2026-04-12T10:00:27Z</time></trkpt><trkpt lat="44.531700545066236" lon="10.415372670339675"><ele>578.0</ele><time>2026-04-12T10:00:28Z</time></trkpt><trkpt lat="44.531573258851346" lon="10.415368650151022"><ele>578.0</ele><time>2026-04-12T10:00:29Z</time></trkpt><trkpt lat="44.53145707272785" lon="10.415364938282424"><ele>578.0</ele><time>2026-04-12T10:00:30Z</time></trkpt><trkpt lat="44.53134574233938" lon="10.415362743898255"><ele>578.0</ele><time>2026-04-12T10:00:31Z</time></trkpt><trkpt lat="44.53122735777969" lon="10.41534546857337"><ele>578.0</ele><time>2026-04-12T10:00:32Z</time></trkpt><trkpt lat="44.53110831407557" lon="10.415331003835972"><ele>579.1999999999999</ele><time>2026-04-12T10:00:33Z</time></trkpt><trkpt lat="44.5309983420908" lon="10.415311460688754"><ele>580.4</ele><time>2026-04-12T10:00:34Z</time></trkpt><trkpt lat="44.53089365470664" lon="10.415289743679187"><ele>581.5999999999999</ele><time>2026-04-12T10:00:35Z</time></trkpt><trkpt lat="44.530786213605296" lon="10.415270319935718"><ele>582.8</ele><time>2026-04-12T10:00:36Z</time></trkpt><trkpt lat="44.530687243476514" lon="10.415253451907512"><ele>584.0</ele><time>2026-04-12T10:00:37Z</time></trkpt><trkpt lat="44.53059495247391" lon="10.415239898479319"><ele>584.0</ele><time>2026-04-12T10:00:38Z</time></trkpt><trkpt lat="44.53050360728751" lon="10.415234522718173"><ele>584.0</ele><time>2026-04-12T10:00:39Z</time></trkpt><trkpt lat="44.53041078918872" lon="10.415263163107378"><ele>584.0</ele><time>2026-04-12T10:00:40Z</time></trkpt><trkpt lat="44.53032973580009" lon="10.415320291652653"><ele>584.0</ele><time>2026-04-12T10:00:41Z</time></trkpt><trkpt lat="44.530256237968395" lon="10.41540894711067"><ele>584.0</ele><time>2026-04-12T10:00:42Z</time></trkpt><trkpt lat="44.53018512471381" lon="10.415506854951753"><ele>584.6</ele><time>2026-04-12T10:00:43Z</time></trkpt><trkpt lat="44.53010230944535" lon="10.415605040701578"><ele>585.2</ele><time>2026-04-12T10:00:44Z</time></trkpt><trkpt lat="44.53001664830674" lon="10.415690782133423"><ele>585.8000000000001</ele><time>2026-04-12T10:00:45Z</time></trkpt><trkpt lat="44.529939599088344" lon="10.415773174560426"><ele>586.4</ele><time>2026-04-12T10:00:46Z</time></trkpt><trkpt lat="44.52985484575971" lon="10.415852832476853"><ele>587.0</ele><time>2026-04-12T10:00:47Z</time></trkpt><trkpt lat="44.529765953763814" lon="10.415938375369961"><ele>587.0</ele><time>2026-04-12T10:00:48Z</time></trkpt><trkpt lat="44.5296798925855" lon="10.416022287051716"><ele>587.0</ele><time>2026-04-12T10:00:49Z</time></trkpt><trkpt lat="44.52959248906425" lon="10.416108616098825"><ele>587.0</ele><time>2026-04-12T10:00:50Z</time></trkpt><trkpt lat="44.52950207180215" lon="10.416206227078282"><ele>587.0</ele><time>2026-04-12T10:00:51Z</time></trkpt><trkpt lat="44.52941345994354" lon="10.416295378782836"><ele>587.0</ele><time>2026-04-12T10:00:52Z</time></trkpt><trkpt lat="44.52932359776863" lon="10.416389336281233"><ele>584.5</ele><time>2026-04-12T10:00:53Z</time></trkpt><trkpt lat="44.5292244380151" lon="10.416488263766054"><ele>582.0</ele><time>2026-04-12T10:00:54Z</time></trkpt><trkpt lat="44.529117197299605" lon="10.416590839222033"><ele>579.5</ele><time>2026-04-12T10:00:55Z</time></trkpt><trkpt lat="44.52901197852574" lon="10.416681654488665"><ele>577.0</ele><time>2026-04-12T10:00:56Z</time></trkpt><trkpt lat="44.528906301009805" lon="10.416765527418676"><ele>577.0</ele><time>2026-04-12T10:00:57Z</time></trkpt><trkpt lat="44.52880048025147" lon="10.416848637410235"><ele>577.0</ele><time>2026-04-12T10:00:58Z</time></trkpt><trkpt lat="44.528684265280084" lon="10.416927959987488"><ele>577.0</ele><time>2026-04-12T10:00:59Z</time></trkpt><trkpt lat="44.52856459353287" lon="10.416988980621381"><ele>577.0</ele><time>2026-04-12T10:01:00Z</time></trkpt><trkpt lat="44.52843280722435" lon="10.417015284381678"><ele>576.5</ele><time>2026-04-12T10:01:01Z</time></trkpt><trkpt lat="44.528292959147784" lon="10.41702545651486"><ele>576.0</ele><time>2026-04-12T10:01:02Z</time></trkpt><trkpt lat="44.52815161448853" lon="10.417062900649968"><ele>575.5</ele><time>2026-04-12T10:01:03Z</time></trkpt><trkpt lat="44.52802677605329" lon="10.417101130988023"><ele>575.0</ele><time>2026-04-12T10:01:04Z</time></trkpt><trkpt lat="44.52791930781198" lon="10.417125762949626"><ele>573.6</ele><time>2026-04-12T10:01:05Z</time></trkpt><trkpt lat="44.52780744088037" lon="10.41713863628492"><ele>572.2</ele><time>2026-04-12T10:01:06Z</time></trkpt><trkpt lat="44.527714936619184" lon="10.41713790239426"><ele>570.8</ele><time>2026-04-12T10:01:07Z</time></trkpt><trkpt lat="44.527626980623644" lon="10.417120985538878"><ele>569.4</ele><time>2026-04-12T10:01:08Z</time></trkpt><trkpt lat="44.52754965243515" lon="10.417054151105214"><ele>568.0</ele><time>2026-04-12T10:01:09Z</time></trkpt><trkpt lat="44.52749992156321" lon="10.416944141499393"><ele>568.0</ele><time>2026-04-12T10:01:10Z</time></trkpt><trkpt lat="44.527466916771345" lon="10.416826204919655"><ele>568.0</ele><time>2026-04-12T10:01:11Z</time></trkpt><trkpt lat="44.52740879697188" lon="10.416740681753645"><ele>568.0</ele><time>2026-04-12T10:01:12Z</time></trkpt><trkpt lat="44.527344787572986" lon="10.416695938475486"><ele>568.0</ele><time>2026-04-12T10:01:13Z</time></trkpt><trkpt lat="44.527262538426264" lon="10.416693585458718"><ele>568.0</ele><time>2026-04-12T10:01:14Z</time></trkpt><trkpt lat="44.52717520932178" lon="10.416717817519125"><ele>568.0</ele><time>2026-04-12T10:01:15Z</time></trkpt><trkpt lat="44.52709081766498" lon="10.41677714732087"><ele>568.6</ele><time>2026-04-12T10:01:16Z</time></trkpt><trkpt lat="44.52700744918527" lon="10.416847553149557"><ele>569.1999999999999</ele><time>2026-04-12T10:01:17Z</time></trkpt><trkpt lat="44.52691967918914" lon="10.41693452670146"><ele>569.8</ele><time>2026-04-12T10:01:18Z</time></trkpt><trkpt lat="44.52682318291396" lon="10.41701974204108"><ele>570.4</ele><time>2026-04-12T10:01:19Z</time></trkpt><trkpt lat="44.526723627147625" lon="10.417105890614874"><ele>571.0</ele><time>2026-04-12T10:01:20Z</time></trkpt><trkpt lat="44.52663215735738" lon="10.417197834915898"><ele>568.2</ele><time>2026-04-12T10:01:21Z</time></trkpt><trkpt lat="44.52654026075599" lon="10.41729755650511"><ele>565.4000000000001</ele><time>2026-04-12T10:01:22Z</time></trkpt><trkpt lat="44.5264610434011" lon="10.417411983969894"><ele>562.6</ele><time>2026-04-12T10:01:23Z</time></trkpt><trkpt lat="44.52640096935297" lon="10.417522307473215"><ele>559.8000000000001</ele><time>2026-04-12T10:01:24Z</time></trkpt><trkpt lat="44.526347258313756" lon="10.417634469594098"><ele>557.0</ele><time>2026-04-12T10:01:25Z</time></trkpt><trkpt lat="44.52630106846667" lon="10.417739565974601"><ele>557.0</ele><time>2026-04-12T10:01:26Z</time></trkpt><trkpt lat="44.52625552835447" lon="10.417830412199223"><ele>557.0</ele><time>2026-04-12T10:01:27Z</time></trkpt><trkpt lat="44.5262154322399" lon="10.417907452098918"><ele>557.0</ele><time>2026-04-12T10:01:28Z</time></trkpt><trkpt lat="44.52617870515363" lon="10.417987060872093"><ele>557.0</ele><time>2026-04-12T10:01:29Z</time></trkpt><trkpt lat="44.52613980713097" lon="10.418063470570393"><ele>557.0</ele><time>2026-04-12T10:01:30Z</time></trkpt><trkpt lat="44.52608744805623" lon="10.418122186702567"><ele>557.0</ele><time>2026-04-12T10:01:31Z</time></trkpt><trkpt lat="44.5260050464962" lon="10.418184546238754"><ele>557.0</ele><time>2026-04-12T10:01:33Z</time></trkpt><trkpt lat="44.52618619138931" lon="10.418392595658883"><ele>555.5</ele><time>2026-04-12T10:01:38Z</time></trkpt><trkpt lat="44.526269550189866" lon="10.418466286595612"><ele>554.0</ele><time>2026-04-12T10:01:39Z</time></trkpt><trkpt lat="44.52634750607056" lon="10.418521766052095"><ele>552.5</ele><time>2026-04-12T10:01:40Z</time></trkpt><trkpt lat="44.52641783781147" lon="10.418566665693413"><ele>551.0</ele><time>2026-04-12T10:01:41Z</time></trkpt><trkpt lat="44.526490793877045" lon="10.418683601740208"><ele>549.5</ele><time>2026-04-12T10:01:43Z</time></trkpt><trkpt lat="44.52647677391328" lon="10.418773826299669"><ele>548.0</ele><time>2026-04-12T10:01:44Z</time></trkpt><trkpt lat="44.526459060148085" lon="10.4188754274262"><ele>546.5</ele><time>2026-04-12T10:01:45Z</time></trkpt><trkpt lat="44.52646796850004" lon="10.418989817134372"><ele>545.0</ele><time>2026-04-12T10:01:46Z</time></trkpt><trkpt lat="44.52647026283424" lon="10.419104819156574"><ele>543.5</ele><time>2026-04-12T10:01:47Z</time></trkpt><trkpt lat="44.52646262051828" lon="10.419217614853865"><ele>542.0</ele><time>2026-04-12T10:01:48Z</time></trkpt><trkpt lat="44.52646748234674" lon="10.419332934919924"><ele>540.5</ele><time>2026-04-12T10:01:49Z</time></trkpt><trkpt lat="44.52647652579017" lon="10.41943679411377"><ele>539.0</ele><time>2026-04-12T10:01:50Z</time></trkpt><trkpt lat="44.52648188984667" lon="10.419533996610348"><ele>539.0</ele><time>2026-04-12T10:01:51Z</time></trkpt><trkpt lat="44.52649127223367" lon="10.419643311865325"><ele>539.0</ele><time>2026-04-12T10:01:52Z</time></trkpt><trkpt lat="44.52650628555548" lon="10.419758683165586"><ele>539.0</ele><time>2026-04-12T10:01:53Z</time></trkpt><trkpt lat="44.526535744716355" lon="10.419880202941412"><ele>539.0</ele><time>2026-04-12T10:01:54Z</time></trkpt><trkpt lat="44.52655813366479" lon="10.420017174307436"><ele>539.0</ele><time>2026-04-12T10:01:55Z</time></trkpt><trkpt lat="44.526566931478705" lon="10.42013889272216"><ele>539.0</ele><time>2026-04-12T10:01:56Z</time></trkpt><trkpt lat="44.5265613057199" lon="10.420262804261304"><ele>536.4</ele><time>2026-04-12T10:01:57Z</time></trkpt><trkpt lat="44.52655404994651" lon="10.420357711495994"><ele>533.8</ele><time>2026-04-12T10:01:58Z</time></trkpt><trkpt lat="44.52652997935337" lon="10.420465498974828"><ele>531.2</ele><time>2026-04-12T10:01:59Z</time></trkpt><trkpt lat="44.52651067060123" lon="10.42061240083592"><ele>528.6</ele><time>2026-04-12T10:02:00Z</time></trkpt><trkpt lat="44.52651381298824" lon="10.420752631537688"><ele>526.0</ele><time>2026-04-12T10:02:01Z</time></trkpt><trkpt lat="44.52650407158453" lon="10.42089535452808"><ele>524.8333333333334</ele><time>2026-04-12T10:02:02Z</time></trkpt><trkpt lat="44.526500236924235" lon="10.421040296523842"><ele>523.6666666666667</ele><time>2026-04-12T10:02:03Z</time></trkpt><trkpt lat="44.52650215004393" lon="10.421179652880422"><ele>522.5</ele><time>2026-04-12T10:02:04Z</time></trkpt><trkpt lat="44.52650376256612" lon="10.421313133709399"><ele>521.3333333333334</ele><time>2026-04-12T10:02:05Z</time></trkpt><trkpt lat="44.52649876990438" lon="10.421431665262554"><ele>520.1666666666666</ele><time>2026-04-12T10:02:05.999Z</time></trkpt><trkpt lat="44.526494387927166" lon="10.421524349263427"><ele>519.0</ele><time>2026-04-12T10:02:06.999Z</time></trkpt><trkpt lat="44.52649977030016" lon="10.421620917829507"><ele>517.6</ele><time>2026-04-12T10:02:07.999Z</time></trkpt><trkpt lat="44.52650753251904" lon="10.421731034149909"><ele>516.2</ele><time>2026-04-12T10:02:08.999Z</time></trkpt><trkpt lat="44.526523567227876" lon="10.42183353115817"><ele>514.8000000000001</ele><time>2026-04-12T10:02:09.999Z</time></trkpt><trkpt lat="44.52654326336105" lon="10.421937650628324"><ele>513.4</ele><time>2026-04-12T10:02:10.999Z</time></trkpt><trkpt lat="44.52661323043624" lon="10.422056273127263"><ele>512.0</ele><time>2026-04-12T10:02:12.999Z</time></trkpt><trkpt lat="44.52663066151131" lon="10.422218661573675"><ele>510.66666666666663</ele><time>2026-04-12T10:02:14.999Z</time></trkpt><trkpt lat="44.52663531645455" lon="10.422319158356707"><ele>509.3333333333333</ele><time>2026-04-12T10:02:15.999Z</time></trkpt><trkpt lat="44.52663640268946" lon="10.422472378219558"><ele>508.0</ele><time>2026-04-12T10:02:18Z</time></trkpt><trkpt lat="44.526601290579606" lon="10.422557961555741"><ele>506.66666666666663</ele><time>2026-04-12T10:02:19Z</time></trkpt><trkpt lat="44.52658229669207" lon="10.422651924848914"><ele>505.3333333333333</ele><time>2026-04-12T10:02:20Z</time></trkpt><trkpt lat="44.526575150849624" lon="10.422754573927909"><ele>504.0</ele><time>2026-04-12T10:02:21Z</time></trkpt><trkpt lat="44.52654224061924" lon="10.4229143661034"><ele>501.79999999999995</ele><time>2026-04-12T10:02:23Z</time></trkpt><trkpt lat="44.52651303522016" lon="10.423073281432375"><ele>499.59999999999997</ele><time>2026-04-12T10:02:25Z</time></trkpt><trkpt lat="44.52648853704534" lon="10.423172918971442"><ele>497.4</ele><time>2026-04-12T10:02:27Z</time></trkpt><trkpt lat="44.526416502221764" lon="10.423229082155594"><ele>495.2</ele><time>2026-04-12T10:02:29Z</time></trkpt><trkpt lat="44.526341529678966" lon="10.423337331826527"><ele>493.0</ele><time>2026-04-12T10:02:31Z</time></trkpt><trkpt lat="44.52627968987541" lon="10.423408656437628"><ele>493.00000000000006</ele><time>2026-04-12T10:02:32Z</time></trkpt><trkpt lat="44.52623066513669" lon="10.423479691261125"><ele>493.0</ele><time>2026-04-12T10:02:33Z</time></trkpt><trkpt lat="44.52619804370735" lon="10.423568314959025"><ele>493.0</ele><time>2026-04-12T10:02:34Z</time></trkpt><trkpt lat="44.52617709520846" lon="10.423662310853683"><ele>493.0</ele><time>2026-04-12T10:02:35Z</time></trkpt><trkpt lat="44.526140901167885" lon="10.42381623122224"><ele>493.00000000000006</ele><time>2026-04-12T10:02:37Z</time></trkpt><trkpt lat="44.52613026659521" lon="10.4239523277049"><ele>493.0</ele><time>2026-04-12T10:02:39Z</time></trkpt><trkpt lat="44.526071274960366" lon="10.424066417430291"><ele>490.2</ele><time>2026-04-12T10:02:41Z</time></trkpt><trkpt lat="44.52606181256736" lon="10.424218653414739"><ele>487.4</ele><time>2026-04-12T10:02:43Z</time></trkpt><trkpt lat="44.526064382920566" lon="10.424378802414658"><ele>484.59999999999997</ele><time>2026-04-12T10:02:45Z</time></trkpt><trkpt lat="44.52601078924403" lon="10.42450616680283"><ele>481.79999999999995</ele><time>2026-04-12T10:02:47Z</time></trkpt><trkpt lat="44.525946210663186" lon="10.42458988565399"><ele>479.0</ele><time>2026-04-12T10:02:49Z</time></trkpt><trkpt lat="44.52592080132788" lon="10.424709996677883"><ele>477.6</ele><time>2026-04-12T10:02:51Z</time></trkpt><trkpt lat="44.52595508633689" lon="10.424829897380127"><ele>476.2</ele><time>2026-04-12T10:02:53Z</time></trkpt><trkpt lat="44.525915643515546" lon="10.424941073289629"><ele>474.80000000000007</ele><time>2026-04-12T10:02:56Z</time></trkpt><trkpt lat="44.525866385560434" lon="10.425031998500161"><ele>473.40000000000003</ele><time>2026-04-12T10:02:58Z</time></trkpt><trkpt lat="44.525820689590034" lon="10.425196562865693"><ele>472.0</ele><time>2026-04-12T10:03:00Z</time></trkpt><trkpt lat="44.52577645436506" lon="10.425337322946541"><ele>472.00000000000006</ele><time>2026-04-12T10:03:02Z</time></trkpt><trkpt lat="44.525775417065425" lon="10.425430901263455"><ele>472.0</ele><time>2026-04-12T10:03:04Z</time></trkpt><trkpt lat="44.525747332880144" lon="10.425627233619952"><ele>472.0</ele><time>2026-04-12T10:03:05Z</time></trkpt><trkpt lat="44.525663697799594" lon="10.425693497829359"><ele>472.0</ele><time>2026-04-12T10:03:07Z</time></trkpt><trkpt lat="44.52560664035442" lon="10.425755253355605"><ele>472.00000000000006</ele><time>2026-04-12T10:03:08Z</time></trkpt><trkpt lat="44.525565812613955" lon="10.425828085089984"><ele>472.0</ele><time>2026-04-12T10:03:09Z</time></trkpt><trkpt lat="44.525560665172556" lon="10.42602772087202"><ele>470.83333333333337</ele><time>2026-04-12T10:03:59.999Z</time></trkpt><trkpt lat="44.52555370971376" lon="10.426126062178549"><ele>469.6666666666667</ele><time>2026-04-12T10:04:00.999Z</time></trkpt><trkpt lat="44.5255336925592" lon="10.426222994288311"><ele>468.5</ele><time>2026-04-12T10:04:01.999Z</time></trkpt><trkpt lat="44.52549142071002" lon="10.426317670454312"><ele>467.33333333333337</ele><time>2026-04-12T10:04:02.999Z</time></trkpt><trkpt lat="44.52545432256101" lon="10.42642128354503"><ele>466.1666666666667</ele><time>2026-04-12T10:04:03.999Z</time></trkpt><trkpt lat="44.52540710666127" lon="10.426534721360163"><ele>465.0</ele><time>2026-04-12T10:04:04.999Z</time></trkpt><trkpt lat="44.52535572338699" lon="10.426643976195246"><ele>463.1666666666667</ele><time>2026-04-12T10:04:05.999Z</time></trkpt><trkpt lat="44.52532085944718" lon="10.426755381300769"><ele>461.33333333333337</ele><time>2026-04-12T10:04:06.999Z</time></trkpt><trkpt lat="44.52528485245813" lon="10.426857051518377"><ele>459.5</ele><time>2026-04-12T10:04:07.999Z</time></trkpt><trkpt lat="44.52524368125717" lon="10.426950573577082"><ele>457.6666666666667</ele><time>2026-04-12T10:04:08.999Z</time></trkpt><trkpt lat="44.52520577017419" lon="10.427044196853716"><ele>455.83333333333337</ele><time>2026-04-12T10:04:09.999Z</time></trkpt><trkpt lat="44.525177219184236" lon="10.427139478041816"><ele>454.0</ele><time>2026-04-12T10:04:10.999Z</time></trkpt><trkpt lat="44.52512725223582" lon="10.427223165332443"><ele>453.7142857142857</ele><time>2026-04-12T10:04:11.999Z</time></trkpt><trkpt lat="44.525079474073415" lon="10.427305508659959"><ele>453.42857142857144</ele><time>2026-04-12T10:04:12.999Z</time></trkpt><trkpt lat="44.52505465473994" lon="10.42739934749879"><ele>453.14285714285717</ele><time>2026-04-12T10:04:13.999Z</time></trkpt><trkpt lat="44.525034217682546" lon="10.427502244268474"><ele>452.8571428571429</ele><time>2026-04-12T10:04:14.999Z</time></trkpt><trkpt lat="44.52500159693816" lon="10.42759496224932"><ele>452.57142857142856</ele><time>2026-04-12T10:04:15.999Z</time></trkpt><trkpt lat="44.52496349052743" lon="10.427691523035755"><ele>452.28571428571433</ele><time>2026-04-12T10:04:16.999Z</time></trkpt><trkpt lat="44.52493536472594" lon="10.427782232157432"><ele>452.0</ele><time>2026-04-12T10:04:17.999Z</time></trkpt><trkpt lat="44.52492697950862" lon="10.427872714240296"><ele>452.0</ele><time>2026-04-12T10:04:18.999Z</time></trkpt><trkpt lat="44.52490838410775" lon="10.42796841603404"><ele>452.0</ele><time>2026-04-12T10:04:19.999Z</time></trkpt><trkpt lat="44.524899077167596" lon="10.428057665597098"><ele>452.0</ele><time>2026-04-12T10:04:20.999Z</time></trkpt><trkpt lat="44.524890893399046" lon="10.428146017520886"><ele>452.0</ele><time>2026-04-12T10:04:21.999Z</time></trkpt><trkpt lat="44.52488310774108" lon="10.428236548733702"><ele>452.0</ele><time>2026-04-12T10:04:22.999Z</time></trkpt><trkpt lat="44.524871032569116" lon="10.428328103157076"><ele>452.0</ele><time>2026-04-12T10:04:24Z</time></trkpt><trkpt lat="44.52483877472025" lon="10.428474381170803"><ele>452.0</ele><time>2026-04-12T10:04:26Z</time></trkpt><trkpt lat="44.52482816771693" lon="10.428621149318014"><ele>451.8333333333333</ele><time>2026-04-12T10:04:28Z</time></trkpt><trkpt lat="44.52483223251122" lon="10.428741224509603"><ele>451.66666666666663</ele><time>2026-04-12T10:04:31Z</time></trkpt><trkpt lat="44.524904836222035" lon="10.428778979249754"><ele>451.5</ele><time>2026-04-12T10:04:33Z</time></trkpt><trkpt lat="44.52499072196791" lon="10.428824203435573"><ele>451.33333333333337</ele><time>2026-04-12T10:04:35Z</time></trkpt><trkpt lat="44.52503412689461" lon="10.428908582180512"><ele>451.1666666666667</ele><time>2026-04-12T10:04:37Z</time></trkpt><trkpt lat="44.52506723654884" lon="10.429010262985559"><ele>451.0</ele><time>2026-04-12T10:04:39Z</time></trkpt><trkpt lat="44.525137658421805" lon="10.429099178017951"><ele>450.00000000000006</ele><time>2026-04-12T10:04:41Z</time></trkpt><trkpt lat="44.525174186285795" lon="10.42919259081991"><ele>449.0</ele><time>2026-04-12T10:04:44Z</time></trkpt><trkpt lat="44.52523636106486" lon="10.429234542205636"><ele>448.0</ele><time>2026-04-12T10:04:47Z</time></trkpt><trkpt lat="44.52531564631246" lon="10.429275033639843"><ele>447.0</ele><time>2026-04-12T10:04:49Z</time></trkpt><trkpt lat="44.52531044138244" lon="10.429387735977746"><ele>446.00000000000006</ele><time>2026-04-12T10:04:52Z</time></trkpt><trkpt lat="44.52533951611218" lon="10.42949297181831"><ele>445.0</ele><time>2026-04-12T10:04:59Z</time></trkpt><trkpt lat="44.52529084109319" lon="10.429561790306941"><ele>445.0</ele><time>2026-04-12T10:05:03Z</time></trkpt><trkpt lat="44.525210041169096" lon="10.42956485494855"><ele>445.0</ele><time>2026-04-12T10:05:05Z</time></trkpt><trkpt lat="44.525150597219465" lon="10.429641522388764"><ele>445.0</ele><time>2026-04-12T10:05:07Z</time></trkpt><trkpt lat="44.525171645065065" lon="10.429750586845442"><ele>445.0</ele><time>2026-04-12T10:05:10Z</time></trkpt><trkpt lat="44.52512877439352" lon="10.429821835150246"><ele>445.0</ele><time>2026-04-12T10:05:13Z</time></trkpt><trkpt lat="44.52511447643716" lon="10.429911975253075"><ele>445.0</ele><time>2026-04-12T10:06:57Z</time></trkpt><trkpt lat="44.52508631847083" lon="10.429996995054701"><ele>445.0</ele><time>2026-04-12T10:06:59Z</time></trkpt><trkpt lat="44.525066869970466" lon="10.430081338835008"><ele>443.33333333333337</ele><time>2026-04-12T10:07:01Z</time></trkpt><trkpt lat="44.525104258327254" lon="10.430186182754941"><ele>441.6666666666667</ele><time>2026-04-12T10:07:04Z</time></trkpt><trkpt lat="44.52507996845831" lon="10.430274840450846"><ele>440.0</ele><time>2026-04-12T10:07:06Z</time></trkpt><trkpt lat="44.52509860038378" lon="10.430401429955918"><ele>438.33333333333337</ele><time>2026-04-12T10:07:31Z</time></trkpt><trkpt lat="44.52513544903637" lon="10.430546675484822"><ele>436.6666666666667</ele><time>2026-04-12T10:07:35Z</time></trkpt><trkpt lat="44.52514258479885" lon="10.43045219788082"><ele>435.0</ele><time>2026-04-12T10:08:14.999Z</time></trkpt><trkpt lat="44.52511547006805" lon="10.430370421949107"><ele>435.00000000000006</ele><time>2026-04-12T10:08:20.999Z</time></trkpt><trkpt lat="44.52517847556783" lon="10.430356055004255"><ele>435.0</ele><time>2026-04-12T10:08:27.999Z</time></trkpt><trkpt lat="44.52511637912891" lon="10.430338945482603"><ele>435.0</ele><time>2026-04-12T10:08:59Z</time></trkpt><trkpt lat="44.52511018513374" lon="10.430470043072242"><ele>435.0</ele><time>2026-04-12T10:10:17.999Z</time></trkpt><trkpt lat="44.52512303796297" lon="10.43055747615327"><ele>435.0</ele><time>2026-04-12T10:10:24.999Z</time></trkpt><trkpt lat="44.525085483332745" lon="10.430645545870743"><ele>435.00000000000006</ele><time>2026-04-12T10:10:34.999Z</time></trkpt><trkpt lat="44.525004153144714" lon="10.430644821128098"><ele>435.0</ele><time>2026-04-12T10:11:19Z</time></trkpt><trkpt lat="44.52496296988534" lon="10.430775884778493"><ele>435.0</ele><time>2026-04-12T10:11:21Z</time></trkpt><trkpt lat="44.52493068118803" lon="10.43088225558021"><ele>435.0</ele><time>2026-04-12T10:11:22Z</time></trkpt><trkpt lat="44.5248836501475" lon="10.430997666095212"><ele>435.0</ele><time>2026-04-12T10:11:23Z</time></trkpt><trkpt lat="44.524823772217786" lon="10.431105884006515"><ele>435.0</ele><time>2026-04-12T10:11:24Z</time></trkpt><trkpt lat="44.52475200626054" lon="10.431210916744819"><ele>435.0</ele><time>2026-04-12T10:11:25Z</time></trkpt><trkpt lat="44.52468662585881" lon="10.431280350638913"><ele>436.8</ele><time>2026-04-12T10:11:26Z</time></trkpt><trkpt lat="44.524611019164304" lon="10.431407458828549"><ele>438.6</ele><time>2026-04-12T10:11:28Z</time></trkpt><trkpt lat="44.5245960583001" lon="10.431513097805974"><ele>440.4</ele><time>2026-04-12T10:11:29Z</time></trkpt><trkpt lat="44.52458125777434" lon="10.431629735345302"><ele>442.2</ele><time>2026-04-12T10:11:30Z</time></trkpt><trkpt lat="44.52457684983934" lon="10.431751122789734"><ele>444.0</ele><time>2026-04-12T10:11:31Z</time></trkpt><trkpt lat="44.5246318184047" lon="10.43192244560554"><ele>444.0</ele><time>2026-04-12T10:11:33Z</time></trkpt><trkpt lat="44.52470157605151" lon="10.43199990649826"><ele>444.0</ele><time>2026-04-12T10:11:34Z</time></trkpt><trkpt lat="44.524747686947954" lon="10.432075046047387"><ele>444.0</ele><time>2026-04-12T10:11:35Z</time></trkpt><trkpt lat="44.52479500377402" lon="10.432156009160861"><ele>444.0</ele><time>2026-04-12T10:11:36Z</time></trkpt><trkpt lat="44.52486476711545" lon="10.432179516663433"><ele>444.0</ele><time>2026-04-12T10:11:37Z</time></trkpt><trkpt lat="44.52494460514326" lon="10.432206835208097"><ele>444.0</ele><time>2026-04-12T10:11:38Z</time></trkpt><trkpt lat="44.52505649946907" lon="10.432222043538872"><ele>444.0</ele><time>2026-04-12T10:11:40Z</time></trkpt><trkpt lat="44.52517111175281" lon="10.4321539223997"><ele>444.0</ele><time>2026-04-12T10:11:42Z</time></trkpt><trkpt lat="44.52524143270881" lon="10.432137819381053"><ele>444.0</ele><time>2026-04-12T10:11:43Z</time></trkpt><trkpt lat="44.525321759009785" lon="10.432141141748252"><ele>444.0</ele><time>2026-04-12T10:11:44Z</time></trkpt><trkpt lat="44.525393011693296" lon="10.432165573153885"><ele>444.0</ele><time>2026-04-12T10:11:45Z</time></trkpt><trkpt lat="44.52549792218764" lon="10.432178196189831"><ele>444.75</ele><time>2026-04-12T10:11:47Z</time></trkpt><trkpt lat="44.525522089393405" lon="10.432451476713654"><ele>445.5</ele><time>2026-04-12T10:11:53Z</time></trkpt><trkpt lat="44.5254991130013" lon="10.432607239971455"><ele>446.25</ele><time>2026-04-12T10:11:55Z</time></trkpt><trkpt lat="44.52541096895235" lon="10.432736139909483"><ele>447.0</ele><time>2026-04-12T10:11:56Z</time></trkpt><trkpt lat="44.52533206662436" lon="10.43279380188007"><ele>447.0</ele><time>2026-04-12T10:11:57Z</time></trkpt><trkpt lat="44.52528703171443" lon="10.432872908040508"><ele>447.00000000000006</ele><time>2026-04-12T10:11:58Z</time></trkpt><trkpt lat="44.5251910734412" lon="10.432927297918702"><ele>447.00000000000006</ele><time>2026-04-12T10:11:59Z</time></trkpt><trkpt lat="44.525103232630336" lon="10.433013819667488"><ele>447.0</ele><time>2026-04-12T10:12:00Z</time></trkpt><trkpt lat="44.52501838796793" lon="10.433084425692837"><ele>447.0</ele><time>2026-04-12T10:12:01Z</time></trkpt><trkpt lat="44.52494119098897" lon="10.433156812023132"><ele>444.6</ele><time>2026-04-12T10:12:02Z</time></trkpt><trkpt lat="44.524860384569855" lon="10.433214898316963"><ele>442.20000000000005</ele><time>2026-04-12T10:12:03Z</time></trkpt><trkpt lat="44.524764798407524" lon="10.433289589229798"><ele>439.8</ele><time>2026-04-12T10:12:03.999Z</time></trkpt><trkpt lat="44.524676559855486" lon="10.433343239207021"><ele>437.4</ele><time>2026-04-12T10:12:04.999Z</time></trkpt><trkpt lat="44.52459236419023" lon="10.433386089529582"><ele>435.0</ele><time>2026-04-12T10:12:05.999Z</time></trkpt><trkpt lat="44.52452785015725" lon="10.433405150019857"><ele>432.1666666666667</ele><time>2026-04-12T10:12:06.999Z</time></trkpt><trkpt lat="44.52442951431921" lon="10.433424371221546"><ele>429.33333333333337</ele><time>2026-04-12T10:12:08.999Z</time></trkpt><trkpt lat="44.52437848607345" lon="10.433481029439632"><ele>426.5</ele><time>2026-04-12T10:12:10.999Z</time></trkpt><trkpt lat="44.524333893012795" lon="10.433563376724258"><ele>423.6666666666667</ele><time>2026-04-12T10:12:12.999Z</time></trkpt><trkpt lat="44.52430275640934" lon="10.433685637422053"><ele>420.83333333333337</ele><time>2026-04-12T10:12:14.999Z</time></trkpt><trkpt lat="44.524295861257826" lon="10.433846561391041"><ele>418.0</ele><time>2026-04-12T10:12:18.999Z</time></trkpt><trkpt lat="44.52427877763644" lon="10.434025966241746"><ele>416.50000000000006</ele><time>2026-04-12T10:12:20.999Z</time></trkpt><trkpt lat="44.52426545295664" lon="10.434146952235842"><ele>415.0</ele><time>2026-04-12T10:12:21.999Z</time></trkpt><trkpt lat="44.524275607550685" lon="10.43423946357098"><ele>413.5</ele><time>2026-04-12T10:12:22.999Z</time></trkpt><trkpt lat="44.52428778569042" lon="10.434350137017327"><ele>412.0</ele><time>2026-04-12T10:12:23.999Z</time></trkpt><trkpt lat="44.5242753349815" lon="10.434521559123922"><ele>410.50000000000006</ele><time>2026-04-12T10:12:25.999Z</time></trkpt><trkpt lat="44.524265858873775" lon="10.434615065895953"><ele>409.0</ele><time>2026-04-12T10:12:26.999Z</time></trkpt><trkpt lat="44.52422912256407" lon="10.434760989108607"><ele>406.4</ele><time>2026-04-12T10:12:28.999Z</time></trkpt><trkpt lat="44.52417444424189" lon="10.43488471403264"><ele>403.79999999999995</ele><time>2026-04-12T10:12:30.999Z</time></trkpt><trkpt lat="44.52411521907461" lon="10.435005893742765"><ele>401.20000000000005</ele><time>2026-04-12T10:12:32.999Z</time></trkpt><trkpt lat="44.52400727959439" lon="10.435082646407862"><ele>398.6</ele><time>2026-04-12T10:12:34.999Z</time></trkpt><trkpt lat="44.52392867855123" lon="10.435131947780105"><ele>396.0</ele><time>2026-04-12T10:12:35.999Z</time></trkpt><trkpt lat="44.523874078663994" lon="10.435216331516134"><ele>396.0</ele><time>2026-04-12T10:12:37.999Z</time></trkpt><trkpt lat="44.523939369231606" lon="10.43529907404836"><ele>396.0</ele><time>2026-04-12T10:12:44.999Z</time></trkpt><trkpt lat="44.52402519014088" lon="10.435326096664005"><ele>396.0</ele><time>2026-04-12T10:12:47Z</time></trkpt><trkpt lat="44.52410283677177" lon="10.435426401150877"><ele>396.0</ele><time>2026-04-12T10:12:50Z</time></trkpt><trkpt lat="44.52420027894938" lon="10.435495805720139"><ele>396.0</ele><time>2026-04-12T10:12:52Z</time></trkpt><trkpt lat="44.524265178949776" lon="10.435531052993962"><ele>396.0</ele><time>2026-04-12T10:12:53Z</time></trkpt><trkpt lat="44.524325926693955" lon="10.435567347581909"><ele>396.0</ele><time>2026-04-12T10:12:54Z</time></trkpt><trkpt lat="44.524378014655184" lon="10.43562890932883"><ele>396.0</ele><time>2026-04-12T10:12:55Z</time></trkpt><trkpt lat="44.52443820292502" lon="10.43571150524441"><ele>396.0</ele><time>2026-04-12T10:12:56Z</time></trkpt><trkpt lat="44.52453548949044" lon="10.435769019060773"><ele>396.0</ele><time>2026-04-12T10:12:57Z</time></trkpt><trkpt lat="44.52464853626359" lon="10.43581659688492"><ele>396.0</ele><time>2026-04-12T10:12:58Z</time></trkpt><trkpt lat="44.52475814719474" lon="10.435888259608364"><ele>396.0</ele><time>2026-04-12T10:12:59Z</time></trkpt><trkpt lat="44.52486790676265" lon="10.435944631084311"><ele>396.0</ele><time>2026-04-12T10:13:00Z</time></trkpt><trkpt lat="44.524954891969564" lon="10.435954471751845"><ele>396.0</ele><time>2026-04-12T10:13:01Z</time></trkpt><trkpt lat="44.52504690601251" lon="10.435956562014285"><ele>396.0</ele><time>2026-04-12T10:13:02Z</time></trkpt><trkpt lat="44.52513763079335" lon="10.435942513379484"><ele>396.0</ele><time>2026-04-12T10:13:03Z</time></trkpt><trkpt lat="44.525200718206335" lon="10.43595240629724"><ele>396.0</ele><time>2026-04-12T10:13:04Z</time></trkpt><trkpt lat="44.52529723904652" lon="10.436005584102201"><ele>396.0</ele><time>2026-04-12T10:13:05Z</time></trkpt><trkpt lat="44.52540944202059" lon="10.43616635968896"><ele>396.0</ele><time>2026-04-12T10:13:06Z</time></trkpt><trkpt lat="44.52552865554966" lon="10.436305075156499"><ele>396.0</ele><time>2026-04-12T10:13:07Z</time></trkpt><trkpt lat="44.52563231529268" lon="10.436383195986233"><ele>396.20000000000005</ele><time>2026-04-12T10:13:08Z</time></trkpt><trkpt lat="44.52573002342833" lon="10.436485380815178"><ele>396.40000000000003</ele><time>2026-04-12T10:13:09Z</time></trkpt><trkpt lat="44.525817403826665" lon="10.436570473614614"><ele>396.6</ele><time>2026-04-12T10:13:10Z</time></trkpt><trkpt lat="44.525905300889136" lon="10.436667335332983"><ele>396.8</ele><time>2026-04-12T10:13:11Z</time></trkpt><trkpt lat="44.52597602225958" lon="10.436769315098019"><ele>397.0</ele><time>2026-04-12T10:13:12Z</time></trkpt><trkpt lat="44.52603261085476" lon="10.436811870879387"><ele>397.00000000000006</ele><time>2026-04-12T10:13:13Z</time></trkpt><trkpt lat="44.52609791738414" lon="10.436844607318555"><ele>397.0</ele><time>2026-04-12T10:13:14Z</time></trkpt><trkpt lat="44.52616713143686" lon="10.436854941765091"><ele>397.0</ele><time>2026-04-12T10:13:17Z</time></trkpt><trkpt lat="44.5262228070622" lon="10.436912119219569"><ele>397.0</ele><time>2026-04-12T10:13:19Z</time></trkpt><trkpt lat="44.52632027515287" lon="10.436955417605157"><ele>397.00000000000006</ele><time>2026-04-12T10:13:21Z</time></trkpt><trkpt lat="44.526395665863646" lon="10.43702048651577"><ele>397.0</ele><time>2026-04-12T10:13:22Z</time></trkpt><trkpt lat="44.52643596956946" lon="10.437118081290773"><ele>397.6</ele><time>2026-04-12T10:13:23Z</time></trkpt><trkpt lat="44.52648068488047" lon="10.437229404579996"><ele>398.20000000000005</ele><time>2026-04-12T10:13:24Z</time></trkpt><trkpt lat="44.52651763485776" lon="10.437372363810056"><ele>398.8</ele><time>2026-04-12T10:13:25Z</time></trkpt><trkpt lat="44.526560504825035" lon="10.437532328930793"><ele>399.4</ele><time>2026-04-12T10:13:26Z</time></trkpt><trkpt lat="44.5265908015059" lon="10.43767309534746"><ele>400.0</ele><time>2026-04-12T10:13:27Z</time></trkpt><trkpt lat="44.52660273062615" lon="10.437798557946333"><ele>400.00000000000006</ele><time>2026-04-12T10:13:28Z</time></trkpt><trkpt lat="44.526634117129" lon="10.437894171032823"><ele>400.0</ele><time>2026-04-12T10:13:29Z</time></trkpt><trkpt lat="44.52668525727076" lon="10.437974298281043"><ele>400.0</ele><time>2026-04-12T10:13:30Z</time></trkpt><trkpt lat="44.526773393203314" lon="10.438031540894025"><ele>400.0</ele><time>2026-04-12T10:13:32Z</time></trkpt><trkpt lat="44.52684027822781" lon="10.438037406173883"><ele>400.00000000000006</ele><time>2026-04-12T10:13:33Z</time></trkpt><trkpt lat="44.526918088757846" lon="10.438059835055318"><ele>400.0</ele><time>2026-04-12T10:13:34Z</time></trkpt><trkpt lat="44.52706039218567" lon="10.438040444487045"><ele>400.2</ele><time>2026-04-12T10:13:35Z</time></trkpt><trkpt lat="44.527159230584004" lon="10.438017613421376"><ele>400.4</ele><time>2026-04-12T10:13:36Z</time></trkpt><trkpt lat="44.52721165076276" lon="10.43809751427733"><ele>400.6</ele><time>2026-04-12T10:13:37Z</time></trkpt><trkpt lat="44.52726150113607" lon="10.438195664588767"><ele>400.8</ele><time>2026-04-12T10:13:38Z</time></trkpt><trkpt lat="44.52728281054093" lon="10.438338902056358"><ele>401.0</ele><time>2026-04-12T10:13:39Z</time></trkpt><trkpt lat="44.52731935592056" lon="10.438495954962566"><ele>401.0</ele><time>2026-04-12T10:13:40Z</time></trkpt><trkpt lat="44.52735887189094" lon="10.438625646763715"><ele>401.0</ele><time>2026-04-12T10:13:41Z</time></trkpt><trkpt lat="44.52741578860333" lon="10.438743891473907"><ele>401.0</ele><time>2026-04-12T10:13:43Z</time></trkpt><trkpt lat="44.52756066016028" lon="10.438810214542618"><ele>401.0</ele><time>2026-04-12T10:13:45Z</time></trkpt><trkpt lat="44.527700486875965" lon="10.438858490111024"><ele>400.8</ele><time>2026-04-12T10:13:46Z</time></trkpt><trkpt lat="44.527826018494856" lon="10.438960671169033"><ele>400.6</ele><time>2026-04-12T10:13:47Z</time></trkpt><trkpt lat="44.52789051833036" lon="10.439001691850297"><ele>400.4</ele><time>2026-04-12T10:13:48Z</time></trkpt><trkpt lat="44.52790233798686" lon="10.439094271024116"><ele>400.2</ele><time>2026-04-12T10:13:50Z</time></trkpt><trkpt lat="44.527871098825926" lon="10.439212975631367"><ele>400.0</ele><time>2026-04-12T10:13:51Z</time></trkpt><trkpt lat="44.527848269846174" lon="10.439335496525839"><ele>400.00000000000006</ele><time>2026-04-12T10:13:52Z</time></trkpt><trkpt lat="44.52782249820368" lon="10.43943582842421"><ele>400.0</ele><time>2026-04-12T10:13:53Z</time></trkpt><trkpt lat="44.52777643138715" lon="10.439560262450632"><ele>400.0</ele><time>2026-04-12T10:13:55Z</time></trkpt><trkpt lat="44.52770862289862" lon="10.439600291726578"><ele>400.0</ele><time>2026-04-12T10:13:57Z</time></trkpt><trkpt lat="44.52763304208542" lon="10.43966765206923"><ele>400.00000000000006</ele><time>2026-04-12T10:13:59Z</time></trkpt><trkpt lat="44.52755601118852" lon="10.439745796669888"><ele>400.0</ele><time>2026-04-12T10:14:01Z</time></trkpt><trkpt lat="44.52748398902408" lon="10.439848094136757"><ele>400.00000000000006</ele><time>2026-04-12T10:14:03Z</time></trkpt><trkpt lat="44.527416764383304" lon="10.439911732974982"><ele>400.0</ele><time>2026-04-12T10:14:04Z</time></trkpt><trkpt lat="44.52735619003654" lon="10.43997413090697"><ele>400.0</ele><time>2026-04-12T10:14:06Z</time></trkpt><trkpt lat="44.52723178541273" lon="10.44009576511893"><ele>400.0</ele><time>2026-04-12T10:14:46.999Z</time></trkpt><trkpt lat="44.527179750597426" lon="10.440164485386846"><ele>400.00000000000006</ele><time>2026-04-12T10:14:47.999Z</time></trkpt><trkpt lat="44.52712486381639" lon="10.440223993469733"><ele>400.0</ele><time>2026-04-12T10:14:48.999Z</time></trkpt><trkpt lat="44.527070853633894" lon="10.440279172134957"><ele>400.8</ele><time>2026-04-12T10:14:49.999Z</time></trkpt><trkpt lat="44.52701745376264" lon="10.440341657910983"><ele>401.6</ele><time>2026-04-12T10:14:50.999Z</time></trkpt><trkpt lat="44.52691923832522" lon="10.44046970110931"><ele>402.4</ele><time>2026-04-12T10:14:53Z</time></trkpt><trkpt lat="44.52685478956959" lon="10.440560350451593"><ele>403.2</ele><time>2026-04-12T10:14:55Z</time></trkpt><trkpt lat="44.526775070774036" lon="10.440669877360792"><ele>404.0</ele><time>2026-04-12T10:14:57Z</time></trkpt><trkpt lat="44.52669992949645" lon="10.440739912436534"><ele>404.0</ele><time>2026-04-12T10:14:59Z</time></trkpt><trkpt lat="44.52680114583329" lon="10.44068295613308"><ele>404.0</ele><time>2026-04-12T10:15:08Z</time></trkpt><trkpt lat="44.52689241636404" lon="10.4407804761427"><ele>404.0</ele><time>2026-04-12T10:15:10Z</time></trkpt><trkpt lat="44.526950637321335" lon="10.440871250238715"><ele>404.0</ele><time>2026-04-12T10:15:11Z</time></trkpt><trkpt lat="44.52702362913106" lon="10.440970936709556"><ele>404.0</ele><time>2026-04-12T10:15:12Z</time></trkpt><trkpt lat="44.52712029923147" lon="10.441049489745442"><ele>403.75</ele><time>2026-04-12T10:15:13Z</time></trkpt><trkpt lat="44.52722726488613" lon="10.441158654941201"><ele>403.5</ele><time>2026-04-12T10:15:14Z</time></trkpt><trkpt lat="44.527314178264476" lon="10.441294407847119"><ele>403.25</ele><time>2026-04-12T10:15:15Z</time></trkpt><trkpt lat="44.52738450012549" lon="10.441408028042922"><ele>403.0</ele><time>2026-04-12T10:15:16Z</time></trkpt><trkpt lat="44.52743489951844" lon="10.441525206732475"><ele>403.4</ele><time>2026-04-12T10:15:17Z</time></trkpt><trkpt lat="44.527470341882065" lon="10.441646028244026"><ele>403.79999999999995</ele><time>2026-04-12T10:15:18Z</time></trkpt><trkpt lat="44.527492285651896" lon="10.441776055840013"><ele>404.2</ele><time>2026-04-12T10:15:19Z</time></trkpt><trkpt lat="44.52752780934425" lon="10.441894418375023"><ele>404.6</ele><time>2026-04-12T10:15:20Z</time></trkpt><trkpt lat="44.5275748342861" lon="10.442012943798778"><ele>405.0</ele><time>2026-04-12T10:15:21Z</time></trkpt><trkpt lat="44.52763634798456" lon="10.442106466814602"><ele>405.1666666666667</ele><time>2026-04-12T10:15:22Z</time></trkpt><trkpt lat="44.52769227298717" lon="10.442182238802108"><ele>405.33333333333337</ele><time>2026-04-12T10:15:23Z</time></trkpt><trkpt lat="44.527758751761894" lon="10.442254936622641"><ele>405.5</ele><time>2026-04-12T10:15:24Z</time></trkpt><trkpt lat="44.527827486630336" lon="10.442308991727591"><ele>405.6666666666667</ele><time>2026-04-12T10:15:25Z</time></trkpt><trkpt lat="44.52790244121274" lon="10.44235383340133"><ele>405.83333333333337</ele><time>2026-04-12T10:15:26Z</time></trkpt><trkpt lat="44.527985759859455" lon="10.44241411428402"><ele>406.0</ele><time>2026-04-12T10:15:27Z</time></trkpt><trkpt lat="44.52805837361363" lon="10.442490548448799"><ele>406.0</ele><time>2026-04-12T10:15:28Z</time></trkpt><trkpt lat="44.52812291057406" lon="10.442596004462468"><ele>406.0</ele><time>2026-04-12T10:15:29Z</time></trkpt><trkpt lat="44.52817590767896" lon="10.442720104480674"><ele>406.0</ele><time>2026-04-12T10:15:30Z</time></trkpt><trkpt lat="44.52821333539544" lon="10.442838791956486"><ele>406.0</ele><time>2026-04-12T10:15:31Z</time></trkpt><trkpt lat="44.528223491572426" lon="10.44295514719204"><ele>406.0</ele><time>2026-04-12T10:15:32Z</time></trkpt><trkpt lat="44.528223350971004" lon="10.443082018789754"><ele>406.0</ele><time>2026-04-12T10:15:33Z</time></trkpt><trkpt lat="44.52822244020833" lon="10.443202750495226"><ele>406.0</ele><time>2026-04-12T10:15:34Z</time></trkpt><trkpt lat="44.52821944514682" lon="10.443319637925184"><ele>406.0</ele><time>2026-04-12T10:15:35Z</time></trkpt><trkpt lat="44.528221424308974" lon="10.443434912441266"><ele>406.0</ele><time>2026-04-12T10:15:36Z</time></trkpt><trkpt lat="44.52821294371878" lon="10.443566080515309"><ele>406.0</ele><time>2026-04-12T10:15:37Z</time></trkpt><trkpt lat="44.52820524830356" lon="10.443717187013004"><ele>407.0</ele><time>2026-04-12T10:15:38Z</time></trkpt><trkpt lat="44.52821967312795" lon="10.44387486539986"><ele>408.0</ele><time>2026-04-12T10:15:39Z</time></trkpt><trkpt lat="44.528237857245735" lon="10.444014822303748"><ele>409.0</ele><time>2026-04-12T10:15:40Z</time></trkpt><trkpt lat="44.5282314207067" lon="10.444119336826033"><ele>410.0</ele><time>2026-04-12T10:15:41Z</time></trkpt><trkpt lat="44.52829984049859" lon="10.444236903245853"><ele>411.0</ele><time>2026-04-12T10:15:43Z</time></trkpt><trkpt lat="44.52837587296636" lon="10.444239394817055"><ele>411.0</ele><time>2026-04-12T10:15:44Z</time></trkpt><trkpt lat="44.52848112903414" lon="10.444164108710861"><ele>411.0</ele><time>2026-04-12T10:15:45Z</time></trkpt><trkpt lat="44.52860814852514" lon="10.44412290994523"><ele>411.0</ele><time>2026-04-12T10:15:46Z</time></trkpt><trkpt lat="44.52869069220124" lon="10.444161982247808"><ele>411.0</ele><time>2026-04-12T10:15:47Z</time></trkpt><trkpt lat="44.528771738087485" lon="10.444226841388488"><ele>411.0</ele><time>2026-04-12T10:15:48Z</time></trkpt><trkpt lat="44.52885228113544" lon="10.44431434882796"><ele>411.75</ele><time>2026-04-12T10:15:49Z</time></trkpt><trkpt lat="44.52890389131857" lon="10.444402901572856"><ele>412.5</ele><time>2026-04-12T10:15:50Z</time></trkpt><trkpt lat="44.52891565586262" lon="10.444549213731824"><ele>413.25</ele><time>2026-04-12T10:15:51Z</time></trkpt><trkpt lat="44.528915534759484" lon="10.44474037056119"><ele>414.0</ele><time>2026-04-12T10:15:52Z</time></trkpt><trkpt lat="44.52892085656062" lon="10.444926631289853"><ele>414.0</ele><time>2026-04-12T10:15:53Z</time></trkpt><trkpt lat="44.528898012417976" lon="10.44507700437468"><ele>414.0</ele><time>2026-04-12T10:15:54Z</time></trkpt><trkpt lat="44.528883824127085" lon="10.445215974046917"><ele>414.0</ele><time>2026-04-12T10:15:55Z</time></trkpt><trkpt lat="44.52886928339941" lon="10.445403305921602"><ele>414.0</ele><time>2026-04-12T10:15:56Z</time></trkpt><trkpt lat="44.52884948039053" lon="10.445560848338843"><ele>414.6</ele><time>2026-04-12T10:15:57Z</time></trkpt><trkpt lat="44.52883727864716" lon="10.445671842114175"><ele>415.2</ele><time>2026-04-12T10:15:58Z</time></trkpt><trkpt lat="44.5288481486211" lon="10.445784352096856"><ele>415.8</ele><time>2026-04-12T10:15:59Z</time></trkpt><trkpt lat="44.52889580571139" lon="10.445928647700953"><ele>416.40000000000003</ele><time>2026-04-12T10:16:00Z</time></trkpt><trkpt lat="44.52896244854286" lon="10.446084744697654"><ele>417.0</ele><time>2026-04-12T10:16:01Z</time></trkpt><trkpt lat="44.52901949291793" lon="10.446192292219965"><ele>417.20000000000005</ele><time>2026-04-12T10:16:02Z</time></trkpt><trkpt lat="44.52906858429416" lon="10.446300678809147"><ele>417.4</ele><time>2026-04-12T10:16:04Z</time></trkpt><trkpt lat="44.52909593210767" lon="10.446416618323575"><ele>417.6</ele><time>2026-04-12T10:16:06Z</time></trkpt><trkpt lat="44.52914978647382" lon="10.446605643376165"><ele>417.79999999999995</ele><time>2026-04-12T10:16:08Z</time></trkpt><trkpt lat="44.529208314910036" lon="10.44669762231444"><ele>418.0</ele><time>2026-04-12T10:16:09Z</time></trkpt><trkpt lat="44.52924462433005" lon="10.446775983610019"><ele>418.0</ele><time>2026-04-12T10:16:10Z</time></trkpt><trkpt lat="44.52928880080399" lon="10.4468695314622"><ele>418.0</ele><time>2026-04-12T10:16:11.999Z</time></trkpt><trkpt lat="44.52929631083696" lon="10.447003454210103"><ele>418.0</ele><time>2026-04-12T10:16:13.999Z</time></trkpt><trkpt lat="44.529267424116206" lon="10.447149189023035"><ele>418.0</ele><time>2026-04-12T10:16:14.999Z</time></trkpt><trkpt lat="44.529261359581454" lon="10.447352971672217"><ele>418.0</ele><time>2026-04-12T10:16:15.999Z</time></trkpt><trkpt lat="44.529255156371995" lon="10.44752333241141"><ele>418.0</ele><time>2026-04-12T10:16:16.999Z</time></trkpt><trkpt lat="44.52922353590411" lon="10.447679925387249"><ele>418.0</ele><time>2026-04-12T10:16:17.999Z</time></trkpt><trkpt lat="44.5291891035198" lon="10.447815862044992"><ele>418.0</ele><time>2026-04-12T10:16:18.999Z</time></trkpt><trkpt lat="44.52919066206308" lon="10.44794106671352"><ele>418.0</ele><time>2026-04-12T10:16:19.999Z</time></trkpt><trkpt lat="44.52921730194646" lon="10.448039385671462"><ele>418.0</ele><time>2026-04-12T10:16:20.999Z</time></trkpt><trkpt lat="44.52924723770427" lon="10.448153342423712"><ele>418.79999999999995</ele><time>2026-04-12T10:16:21.999Z</time></trkpt><trkpt lat="44.52930136859806" lon="10.44825103453905"><ele>419.6</ele><time>2026-04-12T10:16:22.999Z</time></trkpt><trkpt lat="44.52936003723842" lon="10.448355920686307"><ele>420.4</ele><time>2026-04-12T10:16:23.999Z</time></trkpt><trkpt lat="44.52942444202047" lon="10.44840203501915"><ele>421.20000000000005</ele><time>2026-04-12T10:16:25.999Z</time></trkpt><trkpt lat="44.52947913271161" lon="10.44858665478686"><ele>422.0</ele><time>2026-04-12T10:16:28.999Z</time></trkpt><trkpt lat="44.52951853999825" lon="10.448695826121845"><ele>422.0</ele><time>2026-04-12T10:16:30.999Z</time></trkpt><trkpt lat="44.52947416372795" lon="10.448774960728624"><ele>422.0</ele><time>2026-04-12T10:16:31.999Z</time></trkpt><trkpt lat="44.52942626539751" lon="10.44889653236385"><ele>422.0</ele><time>2026-04-12T10:16:32.999Z</time></trkpt><trkpt lat="44.5293393896715" lon="10.449081497096772"><ele>422.0</ele><time>2026-04-12T10:16:33.999Z</time></trkpt><trkpt lat="44.52925203154195" lon="10.449263594199671"><ele>422.16666666666663</ele><time>2026-04-12T10:16:34.999Z</time></trkpt><trkpt lat="44.529198220031326" lon="10.449413321720478"><ele>422.3333333333333</ele><time>2026-04-12T10:16:35.999Z</time></trkpt><trkpt lat="44.529168130957046" lon="10.449496880953006"><ele>422.5</ele><time>2026-04-12T10:16:36.999Z</time></trkpt><trkpt lat="44.52919263080884" lon="10.44961448474565"><ele>422.66666666666663</ele><time>2026-04-12T10:16:38.999Z</time></trkpt><trkpt lat="44.5292236213947" lon="10.449697973176084"><ele>422.8333333333333</ele><time>2026-04-12T10:16:39.999Z</time></trkpt><trkpt lat="44.529267829049616" lon="10.449831942228144"><ele>423.0</ele><time>2026-04-12T10:16:41.999Z</time></trkpt><trkpt lat="44.52922638239156" lon="10.449946215655386"><ele>423.0</ele><time>2026-04-12T10:16:45.999Z</time></trkpt><trkpt lat="44.5292684501161" lon="10.450037172301293"><ele>423.0</ele><time>2026-04-12T10:16:46.999Z</time></trkpt><trkpt lat="44.529313677551684" lon="10.450127944076133"><ele>423.0</ele><time>2026-04-12T10:16:47.999Z</time></trkpt><trkpt lat="44.52938795734195" lon="10.450259301072519"><ele>423.0</ele><time>2026-04-12T10:16:48.999Z</time></trkpt><trkpt lat="44.529407662551314" lon="10.450433629463934"><ele>423.0</ele><time>2026-04-12T10:16:49.999Z</time></trkpt><trkpt lat="44.52934337194656" lon="10.450642964997309"><ele>423.25</ele><time>2026-04-12T10:16:50.999Z</time></trkpt><trkpt lat="44.52931163357733" lon="10.450806716853117"><ele>423.5</ele><time>2026-04-12T10:16:51.999Z</time></trkpt><trkpt lat="44.52932783540604" lon="10.450943860942509"><ele>423.75</ele><time>2026-04-12T10:16:52.999Z</time></trkpt><trkpt lat="44.52934140039466" lon="10.451092237527803"><ele>424.0</ele><time>2026-04-12T10:16:53.999Z</time></trkpt><trkpt lat="44.52936936061011" lon="10.451273930847236"><ele>424.0</ele><time>2026-04-12T10:16:54.999Z</time></trkpt><trkpt lat="44.52936622913493" lon="10.45144886323789"><ele>424.0</ele><time>2026-04-12T10:16:55.999Z</time></trkpt><trkpt lat="44.5293613605294" lon="10.451625485029593"><ele>424.0</ele><time>2026-04-12T10:16:56.999Z</time></trkpt><trkpt lat="44.52933393144643" lon="10.451814349140937"><ele>424.0</ele><time>2026-04-12T10:16:57.999Z</time></trkpt><trkpt lat="44.52929602978904" lon="10.452037510378716"><ele>424.5</ele><time>2026-04-12T10:16:59Z</time></trkpt><trkpt lat="44.52925819626965" lon="10.452254076304383"><ele>425.0</ele><time>2026-04-12T10:17:00Z</time></trkpt><trkpt lat="44.52923976666688" lon="10.452466197084322"><ele>425.5</ele><time>2026-04-12T10:17:01Z</time></trkpt><trkpt lat="44.52923400511728" lon="10.452613300668506"><ele>426.0</ele><time>2026-04-12T10:17:02Z</time></trkpt><trkpt lat="44.5292321303171" lon="10.452721002745687"><ele>426.0</ele><time>2026-04-12T10:17:03Z</time></trkpt><trkpt lat="44.529335325285224" lon="10.452525843546866"><ele>426.0</ele><time>2026-04-12T10:17:41Z</time></trkpt><trkpt lat="44.52938041864279" lon="10.452435733620318"><ele>426.0</ele><time>2026-04-12T10:17:42Z</time></trkpt><trkpt lat="44.529431919426955" lon="10.452309874579123"><ele>426.0</ele><time>2026-04-12T10:17:43Z</time></trkpt><trkpt lat="44.529538520777145" lon="10.452203460156971"><ele>429.0</ele><time>2026-04-12T10:17:44Z</time></trkpt><trkpt lat="44.52965233964082" lon="10.452123441381824"><ele>432.0</ele><time>2026-04-12T10:17:45Z</time></trkpt><trkpt lat="44.529709773176585" lon="10.452009110805715"><ele>435.0</ele><time>2026-04-12T10:17:46Z</time></trkpt><trkpt lat="44.529760278768" lon="10.451903627954426"><ele>438.0</ele><time>2026-04-12T10:17:47Z</time></trkpt><trkpt lat="44.52986567184684" lon="10.45182876069928"><ele>441.0</ele><time>2026-04-12T10:17:49Z</time></trkpt><trkpt lat="44.52995173587006" lon="10.45185643504831"><ele>441.0</ele><time>2026-04-12T10:17:50Z</time></trkpt><trkpt lat="44.53006811156843" lon="10.451936252810224"><ele>441.0</ele><time>2026-04-12T10:17:51Z</time></trkpt><trkpt lat="44.53013994278743" lon="10.452038155091081"><ele>441.0</ele><time>2026-04-12T10:17:52Z</time></trkpt><trkpt lat="44.530167845327625" lon="10.452137990753888"><ele>441.0</ele><time>2026-04-12T10:17:53Z</time></trkpt><trkpt lat="44.53020913601282" lon="10.45223132901924"><ele>441.0</ele><time>2026-04-12T10:17:54Z</time></trkpt><trkpt lat="44.530273014272716" lon="10.452325355162385"><ele>441.4</ele><time>2026-04-12T10:17:55Z</time></trkpt><trkpt lat="44.530369637403965" lon="10.452313922566514"><ele>441.8</ele><time>2026-04-12T10:17:56Z</time></trkpt><trkpt lat="44.53046957630871" lon="10.452343326516216"><ele>442.19999999999993</ele><time>2026-04-12T10:17:57Z</time></trkpt><trkpt lat="44.53057000726211" lon="10.452414814127787"><ele>442.59999999999997</ele><time>2026-04-12T10:17:58Z</time></trkpt><trkpt lat="44.53066243241048" lon="10.452503775498375"><ele>443.0</ele><time>2026-04-12T10:17:59Z</time></trkpt><trkpt lat="44.53072239277421" lon="10.452590487024212"><ele>446.5</ele><time>2026-04-12T10:18:00Z</time></trkpt><trkpt lat="44.530733105979344" lon="10.452739626206183"><ele>450.0</ele><time>2026-04-12T10:18:01Z</time></trkpt><trkpt lat="44.53077932180102" lon="10.4529013804912"><ele>453.5</ele><time>2026-04-12T10:18:02Z</time></trkpt><trkpt lat="44.53084588770861" lon="10.453049868574983"><ele>457.0</ele><time>2026-04-12T10:18:03Z</time></trkpt><trkpt lat="44.53090279302852" lon="10.453159265577698"><ele>457.75</ele><time>2026-04-12T10:18:04Z</time></trkpt><trkpt lat="44.53100399222756" lon="10.453194373064127"><ele>458.5</ele><time>2026-04-12T10:18:05Z</time></trkpt><trkpt lat="44.53115239852244" lon="10.453203666616075"><ele>459.25</ele><time>2026-04-12T10:18:06Z</time></trkpt><trkpt lat="44.53133758232339" lon="10.45326481471341"><ele>460.0</ele><time>2026-04-12T10:18:07Z</time></trkpt><trkpt lat="44.53147267892452" lon="10.453285788677672"><ele>461.0</ele><time>2026-04-12T10:18:08Z</time></trkpt><trkpt lat="44.531633198419854" lon="10.453302394857891"><ele>462.0</ele><time>2026-04-12T10:18:09Z</time></trkpt><trkpt lat="44.53181025226402" lon="10.453316083355547"><ele>463.0</ele><time>2026-04-12T10:18:10Z</time></trkpt><trkpt lat="44.53198454594846" lon="10.453303091953515"><ele>467.0</ele><time>2026-04-12T10:18:11Z</time></trkpt><trkpt lat="44.53210649878298" lon="10.453298153226893"><ele>470.99999999999994</ele><time>2026-04-12T10:18:12Z</time></trkpt><trkpt lat="44.53221816679163" lon="10.453262304895617"><ele>474.99999999999994</ele><time>2026-04-12T10:18:13Z</time></trkpt><trkpt lat="44.53233473582231" lon="10.453242492015574"><ele>479.0</ele><time>2026-04-12T10:18:14Z</time></trkpt><trkpt lat="44.53242597903554" lon="10.45321629039046"><ele>483.0</ele><time>2026-04-12T10:18:15Z</time></trkpt><trkpt lat="44.53248830994674" lon="10.453157835107262"><ele>483.0</ele><time>2026-04-12T10:18:16Z</time></trkpt><trkpt lat="44.53254863904069" lon="10.453058596685766"><ele>483.0</ele><time>2026-04-12T10:18:17Z</time></trkpt><trkpt lat="44.53260137103855" lon="10.452925596808562"><ele>483.0</ele><time>2026-04-12T10:18:18Z</time></trkpt><trkpt lat="44.53262928640904" lon="10.452816040238135"><ele>483.0</ele><time>2026-04-12T10:18:19Z</time></trkpt><trkpt lat="44.53265654263775" lon="10.45273331649035"><ele>483.0</ele><time>2026-04-12T10:18:20Z</time></trkpt><trkpt lat="44.53270314205525" lon="10.452668227369042"><ele>483.0</ele><time>2026-04-12T10:18:21Z</time></trkpt><trkpt lat="44.53277403747439" lon="10.452630453830912"><ele>485.0</ele><time>2026-04-12T10:18:22Z</time></trkpt><trkpt lat="44.5328729779128" lon="10.452441789139321"><ele>487.0</ele><time>2026-04-12T10:18:24Z</time></trkpt><trkpt lat="44.53292261537075" lon="10.452274664483335"><ele>489.0</ele><time>2026-04-12T10:18:24.999Z</time></trkpt><trkpt lat="44.53297522784078" lon="10.452121359337534"><ele>491.0</ele><time>2026-04-12T10:18:25.999Z</time></trkpt><trkpt lat="44.5330351778567" lon="10.451945972087268"><ele>495.20000000000005</ele><time>2026-04-12T10:18:26.999Z</time></trkpt><trkpt lat="44.53307888972968" lon="10.451760928421335"><ele>499.40000000000003</ele><time>2026-04-12T10:18:27.999Z</time></trkpt><trkpt lat="44.533120290678895" lon="10.451604741479569"><ele>503.6</ele><time>2026-04-12T10:18:28.999Z</time></trkpt><trkpt lat="44.5331538127653" lon="10.45150123217373"><ele>507.8</ele><time>2026-04-12T10:18:29.999Z</time></trkpt><trkpt lat="44.533233419573364" lon="10.451515235084292"><ele>512.0</ele><time>2026-04-12T10:18:32.999Z</time></trkpt><trkpt lat="44.53327480307939" lon="10.45163736575384"><ele>512.0</ele><time>2026-04-12T10:18:34.999Z</time></trkpt><trkpt lat="44.53333515743335" lon="10.451771949577763"><ele>512.0</ele><time>2026-04-12T10:18:36.999Z</time></trkpt><trkpt lat="44.53339536853404" lon="10.451816338629234"><ele>512.0</ele><time>2026-04-12T10:18:45.999Z</time></trkpt><trkpt lat="44.533468731603286" lon="10.451880865051669"><ele>512.0</ele><time>2026-04-12T10:18:46.999Z</time></trkpt><trkpt lat="44.53354766899875" lon="10.451965368534182"><ele>512.0</ele><time>2026-04-12T10:18:47.999Z</time></trkpt><trkpt lat="44.53362089641506" lon="10.452040084836362"><ele>512.0</ele><time>2026-04-12T10:18:48.999Z</time></trkpt><trkpt lat="44.53371646487542" lon="10.452093972000387"><ele>512.0</ele><time>2026-04-12T10:18:49.999Z</time></trkpt><trkpt lat="44.53380956417269" lon="10.452121962391205"><ele>512.0</ele><time>2026-04-12T10:18:50.999Z</time></trkpt><trkpt lat="44.53388174810086" lon="10.452146940097427"><ele>512.0</ele><time>2026-04-12T10:18:51.999Z</time></trkpt><trkpt lat="44.53394352167841" lon="10.452213229095104"><ele>512.0</ele><time>2026-04-12T10:18:52.999Z</time></trkpt><trkpt lat="44.53402053950922" lon="10.452319821421492"><ele>517.25</ele><time>2026-04-12T10:18:53.999Z</time></trkpt><trkpt lat="44.53412341899556" lon="10.452437170059188"><ele>522.5</ele><time>2026-04-12T10:18:54.999Z</time></trkpt><trkpt lat="44.534233085153275" lon="10.452571024513098"><ele>527.75</ele><time>2026-04-12T10:18:55.999Z</time></trkpt><trkpt lat="44.53432695650377" lon="10.452653341846611"><ele>533.0</ele><time>2026-04-12T10:18:56.999Z</time></trkpt><trkpt lat="44.53440737436526" lon="10.452735811751118"><ele>533.0</ele><time>2026-04-12T10:18:57.999Z</time></trkpt><trkpt lat="44.534481247643605" lon="10.452774509210833"><ele>533.0</ele><time>2026-04-12T10:18:58.999Z</time></trkpt><trkpt lat="44.5345676428782" lon="10.452820684349126"><ele>533.0</ele><time>2026-04-12T10:18:59.999Z</time></trkpt><trkpt lat="44.534664673958176" lon="10.45286647466444"><ele>533.0</ele><time>2026-04-12T10:19:00.999Z</time></trkpt><trkpt lat="44.534776503982876" lon="10.45291062086678"><ele>533.0</ele><time>2026-04-12T10:19:01.999Z</time></trkpt><trkpt lat="44.53487663632194" lon="10.452933450378945"><ele>536.75</ele><time>2026-04-12T10:19:02.999Z</time></trkpt><trkpt lat="44.53497809683391" lon="10.452989094131594"><ele>540.5</ele><time>2026-04-12T10:19:03.999Z</time></trkpt><trkpt lat="44.53511358614376" lon="10.453039816523853"><ele>544.25</ele><time>2026-04-12T10:19:05Z</time></trkpt><trkpt lat="44.53524899747725" lon="10.453093600491336"><ele>548.0</ele><time>2026-04-12T10:19:06Z</time></trkpt><trkpt lat="44.53536793642011" lon="10.45313357834904"><ele>551.4</ele><time>2026-04-12T10:19:07Z</time></trkpt><trkpt lat="44.5354762699603" lon="10.453172356523115"><ele>554.8</ele><time>2026-04-12T10:19:08Z</time></trkpt><trkpt lat="44.535565997437146" lon="10.453258645522606"><ele>558.2</ele><time>2026-04-12T10:19:09Z</time></trkpt><trkpt lat="44.53566166800888" lon="10.453359145329602"><ele>561.6</ele><time>2026-04-12T10:19:10Z</time></trkpt><trkpt lat="44.53574049226752" lon="10.4534376643953"><ele>565.0</ele><time>2026-04-12T10:19:11Z</time></trkpt><trkpt lat="44.53582255748405" lon="10.453438207971347"><ele>565.0</ele><time>2026-04-12T10:19:13Z</time></trkpt><trkpt lat="44.535872810100926" lon="10.453381224257292"><ele>565.0</ele><time>2026-04-12T10:19:16Z</time></trkpt><trkpt lat="44.535996719342236" lon="10.453316124327337"><ele>565.0</ele><time>2026-04-12T10:19:18Z</time></trkpt><trkpt lat="44.53606359300497" lon="10.453281683847575"><ele>565.0</ele><time>2026-04-12T10:19:22Z</time></trkpt><trkpt lat="44.53613425424641" lon="10.453213906587061"><ele>565.0</ele><time>2026-04-12T10:20:11Z</time></trkpt><trkpt lat="44.536232552293725" lon="10.453226314339448"><ele>565.0</ele><time>2026-04-12T10:20:13Z</time></trkpt><trkpt lat="44.53619005421351" lon="10.45331872530319"><ele>565.0</ele><time>2026-04-12T10:20:16Z</time></trkpt><trkpt lat="44.536110023419255" lon="10.453358142228932"><ele>565.0</ele><time>2026-04-12T10:20:18Z</time></trkpt><trkpt lat="44.536044818355485" lon="10.453432262501996"><ele>565.0</ele><time>2026-04-12T10:20:20Z</time></trkpt><trkpt lat="44.53603157148681" lon="10.453543946294491"><ele>565.0</ele><time>2026-04-12T10:20:22Z</time></trkpt><trkpt lat="44.53606811055857" lon="10.453640271986643"><ele>565.0</ele><time>2026-04-12T10:20:24Z</time></trkpt><trkpt lat="44.5361711522731" lon="10.453704854353086"><ele>568.3333333333334</ele><time>2026-04-12T10:20:26Z</time></trkpt><trkpt lat="44.536249960580584" lon="10.453731902487377"><ele>571.6666666666667</ele><time>2026-04-12T10:20:27Z</time></trkpt><trkpt lat="44.53632130922858" lon="10.45376819611019"><ele>575.0</ele><time>2026-04-12T10:20:28Z</time></trkpt><trkpt lat="44.53639232594285" lon="10.453812101529717"><ele>578.3333333333334</ele><time>2026-04-12T10:20:28.999Z</time></trkpt><trkpt lat="44.53647175835768" lon="10.453840590158434"><ele>581.6666666666666</ele><time>2026-04-12T10:20:29.999Z</time></trkpt><trkpt lat="44.536563480298675" lon="10.453811586376506"><ele>585.0</ele><time>2026-04-12T10:20:30.999Z</time></trkpt><trkpt lat="44.536661262402085" lon="10.45377417985886"><ele>585.0</ele><time>2026-04-12T10:20:31.999Z</time></trkpt><trkpt lat="44.53676299524101" lon="10.453746089953297"><ele>585.0</ele><time>2026-04-12T10:20:32.999Z</time></trkpt><trkpt lat="44.53685618424374" lon="10.453734437232628"><ele>585.0</ele><time>2026-04-12T10:20:33.999Z</time></trkpt><trkpt lat="44.53694344479105" lon="10.453728981299209"><ele>585.0</ele><time>2026-04-12T10:20:34.999Z</time></trkpt><trkpt lat="44.53705835547802" lon="10.453792567869272"><ele>585.0</ele><time>2026-04-12T10:20:36.999Z</time></trkpt><trkpt lat="44.53712228957929" lon="10.453829394899486"><ele>589.4</ele><time>2026-04-12T10:20:37.999Z</time></trkpt><trkpt lat="44.53719862087693" lon="10.453866553333157"><ele>593.8</ele><time>2026-04-12T10:20:38.999Z</time></trkpt><trkpt lat="44.53729511782798" lon="10.453906508854162"><ele>598.2</ele><time>2026-04-12T10:20:39.999Z</time></trkpt><trkpt lat="44.53738394386" lon="10.453919619043123"><ele>602.6</ele><time>2026-04-12T10:20:40.999Z</time></trkpt><trkpt lat="44.537474865265494" lon="10.45389897039618"><ele>607.0</ele><time>2026-04-12T10:20:41.999Z</time></trkpt><trkpt lat="44.537569973292236" lon="10.45386842336008"><ele>607.0</ele><time>2026-04-12T10:20:42.999Z</time></trkpt><trkpt lat="44.5376664153121" lon="10.453846426647864"><ele>607.0</ele><time>2026-04-12T10:20:43.999Z</time></trkpt><trkpt lat="44.537762032679744" lon="10.453868366929397"><ele>607.0</ele><time>2026-04-12T10:20:44.999Z</time></trkpt><trkpt lat="44.537857640235906" lon="10.453920341822649"><ele>607.0</ele><time>2026-04-12T10:20:45.999Z</time></trkpt><trkpt lat="44.53795236742563" lon="10.454001654198521"><ele>607.0</ele><time>2026-04-12T10:20:46.999Z</time></trkpt><trkpt lat="44.53803080387683" lon="10.454095135985199"><ele>611.8000000000001</ele><time>2026-04-12T10:20:47.999Z</time></trkpt><trkpt lat="44.538108392813456" lon="10.454177455022894"><ele>616.6</ele><time>2026-04-12T10:20:48.999Z</time></trkpt><trkpt lat="44.53819671534728" lon="10.45425979740888"><ele>621.4000000000001</ele><time>2026-04-12T10:20:49.999Z</time></trkpt><trkpt lat="44.53829465766406" lon="10.454342406056252"><ele>626.2</ele><time>2026-04-12T10:20:50.999Z</time></trkpt><trkpt lat="44.53841617698694" lon="10.4544127238432"><ele>631.0</ele><time>2026-04-12T10:20:51.999Z</time></trkpt><trkpt lat="44.53855185489829" lon="10.454497418635066"><ele>631.0</ele><time>2026-04-12T10:20:52.999Z</time></trkpt><trkpt lat="44.53868385016778" lon="10.454524877560171"><ele>631.0</ele><time>2026-04-12T10:20:53.999Z</time></trkpt><trkpt lat="44.53877969285817" lon="10.45455467690825"><ele>631.0</ele><time>2026-04-12T10:20:54.999Z</time></trkpt><trkpt lat="44.53884937207473" lon="10.454568751236463"><ele>631.0</ele><time>2026-04-12T10:20:55.999Z</time></trkpt><trkpt lat="44.53894189720146" lon="10.454562497390388"><ele>631.0</ele><time>2026-04-12T10:20:57.999Z</time></trkpt><trkpt lat="44.53899523468628" lon="10.454421662761131"><ele>636.0</ele><time>2026-04-12T10:20:59.999Z</time></trkpt><trkpt lat="44.53902201950358" lon="10.454320790234304"><ele>641.0</ele><time>2026-04-12T10:21:00.999Z</time></trkpt><trkpt lat="44.53905440506818" lon="10.454233386590742"><ele>646.0</ele><time>2026-04-12T10:21:01.999Z</time></trkpt><trkpt lat="44.53908980453468" lon="10.454133269827151"><ele>651.0</ele><time>2026-04-12T10:21:02.999Z</time></trkpt><trkpt lat="44.53911372414296" lon="10.454033023151355"><ele>656.0</ele><time>2026-04-12T10:21:03.999Z</time></trkpt><trkpt lat="44.539178078128636" lon="10.45397507609173"><ele>661.0</ele><time>2026-04-12T10:21:05.999Z</time></trkpt><trkpt lat="44.53929758462243" lon="10.453955084287015"><ele>661.0</ele><time>2026-04-12T10:21:08.999Z</time></trkpt><trkpt lat="44.539296778204154" lon="10.453837681236548"><ele>661.0</ele><time>2026-04-12T10:21:24Z</time></trkpt><trkpt lat="44.539292826153314" lon="10.453669140771522"><ele>661.0</ele><time>2026-04-12T10:21:27Z</time></trkpt><trkpt lat="44.53928703907121" lon="10.453520383709412"><ele>661.0</ele><time>2026-04-12T10:21:28Z</time></trkpt><trkpt lat="44.53928941955887" lon="10.453380120792302"><ele>661.0</ele><time>2026-04-12T10:21:29Z</time></trkpt><trkpt lat="44.539289823956366" lon="10.453251885534204"><ele>659.6666666666667</ele><time>2026-04-12T10:21:30Z</time></trkpt><trkpt lat="44.539296116191295" lon="10.453149498303812"><ele>658.3333333333334</ele><time>2026-04-12T10:21:31Z</time></trkpt><trkpt lat="44.539280965996134" lon="10.453055610699073"><ele>657.0</ele><time>2026-04-12T10:21:32Z</time></trkpt><trkpt lat="44.5392052836713" lon="10.452916322756574"><ele>655.6666666666666</ele><time>2026-04-12T10:21:34Z</time></trkpt><trkpt lat="44.53918192739135" lon="10.452813650445034"><ele>654.3333333333333</ele><time>2026-04-12T10:21:35Z</time></trkpt><trkpt lat="44.53918984306259" lon="10.452714863921985"><ele>653.0</ele><time>2026-04-12T10:21:37Z</time></trkpt><trkpt lat="44.53920331038358" lon="10.452608094851085"><ele>664.5</ele><time>2026-04-12T10:21:38Z</time></trkpt><trkpt lat="44.53958486885742" lon="10.45265906425491"><ele>676.0</ele><time>2026-04-12T10:21:39Z</time></trkpt><trkpt lat="44.539665426149696" lon="10.452569839009211"><ele>676.0</ele><time>2026-04-12T10:21:41Z</time></trkpt><trkpt lat="44.53971587206105" lon="10.452509564344933"><ele>676.0</ele><time>2026-04-12T10:21:42Z</time></trkpt><trkpt lat="44.539782867586275" lon="10.452436461315605"><ele>676.0</ele><time>2026-04-12T10:21:43Z</time></trkpt><trkpt lat="44.53985505843403" lon="10.452373405358262"><ele>676.0</ele><time>2026-04-12T10:21:44Z</time></trkpt><trkpt lat="44.53989202427198" lon="10.452263641921327"><ele>676.0</ele><time>2026-04-12T10:21:46Z</time></trkpt><trkpt lat="44.53984549175023" lon="10.452190551410908"><ele>676.0</ele><time>2026-04-12T10:21:47Z</time></trkpt><trkpt lat="44.53982107023996" lon="10.452108316023896"><ele>672.6666666666667</ele><time>2026-04-12T10:21:48Z</time></trkpt><trkpt lat="44.53978559480985" lon="10.451932458798366"><ele>669.3333333333334</ele><time>2026-04-12T10:21:50Z</time></trkpt><trkpt lat="44.539772394330626" lon="10.45182874434805"><ele>666.0</ele><time>2026-04-12T10:21:51Z</time></trkpt><trkpt lat="44.53976023490107" lon="10.451717420830361"><ele>662.6666666666666</ele><time>2026-04-12T10:21:52Z</time></trkpt><trkpt lat="44.5397506803289" lon="10.451597788445678"><ele>659.3333333333333</ele><time>2026-04-12T10:21:53Z</time></trkpt><trkpt lat="44.53974172495367" lon="10.451500140259116"><ele>656.0</ele><time>2026-04-12T10:21:54Z</time></trkpt><trkpt lat="44.53974553684291" lon="10.451406271973124"><ele>653.1999999999999</ele><time>2026-04-12T10:21:55Z</time></trkpt><trkpt lat="44.53974315860021" lon="10.451214240198544"><ele>650.4</ele><time>2026-04-12T10:21:57Z</time></trkpt><trkpt lat="44.53971542951084" lon="10.451109775023422"><ele>647.6</ele><time>2026-04-12T10:21:58Z</time></trkpt><trkpt lat="44.53968380575255" lon="10.451013217395298"><ele>644.8</ele><time>2026-04-12T10:21:59Z</time></trkpt><trkpt lat="44.53961412721333" lon="10.45084454965986"><ele>642.0</ele><time>2026-04-12T10:22:01Z</time></trkpt><trkpt lat="44.539571868513484" lon="10.450738703481619"><ele>642.0</ele><time>2026-04-12T10:22:02Z</time></trkpt><trkpt lat="44.53955228469499" lon="10.450624036604763"><ele>642.0</ele><time>2026-04-12T10:22:03Z</time></trkpt><trkpt lat="44.539395800719944" lon="10.450509027085914"><ele>642.0</ele><time>2026-04-12T10:22:04Z</time></trkpt><trkpt lat="44.53939014656988" lon="10.450337265130914"><ele>642.0</ele><time>2026-04-12T10:22:05Z</time></trkpt><trkpt lat="44.53939675052202" lon="10.450182717332591"><ele>639.8000000000001</ele><time>2026-04-12T10:22:06Z</time></trkpt><trkpt lat="44.539410134533156" lon="10.450035280764595"><ele>637.6</ele><time>2026-04-12T10:22:07Z</time></trkpt><trkpt lat="44.539464947173876" lon="10.449893953018002"><ele>635.4000000000001</ele><time>2026-04-12T10:22:08Z</time></trkpt><trkpt lat="44.539484840878565" lon="10.4497482657659"><ele>633.2</ele><time>2026-04-12T10:22:09Z</time></trkpt><trkpt lat="44.5394639195502" lon="10.449584557172368"><ele>631.0</ele><time>2026-04-12T10:22:10Z</time></trkpt><trkpt lat="44.539447444833264" lon="10.449426778423465"><ele>631.0</ele><time>2026-04-12T10:22:11Z</time></trkpt><trkpt lat="44.53944352329491" lon="10.449274252949598"><ele>631.0</ele><time>2026-04-12T10:22:12Z</time></trkpt><trkpt lat="44.53944989518187" lon="10.449129453773713"><ele>631.0</ele><time>2026-04-12T10:22:13Z</time></trkpt><trkpt lat="44.53946071662216" lon="10.44898626960432"><ele>631.0</ele><time>2026-04-12T10:22:14Z</time></trkpt><trkpt lat="44.53948077435379" lon="10.44884420589426"><ele>631.0</ele><time>2026-04-12T10:22:15Z</time></trkpt><trkpt lat="44.5395241800815" lon="10.448712832218684"><ele>631.8333333333334</ele><time>2026-04-12T10:22:16Z</time></trkpt><trkpt lat="44.53957090771591" lon="10.44861274653225"><ele>632.6666666666667</ele><time>2026-04-12T10:22:17Z</time></trkpt><trkpt lat="44.53960970558539" lon="10.44852265425041"><ele>633.5</ele><time>2026-04-12T10:22:18Z</time></trkpt><trkpt lat="44.539647470982054" lon="10.448428179743269"><ele>634.3333333333334</ele><time>2026-04-12T10:22:19Z</time></trkpt><trkpt lat="44.539681945425514" lon="10.44831069605686"><ele>635.1666666666666</ele><time>2026-04-12T10:22:20Z</time></trkpt><trkpt lat="44.53972537681188" lon="10.448172415437547"><ele>636.0</ele><time>2026-04-12T10:22:21Z</time></trkpt><trkpt lat="44.53976724795176" lon="10.448030229588568"><ele>634.2</ele><time>2026-04-12T10:22:22Z</time></trkpt><trkpt lat="44.53979752209679" lon="10.447890268569028"><ele>632.4000000000001</ele><time>2026-04-12T10:22:23Z</time></trkpt><trkpt lat="44.539834839708355" lon="10.44775750695427"><ele>630.6</ele><time>2026-04-12T10:22:23.999Z</time></trkpt><trkpt lat="44.53987389588305" lon="10.447638216420726"><ele>628.8000000000001</ele><time>2026-04-12T10:22:24.999Z</time></trkpt><trkpt lat="44.53991404525037" lon="10.447526894235972"><ele>627.0</ele><time>2026-04-12T10:22:25.999Z</time></trkpt><trkpt lat="44.53993762647845" lon="10.447415474144346"><ele>627.0</ele><time>2026-04-12T10:22:26.999Z</time></trkpt><trkpt lat="44.539935398857395" lon="10.447293197383956"><ele>627.0</ele><time>2026-04-12T10:22:27.999Z</time></trkpt><trkpt lat="44.53992542533404" lon="10.44716406139036"><ele>627.0</ele><time>2026-04-12T10:22:28.999Z</time></trkpt><trkpt lat="44.539930841370705" lon="10.447015137619811"><ele>627.0</ele><time>2026-04-12T10:22:29.999Z</time></trkpt><trkpt lat="44.53992678864915" lon="10.446872044344019"><ele>627.0</ele><time>2026-04-12T10:22:30.999Z</time></trkpt><trkpt lat="44.539934299264786" lon="10.446728011960646"><ele>625.2</ele><time>2026-04-12T10:22:31.999Z</time></trkpt><trkpt lat="44.5399413509183" lon="10.446595693440289"><ele>623.4000000000001</ele><time>2026-04-12T10:22:32.999Z</time></trkpt><trkpt lat="44.53998545617098" lon="10.446478741350857"><ele>621.5999999999999</ele><time>2026-04-12T10:22:33.999Z</time></trkpt><trkpt lat="44.54002563268009" lon="10.44634528590961"><ele>619.8</ele><time>2026-04-12T10:22:34.999Z</time></trkpt><trkpt lat="44.54003796120871" lon="10.44618941227089"><ele>618.0</ele><time>2026-04-12T10:22:35.999Z</time></trkpt><trkpt lat="44.540061633816926" lon="10.446048762744478"><ele>616.8333333333334</ele><time>2026-04-12T10:22:36.999Z</time></trkpt><trkpt lat="44.54008166401337" lon="10.445916192513078"><ele>615.6666666666666</ele><time>2026-04-12T10:22:37.999Z</time></trkpt><trkpt lat="44.540096299299385" lon="10.445794367826924"><ele>614.5</ele><time>2026-04-12T10:22:38.999Z</time></trkpt><trkpt lat="44.540112088783914" lon="10.445682370658044"><ele>613.3333333333333</ele><time>2026-04-12T10:22:39.999Z</time></trkpt><trkpt lat="44.54010761762532" lon="10.445566594279208"><ele>612.1666666666666</ele><time>2026-04-12T10:22:40.999Z</time></trkpt><trkpt lat="44.5400926922469" lon="10.445457296808494"><ele>611.0</ele><time>2026-04-12T10:22:41.999Z</time></trkpt><trkpt lat="44.54008071859021" lon="10.4453557960988"><ele>609.6</ele><time>2026-04-12T10:22:42.999Z</time></trkpt><trkpt lat="44.54007940963953" lon="10.445245893447675"><ele>608.2</ele><time>2026-04-12T10:22:43.999Z</time></trkpt><trkpt lat="44.54010160192649" lon="10.445135987830195"><ele>606.8</ele><time>2026-04-12T10:22:44.999Z</time></trkpt><trkpt lat="44.54013283583866" lon="10.445020592619068"><ele>605.4</ele><time>2026-04-12T10:22:45.999Z</time></trkpt><trkpt lat="44.54019134022524" lon="10.444906213209858"><ele>604.0</ele><time>2026-04-12T10:22:46.999Z</time></trkpt><trkpt lat="44.54024616202451" lon="10.444764395039018"><ele>601.75</ele><time>2026-04-12T10:22:47.999Z</time></trkpt><trkpt lat="44.540304170334345" lon="10.444606209547798"><ele>599.5</ele><time>2026-04-12T10:22:48.999Z</time></trkpt><trkpt lat="44.54034145335822" lon="10.444433876907986"><ele>597.25</ele><time>2026-04-12T10:22:49.999Z</time></trkpt><trkpt lat="44.540386944231514" lon="10.444280616953868"><ele>595.0</ele><time>2026-04-12T10:22:50.999Z</time></trkpt><trkpt lat="44.54042071076337" lon="10.44412917626668"><ele>595.0</ele><time>2026-04-12T10:22:51.999Z</time></trkpt><trkpt lat="44.54047811923165" lon="10.444020420342243"><ele>595.0</ele><time>2026-04-12T10:22:52.999Z</time></trkpt><trkpt lat="44.54055011505965" lon="10.443957119880277"><ele>595.0</ele><time>2026-04-12T10:22:53.999Z</time></trkpt><trkpt lat="44.54064348132893" lon="10.443848243974134"><ele>595.0</ele><time>2026-04-12T10:22:54.999Z</time></trkpt><trkpt lat="44.54073197377027" lon="10.443688188221676"><ele>595.0</ele><time>2026-04-12T10:22:55.999Z</time></trkpt><trkpt lat="44.54078839364625" lon="10.44355590526798"><ele>594.4</ele><time>2026-04-12T10:22:56.999Z</time></trkpt><trkpt lat="44.540852343034054" lon="10.443442398551882"><ele>593.8</ele><time>2026-04-12T10:22:57.999Z</time></trkpt><trkpt lat="44.54092297630212" lon="10.44333844653478"><ele>593.2</ele><time>2026-04-12T10:22:58.999Z</time></trkpt><trkpt lat="44.54099803726224" lon="10.443252801241451"><ele>592.6</ele><time>2026-04-12T10:22:59.999Z</time></trkpt><trkpt lat="44.541064244603135" lon="10.443186192599368"><ele>592.0</ele><time>2026-04-12T10:23:00.999Z</time></trkpt><trkpt lat="44.541149060604475" lon="10.443108272628537"><ele>589.5</ele><time>2026-04-12T10:23:01.999Z</time></trkpt><trkpt lat="44.54125023228229" lon="10.443034038762868"><ele>587.0</ele><time>2026-04-12T10:23:02.999Z</time></trkpt><trkpt lat="44.541338585731346" lon="10.442925403770015"><ele>584.5</ele><time>2026-04-12T10:23:03.999Z</time></trkpt><trkpt lat="44.54141000825528" lon="10.44277726708656"><ele>582.0</ele><time>2026-04-12T10:23:04.999Z</time></trkpt><trkpt lat="44.5414820929887" lon="10.442632501484745"><ele>582.0</ele><time>2026-04-12T10:23:05.999Z</time></trkpt><trkpt lat="44.54154931036514" lon="10.442504767496745"><ele>582.0</ele><time>2026-04-12T10:23:06.999Z</time></trkpt><trkpt lat="44.541608565661555" lon="10.442388433351413"><ele>582.0</ele><time>2026-04-12T10:23:07.999Z</time></trkpt><trkpt lat="44.54167331052361" lon="10.442265554159167"><ele>582.0</ele><time>2026-04-12T10:23:08.999Z</time></trkpt><trkpt lat="44.54173840860314" lon="10.442142897116272"><ele>582.0</ele><time>2026-04-12T10:23:09.999Z</time></trkpt><trkpt lat="44.541801388127254" lon="10.442021591803048"><ele>580.0</ele><time>2026-04-12T10:23:10.999Z</time></trkpt><trkpt lat="44.541869100011645" lon="10.441905019598755"><ele>578.0</ele><time>2026-04-12T10:23:11.999Z</time></trkpt><trkpt lat="44.541988157501976" lon="10.441854564154474"><ele>576.0</ele><time>2026-04-12T10:23:12.999Z</time></trkpt><trkpt lat="44.542088103232494" lon="10.441754326353081"><ele>574.0</ele><time>2026-04-12T10:23:13.999Z</time></trkpt><trkpt lat="44.542177977125846" lon="10.441656493472069"><ele>574.0</ele><time>2026-04-12T10:23:14.999Z</time></trkpt><trkpt lat="44.54225552885879" lon="10.441568473734606"><ele>574.0</ele><time>2026-04-12T10:23:15.999Z</time></trkpt><trkpt lat="44.54233019839914" lon="10.441453537958648"><ele>574.0</ele><time>2026-04-12T10:23:17Z</time></trkpt><trkpt lat="44.542405310353935" lon="10.441382978631106"><ele>574.0</ele><time>2026-04-12T10:23:18Z</time></trkpt><trkpt lat="44.54244891764" lon="10.44131449402446"><ele>574.0</ele><time>2026-04-12T10:23:19Z</time></trkpt><trkpt lat="44.54249665685566" lon="10.441378222142458"><ele>574.0</ele><time>2026-04-12T10:24:13Z</time></trkpt><trkpt lat="44.54253033921473" lon="10.441465990980552"><ele>574.0</ele><time>2026-04-12T10:24:14Z</time></trkpt><trkpt lat="44.54256686409066" lon="10.441564769573029"><ele>574.0</ele><time>2026-04-12T10:24:15Z</time></trkpt><trkpt lat="44.54259505013601" lon="10.44172457919408"><ele>574.0</ele><time>2026-04-12T10:24:17Z</time></trkpt><trkpt lat="44.542573102159196" lon="10.441818870228426"><ele>574.0</ele><time>2026-04-12T10:24:18Z</time></trkpt><trkpt lat="44.54257169217691" lon="10.441983503137102"><ele>574.0</ele><time>2026-04-12T10:24:20Z</time></trkpt><trkpt lat="44.54262664457336" lon="10.442047122463881"><ele>574.0</ele><time>2026-04-12T10:24:21Z</time></trkpt><trkpt lat="44.542700186031425" lon="10.44210377849655"><ele>574.0</ele><time>2026-04-12T10:24:22Z</time></trkpt><trkpt lat="44.542746166475965" lon="10.442170689785218"><ele>574.0</ele><time>2026-04-12T10:24:23Z</time></trkpt><trkpt lat="44.542769531013576" lon="10.442289821465858"><ele>574.0</ele><time>2026-04-12T10:24:25Z</time></trkpt><trkpt lat="44.54272472101529" lon="10.442378073891472"><ele>574.0</ele><time>2026-04-12T10:24:26Z</time></trkpt><trkpt lat="44.54269047227317" lon="10.442477254791818"><ele>574.0</ele><time>2026-04-12T10:24:26.999Z</time></trkpt><trkpt lat="44.54266116719345" lon="10.442610967563702"><ele>573.0</ele><time>2026-04-12T10:24:27.999Z</time></trkpt><trkpt lat="44.542660656953515" lon="10.442734746764174"><ele>572.0</ele><time>2026-04-12T10:24:28.999Z</time></trkpt><trkpt lat="44.54266503768137" lon="10.442853910924685"><ele>571.0</ele><time>2026-04-12T10:24:29.999Z</time></trkpt><trkpt lat="44.54266403440385" lon="10.442961521286714"><ele>570.0</ele><time>2026-04-12T10:24:30.999Z</time></trkpt><trkpt lat="44.542659430213156" lon="10.44309980943818"><ele>569.0</ele><time>2026-04-12T10:24:32.999Z</time></trkpt><trkpt lat="44.5427501244003" lon="10.443229477300578"><ele>568.2</ele><time>2026-04-12T10:24:34.999Z</time></trkpt><trkpt lat="44.54283655151959" lon="10.443275122555072"><ele>567.4</ele><time>2026-04-12T10:24:35.999Z</time></trkpt><trkpt lat="44.54287762202211" lon="10.443419060473738"><ele>566.6</ele><time>2026-04-12T10:24:37.999Z</time></trkpt><trkpt lat="44.542845966985304" lon="10.443531892024623"><ele>565.8</ele><time>2026-04-12T10:24:38.999Z</time></trkpt><trkpt lat="44.54283485303248" lon="10.443619202434924"><ele>565.0</ele><time>2026-04-12T10:24:39.999Z</time></trkpt><trkpt lat="44.542813413588725" lon="10.443774107984337"><ele>559.4</ele><time>2026-04-12T10:24:41.999Z</time></trkpt><trkpt lat="44.542922148263926" lon="10.443890189111267"><ele>553.8</ele><time>2026-04-12T10:24:43.999Z</time></trkpt><trkpt lat="44.54299190417902" lon="10.44395152029555"><ele>548.2</ele><time>2026-04-12T10:24:44.999Z</time></trkpt><trkpt lat="44.54305835786729" lon="10.444016357785442"><ele>542.6</ele><time>2026-04-12T10:24:45.999Z</time></trkpt><trkpt lat="44.54312900545378" lon="10.444079859053474"><ele>537.0</ele><time>2026-04-12T10:24:46.999Z</time></trkpt><trkpt lat="44.543197610783395" lon="10.44411888803632"><ele>537.0</ele><time>2026-04-12T10:24:47.999Z</time></trkpt><trkpt lat="44.543274406573765" lon="10.444146808510133"><ele>537.0</ele><time>2026-04-12T10:24:48.999Z</time></trkpt><trkpt lat="44.54334202095031" lon="10.444140410593588"><ele>537.0</ele><time>2026-04-12T10:24:49.999Z</time></trkpt><trkpt lat="44.54342132464608" lon="10.444136877396584"><ele>537.0</ele><time>2026-04-12T10:24:50.999Z</time></trkpt><trkpt lat="44.54348703723013" lon="10.444137348751376"><ele>537.0</ele><time>2026-04-12T10:24:51.999Z</time></trkpt><trkpt lat="44.54355946133044" lon="10.444197995563085"><ele>537.0</ele><time>2026-04-12T10:24:53.999Z</time></trkpt><trkpt lat="44.54350751633259" lon="10.444344100913101"><ele>537.0</ele><time>2026-04-12T10:24:55.999Z</time></trkpt><trkpt lat="44.54345687681605" lon="10.444436005677368"><ele>537.0</ele><time>2026-04-12T10:24:56.999Z</time></trkpt><trkpt lat="44.54341573015931" lon="10.444560311298801"><ele>537.0</ele><time>2026-04-12T10:24:57.999Z</time></trkpt><trkpt lat="44.54337849219777" lon="10.444694735335059"><ele>537.0</ele><time>2026-04-12T10:24:58.999Z</time></trkpt><trkpt lat="44.54333094624142" lon="10.444836522231176"><ele>537.0</ele><time>2026-04-12T10:24:59.999Z</time></trkpt><trkpt lat="44.54328454912283" lon="10.444959205037563"><ele>536.0</ele><time>2026-04-12T10:25:00.999Z</time></trkpt><trkpt lat="44.543237098913764" lon="10.445060274064515"><ele>535.0</ele><time>2026-04-12T10:25:01.999Z</time></trkpt><trkpt lat="44.543218897837825" lon="10.445172739837872"><ele>534.0</ele><time>2026-04-12T10:25:02.999Z</time></trkpt><trkpt lat="44.54322807405412" lon="10.445272899069998"><ele>533.0</ele><time>2026-04-12T10:25:03.999Z</time></trkpt><trkpt lat="44.5432645527681" lon="10.445382899767047"><ele>532.0</ele><time>2026-04-12T10:25:04.999Z</time></trkpt><trkpt lat="44.54329040922007" lon="10.445477085216769"><ele>531.0</ele><time>2026-04-12T10:25:05.999Z</time></trkpt><trkpt lat="44.5432738229516" lon="10.445572052816365"><ele>530.5</ele><time>2026-04-12T10:25:06.999Z</time></trkpt><trkpt lat="44.543249523535195" lon="10.445677641014788"><ele>530.0</ele><time>2026-04-12T10:25:07.999Z</time></trkpt><trkpt lat="44.54323098181789" lon="10.445776260066408"><ele>529.5</ele><time>2026-04-12T10:25:08.999Z</time></trkpt><trkpt lat="44.54325605203892" lon="10.445908191017732"><ele>529.0</ele><time>2026-04-12T10:25:10.999Z</time></trkpt><trkpt lat="44.54330852483275" lon="10.446050010926141"><ele>528.5</ele><time>2026-04-12T10:25:12.999Z</time></trkpt><trkpt lat="44.543318888439394" lon="10.446144146843098"><ele>528.0</ele><time>2026-04-12T10:25:13.999Z</time></trkpt><trkpt lat="44.54333821177547" lon="10.446260150855357"><ele>527.6</ele><time>2026-04-12T10:25:15.999Z</time></trkpt><trkpt lat="44.54338899349077" lon="10.446322617671319"><ele>527.1999999999999</ele><time>2026-04-12T10:25:18.999Z</time></trkpt><trkpt lat="44.54343373567677" lon="10.446384883000174"><ele>526.8</ele><time>2026-04-12T10:25:20.999Z</time></trkpt><trkpt lat="44.543481211983064" lon="10.44647516548258"><ele>526.4</ele><time>2026-04-12T10:25:23Z</time></trkpt><trkpt lat="44.54365705276707" lon="10.446439137615148"><ele>526.0</ele><time>2026-04-12T10:25:25Z</time></trkpt><trkpt lat="44.54372961537794" lon="10.44635146895281"><ele>522.6666666666667</ele><time>2026-04-12T10:25:26Z</time></trkpt><trkpt lat="44.54378049677961" lon="10.446269652551388"><ele>519.3333333333334</ele><time>2026-04-12T10:25:27Z</time></trkpt><trkpt lat="44.543859485369474" lon="10.446174560963556"><ele>516.0</ele><time>2026-04-12T10:25:29Z</time></trkpt><trkpt lat="44.543924585080546" lon="10.446097941965977"><ele>512.6666666666666</ele><time>2026-04-12T10:25:30Z</time></trkpt><trkpt lat="44.54398251989345" lon="10.446058996587006"><ele>509.3333333333333</ele><time>2026-04-12T10:25:31Z</time></trkpt><trkpt lat="44.54405925349281" lon="10.44604786030223"><ele>506.0</ele><time>2026-04-12T10:25:32Z</time></trkpt><trkpt lat="44.5441515130425" lon="10.446090430726255"><ele>505.99999999999994</ele><time>2026-04-12T10:25:34Z</time></trkpt><trkpt lat="44.54419479196162" lon="10.446173116784808"><ele>506.0</ele><time>2026-04-12T10:25:35Z</time></trkpt><trkpt lat="44.544233511367096" lon="10.446249382612118"><ele>506.0</ele><time>2026-04-12T10:25:37Z</time></trkpt><trkpt lat="44.54430723576269" lon="10.446286079053655"><ele>506.0</ele><time>2026-04-12T10:25:40Z</time></trkpt><trkpt lat="44.54436905517583" lon="10.446206381965409"><ele>505.99999999999994</ele><time>2026-04-12T10:25:43Z</time></trkpt><trkpt lat="44.54444915653652" lon="10.446191334536678"><ele>506.0</ele><time>2026-04-12T10:25:45Z</time></trkpt><trkpt lat="44.54454002972782" lon="10.446147231446723"><ele>502.75</ele><time>2026-04-12T10:25:48Z</time></trkpt><trkpt lat="44.54464724111469" lon="10.446119576514807"><ele>499.5</ele><time>2026-04-12T10:25:51Z</time></trkpt><trkpt lat="44.54473196642607" lon="10.446057468971643"><ele>496.25</ele><time>2026-04-12T10:25:52Z</time></trkpt><trkpt lat="44.544857076298214" lon="10.445967021369082"><ele>493.0</ele><time>2026-04-12T10:25:53Z</time></trkpt><trkpt lat="44.54496370458547" lon="10.44593280527727"><ele>493.0</ele><time>2026-04-12T10:25:54Z</time></trkpt><trkpt lat="44.545099744613196" lon="10.445932012951857"><ele>492.99999999999994</ele><time>2026-04-12T10:25:55Z</time></trkpt><trkpt lat="44.545193162052854" lon="10.445931297097262"><ele>492.99999999999994</ele><time>2026-04-12T10:25:56Z</time></trkpt><trkpt lat="44.54530146787527" lon="10.445905563708807"><ele>493.0</ele><time>2026-04-12T10:25:57Z</time></trkpt><trkpt lat="44.54537704273586" lon="10.445851640336556"><ele>493.0</ele><time>2026-04-12T10:25:58Z</time></trkpt><trkpt lat="44.54546712892679" lon="10.445764522722756"><ele>491.75</ele><time>2026-04-12T10:25:59Z</time></trkpt><trkpt lat="44.545595447634746" lon="10.445656026500346"><ele>490.5</ele><time>2026-04-12T10:26:00Z</time></trkpt><trkpt lat="44.54569387949518" lon="10.445533582131462"><ele>489.25</ele><time>2026-04-12T10:26:01Z</time></trkpt><trkpt lat="44.545768973811086" lon="10.44545696535249"><ele>488.0</ele><time>2026-04-12T10:26:02Z</time></trkpt><trkpt lat="44.54585724560699" lon="10.445392055166463"><ele>486.2</ele><time>2026-04-12T10:26:03Z</time></trkpt><trkpt lat="44.5459904549894" lon="10.445393603430544"><ele>484.4</ele><time>2026-04-12T10:26:05Z</time></trkpt><trkpt lat="44.54606585440189" lon="10.445348438303602"><ele>482.59999999999997</ele><time>2026-04-12T10:26:06Z</time></trkpt><trkpt lat="44.54614656088272" lon="10.445319798075312"><ele>480.79999999999995</ele><time>2026-04-12T10:26:07Z</time></trkpt><trkpt lat="44.546218987305465" lon="10.445300472616331"><ele>479.0</ele><time>2026-04-12T10:26:08Z</time></trkpt><trkpt lat="44.546311550837835" lon="10.445298098074028"><ele>477.25</ele><time>2026-04-12T10:26:09Z</time></trkpt><trkpt lat="44.54640552737294" lon="10.445288143896564"><ele>475.5</ele><time>2026-04-12T10:26:10Z</time></trkpt><trkpt lat="44.54655177731385" lon="10.445300009026287"><ele>473.75</ele><time>2026-04-12T10:26:11Z</time></trkpt><trkpt lat="44.54668594261993" lon="10.44531146133041"><ele>472.0</ele><time>2026-04-12T10:26:12Z</time></trkpt><trkpt lat="44.54679219807824" lon="10.445293627256952"><ele>472.0</ele><time>2026-04-12T10:26:13Z</time></trkpt><trkpt lat="44.546901622256414" lon="10.445283188568053"><ele>472.00000000000006</ele><time>2026-04-12T10:26:14Z</time></trkpt><trkpt lat="44.547010695016006" lon="10.44525385516039"><ele>472.00000000000006</ele><time>2026-04-12T10:26:15Z</time></trkpt><trkpt lat="44.54710985490665" lon="10.44522306732793"><ele>472.0</ele><time>2026-04-12T10:26:16Z</time></trkpt><trkpt lat="44.547209793211366" lon="10.44520433212584"><ele>472.0</ele><time>2026-04-12T10:26:17Z</time></trkpt><trkpt lat="44.547313250781755" lon="10.445178201426252"><ele>470.40000000000003</ele><time>2026-04-12T10:26:18Z</time></trkpt><trkpt lat="44.5474134500869" lon="10.445155238120968"><ele>468.80000000000007</ele><time>2026-04-12T10:26:19Z</time></trkpt><trkpt lat="44.54751323135986" lon="10.445128605382992"><ele>467.2</ele><time>2026-04-12T10:26:20Z</time></trkpt><trkpt lat="44.54759592967338" lon="10.445102477255224"><ele>465.6</ele><time>2026-04-12T10:26:21Z</time></trkpt><trkpt lat="44.54766532085036" lon="10.445078166324098"><ele>464.0</ele><time>2026-04-12T10:26:22Z</time></trkpt><trkpt lat="44.547774439205504" lon="10.445164483068327"><ele>463.99999999999994</ele><time>2026-04-12T10:26:24Z</time></trkpt><trkpt lat="44.5478483168535" lon="10.445266675271695"><ele>464.0</ele><time>2026-04-12T10:26:26Z</time></trkpt><trkpt lat="44.54791306924029" lon="10.44517438128357"><ele>464.0</ele><time>2026-04-12T10:26:28Z</time></trkpt><trkpt lat="44.54793690847836" lon="10.445091666200042"><ele>464.0</ele><time>2026-04-12T10:26:30Z</time></trkpt><trkpt lat="44.54795950127874" lon="10.444971396364437"><ele>463.99999999999994</ele><time>2026-04-12T10:26:57.999Z</time></trkpt><trkpt lat="44.54798180177731" lon="10.444863496818355"><ele>464.0</ele><time>2026-04-12T10:26:59.999Z</time></trkpt><trkpt lat="44.54807579014767" lon="10.444747543821334"><ele>462.0</ele><time>2026-04-12T10:27:01.999Z</time></trkpt><trkpt lat="44.54809920191098" lon="10.444573032605794"><ele>460.0</ele><time>2026-04-12T10:27:03.999Z</time></trkpt><trkpt lat="44.548049041600045" lon="10.444483268665929"><ele>458.0</ele><time>2026-04-12T10:27:04.999Z</time></trkpt><trkpt lat="44.54798825402294" lon="10.444376860650985"><ele>456.0</ele><time>2026-04-12T10:27:05.999Z</time></trkpt><trkpt lat="44.54795899831658" lon="10.444295661578328"><ele>454.0</ele><time>2026-04-12T10:27:06.999Z</time></trkpt><trkpt lat="44.547995640795115" lon="10.444180435482572"><ele>454.00000000000006</ele><time>2026-04-12T10:27:08.999Z</time></trkpt><trkpt lat="44.54806944279873" lon="10.444141338995358"><ele>454.0</ele><time>2026-04-12T10:27:11.999Z</time></trkpt><trkpt lat="44.548159954180804" lon="10.4441348166446"><ele>454.0</ele><time>2026-04-12T10:27:13.999Z</time></trkpt><trkpt lat="44.54822219295149" lon="10.44412081214763"><ele>454.0</ele><time>2026-04-12T10:27:14.999Z</time></trkpt><trkpt lat="44.548298119067596" lon="10.444146698334965"><ele>454.00000000000006</ele><time>2026-04-12T10:27:15.999Z</time></trkpt><trkpt lat="44.54840724763524" lon="10.444085365415914"><ele>454.0</ele><time>2026-04-12T10:27:17.999Z</time></trkpt><trkpt lat="44.548465306567586" lon="10.444027083243467"><ele>454.0</ele><time>2026-04-12T10:27:18.999Z</time></trkpt><trkpt lat="44.548521309222984" lon="10.443966413344949"><ele>454.0</ele><time>2026-04-12T10:27:19.999Z</time></trkpt><trkpt lat="44.548593796310406" lon="10.44389820828619"><ele>454.0</ele><time>2026-04-12T10:27:20.999Z</time></trkpt><trkpt lat="44.548662740624856" lon="10.443837516970031"><ele>454.0</ele><time>2026-04-12T10:27:21.999Z</time></trkpt><trkpt lat="44.54873560666873" lon="10.443679007208365"><ele>454.0</ele><time>2026-04-12T10:27:23.999Z</time></trkpt><trkpt lat="44.5487866773538" lon="10.443572436613655"><ele>451.6</ele><time>2026-04-12T10:27:24.999Z</time></trkpt><trkpt lat="44.54883017922755" lon="10.44345187722"><ele>449.2</ele><time>2026-04-12T10:27:25.999Z</time></trkpt><trkpt lat="44.54887725738948" lon="10.443339966857973"><ele>446.80000000000007</ele><time>2026-04-12T10:27:26.999Z</time></trkpt><trkpt lat="44.54893621153623" lon="10.443258889377601"><ele>444.40000000000003</ele><time>2026-04-12T10:27:27.999Z</time></trkpt><trkpt lat="44.54905570462729" lon="10.443186569758687"><ele>442.0</ele><time>2026-04-12T10:27:30Z</time></trkpt><trkpt lat="44.54913843167141" lon="10.443145527385454"><ele>442.0</ele><time>2026-04-12T10:27:31Z</time></trkpt><trkpt lat="44.549227318808875" lon="10.443107055283347"><ele>442.00000000000006</ele><time>2026-04-12T10:27:32Z</time></trkpt><trkpt lat="44.54932736595958" lon="10.44306571243757"><ele>442.00000000000006</ele><time>2026-04-12T10:27:33Z</time></trkpt><trkpt lat="44.54941186188078" lon="10.44302082416382"><ele>442.0</ele><time>2026-04-12T10:27:34Z</time></trkpt><trkpt lat="44.54949836564881" lon="10.442954941225171"><ele>442.0</ele><time>2026-04-12T10:27:35Z</time></trkpt><trkpt lat="44.549559315051184" lon="10.442881449226117"><ele>438.6666666666667</ele><time>2026-04-12T10:27:36Z</time></trkpt><trkpt lat="44.54959747602472" lon="10.442805004210948"><ele>435.33333333333337</ele><time>2026-04-12T10:27:37Z</time></trkpt><trkpt lat="44.549649840882104" lon="10.442746272150323"><ele>432.0</ele><time>2026-04-12T10:27:38Z</time></trkpt><trkpt lat="44.54970624232704" lon="10.442694038878527"><ele>428.66666666666663</ele><time>2026-04-12T10:27:39Z</time></trkpt><trkpt lat="44.549779361731936" lon="10.442659692862001"><ele>425.3333333333333</ele><time>2026-04-12T10:27:40Z</time></trkpt><trkpt lat="44.54984783195305" lon="10.442641931550279"><ele>422.0</ele><time>2026-04-12T10:27:41Z</time></trkpt><trkpt lat="44.54995456906579" lon="10.44264875791352"><ele>422.0</ele><time>2026-04-12T10:27:43Z</time></trkpt><trkpt lat="44.55006489999354" lon="10.442740929436424"><ele>422.0</ele><time>2026-04-12T10:27:45Z</time></trkpt><trkpt lat="44.550130870053174" lon="10.442843011027174"><ele>422.0</ele><time>2026-04-12T10:27:46Z</time></trkpt><trkpt lat="44.55023035269874" lon="10.442829732367208"><ele>422.0</ele><time>2026-04-12T10:27:48Z</time></trkpt><trkpt lat="44.550285451926065" lon="10.442780082150874"><ele>422.0</ele><time>2026-04-12T10:27:49Z</time></trkpt><trkpt lat="44.55034462869332" lon="10.442728036337765"><ele>419.66666666666663</ele><time>2026-04-12T10:27:50Z</time></trkpt><trkpt lat="44.55041630120694" lon="10.44265251260491"><ele>417.3333333333333</ele><time>2026-04-12T10:27:51Z</time></trkpt><trkpt lat="44.550477268233536" lon="10.442561087161966"><ele>415.0</ele><time>2026-04-12T10:27:52Z</time></trkpt><trkpt lat="44.55052473223399" lon="10.442446750452833"><ele>412.66666666666663</ele><time>2026-04-12T10:27:53Z</time></trkpt><trkpt lat="44.55054831227901" lon="10.44233581999237"><ele>410.3333333333333</ele><time>2026-04-12T10:27:54Z</time></trkpt><trkpt lat="44.55049294923719" lon="10.44223241870858"><ele>408.0</ele><time>2026-04-12T10:27:55Z</time></trkpt><trkpt lat="44.550466641087866" lon="10.44212108975497"><ele>406.8333333333333</ele><time>2026-04-12T10:27:56Z</time></trkpt><trkpt lat="44.55044502240017" lon="10.442035860991696"><ele>405.66666666666663</ele><time>2026-04-12T10:27:57Z</time></trkpt><trkpt lat="44.55051068349031" lon="10.441955571602854"><ele>404.5</ele><time>2026-04-12T10:27:59Z</time></trkpt><trkpt lat="44.550595910573335" lon="10.441832463950794"><ele>403.3333333333333</ele><time>2026-04-12T10:28:01Z</time></trkpt><trkpt lat="44.55064563797826" lon="10.441775415407141"><ele>402.16666666666663</ele><time>2026-04-12T10:28:02Z</time></trkpt><trkpt lat="44.550720762282644" lon="10.441718247828272"><ele>401.0</ele><time>2026-04-12T10:28:03Z</time></trkpt><trkpt lat="44.55078131100862" lon="10.44164557387359"><ele>401.0</ele><time>2026-04-12T10:28:04Z</time></trkpt><trkpt lat="44.55084389886204" lon="10.44158130037698"><ele>401.0</ele><time>2026-04-12T10:28:05Z</time></trkpt><trkpt lat="44.55091156082895" lon="10.441482841827284"><ele>401.0</ele><time>2026-04-12T10:28:06Z</time></trkpt><trkpt lat="44.55093315324694" lon="10.44130727469955"><ele>401.0</ele><time>2026-04-12T10:28:07Z</time></trkpt><trkpt lat="44.55098165617945" lon="10.441214718335731"><ele>401.0</ele><time>2026-04-12T10:28:08Z</time></trkpt><trkpt lat="44.55104846190119" lon="10.441224431076426"><ele>400.3333333333333</ele><time>2026-04-12T10:28:09Z</time></trkpt><trkpt lat="44.551110342063254" lon="10.441256191988662"><ele>399.66666666666663</ele><time>2026-04-12T10:28:10Z</time></trkpt><trkpt lat="44.551212772237335" lon="10.441354610263716"><ele>399.0</ele><time>2026-04-12T10:28:12Z</time></trkpt><trkpt lat="44.55129890746062" lon="10.441406713814958"><ele>398.33333333333337</ele><time>2026-04-12T10:28:14Z</time></trkpt><trkpt lat="44.551367785660574" lon="10.441436059842674"><ele>397.6666666666667</ele><time>2026-04-12T10:28:16Z</time></trkpt><trkpt lat="44.551433961791474" lon="10.441474681851185"><ele>397.0</ele><time>2026-04-12T10:28:18Z</time></trkpt><trkpt lat="44.55151458598839" lon="10.441553973508125"><ele>397.0</ele><time>2026-04-12T10:28:20Z</time></trkpt><trkpt lat="44.551716551344235" lon="10.44160883031054"><ele>397.0</ele><time>2026-04-12T10:28:53.999Z</time></trkpt><trkpt lat="44.551830041651854" lon="10.441634349871405"><ele>397.0</ele><time>2026-04-12T10:28:54.999Z</time></trkpt><trkpt lat="44.55194391077283" lon="10.441642561137886"><ele>397.0</ele><time>2026-04-12T10:28:55.999Z</time></trkpt><trkpt lat="44.55203921590498" lon="10.44166669178075"><ele>397.8</ele><time>2026-04-12T10:28:56.999Z</time></trkpt><trkpt lat="44.55214682997922" lon="10.441727125147077"><ele>398.6</ele><time>2026-04-12T10:28:57.999Z</time></trkpt><trkpt lat="44.5522193149147" lon="10.441797636982432"><ele>399.40000000000003</ele><time>2026-04-12T10:28:58.999Z</time></trkpt><trkpt lat="44.55228071626445" lon="10.441912968318183"><ele>400.20000000000005</ele><time>2026-04-12T10:28:59.999Z</time></trkpt><trkpt lat="44.55234973990787" lon="10.442060825303647"><ele>401.0</ele><time>2026-04-12T10:29:00.999Z</time></trkpt><trkpt lat="44.552426267236484" lon="10.44216887195468"><ele>405.4</ele><time>2026-04-12T10:29:01.999Z</time></trkpt><trkpt lat="44.552498450117355" lon="10.44222916785523"><ele>409.8</ele><time>2026-04-12T10:29:02.999Z</time></trkpt><trkpt lat="44.55263055392014" lon="10.442261033432844"><ele>414.2</ele><time>2026-04-12T10:29:04.999Z</time></trkpt><trkpt lat="44.55273652079049" lon="10.44229307238649"><ele>418.59999999999997</ele><time>2026-04-12T10:29:05.999Z</time></trkpt><trkpt lat="44.55278794644435" lon="10.442350059634265"><ele>423.0</ele><time>2026-04-12T10:29:06.999Z</time></trkpt><trkpt lat="44.55282504542485" lon="10.4424251479702"><ele>421.0</ele><time>2026-04-12T10:29:07.999Z</time></trkpt><trkpt lat="44.55288922458644" lon="10.442460730961553"><ele>419.0</ele><time>2026-04-12T10:29:08.999Z</time></trkpt><trkpt lat="44.55298253192123" lon="10.442481537797162"><ele>417.0</ele><time>2026-04-12T10:29:09.999Z</time></trkpt><trkpt lat="44.55309246701409" lon="10.442488527531879"><ele>415.0</ele><time>2026-04-12T10:29:10.999Z</time></trkpt><trkpt lat="44.55318579128674" lon="10.442476802880666"><ele>413.0</ele><time>2026-04-12T10:29:11.999Z</time></trkpt><trkpt lat="44.55327528085167" lon="10.442482197066187"><ele>413.0</ele><time>2026-04-12T10:29:12.999Z</time></trkpt><trkpt lat="44.55340768588962" lon="10.442546849269766"><ele>413.0</ele><time>2026-04-12T10:29:14.999Z</time></trkpt><trkpt lat="44.553498247813174" lon="10.442590408093446"><ele>413.0</ele><time>2026-04-12T10:29:15.999Z</time></trkpt><trkpt lat="44.55360046167899" lon="10.44268063202054"><ele>413.0</ele><time>2026-04-12T10:29:16.999Z</time></trkpt><trkpt lat="44.55371746716392" lon="10.44273216660105"><ele>414.4</ele><time>2026-04-12T10:29:17.999Z</time></trkpt><trkpt lat="44.55382881901642" lon="10.4427218033537"><ele>415.79999999999995</ele><time>2026-04-12T10:29:18.999Z</time></trkpt><trkpt lat="44.55393773526933" lon="10.442674344081857"><ele>417.2</ele><time>2026-04-12T10:29:19.999Z</time></trkpt><trkpt lat="44.55400130594235" lon="10.442578205837336"><ele>418.6</ele><time>2026-04-12T10:29:20.999Z</time></trkpt><trkpt lat="44.55405581800277" lon="10.442453336862743"><ele>420.0</ele><time>2026-04-12T10:29:21.999Z</time></trkpt><trkpt lat="44.554132363920786" lon="10.4423672655278"><ele>420.0</ele><time>2026-04-12T10:29:22.999Z</time></trkpt><trkpt lat="44.554226967158165" lon="10.442280195450984"><ele>420.0</ele><time>2026-04-12T10:29:23.999Z</time></trkpt><trkpt lat="44.55428870886474" lon="10.442198488489439"><ele>420.0</ele><time>2026-04-12T10:29:24.999Z</time></trkpt><trkpt lat="44.55427337494261" lon="10.442040643633145"><ele>420.0</ele><time>2026-04-12T10:29:26.999Z</time></trkpt><trkpt lat="44.55423407739745" lon="10.441917305222576"><ele>420.0</ele><time>2026-04-12T10:29:27.999Z</time></trkpt><trkpt lat="44.55421080473833" lon="10.441780682991991"><ele>422.4</ele><time>2026-04-12T10:29:28.999Z</time></trkpt><trkpt lat="44.55418689615745" lon="10.441655644907316"><ele>424.8</ele><time>2026-04-12T10:29:29.999Z</time></trkpt><trkpt lat="44.5541598512045" lon="10.441545182257299"><ele>427.20000000000005</ele><time>2026-04-12T10:29:30.999Z</time></trkpt><trkpt lat="44.55415024681948" lon="10.441426245022594"><ele>429.6</ele><time>2026-04-12T10:29:31.999Z</time></trkpt><trkpt lat="44.55416795630962" lon="10.441286998391947"><ele>432.0</ele><time>2026-04-12T10:29:32.999Z</time></trkpt><trkpt lat="44.55420893264506" lon="10.441129165409786"><ele>433.6666666666667</ele><time>2026-04-12T10:29:33.999Z</time></trkpt><trkpt lat="44.55422315260852" lon="10.440991101337778"><ele>435.33333333333337</ele><time>2026-04-12T10:29:35Z</time></trkpt><trkpt lat="44.55420664832992" lon="10.440852500280664"><ele>437.0</ele><time>2026-04-12T10:29:36Z</time></trkpt><trkpt lat="44.55419430026875" lon="10.440731122792506"><ele>438.6666666666667</ele><time>2026-04-12T10:29:37Z</time></trkpt><trkpt lat="44.55420940873558" lon="10.440617438095224"><ele>440.33333333333337</ele><time>2026-04-12T10:29:38Z</time></trkpt><trkpt lat="44.554269124880165" lon="10.440547366578462"><ele>442.0</ele><time>2026-04-12T10:29:39Z</time></trkpt><trkpt lat="44.55437500278569" lon="10.440477103912066"><ele>443.1666666666667</ele><time>2026-04-12T10:29:41Z</time></trkpt><trkpt lat="44.55444378452326" lon="10.440448374247818"><ele>444.33333333333337</ele><time>2026-04-12T10:29:42Z</time></trkpt><trkpt lat="44.55453202928535" lon="10.440442394291916"><ele>445.5</ele><time>2026-04-12T10:29:43Z</time></trkpt><trkpt lat="44.554622035376774" lon="10.440440678781092"><ele>446.66666666666663</ele><time>2026-04-12T10:29:44Z</time></trkpt><trkpt lat="44.554717347386415" lon="10.440440968738761"><ele>447.8333333333333</ele><time>2026-04-12T10:29:45Z</time></trkpt><trkpt lat="44.55480828658328" lon="10.440445240011384"><ele>449.0</ele><time>2026-04-12T10:29:46Z</time></trkpt><trkpt lat="44.554922440662615" lon="10.440434296416324"><ele>453.4</ele><time>2026-04-12T10:29:47Z</time></trkpt><trkpt lat="44.55502620925985" lon="10.440420500237082"><ele>457.79999999999995</ele><time>2026-04-12T10:29:48Z</time></trkpt><trkpt lat="44.55513440372138" lon="10.440412067777363"><ele>462.20000000000005</ele><time>2026-04-12T10:29:49Z</time></trkpt><trkpt lat="44.555241026993336" lon="10.440375339326616"><ele>466.6</ele><time>2026-04-12T10:29:50Z</time></trkpt><trkpt lat="44.555345571423004" lon="10.440319563554706"><ele>471.0</ele><time>2026-04-12T10:29:51Z</time></trkpt><trkpt lat="44.55544748002289" lon="10.44026250987323"><ele>472.0</ele><time>2026-04-12T10:29:52Z</time></trkpt><trkpt lat="44.555540590787494" lon="10.440250471605898"><ele>473.0</ele><time>2026-04-12T10:29:53Z</time></trkpt><trkpt lat="44.55561386068916" lon="10.440267374646782"><ele>474.0</ele><time>2026-04-12T10:29:54Z</time></trkpt><trkpt lat="44.55568660714351" lon="10.440306090890346"><ele>475.0</ele><time>2026-04-12T10:29:55Z</time></trkpt><trkpt lat="44.555727696707294" lon="10.44039146656049"><ele>476.0</ele><time>2026-04-12T10:29:57Z</time></trkpt><trkpt lat="44.55580496582643" lon="10.440534090296753"><ele>477.0</ele><time>2026-04-12T10:33:10.999Z</time></trkpt><trkpt lat="44.555841053290344" lon="10.440620120241581"><ele>480.0</ele><time>2026-04-12T10:33:11.999Z</time></trkpt><trkpt lat="44.55584493948836" lon="10.440748910958186"><ele>483.0</ele><time>2026-04-12T10:33:12.999Z</time></trkpt><trkpt lat="44.555894364184226" lon="10.44086585999478"><ele>486.0</ele><time>2026-04-12T10:33:13.999Z</time></trkpt><trkpt lat="44.555969462046505" lon="10.441015303490655"><ele>489.0</ele><time>2026-04-12T10:33:14.999Z</time></trkpt><trkpt lat="44.556020909713325" lon="10.441199589080572"><ele>488.79999999999995</ele><time>2026-04-12T10:33:15.999Z</time></trkpt><trkpt lat="44.556078075770316" lon="10.441349823120904"><ele>488.59999999999997</ele><time>2026-04-12T10:33:16.999Z</time></trkpt><trkpt lat="44.55614273908064" lon="10.441474885947205"><ele>488.4</ele><time>2026-04-12T10:33:17.999Z</time></trkpt><trkpt lat="44.5561939321658" lon="10.441610999786729"><ele>488.2</ele><time>2026-04-12T10:33:18.999Z</time></trkpt><trkpt lat="44.556238354359465" lon="10.441704589273492"><ele>488.0</ele><time>2026-04-12T10:33:19.999Z</time></trkpt><trkpt lat="44.55628680914854" lon="10.441793952967178"><ele>492.4</ele><time>2026-04-12T10:33:20.999Z</time></trkpt><trkpt lat="44.55631976104744" lon="10.44190137687359"><ele>496.79999999999995</ele><time>2026-04-12T10:33:21.999Z</time></trkpt><trkpt lat="44.55636692887877" lon="10.442026200698066"><ele>501.2</ele><time>2026-04-12T10:33:22.999Z</time></trkpt><trkpt lat="44.55642895138411" lon="10.442168780225138"><ele>505.6</ele><time>2026-04-12T10:33:23.999Z</time></trkpt><trkpt lat="44.55650802895858" lon="10.442279200991997"><ele>510.0</ele><time>2026-04-12T10:33:24.999Z</time></trkpt><trkpt lat="44.55657460138151" lon="10.442395101254865"><ele>510.0</ele><time>2026-04-12T10:33:25.999Z</time></trkpt><trkpt lat="44.55664000472991" lon="10.442503259601466"><ele>510.0</ele><time>2026-04-12T10:33:26.999Z</time></trkpt><trkpt lat="44.55672047462846" lon="10.442579957026613"><ele>510.0</ele><time>2026-04-12T10:33:27.999Z</time></trkpt><trkpt lat="44.55677375268768" lon="10.442651673344349"><ele>510.0</ele><time>2026-04-12T10:33:28.999Z</time></trkpt><trkpt lat="44.55685197708461" lon="10.44266530553966"><ele>510.0</ele><time>2026-04-12T10:33:29.999Z</time></trkpt><trkpt lat="44.55694454164526" lon="10.442681223057711"><ele>510.0</ele><time>2026-04-12T10:33:30.999Z</time></trkpt><trkpt lat="44.55706862642661" lon="10.442709723836876"><ele>508.8</ele><time>2026-04-12T10:33:31.999Z</time></trkpt><trkpt lat="44.557191655662166" lon="10.442723567974431"><ele>507.6</ele><time>2026-04-12T10:33:32.999Z</time></trkpt><trkpt lat="44.557289711180644" lon="10.442787704656295"><ele>506.4</ele><time>2026-04-12T10:33:33.999Z</time></trkpt><trkpt lat="44.5573695890182" lon="10.442811453764577"><ele>505.2</ele><time>2026-04-12T10:33:34.999Z</time></trkpt><trkpt lat="44.55746766840605" lon="10.442918458448474"><ele>504.0</ele><time>2026-04-12T10:33:35.999Z</time></trkpt><trkpt lat="44.55757737258288" lon="10.443023826528783"><ele>504.0</ele><time>2026-04-12T10:33:36.999Z</time></trkpt><trkpt lat="44.55763812867188" lon="10.443160941355686"><ele>504.0</ele><time>2026-04-12T10:33:37.999Z</time></trkpt><trkpt lat="44.55767863215999" lon="10.44327979485803"><ele>504.0</ele><time>2026-04-12T10:33:38.999Z</time></trkpt><trkpt lat="44.55771499933784" lon="10.443385962379653"><ele>504.0</ele><time>2026-04-12T10:33:39.999Z</time></trkpt><trkpt lat="44.55767156341294" lon="10.44350514205731"><ele>504.0</ele><time>2026-04-12T10:33:40.999Z</time></trkpt><trkpt lat="44.557686664765455" lon="10.443634915320748"><ele>504.0</ele><time>2026-04-12T10:33:41.999Z</time></trkpt><trkpt lat="44.55773947165451" lon="10.443728119420625"><ele>504.0</ele><time>2026-04-12T10:33:42.999Z</time></trkpt><trkpt lat="44.557785233214574" lon="10.443794160263533"><ele>504.0</ele><time>2026-04-12T10:33:43.999Z</time></trkpt><trkpt lat="44.55787293375528" lon="10.443913252308954"><ele>504.0</ele><time>2026-04-12T10:33:44.999Z</time></trkpt><trkpt lat="44.55791109205888" lon="10.44408814620881"><ele>504.0</ele><time>2026-04-12T10:33:45.999Z</time></trkpt><trkpt lat="44.55794412540245" lon="10.444250340280854"><ele>503.25</ele><time>2026-04-12T10:33:47Z</time></trkpt><trkpt lat="44.55795060808372" lon="10.444397313979369"><ele>502.5</ele><time>2026-04-12T10:33:48Z</time></trkpt><trkpt lat="44.55794343450232" lon="10.444595915728998"><ele>501.75</ele><time>2026-04-12T10:33:49Z</time></trkpt><trkpt lat="44.55793031071049" lon="10.44482535618983"><ele>501.0</ele><time>2026-04-12T10:33:50Z</time></trkpt><trkpt lat="44.55790585733474" lon="10.445033484755497"><ele>504.4</ele><time>2026-04-12T10:33:51Z</time></trkpt><trkpt lat="44.55789285616399" lon="10.445179808755046"><ele>507.8</ele><time>2026-04-12T10:33:52Z</time></trkpt><trkpt lat="44.55790987917045" lon="10.445317070416415"><ele>511.19999999999993</ele><time>2026-04-12T10:33:53Z</time></trkpt><trkpt lat="44.55793241405502" lon="10.445418832458389"><ele>514.6</ele><time>2026-04-12T10:33:54Z</time></trkpt><trkpt lat="44.55802254466132" lon="10.445460690781303"><ele>518.0</ele><time>2026-04-12T10:33:55Z</time></trkpt><trkpt lat="44.55806635712426" lon="10.445555454153677"><ele>519.1666666666666</ele><time>2026-04-12T10:33:56Z</time></trkpt><trkpt lat="44.558096506776145" lon="10.445649624700517"><ele>520.3333333333333</ele><time>2026-04-12T10:33:57Z</time></trkpt><trkpt lat="44.558144725889925" lon="10.44575100026009"><ele>521.5</ele><time>2026-04-12T10:33:58Z</time></trkpt><trkpt lat="44.558185442404024" lon="10.44586957137895"><ele>522.6666666666666</ele><time>2026-04-12T10:33:59Z</time></trkpt><trkpt lat="44.55815917966081" lon="10.44601232664527"><ele>523.8333333333334</ele><time>2026-04-12T10:34:00Z</time></trkpt><trkpt lat="44.5581419945013" lon="10.446126816289766"><ele>525.0</ele><time>2026-04-12T10:34:01Z</time></trkpt><trkpt lat="44.558121526873386" lon="10.446222455090018"><ele>526.8</ele><time>2026-04-12T10:34:02Z</time></trkpt><trkpt lat="44.5580701474152" lon="10.446390738553008"><ele>528.6</ele><time>2026-04-12T10:34:03Z</time></trkpt><trkpt lat="44.55801870798396" lon="10.446483354349523"><ele>530.4</ele><time>2026-04-12T10:34:04Z</time></trkpt><trkpt lat="44.55798929205218" lon="10.446585192805228"><ele>532.2</ele><time>2026-04-12T10:34:05Z</time></trkpt><trkpt lat="44.55798264483827" lon="10.446723263945335"><ele>534.0</ele><time>2026-04-12T10:34:06Z</time></trkpt><trkpt lat="44.558007104637355" lon="10.44683742480958"><ele>534.0</ele><time>2026-04-12T10:34:07Z</time></trkpt><trkpt lat="44.55802971879683" lon="10.446946118702762"><ele>534.0</ele><time>2026-04-12T10:34:08Z</time></trkpt><trkpt lat="44.55810244704042" lon="10.447074495678901"><ele>534.0</ele><time>2026-04-12T10:34:09Z</time></trkpt><trkpt lat="44.5581258475063" lon="10.447252616932406"><ele>534.0</ele><time>2026-04-12T10:34:10Z</time></trkpt><trkpt lat="44.558125377504254" lon="10.447374154831126"><ele>534.0</ele><time>2026-04-12T10:34:11Z</time></trkpt><trkpt lat="44.558122080056954" lon="10.447488367262276"><ele>537.4</ele><time>2026-04-12T10:34:12Z</time></trkpt><trkpt lat="44.55813312526106" lon="10.447581959928714"><ele>540.8</ele><time>2026-04-12T10:34:14Z</time></trkpt><trkpt lat="44.558181594559024" lon="10.447685256794852"><ele>544.2</ele><time>2026-04-12T10:34:16Z</time></trkpt><trkpt lat="44.5582121229247" lon="10.447791952599419"><ele>547.6</ele><time>2026-04-12T10:34:18Z</time></trkpt><trkpt lat="44.55826532754088" lon="10.447878606037627"><ele>551.0</ele><time>2026-04-12T10:34:20Z</time></trkpt><trkpt lat="44.55830149584931" lon="10.448070115488559"><ele>553.6</ele><time>2026-04-12T10:34:27Z</time></trkpt><trkpt lat="44.55833664689012" lon="10.448250733639389"><ele>556.2</ele><time>2026-04-12T10:34:29Z</time></trkpt><trkpt lat="44.558360813705306" lon="10.448360046157502"><ele>558.8</ele><time>2026-04-12T10:34:30Z</time></trkpt><trkpt lat="44.55837602490632" lon="10.448484951396592"><ele>561.4</ele><time>2026-04-12T10:34:31Z</time></trkpt><trkpt lat="44.55835170609209" lon="10.448602209572204"><ele>564.0</ele><time>2026-04-12T10:34:32Z</time></trkpt><trkpt lat="44.558326829343116" lon="10.448724840969705"><ele>564.8</ele><time>2026-04-12T10:34:33Z</time></trkpt><trkpt lat="44.558285950511845" lon="10.448861416359989"><ele>565.5999999999999</ele><time>2026-04-12T10:34:34Z</time></trkpt><trkpt lat="44.55825308055873" lon="10.448986703034654"><ele>566.4</ele><time>2026-04-12T10:34:35Z</time></trkpt><trkpt lat="44.558220222101326" lon="10.449121942627386"><ele>567.1999999999999</ele><time>2026-04-12T10:34:36Z</time></trkpt><trkpt lat="44.5581934269768" lon="10.449276469650373"><ele>568.0</ele><time>2026-04-12T10:34:37Z</time></trkpt><trkpt lat="44.55816445160768" lon="10.449409418368361"><ele>568.0</ele><time>2026-04-12T10:34:38Z</time></trkpt><trkpt lat="44.55812726361542" lon="10.449536517853021"><ele>568.0</ele><time>2026-04-12T10:34:39Z</time></trkpt><trkpt lat="44.558088847757325" lon="10.449642526645151"><ele>568.0</ele><time>2026-04-12T10:34:40Z</time></trkpt><trkpt lat="44.55807209681776" lon="10.449757816463281"><ele>568.0</ele><time>2026-04-12T10:34:41Z</time></trkpt><trkpt lat="44.558037448384844" lon="10.449867116266452"><ele>568.0</ele><time>2026-04-12T10:34:42Z</time></trkpt><trkpt lat="44.55801861518158" lon="10.44998782000475"><ele>568.0</ele><time>2026-04-12T10:34:43Z</time></trkpt><trkpt lat="44.55798218952647" lon="10.450087993405647"><ele>567.3333333333334</ele><time>2026-04-12T10:34:44Z</time></trkpt><trkpt lat="44.557932125317784" lon="10.45016369698907"><ele>566.6666666666667</ele><time>2026-04-12T10:34:45Z</time></trkpt><trkpt lat="44.557871463938184" lon="10.450198237441938"><ele>566.0</ele><time>2026-04-12T10:34:46Z</time></trkpt><trkpt lat="44.557792874566495" lon="10.450247173345774"><ele>565.3333333333334</ele><time>2026-04-12T10:34:47Z</time></trkpt><trkpt lat="44.557730209548076" lon="10.45032736352467"><ele>564.6666666666666</ele><time>2026-04-12T10:34:47.999Z</time></trkpt><trkpt lat="44.55766612651537" lon="10.45039944938433"><ele>564.0</ele><time>2026-04-12T10:34:48.999Z</time></trkpt><trkpt lat="44.55762043796651" lon="10.450474073106877"><ele>567.4</ele><time>2026-04-12T10:34:49.999Z</time></trkpt><trkpt lat="44.557554339186574" lon="10.450533743343012"><ele>570.8</ele><time>2026-04-12T10:34:50.999Z</time></trkpt><trkpt lat="44.5574929179204" lon="10.450603838197845"><ele>574.2</ele><time>2026-04-12T10:34:51.999Z</time></trkpt><trkpt lat="44.55741653761101" lon="10.450690412631472"><ele>577.6</ele><time>2026-04-12T10:34:52.999Z</time></trkpt><trkpt lat="44.55732754908305" lon="10.450754721570565"><ele>581.0</ele><time>2026-04-12T10:34:53.999Z</time></trkpt><trkpt lat="44.55723435769023" lon="10.450852623900483"><ele>581.0</ele><time>2026-04-12T10:34:54.999Z</time></trkpt><trkpt lat="44.5571383898324" lon="10.45096052380337"><ele>581.0</ele><time>2026-04-12T10:34:55.999Z</time></trkpt><trkpt lat="44.55706188406227" lon="10.451068831051362"><ele>581.0</ele><time>2026-04-12T10:34:56.999Z</time></trkpt><trkpt lat="44.55698519164107" lon="10.451164231091841"><ele>581.0</ele><time>2026-04-12T10:34:57.999Z</time></trkpt><trkpt lat="44.55692789267895" lon="10.451259513593083"><ele>581.0</ele><time>2026-04-12T10:34:58.999Z</time></trkpt><trkpt lat="44.55689270412685" lon="10.451395568336421"><ele>584.6</ele><time>2026-04-12T10:34:59.999Z</time></trkpt><trkpt lat="44.556886188550486" lon="10.451528319855028"><ele>588.2</ele><time>2026-04-12T10:35:00.999Z</time></trkpt><trkpt lat="44.556874687853934" lon="10.451678641887126"><ele>591.8</ele><time>2026-04-12T10:35:01.999Z</time></trkpt><trkpt lat="44.556861393392225" lon="10.451836351457015"><ele>595.4</ele><time>2026-04-12T10:35:02.999Z</time></trkpt><trkpt lat="44.556855627786895" lon="10.451999949175164"><ele>599.0</ele><time>2026-04-12T10:35:03.999Z</time></trkpt><trkpt lat="44.55685226911657" lon="10.452166073070877"><ele>599.0</ele><time>2026-04-12T10:35:04.999Z</time></trkpt><trkpt lat="44.556849915326914" lon="10.45231579978249"><ele>599.0</ele><time>2026-04-12T10:35:05.999Z</time></trkpt><trkpt lat="44.556820178615034" lon="10.452468193303426"><ele>599.0</ele><time>2026-04-12T10:35:06.999Z</time></trkpt><trkpt lat="44.55678510437615" lon="10.452606544005901"><ele>599.0</ele><time>2026-04-12T10:35:07.999Z</time></trkpt><trkpt lat="44.55674626491051" lon="10.452744863457648"><ele>599.0</ele><time>2026-04-12T10:35:08.999Z</time></trkpt><trkpt lat="44.55670349869221" lon="10.452907764596286"><ele>596.25</ele><time>2026-04-12T10:35:09.999Z</time></trkpt><trkpt lat="44.55666065445872" lon="10.453081971868105"><ele>593.5</ele><time>2026-04-12T10:35:10.999Z</time></trkpt><trkpt lat="44.55660768052818" lon="10.453266314681725"><ele>590.75</ele><time>2026-04-12T10:35:11.999Z</time></trkpt><trkpt lat="44.55658007294118" lon="10.45340879372329"><ele>588.0</ele><time>2026-04-12T10:35:12.999Z</time></trkpt><trkpt lat="44.556549548094736" lon="10.453536136772742"><ele>588.0</ele><time>2026-04-12T10:35:13.999Z</time></trkpt><trkpt lat="44.55652067165108" lon="10.453657833044996"><ele>588.0</ele><time>2026-04-12T10:35:14.999Z</time></trkpt><trkpt lat="44.55649382226407" lon="10.453766073064559"><ele>588.0</ele><time>2026-04-12T10:35:15.999Z</time></trkpt><trkpt lat="44.556481310733126" lon="10.453893838828936"><ele>588.0</ele><time>2026-04-12T10:35:16.999Z</time></trkpt><trkpt lat="44.55649879315684" lon="10.454022519679171"><ele>588.0</ele><time>2026-04-12T10:35:17.999Z</time></trkpt><trkpt lat="44.55654404891381" lon="10.454132543197003"><ele>588.0</ele><time>2026-04-12T10:35:18.999Z</time></trkpt><trkpt lat="44.55659351043096" lon="10.454238153059798"><ele>587.4</ele><time>2026-04-12T10:35:19.999Z</time></trkpt><trkpt lat="44.55664725250507" lon="10.454343264621821"><ele>586.8</ele><time>2026-04-12T10:35:20.999Z</time></trkpt><trkpt lat="44.55670926446803" lon="10.454450462409394"><ele>586.2</ele><time>2026-04-12T10:35:21.999Z</time></trkpt><trkpt lat="44.55676218091545" lon="10.454576231631572"><ele>585.6</ele><time>2026-04-12T10:35:22.999Z</time></trkpt><trkpt lat="44.55681728559478" lon="10.454667349909734"><ele>585.0</ele><time>2026-04-12T10:35:23.999Z</time></trkpt><trkpt lat="44.55687064717036" lon="10.454753853363087"><ele>585.0</ele><time>2026-04-12T10:35:24.999Z</time></trkpt><trkpt lat="44.55691539923338" lon="10.454839573270094"><ele>585.0</ele><time>2026-04-12T10:35:25.999Z</time></trkpt><trkpt lat="44.55696299464607" lon="10.454929938107703"><ele>585.0</ele><time>2026-04-12T10:35:26.999Z</time></trkpt><trkpt lat="44.5570079872103" lon="10.455016679827509"><ele>585.0</ele><time>2026-04-12T10:35:27.999Z</time></trkpt><trkpt lat="44.55707644905559" lon="10.45510149646987"><ele>585.0</ele><time>2026-04-12T10:35:29.999Z</time></trkpt><trkpt lat="44.55714078220943" lon="10.45513817471305"><ele>585.0</ele><time>2026-04-12T10:35:31.999Z</time></trkpt><trkpt lat="44.55722584854167" lon="10.455157498553008"><ele>585.0</ele><time>2026-04-12T10:35:33.999Z</time></trkpt><trkpt lat="44.557287863515604" lon="10.455128009718692"><ele>585.0</ele><time>2026-04-12T10:35:34.999Z</time></trkpt><trkpt lat="44.557366893303374" lon="10.455108055656519"><ele>585.0</ele><time>2026-04-12T10:35:35.999Z</time></trkpt><trkpt lat="44.557456843673016" lon="10.455074332107861"><ele>585.0</ele><time>2026-04-12T10:35:36.999Z</time></trkpt><trkpt lat="44.55755170839839" lon="10.45503798809928"><ele>585.0</ele><time>2026-04-12T10:35:37.999Z</time></trkpt><trkpt lat="44.55763274613481" lon="10.455006248966535"><ele>585.0</ele><time>2026-04-12T10:35:38.999Z</time></trkpt><trkpt lat="44.55770843663513" lon="10.454963513189659"><ele>585.0</ele><time>2026-04-12T10:35:39.999Z</time></trkpt><trkpt lat="44.55777788896696" lon="10.454925764059606"><ele>585.0</ele><time>2026-04-12T10:35:40.999Z</time></trkpt><trkpt lat="44.55787871391223" lon="10.454849890126265"><ele>585.0</ele><time>2026-04-12T10:35:42.999Z</time></trkpt><trkpt lat="44.557936426148075" lon="10.45480110822729"><ele>585.0</ele><time>2026-04-12T10:35:43.999Z</time></trkpt><trkpt lat="44.55800117742732" lon="10.454749333443072"><ele>585.0</ele><time>2026-04-12T10:35:44.999Z</time></trkpt><trkpt lat="44.558064148027825" lon="10.454685242193438"><ele>585.0</ele><time>2026-04-12T10:35:45.999Z</time></trkpt><trkpt lat="44.55813785996744" lon="10.454609548762933"><ele>584.0</ele><time>2026-04-12T10:35:46.999Z</time></trkpt><trkpt lat="44.55821294798308" lon="10.45454052420726"><ele>583.0</ele><time>2026-04-12T10:35:47.999Z</time></trkpt><trkpt lat="44.55827256319483" lon="10.454488104251197"><ele>582.0</ele><time>2026-04-12T10:35:48.999Z</time></trkpt><trkpt lat="44.55833246563623" lon="10.45445590649027"><ele>581.0</ele><time>2026-04-12T10:35:49.999Z</time></trkpt><trkpt lat="44.55841079125277" lon="10.454559286649244"><ele>580.0</ele><time>2026-04-12T10:35:51.999Z</time></trkpt><trkpt lat="44.55851934147836" lon="10.454469596673999"><ele>580.0</ele><time>2026-04-12T10:35:54Z</time></trkpt><trkpt lat="44.558588402314726" lon="10.4544090978952"><ele>580.0</ele><time>2026-04-12T10:35:55Z</time></trkpt><trkpt lat="44.55866604190126" lon="10.454373590956124"><ele>580.0</ele><time>2026-04-12T10:35:56Z</time></trkpt><trkpt lat="44.55875073268134" lon="10.45432683521627"><ele>580.0</ele><time>2026-04-12T10:35:57Z</time></trkpt><trkpt lat="44.55884252846834" lon="10.45428940534799"><ele>580.0</ele><time>2026-04-12T10:35:58Z</time></trkpt><trkpt lat="44.5589285239718" lon="10.454242616043963"><ele>580.0</ele><time>2026-04-12T10:35:59Z</time></trkpt><trkpt lat="44.55899403956047" lon="10.454183299661205"><ele>580.2857142857143</ele><time>2026-04-12T10:36:00Z</time></trkpt><trkpt lat="44.559047599289066" lon="10.454115015579626"><ele>580.5714285714287</ele><time>2026-04-12T10:36:01Z</time></trkpt><trkpt lat="44.55911332588277" lon="10.454061666140214"><ele>580.8571428571429</ele><time>2026-04-12T10:36:02Z</time></trkpt><trkpt lat="44.559163145371144" lon="10.454001718973982"><ele>581.1428571428571</ele><time>2026-04-12T10:36:03Z</time></trkpt><trkpt lat="44.55921625615825" lon="10.453941076997236"><ele>581.4285714285713</ele><time>2026-04-12T10:36:04Z</time></trkpt><trkpt lat="44.55927094341795" lon="10.45387950394154"><ele>581.7142857142857</ele><time>2026-04-12T10:36:05Z</time></trkpt><trkpt lat="44.55932552739356" lon="10.453818047141725"><ele>582.0</ele><time>2026-04-12T10:36:06Z</time></trkpt><trkpt lat="44.5593832420599" lon="10.45374948410844"><ele>582.0</ele><time>2026-04-12T10:36:07Z</time></trkpt><trkpt lat="44.559431513085634" lon="10.453690946199703"><ele>582.0</ele><time>2026-04-12T10:36:08Z</time></trkpt><trkpt lat="44.55949891887203" lon="10.453598472019566"><ele>582.0</ele><time>2026-04-12T10:36:09Z</time></trkpt><trkpt lat="44.55956626780053" lon="10.453490024786191"><ele>582.0</ele><time>2026-04-12T10:36:10Z</time></trkpt><trkpt lat="44.559634501820156" lon="10.453404657514982"><ele>582.0</ele><time>2026-04-12T10:36:11Z</time></trkpt><trkpt lat="44.55969936132903" lon="10.453318406538653"><ele>582.0</ele><time>2026-04-12T10:36:12Z</time></trkpt><trkpt lat="44.55974773546375" lon="10.453229203643819"><ele>584.4285714285714</ele><time>2026-04-12T10:36:13Z</time></trkpt><trkpt lat="44.55978926154757" lon="10.45313988464971"><ele>586.8571428571428</ele><time>2026-04-12T10:36:14Z</time></trkpt><trkpt lat="44.559854994259894" lon="10.453081057419217"><ele>589.2857142857142</ele><time>2026-04-12T10:36:15Z</time></trkpt><trkpt lat="44.559917158367426" lon="10.453031708158925"><ele>591.7142857142857</ele><time>2026-04-12T10:36:16Z</time></trkpt><trkpt lat="44.55998152003389" lon="10.453026702443301"><ele>594.1428571428571</ele><time>2026-04-12T10:36:17Z</time></trkpt><trkpt lat="44.560049192558054" lon="10.453058997947833"><ele>596.5714285714286</ele><time>2026-04-12T10:36:18Z</time></trkpt><trkpt lat="44.56012106836946" lon="10.453107564828706"><ele>599.0</ele><time>2026-04-12T10:36:19Z</time></trkpt><trkpt lat="44.56019149584041" lon="10.45315911662951"><ele>599.0</ele><time>2026-04-12T10:36:20Z</time></trkpt><trkpt lat="44.56027797227676" lon="10.453263932912787"><ele>599.0</ele><time>2026-04-12T10:36:21Z</time></trkpt><trkpt lat="44.560360521955076" lon="10.45339397426484"><ele>599.0</ele><time>2026-04-12T10:36:22Z</time></trkpt><trkpt lat="44.560421716155275" lon="10.453529950898295"><ele>599.0</ele><time>2026-04-12T10:36:23Z</time></trkpt><trkpt lat="44.56047815026679" lon="10.453659722265733"><ele>599.5</ele><time>2026-04-12T10:36:24Z</time></trkpt><trkpt lat="44.56052842303499" lon="10.453762711275775"><ele>600.0</ele><time>2026-04-12T10:36:25Z</time></trkpt><trkpt lat="44.56057862261101" lon="10.453822927431524"><ele>600.5</ele><time>2026-04-12T10:36:26Z</time></trkpt><trkpt lat="44.5606323531898" lon="10.453869992210308"><ele>601.0</ele><time>2026-04-12T10:36:27Z</time></trkpt><trkpt lat="44.56073110010467" lon="10.453905375172285"><ele>601.5</ele><time>2026-04-12T10:36:29Z</time></trkpt><trkpt lat="44.5608425464241" lon="10.45398568314403"><ele>602.0</ele><time>2026-04-12T10:36:31Z</time></trkpt><trkpt lat="44.560925204078806" lon="10.454016863415191"><ele>602.0</ele><time>2026-04-12T10:36:32Z</time></trkpt><trkpt lat="44.561007426093624" lon="10.454000037934811"><ele>602.0</ele><time>2026-04-12T10:36:33Z</time></trkpt><trkpt lat="44.56109314925335" lon="10.453999163726653"><ele>602.0</ele><time>2026-04-12T10:36:34Z</time></trkpt><trkpt lat="44.56120916920158" lon="10.454011602784812"><ele>602.0</ele><time>2026-04-12T10:36:35Z</time></trkpt><trkpt lat="44.5613466019614" lon="10.453967270484696"><ele>602.0</ele><time>2026-04-12T10:36:36Z</time></trkpt><trkpt lat="44.5614664965881" lon="10.453938550944901"><ele>603.0</ele><time>2026-04-12T10:36:37Z</time></trkpt><trkpt lat="44.56156457633491" lon="10.45393323217278"><ele>604.0</ele><time>2026-04-12T10:36:38Z</time></trkpt><trkpt lat="44.561664522443245" lon="10.453931398346345"><ele>605.0</ele><time>2026-04-12T10:36:39Z</time></trkpt><trkpt lat="44.56177175870307" lon="10.453932813929475"><ele>606.0</ele><time>2026-04-12T10:36:40Z</time></trkpt><trkpt lat="44.56187715222121" lon="10.453942538445325"><ele>607.0</ele><time>2026-04-12T10:36:41Z</time></trkpt><trkpt lat="44.56197156382682" lon="10.453965414941553"><ele>607.0</ele><time>2026-04-12T10:36:42Z</time></trkpt><trkpt lat="44.56205682660769" lon="10.453991210423524"><ele>607.0</ele><time>2026-04-12T10:36:43Z</time></trkpt><trkpt lat="44.56211861634863" lon="10.454061304986837"><ele>607.0</ele><time>2026-04-12T10:36:44Z</time></trkpt><trkpt lat="44.56211947396062" lon="10.454200826664431"><ele>607.0</ele><time>2026-04-12T10:36:46Z</time></trkpt><trkpt lat="44.56205964771541" lon="10.454260772744012"><ele>607.0</ele><time>2026-04-12T10:36:47Z</time></trkpt><trkpt lat="44.561957185463775" lon="10.454385518537645"><ele>607.0</ele><time>2026-04-12T10:36:49Z</time></trkpt><trkpt lat="44.56184046691237" lon="10.45445221132075"><ele>607.0</ele><time>2026-04-12T10:36:50Z</time></trkpt><trkpt lat="44.561723305671364" lon="10.454536216080834"><ele>607.0</ele><time>2026-04-12T10:36:51Z</time></trkpt><trkpt lat="44.56161066603355" lon="10.454638780957827"><ele>607.0</ele><time>2026-04-12T10:36:52Z</time></trkpt><trkpt lat="44.56151635507631" lon="10.454733915878855"><ele>608.2</ele><time>2026-04-12T10:36:53Z</time></trkpt><trkpt lat="44.56143747642259" lon="10.454836130644086"><ele>609.4000000000001</ele><time>2026-04-12T10:36:54Z</time></trkpt><trkpt lat="44.56135585588346" lon="10.45492974562119"><ele>610.5999999999999</ele><time>2026-04-12T10:36:55Z</time></trkpt><trkpt lat="44.56127496990976" lon="10.455022145838248"><ele>611.8</ele><time>2026-04-12T10:36:56Z</time></trkpt><trkpt lat="44.56121342288717" lon="10.455123555037028"><ele>613.0</ele><time>2026-04-12T10:36:57Z</time></trkpt><trkpt lat="44.5611663581836" lon="10.455238697329671"><ele>607.8</ele><time>2026-04-12T10:36:58Z</time></trkpt><trkpt lat="44.561134330213996" lon="10.455333715447711"><ele>602.5999999999999</ele><time>2026-04-12T10:36:59Z</time></trkpt><trkpt lat="44.56108296181353" lon="10.45548017424297"><ele>597.4000000000001</ele><time>2026-04-12T10:37:01Z</time></trkpt><trkpt lat="44.56102068489266" lon="10.455657982829775"><ele>592.2</ele><time>2026-04-12T10:37:03Z</time></trkpt><trkpt lat="44.56098276473384" lon="10.455773604831911"><ele>587.0</ele><time>2026-04-12T10:37:03.999Z</time></trkpt><trkpt lat="44.56094184754908" lon="10.455915258848583"><ele>587.0</ele><time>2026-04-12T10:37:04.999Z</time></trkpt><trkpt lat="44.56090845253076" lon="10.456059157209092"><ele>587.0</ele><time>2026-04-12T10:37:05.999Z</time></trkpt><trkpt lat="44.560880239164774" lon="10.456187473015074"><ele>587.0</ele><time>2026-04-12T10:37:06.999Z</time></trkpt><trkpt lat="44.56088073365108" lon="10.456333285053129"><ele>587.0</ele><time>2026-04-12T10:37:07.999Z</time></trkpt><trkpt lat="44.56089267891321" lon="10.456485120552294"><ele>587.0</ele><time>2026-04-12T10:37:08.999Z</time></trkpt><trkpt lat="44.56091561373216" lon="10.456665482558229"><ele>586.2</ele><time>2026-04-12T10:37:09.999Z</time></trkpt><trkpt lat="44.56093510910316" lon="10.456838492554779"><ele>585.4000000000001</ele><time>2026-04-12T10:37:10.999Z</time></trkpt><trkpt lat="44.56095198687605" lon="10.456998177202918"><ele>584.5999999999999</ele><time>2026-04-12T10:37:11.999Z</time></trkpt><trkpt lat="44.56098435847165" lon="10.457133782444288"><ele>583.8</ele><time>2026-04-12T10:37:12.999Z</time></trkpt><trkpt lat="44.560988861173236" lon="10.457263158261549"><ele>583.0</ele><time>2026-04-12T10:37:13.999Z</time></trkpt><trkpt lat="44.56101267995446" lon="10.45737598167808"><ele>581.1999999999999</ele><time>2026-04-12T10:37:14.999Z</time></trkpt><trkpt lat="44.56105741615631" lon="10.457475704156739"><ele>579.4</ele><time>2026-04-12T10:37:15.999Z</time></trkpt><trkpt lat="44.561149335131255" lon="10.457489084901786"><ele>577.5999999999999</ele><time>2026-04-12T10:37:16.999Z</time></trkpt><trkpt lat="44.56122502342742" lon="10.457502648269294"><ele>575.8</ele><time>2026-04-12T10:37:17.999Z</time></trkpt><trkpt lat="44.56131325764935" lon="10.457515482336854"><ele>574.0</ele><time>2026-04-12T10:37:18.999Z</time></trkpt><trkpt lat="44.561447905183336" lon="10.457519645192706"><ele>580.25</ele><time>2026-04-12T10:37:19.999Z</time></trkpt><trkpt lat="44.561622643768274" lon="10.45753594174132"><ele>586.5</ele><time>2026-04-12T10:37:20.999Z</time></trkpt><trkpt lat="44.56175335738096" lon="10.457541891185542"><ele>592.75</ele><time>2026-04-12T10:37:21.999Z</time></trkpt><trkpt lat="44.561880839320935" lon="10.457576297791128"><ele>599.0</ele><time>2026-04-12T10:37:22.999Z</time></trkpt><trkpt lat="44.562015987907074" lon="10.457609096565289"><ele>601.75</ele><time>2026-04-12T10:37:23.999Z</time></trkpt><trkpt lat="44.562148429805184" lon="10.457629765353232"><ele>604.5</ele><time>2026-04-12T10:37:24.999Z</time></trkpt><trkpt lat="44.5622663819625" lon="10.457689089198354"><ele>607.25</ele><time>2026-04-12T10:37:25.999Z</time></trkpt><trkpt lat="44.56237248035457" lon="10.457724410053006"><ele>610.0</ele><time>2026-04-12T10:37:26.999Z</time></trkpt><trkpt lat="44.56248015674056" lon="10.457799805037814"><ele>610.0</ele><time>2026-04-12T10:37:27.999Z</time></trkpt><trkpt lat="44.562535553366516" lon="10.457896890004127"><ele>610.0</ele><time>2026-04-12T10:37:28.999Z</time></trkpt><trkpt lat="44.56254051091427" lon="10.458047287287902"><ele>610.0</ele><time>2026-04-12T10:37:29.999Z</time></trkpt><trkpt lat="44.56263741828829" lon="10.458188862380288"><ele>610.0</ele><time>2026-04-12T10:37:31.999Z</time></trkpt><trkpt lat="44.562800061240004" lon="10.45818392033813"><ele>607.25</ele><time>2026-04-12T10:37:35.999Z</time></trkpt><trkpt lat="44.56292933116132" lon="10.458195993282088"><ele>604.5</ele><time>2026-04-12T10:37:37.999Z</time></trkpt><trkpt lat="44.56299710171253" lon="10.458213625462784"><ele>601.75</ele><time>2026-04-12T10:37:38.999Z</time></trkpt><trkpt lat="44.56306338394794" lon="10.458246729261587"><ele>599.0</ele><time>2026-04-12T10:37:39.999Z</time></trkpt><trkpt lat="44.56332984002179" lon="10.458181899686585"><ele>599.0</ele><time>2026-04-12T10:37:42.999Z</time></trkpt><trkpt lat="44.56340370487744" lon="10.458188638241577"><ele>599.0</ele><time>2026-04-12T10:37:43.999Z</time></trkpt><trkpt lat="44.56351021788923" lon="10.458169109576172"><ele>599.0</ele><time>2026-04-12T10:37:44.999Z</time></trkpt><trkpt lat="44.56361689187105" lon="10.458194927884916"><ele>599.0</ele><time>2026-04-12T10:37:45.999Z</time></trkpt><trkpt lat="44.56370798732752" lon="10.458194622774405"><ele>599.0</ele><time>2026-04-12T10:37:46.999Z</time></trkpt><trkpt lat="44.563785364363966" lon="10.458260699774252"><ele>600.6</ele><time>2026-04-12T10:37:47.999Z</time></trkpt><trkpt lat="44.56388130820014" lon="10.458288220760787"><ele>602.2</ele><time>2026-04-12T10:37:48.999Z</time></trkpt><trkpt lat="44.56398312662264" lon="10.458276362580635"><ele>603.8000000000001</ele><time>2026-04-12T10:37:49.999Z</time></trkpt><trkpt lat="44.564078879904486" lon="10.458271594046801"><ele>605.4</ele><time>2026-04-12T10:37:50.999Z</time></trkpt><trkpt lat="44.564160224666054" lon="10.458292857446546"><ele>607.0</ele><time>2026-04-12T10:37:51.999Z</time></trkpt><trkpt lat="44.56427177664091" lon="10.458338284367146"><ele>607.0</ele><time>2026-04-12T10:37:53.999Z</time></trkpt><trkpt lat="44.564357062274034" lon="10.45846358822593"><ele>607.0</ele><time>2026-04-12T10:37:55.999Z</time></trkpt><trkpt lat="44.56440492614656" lon="10.458541183002847"><ele>607.0</ele><time>2026-04-12T10:37:56.999Z</time></trkpt><trkpt lat="44.564504094754824" lon="10.458681479504863"><ele>607.0</ele><time>2026-04-12T10:37:59Z</time></trkpt><trkpt lat="44.56455944072305" lon="10.458742001639754"><ele>607.0</ele><time>2026-04-12T10:38:00Z</time></trkpt><trkpt lat="44.56461435818952" lon="10.458788577658629"><ele>604.9999999999999</ele><time>2026-04-12T10:38:01Z</time></trkpt><trkpt lat="44.56467257585238" lon="10.458837335764473"><ele>603.0</ele><time>2026-04-12T10:38:02Z</time></trkpt><trkpt lat="44.564748786147646" lon="10.458894599264314"><ele>601.0</ele><time>2026-04-12T10:38:03Z</time></trkpt><trkpt lat="44.56481463676989" lon="10.458935805356608"><ele>599.0</ele><time>2026-04-12T10:38:04Z</time></trkpt><trkpt lat="44.56488828789849" lon="10.45896002347739"><ele>597.0</ele><time>2026-04-12T10:38:05Z</time></trkpt><trkpt lat="44.564952782416746" lon="10.458981795444858"><ele>594.9999999999999</ele><time>2026-04-12T10:38:06Z</time></trkpt><trkpt lat="44.56502531165681" lon="10.458998591406143"><ele>593.0</ele><time>2026-04-12T10:38:07Z</time></trkpt><trkpt lat="44.56508317216233" lon="10.459034149402209"><ele>593.0</ele><time>2026-04-12T10:38:08Z</time></trkpt><trkpt lat="44.5651753140238" lon="10.45907632818471"><ele>593.0</ele><time>2026-04-12T10:38:10Z</time></trkpt><trkpt lat="44.56535932363468" lon="10.458996169826753"><ele>593.0</ele><time>2026-04-12T10:38:31Z</time></trkpt><trkpt lat="44.5654363252564" lon="10.458897246483247"><ele>593.0</ele><time>2026-04-12T10:38:33Z</time></trkpt><trkpt lat="44.56549104323832" lon="10.458848739610088"><ele>590.4</ele><time>2026-04-12T10:38:34Z</time></trkpt><trkpt lat="44.565505828236454" lon="10.458727485518944"><ele>587.8</ele><time>2026-04-12T10:38:35Z</time></trkpt><trkpt lat="44.565540327199166" lon="10.458608186029066"><ele>585.2</ele><time>2026-04-12T10:38:36Z</time></trkpt><trkpt lat="44.5655395927087" lon="10.458452352546681"><ele>582.6</ele><time>2026-04-12T10:38:37Z</time></trkpt><trkpt lat="44.56554839206264" lon="10.458286206364468"><ele>580.0</ele><time>2026-04-12T10:38:38Z</time></trkpt><trkpt lat="44.56557044115935" lon="10.458134505510525"><ele>580.0</ele><time>2026-04-12T10:38:39Z</time></trkpt><trkpt lat="44.56560689848748" lon="10.457995543164964"><ele>580.0</ele><time>2026-04-12T10:38:40Z</time></trkpt><trkpt lat="44.56566737889794" lon="10.457872958897948"><ele>580.0</ele><time>2026-04-12T10:38:41Z</time></trkpt><trkpt lat="44.56575445822272" lon="10.457782609617816"><ele>580.0</ele><time>2026-04-12T10:38:42Z</time></trkpt><trkpt lat="44.56585477362416" lon="10.457693165752637"><ele>580.0</ele><time>2026-04-12T10:38:43Z</time></trkpt><trkpt lat="44.565956448881096" lon="10.457598030270326"><ele>576.75</ele><time>2026-04-12T10:38:44Z</time></trkpt><trkpt lat="44.56605797544729" lon="10.457501956323885"><ele>573.5</ele><time>2026-04-12T10:38:45Z</time></trkpt><trkpt lat="44.56614255284478" lon="10.457401465201531"><ele>570.25</ele><time>2026-04-12T10:38:46Z</time></trkpt><trkpt lat="44.56624122713683" lon="10.45732150047016"><ele>567.0</ele><time>2026-04-12T10:38:47Z</time></trkpt><trkpt lat="44.56634607064736" lon="10.457289358013135"><ele>567.0</ele><time>2026-04-12T10:38:48Z</time></trkpt><trkpt lat="44.56645090942662" lon="10.45725254086297"><ele>567.0</ele><time>2026-04-12T10:38:49Z</time></trkpt><trkpt lat="44.56655612824547" lon="10.457235834561091"><ele>567.0</ele><time>2026-04-12T10:38:50Z</time></trkpt><trkpt lat="44.56665741362752" lon="10.45718740917252"><ele>567.0</ele><time>2026-04-12T10:38:51Z</time></trkpt><trkpt lat="44.56676013185014" lon="10.457161347088938"><ele>567.0</ele><time>2026-04-12T10:38:52Z</time></trkpt><trkpt lat="44.56684953972938" lon="10.457069596189633"><ele>572.0</ele><time>2026-04-12T10:38:53Z</time></trkpt><trkpt lat="44.566933031862945" lon="10.456963621277568"><ele>577.0</ele><time>2026-04-12T10:38:54Z</time></trkpt><trkpt lat="44.56701216851214" lon="10.456851296579348"><ele>582.0</ele><time>2026-04-12T10:38:55Z</time></trkpt><trkpt lat="44.56702655713342" lon="10.456711549954713"><ele>587.0</ele><time>2026-04-12T10:38:56Z</time></trkpt><trkpt lat="44.56702636775535" lon="10.456550491640487"><ele>592.0</ele><time>2026-04-12T10:38:57Z</time></trkpt><trkpt lat="44.566987871115344" lon="10.456398083410166"><ele>595.4</ele><time>2026-04-12T10:38:58Z</time></trkpt><trkpt lat="44.566954941487744" lon="10.456263034745472"><ele>598.8000000000001</ele><time>2026-04-12T10:38:59Z</time></trkpt><trkpt lat="44.5669392883486" lon="10.456119736929734"><ele>602.2</ele><time>2026-04-12T10:39:00Z</time></trkpt><trkpt lat="44.566945761709746" lon="10.455971754796588"><ele>605.6</ele><time>2026-04-12T10:39:01Z</time></trkpt><trkpt lat="44.56696278331383" lon="10.455824123467357"><ele>609.0</ele><time>2026-04-12T10:39:02Z</time></trkpt><trkpt lat="44.56699379757655" lon="10.455683835377982"><ele>600.8</ele><time>2026-04-12T10:39:03Z</time></trkpt><trkpt lat="44.567045276907756" lon="10.455521677034215"><ele>592.5999999999999</ele><time>2026-04-12T10:39:04Z</time></trkpt><trkpt lat="44.56711456488754" lon="10.455395225597531"><ele>584.4</ele><time>2026-04-12T10:39:04.999Z</time></trkpt><trkpt lat="44.567178476764134" lon="10.455301987390314"><ele>576.1999999999999</ele><time>2026-04-12T10:39:05.999Z</time></trkpt><trkpt lat="44.56724895714268" lon="10.455229649053077"><ele>568.0</ele><time>2026-04-12T10:39:06.999Z</time></trkpt><trkpt lat="44.567337925356654" lon="10.455209032091053"><ele>568.0</ele><time>2026-04-12T10:39:07.999Z</time></trkpt><trkpt lat="44.56746262501864" lon="10.455242823333988"><ele>568.0</ele><time>2026-04-12T10:39:08.999Z</time></trkpt><trkpt lat="44.56756586608042" lon="10.455172725849375"><ele>568.0</ele><time>2026-04-12T10:39:09.999Z</time></trkpt><trkpt lat="44.56765143204226" lon="10.455037425552943"><ele>568.0</ele><time>2026-04-12T10:39:10.999Z</time></trkpt><trkpt lat="44.567723456441264" lon="10.454903435165335"><ele>568.0</ele><time>2026-04-12T10:39:11.999Z</time></trkpt><trkpt lat="44.567791142760036" lon="10.454757687706872"><ele>568.0</ele><time>2026-04-12T10:39:12.999Z</time></trkpt><trkpt lat="44.56787392571168" lon="10.454603050405183"><ele>568.0</ele><time>2026-04-12T10:39:13.999Z</time></trkpt><trkpt lat="44.567956565245076" lon="10.4544570481303"><ele>568.0</ele><time>2026-04-12T10:39:14.999Z</time></trkpt><trkpt lat="44.56805721472413" lon="10.45435810983056"><ele>567.0</ele><time>2026-04-12T10:39:15.999Z</time></trkpt><trkpt lat="44.56817712919935" lon="10.454357734008214"><ele>566.0</ele><time>2026-04-12T10:39:16.999Z</time></trkpt><trkpt lat="44.568297375030866" lon="10.454315895280601"><ele>565.0</ele><time>2026-04-12T10:39:17.999Z</time></trkpt><trkpt lat="44.56841419109481" lon="10.454275257588206"><ele>564.0</ele><time>2026-04-12T10:39:18.999Z</time></trkpt><trkpt lat="44.568521590864066" lon="10.45422315371224"><ele>564.0</ele><time>2026-04-12T10:39:19.999Z</time></trkpt><trkpt lat="44.56862719777123" lon="10.454204863818811"><ele>564.0</ele><time>2026-04-12T10:39:20.999Z</time></trkpt><trkpt lat="44.56873388453894" lon="10.454199163926031"><ele>564.0</ele><time>2026-04-12T10:39:21.999Z</time></trkpt><trkpt lat="44.56885248884422" lon="10.454218006358953"><ele>564.0</ele><time>2026-04-12T10:39:22.999Z</time></trkpt><trkpt lat="44.568957626948205" lon="10.454197925400175"><ele>564.0</ele><time>2026-04-12T10:39:23.999Z</time></trkpt><trkpt lat="44.569049200128696" lon="10.454172204148584"><ele>562.4</ele><time>2026-04-12T10:39:24.999Z</time></trkpt><trkpt lat="44.56912451912781" lon="10.454113162423065"><ele>560.8</ele><time>2026-04-12T10:39:25.999Z</time></trkpt><trkpt lat="44.56918978352173" lon="10.454023127954471"><ele>559.2</ele><time>2026-04-12T10:39:26.999Z</time></trkpt><trkpt lat="44.56922242243216" lon="10.453897672581999"><ele>557.6</ele><time>2026-04-12T10:39:27.999Z</time></trkpt><trkpt lat="44.56923721919352" lon="10.453764123809886"><ele>556.0</ele><time>2026-04-12T10:39:28.999Z</time></trkpt><trkpt lat="44.569235745478245" lon="10.453635525532716"><ele>556.0</ele><time>2026-04-12T10:39:29.999Z</time></trkpt><trkpt lat="44.569240093938696" lon="10.45351240464097"><ele>556.0</ele><time>2026-04-12T10:39:30.999Z</time></trkpt><trkpt lat="44.56925018904544" lon="10.453387470091627"><ele>556.0</ele><time>2026-04-12T10:39:31.999Z</time></trkpt><trkpt lat="44.56928026826709" lon="10.453262803855209"><ele>556.0</ele><time>2026-04-12T10:39:32.999Z</time></trkpt><trkpt lat="44.569340146564045" lon="10.453127889246277"><ele>556.0</ele><time>2026-04-12T10:39:33.999Z</time></trkpt><trkpt lat="44.5694116103604" lon="10.453017337800341"><ele>551.25</ele><time>2026-04-12T10:39:34.999Z</time></trkpt><trkpt lat="44.56950729257396" lon="10.452950290923232"><ele>546.5</ele><time>2026-04-12T10:39:35.999Z</time></trkpt><trkpt lat="44.569611048861105" lon="10.45287574556054"><ele>541.75</ele><time>2026-04-12T10:39:36.999Z</time></trkpt><trkpt lat="44.56967052696648" lon="10.452736101374407"><ele>537.0</ele><time>2026-04-12T10:39:37.999Z</time></trkpt><trkpt lat="44.56971157188841" lon="10.452574266099758"><ele>537.0</ele><time>2026-04-12T10:39:38.999Z</time></trkpt><trkpt lat="44.569739950343724" lon="10.452427728588512"><ele>537.0</ele><time>2026-04-12T10:39:39.999Z</time></trkpt><trkpt lat="44.56978647352378" lon="10.452299112388934"><ele>537.0</ele><time>2026-04-12T10:39:40.999Z</time></trkpt><trkpt lat="44.56985379749447" lon="10.452201986572685"><ele>537.0</ele><time>2026-04-12T10:39:41.999Z</time></trkpt><trkpt lat="44.5699171972823" lon="10.452125399493024"><ele>537.0</ele><time>2026-04-12T10:39:42.999Z</time></trkpt><trkpt lat="44.569967360854726" lon="10.452065931296923"><ele>537.0</ele><time>2026-04-12T10:39:43.999Z</time></trkpt><trkpt lat="44.57006312613527" lon="10.452039459310214"><ele>537.0</ele><time>2026-04-12T10:39:45.999Z</time></trkpt><trkpt lat="44.57017429778052" lon="10.452113742281254"><ele>537.0</ele><time>2026-04-12T10:39:47.999Z</time></trkpt><trkpt lat="44.57025460042048" lon="10.452159313745456"><ele>537.0</ele><time>2026-04-12T10:39:48.999Z</time></trkpt><trkpt lat="44.57034659285465" lon="10.45219776765513"><ele>537.0</ele><time>2026-04-12T10:39:49.999Z</time></trkpt><trkpt lat="44.57043777133924" lon="10.452233282198033"><ele>533.0</ele><time>2026-04-12T10:39:50.999Z</time></trkpt><trkpt lat="44.570542674405466" lon="10.452269685482229"><ele>529.0</ele><time>2026-04-12T10:39:51.999Z</time></trkpt><trkpt lat="44.57065238731178" lon="10.452296974438276"><ele>525.0</ele><time>2026-04-12T10:39:52.999Z</time></trkpt><trkpt lat="44.57076808079515" lon="10.452297150814916"><ele>521.0</ele><time>2026-04-12T10:39:53.999Z</time></trkpt><trkpt lat="44.5708855916028" lon="10.452262794292196"><ele>521.0</ele><time>2026-04-12T10:39:54.999Z</time></trkpt><trkpt lat="44.571009503220196" lon="10.452197842113662"><ele>521.0</ele><time>2026-04-12T10:39:55.999Z</time></trkpt><trkpt lat="44.571139449201624" lon="10.452134432916443"><ele>521.0</ele><time>2026-04-12T10:39:56.999Z</time></trkpt><trkpt lat="44.571265024202205" lon="10.452075370634192"><ele>521.0</ele><time>2026-04-12T10:39:57.999Z</time></trkpt><trkpt lat="44.57139089937617" lon="10.452022363762183"><ele>521.0</ele><time>2026-04-12T10:39:58.999Z</time></trkpt><trkpt lat="44.57151391376418" lon="10.451966547804892"><ele>521.0</ele><time>2026-04-12T10:39:59.999Z</time></trkpt><trkpt lat="44.571624273954136" lon="10.45191274291217"><ele>521.0</ele><time>2026-04-12T10:40:00.999Z</time></trkpt><trkpt lat="44.57172063966242" lon="10.451871670349515"><ele>521.0</ele><time>2026-04-12T10:40:01.999Z</time></trkpt><trkpt lat="44.57180830108909" lon="10.451863904333342"><ele>521.0</ele><time>2026-04-12T10:40:02.999Z</time></trkpt><trkpt lat="44.57189039799442" lon="10.451936191124787"><ele>521.0</ele><time>2026-04-12T10:40:03.999Z</time></trkpt><trkpt lat="44.571982810466004" lon="10.452014315176443"><ele>521.0</ele><time>2026-04-12T10:40:05Z</time></trkpt><trkpt lat="44.57207550450895" lon="10.452109120219031"><ele>521.0</ele><time>2026-04-12T10:40:06Z</time></trkpt><trkpt lat="44.5721627087849" lon="10.45220544426181"><ele>521.0</ele><time>2026-04-12T10:40:07Z</time></trkpt><trkpt lat="44.572224235952525" lon="10.452342976391334"><ele>521.0</ele><time>2026-04-12T10:40:08Z</time></trkpt><trkpt lat="44.572295483918076" lon="10.452461586935875"><ele>514.25</ele><time>2026-04-12T10:40:09Z</time></trkpt><trkpt lat="44.572355354145984" lon="10.452602161998477"><ele>507.5</ele><time>2026-04-12T10:40:10Z</time></trkpt><trkpt lat="44.57240700315076" lon="10.452762809998902"><ele>500.75</ele><time>2026-04-12T10:40:11Z</time></trkpt><trkpt lat="44.57249939211038" lon="10.452879163110184"><ele>494.0</ele><time>2026-04-12T10:40:12Z</time></trkpt><trkpt lat="44.572588824327596" lon="10.452994559592462"><ele>493.75</ele><time>2026-04-12T10:40:13Z</time></trkpt><trkpt lat="44.57269752193437" lon="10.45309985439152"><ele>493.5</ele><time>2026-04-12T10:40:14Z</time></trkpt><trkpt lat="44.57280662757779" lon="10.453178374376627"><ele>493.25</ele><time>2026-04-12T10:40:15Z</time></trkpt><trkpt lat="44.57289777715206" lon="10.453282479683253"><ele>493.0</ele><time>2026-04-12T10:40:16Z</time></trkpt><trkpt lat="44.57299406046871" lon="10.453385003395864"><ele>491.75</ele><time>2026-04-12T10:40:17Z</time></trkpt><trkpt lat="44.57305066770739" lon="10.453540259254087"><ele>490.5</ele><time>2026-04-12T10:40:18Z</time></trkpt><trkpt lat="44.57305959255571" lon="10.453723439831752"><ele>489.25</ele><time>2026-04-12T10:40:19Z</time></trkpt><trkpt lat="44.5730939470011" lon="10.453876316181484"><ele>488.0</ele><time>2026-04-12T10:40:20Z</time></trkpt><trkpt lat="44.57315377739974" lon="10.45399985265596"><ele>490.75</ele><time>2026-04-12T10:40:21Z</time></trkpt><trkpt lat="44.57321873509025" lon="10.4541368517095"><ele>493.5</ele><time>2026-04-12T10:40:22Z</time></trkpt><trkpt lat="44.57325296836832" lon="10.454283658516125"><ele>496.25</ele><time>2026-04-12T10:40:23Z</time></trkpt><trkpt lat="44.57326248552865" lon="10.454440304817155"><ele>499.0</ele><time>2026-04-12T10:40:24Z</time></trkpt><trkpt lat="44.57326825591444" lon="10.454595855581173"><ele>499.0</ele><time>2026-04-12T10:40:25Z</time></trkpt><trkpt lat="44.57329089156308" lon="10.454751140583848"><ele>499.0</ele><time>2026-04-12T10:40:26Z</time></trkpt><trkpt lat="44.57331483306222" lon="10.45490630642058"><ele>499.0</ele><time>2026-04-12T10:40:27Z</time></trkpt><trkpt lat="44.57338257278588" lon="10.455045247656109"><ele>499.0</ele><time>2026-04-12T10:40:28Z</time></trkpt><trkpt lat="44.573470389164754" lon="10.455196452223639"><ele>499.0</ele><time>2026-04-12T10:40:29Z</time></trkpt><trkpt lat="44.57358130854119" lon="10.455335376166097"><ele>499.0</ele><time>2026-04-12T10:40:30Z</time></trkpt><trkpt lat="44.57369561591191" lon="10.4554741961583"><ele>499.0</ele><time>2026-04-12T10:40:31Z</time></trkpt><trkpt lat="44.57381389492111" lon="10.455596248659623"><ele>499.0</ele><time>2026-04-12T10:40:32Z</time></trkpt><trkpt lat="44.57393024449977" lon="10.455680367377909"><ele>500.75</ele><time>2026-04-12T10:40:33Z</time></trkpt><trkpt lat="44.574052497729966" lon="10.455697676193415"><ele>502.5</ele><time>2026-04-12T10:40:34Z</time></trkpt><trkpt lat="44.57417349579003" lon="10.455694464879336"><ele>504.25</ele><time>2026-04-12T10:40:35Z</time></trkpt><trkpt lat="44.57429691582477" lon="10.455689673210726"><ele>506.0</ele><time>2026-04-12T10:40:36Z</time></trkpt><trkpt lat="44.57442284207979" lon="10.455689161669811"><ele>509.75</ele><time>2026-04-12T10:40:37Z</time></trkpt><trkpt lat="44.57455130662367" lon="10.455697331379353"><ele>513.5</ele><time>2026-04-12T10:40:38Z</time></trkpt><trkpt lat="44.574671269138896" lon="10.45575802226191"><ele>517.25</ele><time>2026-04-12T10:40:39Z</time></trkpt><trkpt lat="44.5747846442296" lon="10.45581296457823"><ele>521.0</ele><time>2026-04-12T10:40:40Z</time></trkpt><trkpt lat="44.57488799501898" lon="10.455876052752357"><ele>521.0</ele><time>2026-04-12T10:40:41Z</time></trkpt><trkpt lat="44.57499256350589" lon="10.45592659657439"><ele>521.0</ele><time>2026-04-12T10:40:42Z</time></trkpt><trkpt lat="44.5750812977533" lon="10.456024145230696"><ele>521.0</ele><time>2026-04-12T10:40:43Z</time></trkpt><trkpt lat="44.57512419332457" lon="10.456172660533735"><ele>521.0</ele><time>2026-04-12T10:40:44Z</time></trkpt><trkpt lat="44.57515016635603" lon="10.456347634768717"><ele>523.75</ele><time>2026-04-12T10:40:45Z</time></trkpt><trkpt lat="44.57519839445168" lon="10.456521128393314"><ele>526.5</ele><time>2026-04-12T10:40:46Z</time></trkpt><trkpt lat="44.5752542973737" lon="10.456694657394564"><ele>529.25</ele><time>2026-04-12T10:40:47Z</time></trkpt><trkpt lat="44.575324091161" lon="10.456844601366651"><ele>532.0</ele><time>2026-04-12T10:40:48Z</time></trkpt><trkpt lat="44.57538543818479" lon="10.457000478652278"><ele>526.25</ele><time>2026-04-12T10:40:49Z</time></trkpt><trkpt lat="44.575471692286065" lon="10.457124627192075"><ele>520.5</ele><time>2026-04-12T10:40:50Z</time></trkpt><trkpt lat="44.57556481830399" lon="10.45721364729293"><ele>514.75</ele><time>2026-04-12T10:40:51Z</time></trkpt><trkpt lat="44.57566680691446" lon="10.457283992018077"><ele>509.0</ele><time>2026-04-12T10:40:52Z</time></trkpt><trkpt lat="44.57578392268105" lon="10.45732346151381"><ele>509.0</ele><time>2026-04-12T10:40:53Z</time></trkpt><trkpt lat="44.5758892662396" lon="10.457339964908964"><ele>509.0</ele><time>2026-04-12T10:40:54Z</time></trkpt><trkpt lat="44.575988675511596" lon="10.457371128699544"><ele>509.0</ele><time>2026-04-12T10:40:55Z</time></trkpt><trkpt lat="44.5760751062243" lon="10.457405916108463"><ele>509.0</ele><time>2026-04-12T10:40:56Z</time></trkpt><trkpt lat="44.57615969936788" lon="10.457416250989223"><ele>509.0</ele><time>2026-04-12T10:40:57Z</time></trkpt><trkpt lat="44.57624599130288" lon="10.457381759936863"><ele>508.4</ele><time>2026-04-12T10:40:58Z</time></trkpt><trkpt lat="44.57631701568961" lon="10.457289015957832"><ele>507.79999999999995</ele><time>2026-04-12T10:40:59Z</time></trkpt><trkpt lat="44.57637968113566" lon="10.457167903061412"><ele>507.20000000000005</ele><time>2026-04-12T10:41:00Z</time></trkpt><trkpt lat="44.5764264104518" lon="10.457026186927374"><ele>506.6</ele><time>2026-04-12T10:41:01Z</time></trkpt><trkpt lat="44.57646033654745" lon="10.456877782205659"><ele>506.0</ele><time>2026-04-12T10:41:02Z</time></trkpt><trkpt lat="44.57648946051369" lon="10.456743967963119"><ele>506.0</ele><time>2026-04-12T10:41:03Z</time></trkpt><trkpt lat="44.5765210464465" lon="10.456608291008008"><ele>506.0</ele><time>2026-04-12T10:41:04Z</time></trkpt><trkpt lat="44.57657166047547" lon="10.456491132754822"><ele>506.0</ele><time>2026-04-12T10:41:05Z</time></trkpt><trkpt lat="44.57665025924331" lon="10.456387842843371"><ele>506.0</ele><time>2026-04-12T10:41:06Z</time></trkpt><trkpt lat="44.576753774001" lon="10.456292548527601"><ele>506.0</ele><time>2026-04-12T10:41:07Z</time></trkpt><trkpt lat="44.576844993218394" lon="10.45621467216681"><ele>504.5</ele><time>2026-04-12T10:41:08Z</time></trkpt><trkpt lat="44.576946359438125" lon="10.456143133069537"><ele>503.0</ele><time>2026-04-12T10:41:09Z</time></trkpt><trkpt lat="44.57705917443041" lon="10.456091847769702"><ele>501.5</ele><time>2026-04-12T10:41:10Z</time></trkpt><trkpt lat="44.577175526096916" lon="10.45607207146914"><ele>500.0</ele><time>2026-04-12T10:41:11Z</time></trkpt><trkpt lat="44.577292678312396" lon="10.456073616568679"><ele>500.0</ele><time>2026-04-12T10:41:12Z</time></trkpt><trkpt lat="44.57740658148961" lon="10.456072460605972"><ele>500.0</ele><time>2026-04-12T10:41:13Z</time></trkpt><trkpt lat="44.57751425737717" lon="10.456048364671732"><ele>500.0</ele><time>2026-04-12T10:41:14Z</time></trkpt><trkpt lat="44.577612335176426" lon="10.45600143895936"><ele>500.0</ele><time>2026-04-12T10:41:15Z</time></trkpt><trkpt lat="44.5776940532254" lon="10.455894339369099"><ele>500.0</ele><time>2026-04-12T10:41:16Z</time></trkpt><trkpt lat="44.57777025249465" lon="10.455786622920584"><ele>497.75</ele><time>2026-04-12T10:41:17Z</time></trkpt><trkpt lat="44.57785707283391" lon="10.455694845599995"><ele>495.5</ele><time>2026-04-12T10:41:18Z</time></trkpt><trkpt lat="44.577955621072235" lon="10.455608103177344"><ele>493.25</ele><time>2026-04-12T10:41:18.999Z</time></trkpt><trkpt lat="44.57805416932818" lon="10.455538320681695"><ele>491.0</ele><time>2026-04-12T10:41:19.999Z</time></trkpt><trkpt lat="44.57815829111497" lon="10.455471927961018"><ele>495.0</ele><time>2026-04-12T10:41:20.999Z</time></trkpt><trkpt lat="44.578261724213725" lon="10.455421340817791"><ele>499.0</ele><time>2026-04-12T10:41:21.999Z</time></trkpt><trkpt lat="44.57837251859771" lon="10.455396726142892"><ele>503.0</ele><time>2026-04-12T10:41:22.999Z</time></trkpt><trkpt lat="44.57847515089034" lon="10.455390489681982"><ele>507.0</ele><time>2026-04-12T10:41:23.999Z</time></trkpt><trkpt lat="44.578601214097176" lon="10.45540318787444"><ele>504.5</ele><time>2026-04-12T10:41:24.999Z</time></trkpt><trkpt lat="44.57872051786814" lon="10.455408804159227"><ele>502.0</ele><time>2026-04-12T10:41:25.999Z</time></trkpt><trkpt lat="44.578833423213275" lon="10.455378655247163"><ele>499.5</ele><time>2026-04-12T10:41:26.999Z</time></trkpt><trkpt lat="44.57893792411937" lon="10.455312339933158"><ele>497.0</ele><time>2026-04-12T10:41:27.999Z</time></trkpt><trkpt lat="44.579040550733694" lon="10.455239465544404"><ele>497.0</ele><time>2026-04-12T10:41:28.999Z</time></trkpt><trkpt lat="44.57913978381705" lon="10.455170526851749"><ele>497.00000000000006</ele><time>2026-04-12T10:41:29.999Z</time></trkpt><trkpt lat="44.57923904764197" lon="10.455124473045457"><ele>497.00000000000006</ele><time>2026-04-12T10:41:30.999Z</time></trkpt><trkpt lat="44.57935393780899" lon="10.45512742766192"><ele>497.0</ele><time>2026-04-12T10:41:31.999Z</time></trkpt><trkpt lat="44.579461213112985" lon="10.455191481658021"><ele>497.0</ele><time>2026-04-12T10:41:32.999Z</time></trkpt><trkpt lat="44.57956053640891" lon="10.455280806137736"><ele>495.75</ele><time>2026-04-12T10:41:33.999Z</time></trkpt><trkpt lat="44.579668161808904" lon="10.455359667383117"><ele>494.5</ele><time>2026-04-12T10:41:34.999Z</time></trkpt><trkpt lat="44.57978193923692" lon="10.455428810685543"><ele>493.25</ele><time>2026-04-12T10:41:35.999Z</time></trkpt><trkpt lat="44.57989594964153" lon="10.455495950166403"><ele>492.0</ele><time>2026-04-12T10:41:36.999Z</time></trkpt><trkpt lat="44.580003603503954" lon="10.455547277369487"><ele>491.75</ele><time>2026-04-12T10:41:37.999Z</time></trkpt><trkpt lat="44.580106981945676" lon="10.455614339178844"><ele>491.5</ele><time>2026-04-12T10:41:38.999Z</time></trkpt><trkpt lat="44.58021814304462" lon="10.455667794476556"><ele>491.25</ele><time>2026-04-12T10:41:39.999Z</time></trkpt><trkpt lat="44.5803301028769" lon="10.45571410987615"><ele>491.0</ele><time>2026-04-12T10:41:40.999Z</time></trkpt><trkpt lat="44.58044633373794" lon="10.455755806895882"><ele>492.25</ele><time>2026-04-12T10:41:41.999Z</time></trkpt><trkpt lat="44.58056773577343" lon="10.455801845944979"><ele>493.5</ele><time>2026-04-12T10:41:42.999Z</time></trkpt><trkpt lat="44.580686431166015" lon="10.455846513640596"><ele>494.75</ele><time>2026-04-12T10:41:43.999Z</time></trkpt><trkpt lat="44.580784077799926" lon="10.455877631500892"><ele>496.0</ele><time>2026-04-12T10:41:44.999Z</time></trkpt><trkpt lat="44.58089019096141" lon="10.455907285187731"><ele>496.00000000000006</ele><time>2026-04-12T10:41:45.999Z</time></trkpt><trkpt lat="44.58097185140301" lon="10.455955938862237"><ele>496.0</ele><time>2026-04-12T10:41:46.999Z</time></trkpt><trkpt lat="44.581051900413634" lon="10.455982006648346"><ele>496.0</ele><time>2026-04-12T10:41:47.999Z</time></trkpt><trkpt lat="44.58113053504698" lon="10.456008642665786"><ele>496.0</ele><time>2026-04-12T10:41:48.999Z</time></trkpt><trkpt lat="44.581198103632026" lon="10.45603237771461"><ele>496.00000000000006</ele><time>2026-04-12T10:41:49.999Z</time></trkpt><trkpt lat="44.581272498644104" lon="10.456046723330932"><ele>496.0</ele><time>2026-04-12T10:41:50.999Z</time></trkpt><trkpt lat="44.5813549823761" lon="10.456095388251427"><ele>497.0</ele><time>2026-04-12T10:41:51.999Z</time></trkpt><trkpt lat="44.58146093483037" lon="10.45615690230526"><ele>498.0</ele><time>2026-04-12T10:41:52.999Z</time></trkpt><trkpt lat="44.581590782641356" lon="10.456244266137853"><ele>499.0</ele><time>2026-04-12T10:41:53.999Z</time></trkpt><trkpt lat="44.581720714496015" lon="10.4563525860577"><ele>500.0</ele><time>2026-04-12T10:41:54.999Z</time></trkpt><trkpt lat="44.58184872839914" lon="10.456482307948873"><ele>498.75</ele><time>2026-04-12T10:41:55.999Z</time></trkpt><trkpt lat="44.5819641856485" lon="10.456638049293188"><ele>497.5</ele><time>2026-04-12T10:41:56.999Z</time></trkpt><trkpt lat="44.58204650601993" lon="10.456799872290677"><ele>496.25</ele><time>2026-04-12T10:41:57.999Z</time></trkpt><trkpt lat="44.582150573707146" lon="10.456922711030964"><ele>495.0</ele><time>2026-04-12T10:41:58.999Z</time></trkpt><trkpt lat="44.58227508215997" lon="10.457022018739664"><ele>495.0</ele><time>2026-04-12T10:41:59.999Z</time></trkpt><trkpt lat="44.58239959692559" lon="10.457114519144747"><ele>495.0</ele><time>2026-04-12T10:42:00.999Z</time></trkpt><trkpt lat="44.58249113175941" lon="10.457229836170905"><ele>495.0</ele><time>2026-04-12T10:42:01.999Z</time></trkpt><trkpt lat="44.58257768396185" lon="10.457375034997524"><ele>495.0</ele><time>2026-04-12T10:42:02.999Z</time></trkpt><trkpt lat="44.582649445625336" lon="10.457536187532918"><ele>494.5</ele><time>2026-04-12T10:42:03.999Z</time></trkpt><trkpt lat="44.582688830293506" lon="10.457718552299648"><ele>494.0</ele><time>2026-04-12T10:42:04.999Z</time></trkpt><trkpt lat="44.58269584999877" lon="10.45787886512988"><ele>493.5</ele><time>2026-04-12T10:42:05.999Z</time></trkpt><trkpt lat="44.58270145758254" lon="10.458039936223674"><ele>493.0</ele><time>2026-04-12T10:42:06.999Z</time></trkpt><trkpt lat="44.58272461068225" lon="10.45817044532725"><ele>493.2</ele><time>2026-04-12T10:42:07.999Z</time></trkpt><trkpt lat="44.582762912331724" lon="10.458290822078755"><ele>493.4</ele><time>2026-04-12T10:42:08.999Z</time></trkpt><trkpt lat="44.582862724376014" lon="10.458307203385594"><ele>493.59999999999997</ele><time>2026-04-12T10:42:09.999Z</time></trkpt><trkpt lat="44.58296117736334" lon="10.458285677273492"><ele>493.79999999999995</ele><time>2026-04-12T10:42:11Z</time></trkpt><trkpt lat="44.58305650301002" lon="10.458252967229349"><ele>494.0</ele><time>2026-04-12T10:42:12Z</time></trkpt><trkpt lat="44.58316894555359" lon="10.458241676344414"><ele>494.0</ele><time>2026-04-12T10:42:13Z</time></trkpt><trkpt lat="44.58329120831644" lon="10.458296516848117"><ele>494.0</ele><time>2026-04-12T10:42:14Z</time></trkpt><trkpt lat="44.58342460916558" lon="10.458349491929592"><ele>494.0</ele><time>2026-04-12T10:42:15Z</time></trkpt><trkpt lat="44.58355906747427" lon="10.45840238901063"><ele>494.0</ele><time>2026-04-12T10:42:16Z</time></trkpt><trkpt lat="44.58368880928303" lon="10.458450855886833"><ele>493.75</ele><time>2026-04-12T10:42:17Z</time></trkpt><trkpt lat="44.583826053141934" lon="10.458475713122732"><ele>493.5</ele><time>2026-04-12T10:42:18Z</time></trkpt><trkpt lat="44.583955295090895" lon="10.458541690857194"><ele>493.25</ele><time>2026-04-12T10:42:19Z</time></trkpt><trkpt lat="44.58408335949247" lon="10.45859692853577"><ele>493.0</ele><time>2026-04-12T10:42:20Z</time></trkpt><trkpt lat="44.584192984639195" lon="10.458701819616834"><ele>493.0</ele><time>2026-04-12T10:42:21Z</time></trkpt><trkpt lat="44.584293176263834" lon="10.458812389644361"><ele>493.0</ele><time>2026-04-12T10:42:22Z</time></trkpt><trkpt lat="44.58440170952868" lon="10.458932110601095"><ele>493.0</ele><time>2026-04-12T10:42:23Z</time></trkpt><trkpt lat="44.58452076765698" lon="10.459036839605874"><ele>493.0</ele><time>2026-04-12T10:42:24Z</time></trkpt><trkpt lat="44.58464512314164" lon="10.459147291675393"><ele>493.0</ele><time>2026-04-12T10:42:25Z</time></trkpt><trkpt lat="44.58477104328747" lon="10.459239365818108"><ele>493.0</ele><time>2026-04-12T10:42:26Z</time></trkpt><trkpt lat="44.58489817144638" lon="10.459333542720126"><ele>493.0</ele><time>2026-04-12T10:42:27Z</time></trkpt><trkpt lat="44.58501175398521" lon="10.459412811542764"><ele>493.0</ele><time>2026-04-12T10:42:28Z</time></trkpt><trkpt lat="44.5851308124192" lon="10.459498136351055"><ele>493.0</ele><time>2026-04-12T10:42:29Z</time></trkpt><trkpt lat="44.585237375447576" lon="10.45959237236126"><ele>493.0</ele><time>2026-04-12T10:42:30Z</time></trkpt><trkpt lat="44.585352594637286" lon="10.45967267517096"><ele>493.0</ele><time>2026-04-12T10:42:31Z</time></trkpt><trkpt lat="44.58545492421561" lon="10.459766660624453"><ele>493.0</ele><time>2026-04-12T10:42:32Z</time></trkpt><trkpt lat="44.585548073061744" lon="10.459881196983398"><ele>496.0</ele><time>2026-04-12T10:42:33Z</time></trkpt><trkpt lat="44.58560145141803" lon="10.460035227374739"><ele>499.0</ele><time>2026-04-12T10:42:34Z</time></trkpt><trkpt lat="44.585652771622705" lon="10.46017450060489"><ele>502.0</ele><time>2026-04-12T10:42:35Z</time></trkpt><trkpt lat="44.58570270283872" lon="10.46032159949175"><ele>505.0</ele><time>2026-04-12T10:42:36Z</time></trkpt><trkpt lat="44.58574452473405" lon="10.460461493560594"><ele>505.00000000000006</ele><time>2026-04-12T10:42:37Z</time></trkpt><trkpt lat="44.58578326905391" lon="10.46059848114153"><ele>505.0</ele><time>2026-04-12T10:42:38Z</time></trkpt><trkpt lat="44.585817294585055" lon="10.460718784489512"><ele>505.0</ele><time>2026-04-12T10:42:39Z</time></trkpt><trkpt lat="44.585849160801466" lon="10.460818964363192"><ele>505.0</ele><time>2026-04-12T10:42:40Z</time></trkpt><trkpt lat="44.58588650441343" lon="10.460904101417702"><ele>505.00000000000006</ele><time>2026-04-12T10:42:41Z</time></trkpt><trkpt lat="44.58591695544241" lon="10.460988937739728"><ele>505.0</ele><time>2026-04-12T10:42:44Z</time></trkpt><trkpt lat="44.58586349623623" lon="10.46108903686995"><ele>505.0</ele><time>2026-04-12T10:42:45Z</time></trkpt><trkpt lat="44.58582719331995" lon="10.461164416464278"><ele>505.0</ele><time>2026-04-12T10:42:46Z</time></trkpt><trkpt lat="44.585798038065924" lon="10.461277463583588"><ele>505.0</ele><time>2026-04-12T10:42:47Z</time></trkpt><trkpt lat="44.58577928756984" lon="10.461423832183142"><ele>505.0</ele><time>2026-04-12T10:42:48Z</time></trkpt><trkpt lat="44.58576360524909" lon="10.461573662465202"><ele>505.0</ele><time>2026-04-12T10:42:49Z</time></trkpt><trkpt lat="44.58571372081862" lon="10.461746594599147"><ele>505.4</ele><time>2026-04-12T10:42:50Z</time></trkpt><trkpt lat="44.58566633049835" lon="10.46190158482348"><ele>505.8</ele><time>2026-04-12T10:42:51Z</time></trkpt><trkpt lat="44.58560971623263" lon="10.462041825727056"><ele>506.20000000000005</ele><time>2026-04-12T10:42:52Z</time></trkpt><trkpt lat="44.5855599776064" lon="10.462166576618399"><ele>506.6</ele><time>2026-04-12T10:42:53Z</time></trkpt><trkpt lat="44.585516639712694" lon="10.462310826596719"><ele>507.0</ele><time>2026-04-12T10:42:54Z</time></trkpt><trkpt lat="44.585460019692206" lon="10.4624527315944"><ele>508.5</ele><time>2026-04-12T10:42:55Z</time></trkpt><trkpt lat="44.58545665323193" lon="10.462594040046312"><ele>510.0</ele><time>2026-04-12T10:42:56Z</time></trkpt><trkpt lat="44.58549805360459" lon="10.462721382476579"><ele>511.5</ele><time>2026-04-12T10:42:57Z</time></trkpt><trkpt lat="44.585544356665324" lon="10.46285776860885"><ele>513.0</ele><time>2026-04-12T10:42:58Z</time></trkpt><trkpt lat="44.5856178123957" lon="10.463034785880359"><ele>515.0</ele><time>2026-04-12T10:42:59Z</time></trkpt><trkpt lat="44.585705941541704" lon="10.463188115069377"><ele>517.0</ele><time>2026-04-12T10:43:00Z</time></trkpt><trkpt lat="44.58581200245444" lon="10.463314078683098"><ele>519.0</ele><time>2026-04-12T10:43:01Z</time></trkpt><trkpt lat="44.58585063754475" lon="10.46345143136706"><ele>521.0</ele><time>2026-04-12T10:43:02Z</time></trkpt><trkpt lat="44.58586977137544" lon="10.46357839076692"><ele>521.0</ele><time>2026-04-12T10:43:03Z</time></trkpt><trkpt lat="44.585889206030245" lon="10.463735464161235"><ele>521.0</ele><time>2026-04-12T10:43:04Z</time></trkpt><trkpt lat="44.58582971958201" lon="10.463969834382345"><ele>521.0</ele><time>2026-04-12T10:43:05Z</time></trkpt><trkpt lat="44.585818672965594" lon="10.46419474918495"><ele>522.0</ele><time>2026-04-12T10:43:06Z</time></trkpt><trkpt lat="44.585822490443825" lon="10.464356803663572"><ele>523.0</ele><time>2026-04-12T10:43:07Z</time></trkpt><trkpt lat="44.585815220177636" lon="10.464506957239326"><ele>524.0</ele><time>2026-04-12T10:43:08Z</time></trkpt><trkpt lat="44.585822540283516" lon="10.464608141018266"><ele>525.0</ele><time>2026-04-12T10:43:09Z</time></trkpt><trkpt lat="44.58582208694063" lon="10.464717862213972"><ele>526.0</ele><time>2026-04-12T10:43:10Z</time></trkpt><trkpt lat="44.585815291390766" lon="10.464844913190685"><ele>526.4</ele><time>2026-04-12T10:43:11Z</time></trkpt><trkpt lat="44.585800013025725" lon="10.464974513546991"><ele>526.8</ele><time>2026-04-12T10:43:12Z</time></trkpt><trkpt lat="44.58575707278011" lon="10.465113524747727"><ele>527.1999999999999</ele><time>2026-04-12T10:43:13Z</time></trkpt><trkpt lat="44.58571463510701" lon="10.465269224917797"><ele>527.6</ele><time>2026-04-12T10:43:14Z</time></trkpt><trkpt lat="44.58567021869256" lon="10.46541535500052"><ele>528.0</ele><time>2026-04-12T10:43:15Z</time></trkpt><trkpt lat="44.58563384028369" lon="10.465571718236456"><ele>528.0</ele><time>2026-04-12T10:43:16Z</time></trkpt><trkpt lat="44.585610976165015" lon="10.465744481680192"><ele>528.0</ele><time>2026-04-12T10:43:17Z</time></trkpt><trkpt lat="44.585582236549875" lon="10.465915229735804"><ele>528.0</ele><time>2026-04-12T10:43:18Z</time></trkpt><trkpt lat="44.58556095789827" lon="10.466089265268677"><ele>528.0</ele><time>2026-04-12T10:43:19Z</time></trkpt><trkpt lat="44.58554300413398" lon="10.466253594297267"><ele>528.1999999999999</ele><time>2026-04-12T10:43:20Z</time></trkpt><trkpt lat="44.58549678553715" lon="10.466364091761472"><ele>528.4</ele><time>2026-04-12T10:43:21Z</time></trkpt><trkpt lat="44.58548595436818" lon="10.466503601182232"><ele>528.5999999999999</ele><time>2026-04-12T10:43:22Z</time></trkpt><trkpt lat="44.58544328304785" lon="10.466587138254837"><ele>528.8</ele><time>2026-04-12T10:43:23Z</time></trkpt><trkpt lat="44.58540220614486" lon="10.466706637849333"><ele>529.0</ele><time>2026-04-12T10:43:24Z</time></trkpt><trkpt lat="44.58532427743173" lon="10.466823001530107"><ele>529.0</ele><time>2026-04-12T10:43:25Z</time></trkpt><trkpt lat="44.58524805560059" lon="10.46693568898465"><ele>529.0</ele><time>2026-04-12T10:43:26Z</time></trkpt><trkpt lat="44.585197884103394" lon="10.467060250941413"><ele>529.0</ele><time>2026-04-12T10:43:27Z</time></trkpt><trkpt lat="44.58512897476029" lon="10.467133235951813"><ele>529.0</ele><time>2026-04-12T10:43:27.999Z</time></trkpt><trkpt lat="44.58506328032655" lon="10.467227752765668"><ele>529.0</ele><time>2026-04-12T10:43:28.999Z</time></trkpt><trkpt lat="44.5850003035602" lon="10.467333372029422"><ele>528.0</ele><time>2026-04-12T10:43:29.999Z</time></trkpt><trkpt lat="44.58512117635016" lon="10.467632656200054"><ele>527.0</ele><time>2026-04-12T10:43:30.999Z</time></trkpt><trkpt lat="44.58509195380139" lon="10.467747200270601"><ele>526.0</ele><time>2026-04-12T10:43:31.999Z</time></trkpt><trkpt lat="44.58504292722033" lon="10.467896009402228"><ele>525.0</ele><time>2026-04-12T10:43:33.999Z</time></trkpt><trkpt lat="44.58502745567427" lon="10.467985957990512"><ele>524.0</ele><time>2026-04-12T10:43:34.999Z</time></trkpt><trkpt lat="44.58505043519934" lon="10.46809174641078"><ele>523.0</ele><time>2026-04-12T10:43:35.999Z</time></trkpt><trkpt lat="44.5850327208094" lon="10.46819654086515"><ele>522.0</ele><time>2026-04-12T10:43:36.999Z</time></trkpt><trkpt lat="44.585020232788175" lon="10.468296769866821"><ele>521.0</ele><time>2026-04-12T10:43:37.999Z</time></trkpt><trkpt lat="44.58503838986325" lon="10.468450301314395"><ele>520.0</ele><time>2026-04-12T10:43:39.999Z</time></trkpt><trkpt lat="44.58506433312592" lon="10.468549482683585"><ele>519.0</ele><time>2026-04-12T10:43:40.999Z</time></trkpt><trkpt lat="44.58508574064716" lon="10.468661855173469"><ele>519.0</ele><time>2026-04-12T10:43:41.999Z</time></trkpt><trkpt lat="44.58509814624568" lon="10.468770565688322"><ele>519.0</ele><time>2026-04-12T10:43:42.999Z</time></trkpt><trkpt lat="44.58511653811138" lon="10.468905201108228"><ele>519.0</ele><time>2026-04-12T10:43:43.999Z</time></trkpt><trkpt lat="44.58516281468513" lon="10.469059836447135"><ele>519.0</ele><time>2026-04-12T10:43:44.999Z</time></trkpt><trkpt lat="44.58519176482206" lon="10.469186513618057"><ele>519.0</ele><time>2026-04-12T10:43:45.999Z</time></trkpt><trkpt lat="44.58518237618128" lon="10.469324429995607"><ele>517.3333333333334</ele><time>2026-04-12T10:43:46.999Z</time></trkpt><trkpt lat="44.58518529754342" lon="10.469429719284761"><ele>515.6666666666666</ele><time>2026-04-12T10:43:47.999Z</time></trkpt><trkpt lat="44.58517838021769" lon="10.469569338391304"><ele>514.0</ele><time>2026-04-12T10:43:48.999Z</time></trkpt><trkpt lat="44.585172506243985" lon="10.469687141655841"><ele>512.3333333333333</ele><time>2026-04-12T10:43:49.999Z</time></trkpt><trkpt lat="44.585162290906474" lon="10.469804457386546"><ele>510.66666666666663</ele><time>2026-04-12T10:43:50.999Z</time></trkpt><trkpt lat="44.58513975513816" lon="10.469925060493496"><ele>509.0</ele><time>2026-04-12T10:43:51.999Z</time></trkpt><trkpt lat="44.5851302675363" lon="10.470040743116947"><ele>508.66666666666663</ele><time>2026-04-12T10:43:52.999Z</time></trkpt><trkpt lat="44.58513721432686" lon="10.470151202526658"><ele>508.3333333333333</ele><time>2026-04-12T10:43:53.999Z</time></trkpt><trkpt lat="44.585160707571006" lon="10.470262158877162"><ele>508.0</ele><time>2026-04-12T10:43:54.999Z</time></trkpt><trkpt lat="44.58517864330302" lon="10.470367592755213"><ele>507.66666666666663</ele><time>2026-04-12T10:43:55.999Z</time></trkpt><trkpt lat="44.58519547383015" lon="10.470467828545889"><ele>507.3333333333333</ele><time>2026-04-12T10:43:56.999Z</time></trkpt><trkpt lat="44.58521715287472" lon="10.470580532039971"><ele>507.0</ele><time>2026-04-12T10:43:57.999Z</time></trkpt><trkpt lat="44.58524647532265" lon="10.470685815844812"><ele>506.0</ele><time>2026-04-12T10:43:58.999Z</time></trkpt><trkpt lat="44.58527428575148" lon="10.470800562279823"><ele>505.00000000000006</ele><time>2026-04-12T10:43:59.999Z</time></trkpt><trkpt lat="44.58529965331243" lon="10.470925843627947"><ele>504.00000000000006</ele><time>2026-04-12T10:44:00.999Z</time></trkpt><trkpt lat="44.58531214824655" lon="10.471075470714736"><ele>503.0</ele><time>2026-04-12T10:44:01.999Z</time></trkpt><trkpt lat="44.585299168426694" lon="10.471201175856008"><ele>502.0</ele><time>2026-04-12T10:44:02.999Z</time></trkpt><trkpt lat="44.58523580448901" lon="10.47133467151143"><ele>499.6</ele><time>2026-04-12T10:44:03.999Z</time></trkpt><trkpt lat="44.58519996463699" lon="10.47146974012369"><ele>497.20000000000005</ele><time>2026-04-12T10:44:04.999Z</time></trkpt><trkpt lat="44.58517575899203" lon="10.47162026987547"><ele>494.8</ele><time>2026-04-12T10:44:05.999Z</time></trkpt><trkpt lat="44.585144805174046" lon="10.471759847052873"><ele>492.4</ele><time>2026-04-12T10:44:06.999Z</time></trkpt><trkpt lat="44.585117131506145" lon="10.47188207716765"><ele>490.0</ele><time>2026-04-12T10:44:07.999Z</time></trkpt><trkpt lat="44.58509797315639" lon="10.471990634457114"><ele>488.2</ele><time>2026-04-12T10:44:08.999Z</time></trkpt><trkpt lat="44.5851171264993" lon="10.472148940586463"><ele>486.4</ele><time>2026-04-12T10:44:09.999Z</time></trkpt><trkpt lat="44.58511946687086" lon="10.472284934351148"><ele>484.6</ele><time>2026-04-12T10:44:10.999Z</time></trkpt><trkpt lat="44.58511049645172" lon="10.472405167153486"><ele>482.8</ele><time>2026-04-12T10:44:11.999Z</time></trkpt><trkpt lat="44.585089085105935" lon="10.472525537383584"><ele>481.0</ele><time>2026-04-12T10:44:12.999Z</time></trkpt><trkpt lat="44.585076816701175" lon="10.472636531238937"><ele>481.0</ele><time>2026-04-12T10:44:13.999Z</time></trkpt><trkpt lat="44.58509412319373" lon="10.472759932453599"><ele>481.0</ele><time>2026-04-12T10:44:14.999Z</time></trkpt><trkpt lat="44.58512945646022" lon="10.472895029915646"><ele>481.0</ele><time>2026-04-12T10:44:15.999Z</time></trkpt><trkpt lat="44.58516931679211" lon="10.47306774819401"><ele>481.0</ele><time>2026-04-12T10:44:17Z</time></trkpt><trkpt lat="44.58515719134464" lon="10.473248029545173"><ele>482.0</ele><time>2026-04-12T10:44:18Z</time></trkpt><trkpt lat="44.585115233371425" lon="10.473485917075314"><ele>483.0</ele><time>2026-04-12T10:44:19Z</time></trkpt><trkpt lat="44.5850778700903" lon="10.47372148729667"><ele>484.0</ele><time>2026-04-12T10:44:20Z</time></trkpt><trkpt lat="44.58505560572913" lon="10.473862517309163"><ele>485.0</ele><time>2026-04-12T10:44:21Z</time></trkpt><trkpt lat="44.58504457250421" lon="10.473964866780213"><ele>486.99999999999994</ele><time>2026-04-12T10:44:22Z</time></trkpt><trkpt lat="44.585060118516964" lon="10.474095055456248"><ele>489.0</ele><time>2026-04-12T10:44:24Z</time></trkpt><trkpt lat="44.58509106388821" lon="10.474185003784452"><ele>491.0</ele><time>2026-04-12T10:44:25Z</time></trkpt><trkpt lat="44.58511815596123" lon="10.47428619580467"><ele>493.0</ele><time>2026-04-12T10:44:26Z</time></trkpt><trkpt lat="44.585109909022705" lon="10.474449027521198"><ele>494.99999999999994</ele><time>2026-04-12T10:44:28Z</time></trkpt><trkpt lat="44.58510051264349" lon="10.474575151525062"><ele>497.0</ele><time>2026-04-12T10:44:30Z</time></trkpt><trkpt lat="44.585076183221425" lon="10.474728219597182"><ele>499.3333333333333</ele><time>2026-04-12T10:44:32Z</time></trkpt><trkpt lat="44.58507437744663" lon="10.474867345534708"><ele>501.66666666666663</ele><time>2026-04-12T10:44:34Z</time></trkpt><trkpt lat="44.585071427635626" lon="10.474971067909655"><ele>504.0</ele><time>2026-04-12T10:44:35Z</time></trkpt><trkpt lat="44.58505897125404" lon="10.475077332036257"><ele>506.33333333333337</ele><time>2026-04-12T10:44:36Z</time></trkpt><trkpt lat="44.585039915846686" lon="10.475194499370385"><ele>508.6666666666667</ele><time>2026-04-12T10:44:37Z</time></trkpt><trkpt lat="44.58503378521797" lon="10.4753175465436"><ele>511.0</ele><time>2026-04-12T10:44:38Z</time></trkpt><trkpt lat="44.58501416911139" lon="10.475455104299193"><ele>513.5</ele><time>2026-04-12T10:44:39Z</time></trkpt><trkpt lat="44.58500506274498" lon="10.475595523313165"><ele>516.0</ele><time>2026-04-12T10:44:40Z</time></trkpt><trkpt lat="44.58499470824585" lon="10.475719204820116"><ele>518.5</ele><time>2026-04-12T10:44:41Z</time></trkpt><trkpt lat="44.5849801012761" lon="10.475827160825244"><ele>521.0</ele><time>2026-04-12T10:44:42Z</time></trkpt><trkpt lat="44.584965256901654" lon="10.475923352176999"><ele>523.5</ele><time>2026-04-12T10:44:43Z</time></trkpt><trkpt lat="44.58492358724199" lon="10.476064622610009"><ele>526.0</ele><time>2026-04-12T10:44:45Z</time></trkpt><trkpt lat="44.58496397646839" lon="10.476175339675173"><ele>526.0</ele><time>2026-04-12T10:50:26.999Z</time></trkpt><trkpt lat="44.5850582063374" lon="10.476269190729214"><ele>526.0</ele><time>2026-04-12T10:50:28.999Z</time></trkpt><trkpt lat="44.585119078622164" lon="10.476326292214361"><ele>526.0</ele><time>2026-04-12T10:50:29.999Z</time></trkpt><trkpt lat="44.58518033479758" lon="10.476387860305612"><ele>526.0</ele><time>2026-04-12T10:50:30.999Z</time></trkpt><trkpt lat="44.585248038047176" lon="10.476462944324917"><ele>526.0</ele><time>2026-04-12T10:50:31.999Z</time></trkpt><trkpt lat="44.585300042596764" lon="10.476529212330847"><ele>526.0</ele><time>2026-04-12T10:50:32.999Z</time></trkpt><trkpt lat="44.5853603500258" lon="10.476600350677764"><ele>526.5</ele><time>2026-04-12T10:50:33.999Z</time></trkpt><trkpt lat="44.585424361397955" lon="10.47667392557119"><ele>527.0</ele><time>2026-04-12T10:50:35Z</time></trkpt><trkpt lat="44.58549378839536" lon="10.476751295206727"><ele>527.5</ele><time>2026-04-12T10:50:36Z</time></trkpt><trkpt lat="44.58555803813359" lon="10.47683340691218"><ele>528.0</ele><time>2026-04-12T10:50:37Z</time></trkpt><trkpt lat="44.58560361460898" lon="10.476910684797174"><ele>528.5</ele><time>2026-04-12T10:50:38Z</time></trkpt><trkpt lat="44.585635400932794" lon="10.476988983538542"><ele>529.0</ele><time>2026-04-12T10:50:39Z</time></trkpt><trkpt lat="44.58569892466306" lon="10.477079544862596"><ele>529.0</ele><time>2026-04-12T10:50:41Z</time></trkpt><trkpt lat="44.58574098438225" lon="10.477186328907655"><ele>529.0</ele><time>2026-04-12T10:50:43Z</time></trkpt><trkpt lat="44.58574129130948" lon="10.47727542170867"><ele>529.0</ele><time>2026-04-12T10:50:44Z</time></trkpt><trkpt lat="44.58573583318393" lon="10.477364207668712"><ele>529.0</ele><time>2026-04-12T10:50:45Z</time></trkpt><trkpt lat="44.585727446970274" lon="10.477532454464054"><ele>529.0</ele><time>2026-04-12T10:50:47Z</time></trkpt><trkpt lat="44.585724071231304" lon="10.477671308553015"><ele>529.0</ele><time>2026-04-12T10:50:49Z</time></trkpt><trkpt lat="44.58572991929439" lon="10.477831004435611"><ele>529.0</ele><time>2026-04-12T10:50:51Z</time></trkpt><trkpt lat="44.58573081926019" lon="10.47793501258094"><ele>529.0</ele><time>2026-04-12T10:50:52Z</time></trkpt><trkpt lat="44.58572655272709" lon="10.478037584436485"><ele>529.0</ele><time>2026-04-12T10:50:53Z</time></trkpt><trkpt lat="44.5857156095483" lon="10.47813204693665"><ele>529.0</ele><time>2026-04-12T10:50:54Z</time></trkpt><trkpt lat="44.585699344556744" lon="10.478225294712425"><ele>529.0</ele><time>2026-04-12T10:50:55Z</time></trkpt><trkpt lat="44.585686495224614" lon="10.478315586767257"><ele>529.0</ele><time>2026-04-12T10:50:56Z</time></trkpt><trkpt lat="44.585685865504374" lon="10.478413859729965"><ele>529.0</ele><time>2026-04-12T10:50:57Z</time></trkpt><trkpt lat="44.5856875743329" lon="10.478513842970269"><ele>526.8333333333334</ele><time>2026-04-12T10:50:58Z</time></trkpt><trkpt lat="44.585696333687864" lon="10.478612639950507"><ele>524.6666666666667</ele><time>2026-04-12T10:50:59Z</time></trkpt><trkpt lat="44.58570043288931" lon="10.478708637540812"><ele>522.5</ele><time>2026-04-12T10:51:00Z</time></trkpt><trkpt lat="44.585696721195696" lon="10.478799844718775"><ele>520.3333333333334</ele><time>2026-04-12T10:51:01Z</time></trkpt><trkpt lat="44.58566167022481" lon="10.478939369151274"><ele>518.1666666666666</ele><time>2026-04-12T10:51:03Z</time></trkpt><trkpt lat="44.58560038302181" lon="10.479006883054259"><ele>516.0</ele><time>2026-04-12T10:51:05Z</time></trkpt><trkpt lat="44.58552435629865" lon="10.479100469327761"><ele>513.4</ele><time>2026-04-12T10:51:07Z</time></trkpt><trkpt lat="44.585474889579494" lon="10.479252099151108"><ele>510.8</ele><time>2026-04-12T10:51:09Z</time></trkpt><trkpt lat="44.58544788715921" lon="10.479340960092054"><ele>508.19999999999993</ele><time>2026-04-12T10:51:10Z</time></trkpt><trkpt lat="44.58538581630076" lon="10.47950503255096"><ele>505.59999999999997</ele><time>2026-04-12T10:51:12Z</time></trkpt><trkpt lat="44.5853475109926" lon="10.479589627579834"><ele>503.0</ele><time>2026-04-12T10:51:13Z</time></trkpt><trkpt lat="44.58531272848841" lon="10.479681975498318"><ele>499.66666666666663</ele><time>2026-04-12T10:51:14Z</time></trkpt><trkpt lat="44.585289506841974" lon="10.479769161470983"><ele>496.3333333333333</ele><time>2026-04-12T10:51:15Z</time></trkpt><trkpt lat="44.58526672216285" lon="10.479942657426687"><ele>493.0</ele><time>2026-04-12T10:51:17Z</time></trkpt><trkpt lat="44.585224491531555" lon="10.480085902444351"><ele>489.66666666666663</ele><time>2026-04-12T10:51:19Z</time></trkpt><trkpt lat="44.58518914405341" lon="10.480162156733995"><ele>486.3333333333333</ele><time>2026-04-12T10:51:20Z</time></trkpt><trkpt lat="44.58518288801703" lon="10.480251435553821"><ele>483.0</ele><time>2026-04-12T10:51:21Z</time></trkpt><trkpt lat="44.5851754029805" lon="10.480407779350166"><ele>482.0</ele><time>2026-04-12T10:51:23Z</time></trkpt><trkpt lat="44.58520130171336" lon="10.480549540243294"><ele>480.99999999999994</ele><time>2026-04-12T10:51:25Z</time></trkpt><trkpt lat="44.5851962730277" lon="10.48067111153623"><ele>479.99999999999994</ele><time>2026-04-12T10:51:27Z</time></trkpt><trkpt lat="44.58517216253165" lon="10.480799810984506"><ele>479.0</ele><time>2026-04-12T10:51:29Z</time></trkpt><trkpt lat="44.58515195396728" lon="10.480896320974614"><ele>478.0</ele><time>2026-04-12T10:51:30Z</time></trkpt><trkpt lat="44.585173997571665" lon="10.481026552430373"><ele>478.00000000000006</ele><time>2026-04-12T10:51:32Z</time></trkpt><trkpt lat="44.58517894481246" lon="10.481154292871462"><ele>478.0</ele><time>2026-04-12T10:51:34Z</time></trkpt><trkpt lat="44.58520984826696" lon="10.481239970278407"><ele>478.0</ele><time>2026-04-12T10:51:35Z</time></trkpt><trkpt lat="44.58518583764947" lon="10.481391517455744"><ele>478.0</ele><time>2026-04-12T10:51:37Z</time></trkpt><trkpt lat="44.585134700112306" lon="10.481525544117192"><ele>478.00000000000006</ele><time>2026-04-12T10:51:39Z</time></trkpt><trkpt lat="44.58514318573609" lon="10.481621924799537"><ele>478.0</ele><time>2026-04-12T10:51:39.999Z</time></trkpt><trkpt lat="44.58515590574879" lon="10.481720391959305"><ele>476.79999999999995</ele><time>2026-04-12T10:51:40.999Z</time></trkpt><trkpt lat="44.58514623129886" lon="10.481873852100424"><ele>475.59999999999997</ele><time>2026-04-12T10:51:42.999Z</time></trkpt><trkpt lat="44.58513488313327" lon="10.482032455746332"><ele>474.40000000000003</ele><time>2026-04-12T10:51:44.999Z</time></trkpt><trkpt lat="44.585128944922914" lon="10.482178057365546"><ele>473.20000000000005</ele><time>2026-04-12T10:51:46.999Z</time></trkpt><trkpt lat="44.585116037550485" lon="10.48234455332206"><ele>472.0</ele><time>2026-04-12T10:51:48.999Z</time></trkpt><trkpt lat="44.58511992246795" lon="10.482500753548576"><ele>471.33333333333337</ele><time>2026-04-12T10:51:50.999Z</time></trkpt><trkpt lat="44.585118445076795" lon="10.482605240724231"><ele>470.6666666666667</ele><time>2026-04-12T10:51:51.999Z</time></trkpt><trkpt lat="44.58511640737656" lon="10.482713661465677"><ele>470.0</ele><time>2026-04-12T10:51:52.999Z</time></trkpt><trkpt lat="44.585128083923365" lon="10.48283564782797"><ele>469.33333333333337</ele><time>2026-04-12T10:51:53.999Z</time></trkpt><trkpt lat="44.58513131138444" lon="10.482955434518608"><ele>468.6666666666667</ele><time>2026-04-12T10:51:54.999Z</time></trkpt><trkpt lat="44.58512258249865" lon="10.483080963258494"><ele>468.0</ele><time>2026-04-12T10:51:55.999Z</time></trkpt><trkpt lat="44.58510595688728" lon="10.483204270717895"><ele>467.5</ele><time>2026-04-12T10:51:56.999Z</time></trkpt><trkpt lat="44.585085678748506" lon="10.48332651051594"><ele>467.0</ele><time>2026-04-12T10:51:57.999Z</time></trkpt><trkpt lat="44.585070875430866" lon="10.483438109282739"><ele>466.5</ele><time>2026-04-12T10:51:58.999Z</time></trkpt><trkpt lat="44.58506163676737" lon="10.483546962480677"><ele>466.0</ele><time>2026-04-12T10:51:59.999Z</time></trkpt><trkpt lat="44.58506108510898" lon="10.483661664039909"><ele>465.5</ele><time>2026-04-12T10:52:00.999Z</time></trkpt><trkpt lat="44.58506297621979" lon="10.483756500963654"><ele>465.0</ele><time>2026-04-12T10:52:01.999Z</time></trkpt><trkpt lat="44.5850676062814" lon="10.483857109512368"><ele>465.0</ele><time>2026-04-12T10:52:03.999Z</time></trkpt><trkpt lat="44.58505870072133" lon="10.483965812953256"><ele>465.0</ele><time>2026-04-12T10:52:05.999Z</time></trkpt><trkpt lat="44.58505063152971" lon="10.48406425010518"><ele>465.0</ele><time>2026-04-12T10:52:06.999Z</time></trkpt><trkpt lat="44.585039787442184" lon="10.484214438601928"><ele>465.0</ele><time>2026-04-12T10:52:07.999Z</time></trkpt><trkpt lat="44.585058179774684" lon="10.484371173705782"><ele>465.0</ele><time>2026-04-12T10:52:08.999Z</time></trkpt><trkpt lat="44.58508782418966" lon="10.484483752277523"><ele>465.0</ele><time>2026-04-12T10:52:09.999Z</time></trkpt><trkpt lat="44.58512282757573" lon="10.484588222662055"><ele>465.0</ele><time>2026-04-12T10:52:10.999Z</time></trkpt><trkpt lat="44.58514175652807" lon="10.484689617564971"><ele>465.0</ele><time>2026-04-12T10:52:11.999Z</time></trkpt><trkpt lat="44.58515409894029" lon="10.484859804046703"><ele>465.0</ele><time>2026-04-12T10:52:13.999Z</time></trkpt><trkpt lat="44.58516115887731" lon="10.484950839561053"><ele>465.0</ele><time>2026-04-12T10:52:14.999Z</time></trkpt><trkpt lat="44.58517348902708" lon="10.485124345987753"><ele>465.0</ele><time>2026-04-12T10:52:16.999Z</time></trkpt><trkpt lat="44.58519984530953" lon="10.485274165985869"><ele>465.0</ele><time>2026-04-12T10:52:18.999Z</time></trkpt><trkpt lat="44.585221591414324" lon="10.485361299611"><ele>465.0</ele><time>2026-04-12T10:52:19.999Z</time></trkpt><trkpt lat="44.58525232704022" lon="10.485465172997946"><ele>465.0</ele><time>2026-04-12T10:52:20.999Z</time></trkpt><trkpt lat="44.58528007643949" lon="10.485579265948624"><ele>465.0</ele><time>2026-04-12T10:52:21.999Z</time></trkpt><trkpt lat="44.58530906811936" lon="10.485681043482929"><ele>465.0</ele><time>2026-04-12T10:52:22.999Z</time></trkpt><trkpt lat="44.58532818987537" lon="10.485771645817483"><ele>466.1666666666667</ele><time>2026-04-12T10:52:23.999Z</time></trkpt><trkpt lat="44.58534772040911" lon="10.485875771409486"><ele>467.33333333333337</ele><time>2026-04-12T10:52:24.999Z</time></trkpt><trkpt lat="44.585383804441356" lon="10.485970623266853"><ele>468.5</ele><time>2026-04-12T10:52:25.999Z</time></trkpt><trkpt lat="44.585419166178845" lon="10.486059379375835"><ele>469.6666666666667</ele><time>2026-04-12T10:52:26.999Z</time></trkpt><trkpt lat="44.58546349884993" lon="10.48613658778649"><ele>470.83333333333337</ele><time>2026-04-12T10:52:27.999Z</time></trkpt><trkpt lat="44.585554445450455" lon="10.486246863904109"><ele>472.0</ele><time>2026-04-12T10:52:29.999Z</time></trkpt><trkpt lat="44.5856073449846" lon="10.486337744706088"><ele>473.6</ele><time>2026-04-12T10:52:31.999Z</time></trkpt><trkpt lat="44.5856776801656" lon="10.48638934698533"><ele>475.20000000000005</ele><time>2026-04-12T10:52:33.999Z</time></trkpt><trkpt lat="44.58573407399973" lon="10.486464864298096"><ele>476.8</ele><time>2026-04-12T10:52:35.999Z</time></trkpt><trkpt lat="44.58580130681586" lon="10.486546849166645"><ele>478.4</ele><time>2026-04-12T10:52:37.999Z</time></trkpt><trkpt lat="44.5858816094709" lon="10.48670736704364"><ele>480.0</ele><time>2026-04-12T10:52:39.999Z</time></trkpt><trkpt lat="44.58595086601161" lon="10.486768237434296"><ele>480.0</ele><time>2026-04-12T10:52:41Z</time></trkpt><trkpt lat="44.58601272056736" lon="10.486826180842348"><ele>480.0</ele><time>2026-04-12T10:52:42Z</time></trkpt><trkpt lat="44.5861287643671" lon="10.486884224131222"><ele>480.0</ele><time>2026-04-12T10:52:44Z</time></trkpt><trkpt lat="44.58620234393758" lon="10.486889558537264"><ele>480.0</ele><time>2026-04-12T10:52:45Z</time></trkpt><trkpt lat="44.58627651491118" lon="10.486886696127302"><ele>480.0</ele><time>2026-04-12T10:52:46Z</time></trkpt><trkpt lat="44.586344900499434" lon="10.486883363004337"><ele>480.0</ele><time>2026-04-12T10:52:47Z</time></trkpt><trkpt lat="44.586471300985295" lon="10.486928697922753"><ele>479.2</ele><time>2026-04-12T10:52:49Z</time></trkpt><trkpt lat="44.58653657075069" lon="10.486951289775355"><ele>478.4</ele><time>2026-04-12T10:52:50Z</time></trkpt><trkpt lat="44.58664804745948" lon="10.486915913817933"><ele>477.6</ele><time>2026-04-12T10:52:52Z</time></trkpt><trkpt lat="44.58677722494089" lon="10.486942538172583"><ele>476.8</ele><time>2026-04-12T10:52:54Z</time></trkpt><trkpt lat="44.58685918671059" lon="10.486970348937636"><ele>476.0</ele><time>2026-04-12T10:52:55Z</time></trkpt><trkpt lat="44.58693866012402" lon="10.48701368512758"><ele>475.99999999999994</ele><time>2026-04-12T10:52:56Z</time></trkpt><trkpt lat="44.58700874404861" lon="10.487062856911026"><ele>476.0</ele><time>2026-04-12T10:52:57Z</time></trkpt><trkpt lat="44.58707805519876" lon="10.48707702958802"><ele>476.0</ele><time>2026-04-12T10:52:58Z</time></trkpt><trkpt lat="44.58714001144538" lon="10.487097293135836"><ele>476.0</ele><time>2026-04-12T10:52:59Z</time></trkpt><trkpt lat="44.587235912902294" lon="10.48707430941075"><ele>475.99999999999994</ele><time>2026-04-12T10:53:01Z</time></trkpt><trkpt lat="44.58732581858279" lon="10.487087724677172"><ele>476.0</ele><time>2026-04-12T10:53:03Z</time></trkpt><trkpt lat="44.58742324315881" lon="10.48714514199896"><ele>473.8</ele><time>2026-04-12T10:53:05Z</time></trkpt><trkpt lat="44.587559455411025" lon="10.487195467576507"><ele>471.6</ele><time>2026-04-12T10:53:07Z</time></trkpt><trkpt lat="44.58763030440744" lon="10.487217089687743"><ele>469.4</ele><time>2026-04-12T10:53:08Z</time></trkpt><trkpt lat="44.587693469771835" lon="10.487252425415116"><ele>467.2</ele><time>2026-04-12T10:53:09Z</time></trkpt><trkpt lat="44.58776288111114" lon="10.487280886123951"><ele>465.0</ele><time>2026-04-12T10:53:10Z</time></trkpt><trkpt lat="44.58788044596603" lon="10.487301721109873"><ele>464.3333333333333</ele><time>2026-04-12T10:53:12Z</time></trkpt><trkpt lat="44.58794349676338" lon="10.487302688601666"><ele>463.66666666666663</ele><time>2026-04-12T10:53:13Z</time></trkpt><trkpt lat="44.588061784283575" lon="10.487296289416932"><ele>463.0</ele><time>2026-04-12T10:53:15Z</time></trkpt><trkpt lat="44.58812735290438" lon="10.487318574990734"><ele>462.3333333333333</ele><time>2026-04-12T10:53:17Z</time></trkpt><trkpt lat="44.588202592176636" lon="10.487335703178978"><ele>461.66666666666663</ele><time>2026-04-12T10:53:22Z</time></trkpt><trkpt lat="44.588282370708235" lon="10.487420089489474"><ele>461.0</ele><time>2026-04-12T10:53:25Z</time></trkpt><trkpt lat="44.58833895841406" lon="10.487494684261094"><ele>461.0</ele><time>2026-04-12T10:53:28Z</time></trkpt><trkpt lat="44.588406084803864" lon="10.487533100522034"><ele>461.0</ele><time>2026-04-12T10:53:31Z</time></trkpt><trkpt lat="44.58860290639142" lon="10.487519009521886"><ele>461.0</ele><time>2026-04-12T10:53:39Z</time></trkpt><trkpt lat="44.58879143001896" lon="10.48758099888546"><ele>458.0</ele><time>2026-04-12T10:53:43Z</time></trkpt><trkpt lat="44.58888497467222" lon="10.487556169613212"><ele>455.0</ele><time>2026-04-12T10:53:45Z</time></trkpt><trkpt lat="44.58894966846296" lon="10.487546083989141"><ele>452.0</ele><time>2026-04-12T10:53:46Z</time></trkpt><trkpt lat="44.58912825612575" lon="10.487564499742835"><ele>449.0</ele><time>2026-04-12T10:53:48Z</time></trkpt><trkpt lat="44.58920620707398" lon="10.487605237174852"><ele>446.0</ele><time>2026-04-12T10:53:49Z</time></trkpt><trkpt lat="44.58929542593682" lon="10.487624512123093"><ele>445.99999999999994</ele><time>2026-04-12T10:53:50Z</time></trkpt><trkpt lat="44.58939124894465" lon="10.487669258507573"><ele>446.0</ele><time>2026-04-12T10:53:51Z</time></trkpt><trkpt lat="44.58948699269553" lon="10.487707819238333"><ele>446.0</ele><time>2026-04-12T10:53:52Z</time></trkpt><trkpt lat="44.58955462712855" lon="10.487721296096408"><ele>446.0</ele><time>2026-04-12T10:53:53Z</time></trkpt><trkpt lat="44.589623041509824" lon="10.48773508984921"><ele>445.99999999999994</ele><time>2026-04-12T10:53:54Z</time></trkpt><trkpt lat="44.589689150146036" lon="10.487738216986529"><ele>446.0</ele><time>2026-04-12T10:53:54.999Z</time></trkpt><trkpt lat="44.58974959834527" lon="10.487765595897658"><ele>445.0</ele><time>2026-04-12T10:53:55.999Z</time></trkpt><trkpt lat="44.5898488014717" lon="10.487783285546755"><ele>444.0</ele><time>2026-04-12T10:53:57.999Z</time></trkpt><trkpt lat="44.58991835995718" lon="10.487812832811112"><ele>443.0</ele><time>2026-04-12T10:53:59.999Z</time></trkpt><trkpt lat="44.59002615272693" lon="10.487843858558264"><ele>442.0</ele><time>2026-04-12T10:54:04.999Z</time></trkpt><trkpt lat="44.59010893817214" lon="10.487889084515665"><ele>441.0</ele><time>2026-04-12T10:54:07.999Z</time></trkpt><trkpt lat="44.59019263487857" lon="10.487925244041172"><ele>439.75</ele><time>2026-04-12T10:54:09.999Z</time></trkpt><trkpt lat="44.590290650058655" lon="10.48793309026112"><ele>438.5</ele><time>2026-04-12T10:54:11.999Z</time></trkpt><trkpt lat="44.59050385879344" lon="10.487923949124847"><ele>437.25</ele><time>2026-04-12T10:54:16.999Z</time></trkpt><trkpt lat="44.59062277045133" lon="10.487894178909858"><ele>436.0</ele><time>2026-04-12T10:54:18.999Z</time></trkpt><trkpt lat="44.59073041808406" lon="10.487879193177509"><ele>434.50000000000006</ele><time>2026-04-12T10:54:20.999Z</time></trkpt><trkpt lat="44.590805486054364" lon="10.48790144119964"><ele>433.0</ele><time>2026-04-12T10:54:21.999Z</time></trkpt><trkpt lat="44.59087111714504" lon="10.487916529759133"><ele>431.5</ele><time>2026-04-12T10:54:22.999Z</time></trkpt><trkpt lat="44.59094547155477" lon="10.48789547881817"><ele>430.0</ele><time>2026-04-12T10:54:23.999Z</time></trkpt><trkpt lat="44.591071205400304" lon="10.487920809283814"><ele>428.50000000000006</ele><time>2026-04-12T10:54:25.999Z</time></trkpt><trkpt lat="44.591128665547906" lon="10.487959559005402"><ele>427.0</ele><time>2026-04-12T10:54:26.999Z</time></trkpt><trkpt lat="44.59124842408701" lon="10.488017278067582"><ele>426.8</ele><time>2026-04-12T10:54:28.999Z</time></trkpt><trkpt lat="44.59132867916333" lon="10.488032629483701"><ele>426.6</ele><time>2026-04-12T10:54:29.999Z</time></trkpt><trkpt lat="44.591431184475574" lon="10.488033687044252"><ele>426.40000000000003</ele><time>2026-04-12T10:54:30.999Z</time></trkpt><trkpt lat="44.59152279591081" lon="10.488039718508567"><ele>426.20000000000005</ele><time>2026-04-12T10:54:31.999Z</time></trkpt><trkpt lat="44.59163137924752" lon="10.488027878898682"><ele>426.0</ele><time>2026-04-12T10:54:32.999Z</time></trkpt><trkpt lat="44.59172236414707" lon="10.487999761320927"><ele>426.0</ele><time>2026-04-12T10:54:33.999Z</time></trkpt><trkpt lat="44.59181945743769" lon="10.487998171578502"><ele>426.0</ele><time>2026-04-12T10:54:34.999Z</time></trkpt><trkpt lat="44.59190839008206" lon="10.487997189954122"><ele>426.0</ele><time>2026-04-12T10:54:35.999Z</time></trkpt><trkpt lat="44.59197060635143" lon="10.488011526008998"><ele>426.0</ele><time>2026-04-12T10:54:36.999Z</time></trkpt><trkpt lat="44.592034259484365" lon="10.48804311492704"><ele>426.0</ele><time>2026-04-12T10:54:37.999Z</time></trkpt><trkpt lat="44.5920895576104" lon="10.488102421816784"><ele>426.0</ele><time>2026-04-12T10:54:38.999Z</time></trkpt><trkpt lat="44.592132497960456" lon="10.48818288743574"><ele>426.1666666666667</ele><time>2026-04-12T10:54:39.999Z</time></trkpt><trkpt lat="44.59217832003757" lon="10.488264696845349"><ele>426.33333333333337</ele><time>2026-04-12T10:54:40.999Z</time></trkpt><trkpt lat="44.5922153803239" lon="10.48836130421375"><ele>426.5</ele><time>2026-04-12T10:54:41.999Z</time></trkpt><trkpt lat="44.59223751985376" lon="10.488466806282192"><ele>426.6666666666667</ele><time>2026-04-12T10:54:42.999Z</time></trkpt><trkpt lat="44.592281623393035" lon="10.488568460993498"><ele>426.83333333333337</ele><time>2026-04-12T10:54:43.999Z</time></trkpt><trkpt lat="44.5923287962932" lon="10.488675148851208"><ele>427.0</ele><time>2026-04-12T10:54:44.999Z</time></trkpt><trkpt lat="44.59239320590194" lon="10.488774737250907"><ele>427.0</ele><time>2026-04-12T10:54:45.999Z</time></trkpt><trkpt lat="44.59244951714426" lon="10.488882201413338"><ele>427.00000000000006</ele><time>2026-04-12T10:54:47Z</time></trkpt><trkpt lat="44.59249936576402" lon="10.488992784342868"><ele>427.00000000000006</ele><time>2026-04-12T10:54:48Z</time></trkpt><trkpt lat="44.592559062921836" lon="10.48911850485788"><ele>427.0</ele><time>2026-04-12T10:54:49Z</time></trkpt><trkpt lat="44.59260053149563" lon="10.489236940193683"><ele>427.0</ele><time>2026-04-12T10:54:50Z</time></trkpt><trkpt lat="44.59264425021209" lon="10.489324515178"><ele>427.00000000000006</ele><time>2026-04-12T10:54:51Z</time></trkpt><trkpt lat="44.59268770325747" lon="10.489434309268256"><ele>427.0</ele><time>2026-04-12T10:54:52Z</time></trkpt><trkpt lat="44.59273266034997" lon="10.489517051505532"><ele>427.0</ele><time>2026-04-12T10:54:53Z</time></trkpt><trkpt lat="44.592813192827066" lon="10.489658339171509"><ele>427.0</ele><time>2026-04-12T10:54:55Z</time></trkpt><trkpt lat="44.59287395812807" lon="10.489716572484088"><ele>427.00000000000006</ele><time>2026-04-12T10:54:56Z</time></trkpt><trkpt lat="44.592923135228794" lon="10.489772199472473"><ele>427.0</ele><time>2026-04-12T10:54:57Z</time></trkpt><trkpt lat="44.59295870639871" lon="10.489862012356145"><ele>426.57142857142856</ele><time>2026-04-12T10:54:58Z</time></trkpt><trkpt lat="44.592995991725275" lon="10.489937449297686"><ele>426.1428571428571</ele><time>2026-04-12T10:54:59Z</time></trkpt><trkpt lat="44.59305109419938" lon="10.489999419397531"><ele>425.7142857142857</ele><time>2026-04-12T10:55:00Z</time></trkpt><trkpt lat="44.593112218318026" lon="10.490073243234276"><ele>425.2857142857143</ele><time>2026-04-12T10:55:01Z</time></trkpt><trkpt lat="44.5931585121649" lon="10.490161281107625"><ele>424.85714285714283</ele><time>2026-04-12T10:55:02Z</time></trkpt><trkpt lat="44.59319538389569" lon="10.490237738821918"><ele>424.42857142857144</ele><time>2026-04-12T10:55:03Z</time></trkpt><trkpt lat="44.59324225226107" lon="10.490299523655976"><ele>424.0</ele><time>2026-04-12T10:55:04Z</time></trkpt><trkpt lat="44.59330079570796" lon="10.490376572850064"><ele>423.1666666666667</ele><time>2026-04-12T10:55:05Z</time></trkpt><trkpt lat="44.59337748864547" lon="10.490441557984575"><ele>422.33333333333337</ele><time>2026-04-12T10:55:06Z</time></trkpt><trkpt lat="44.593467000452" lon="10.490492183890323"><ele>421.5</ele><time>2026-04-12T10:55:07Z</time></trkpt><trkpt lat="44.593555521472894" lon="10.490533666524186"><ele>420.66666666666663</ele><time>2026-04-12T10:55:08Z</time></trkpt><trkpt lat="44.59362972637589" lon="10.490581683824129"><ele>419.8333333333333</ele><time>2026-04-12T10:55:09Z</time></trkpt><trkpt lat="44.5937034234954" lon="10.490606585737321"><ele>419.0</ele><time>2026-04-12T10:55:10Z</time></trkpt><trkpt lat="44.5937962415803" lon="10.490696618103492"><ele>418.3333333333333</ele><time>2026-04-12T10:55:12Z</time></trkpt><trkpt lat="44.593785361668175" lon="10.490818768849612"><ele>417.66666666666663</ele><time>2026-04-12T10:55:15Z</time></trkpt><trkpt lat="44.59381667811173" lon="10.490903458140394"><ele>417.0</ele><time>2026-04-12T10:55:16Z</time></trkpt><trkpt lat="44.59386020555274" lon="10.491009319891555"><ele>416.33333333333337</ele><time>2026-04-12T10:55:17Z</time></trkpt><trkpt lat="44.59389911771067" lon="10.491103416856234"><ele>415.6666666666667</ele><time>2026-04-12T10:55:18Z</time></trkpt><trkpt lat="44.593926525491916" lon="10.491216879016683"><ele>415.0</ele><time>2026-04-12T10:55:19Z</time></trkpt><trkpt lat="44.59395468067432" lon="10.491330479899778"><ele>413.6666666666667</ele><time>2026-04-12T10:55:20Z</time></trkpt><trkpt lat="44.59397489156234" lon="10.491439082696585"><ele>412.33333333333337</ele><time>2026-04-12T10:55:21Z</time></trkpt><trkpt lat="44.593995112075866" lon="10.491541043308937"><ele>411.0</ele><time>2026-04-12T10:55:22Z</time></trkpt><trkpt lat="44.59402537777411" lon="10.491646761781597"><ele>409.66666666666663</ele><time>2026-04-12T10:55:23Z</time></trkpt><trkpt lat="44.5940452075886" lon="10.491747392933195"><ele>408.3333333333333</ele><time>2026-04-12T10:55:24Z</time></trkpt><trkpt lat="44.59407338780662" lon="10.491853439853147"><ele>407.0</ele><time>2026-04-12T10:55:25Z</time></trkpt><trkpt lat="44.594105078702874" lon="10.491950099589584"><ele>407.0</ele><time>2026-04-12T10:55:26Z</time></trkpt><trkpt lat="44.59412207893728" lon="10.492058699759394"><ele>407.0</ele><time>2026-04-12T10:55:27Z</time></trkpt><trkpt lat="44.594131350450695" lon="10.492148670905898"><ele>407.0</ele><time>2026-04-12T10:55:28Z</time></trkpt><trkpt lat="44.59414574940492" lon="10.492248600182137"><ele>407.0</ele><time>2026-04-12T10:55:29Z</time></trkpt><trkpt lat="44.59421998304065" lon="10.492364413549975"><ele>407.0</ele><time>2026-04-12T10:55:31Z</time></trkpt><trkpt lat="44.59426933039309" lon="10.49254321731072"><ele>405.8333333333333</ele><time>2026-04-12T10:55:33Z</time></trkpt><trkpt lat="44.59430968116729" lon="10.492659637672736"><ele>404.66666666666663</ele><time>2026-04-12T10:55:34Z</time></trkpt><trkpt lat="44.59434858011305" lon="10.492753640530573"><ele>403.5</ele><time>2026-04-12T10:55:35Z</time></trkpt><trkpt lat="44.594406845058614" lon="10.492795839439136"><ele>402.33333333333337</ele><time>2026-04-12T10:55:36Z</time></trkpt><trkpt lat="44.59452004320048" lon="10.492858961534177"><ele>401.1666666666667</ele><time>2026-04-12T10:55:38Z</time></trkpt><trkpt lat="44.59458312071241" lon="10.492933637787269"><ele>400.0</ele><time>2026-04-12T10:55:39Z</time></trkpt><trkpt lat="44.59467346696099" lon="10.492989794942538"><ele>398.6</ele><time>2026-04-12T10:55:40Z</time></trkpt><trkpt lat="44.59474598590189" lon="10.493064962018085"><ele>397.2</ele><time>2026-04-12T10:55:41Z</time></trkpt><trkpt lat="44.594808590561065" lon="10.493165419190824"><ele>395.79999999999995</ele><time>2026-04-12T10:55:42Z</time></trkpt><trkpt lat="44.594875965139266" lon="10.493260943229606"><ele>394.4</ele><time>2026-04-12T10:55:43Z</time></trkpt><trkpt lat="44.59494122091502" lon="10.493355270543551"><ele>393.0</ele><time>2026-04-12T10:55:44Z</time></trkpt><trkpt lat="44.59500973230212" lon="10.493456340895737"><ele>393.0</ele><time>2026-04-12T10:55:44.999Z</time></trkpt><trkpt lat="44.59506461986632" lon="10.493552620662486"><ele>393.0</ele><time>2026-04-12T10:55:45.999Z</time></trkpt><trkpt lat="44.59512868442478" lon="10.493642963747485"><ele>393.0</ele><time>2026-04-12T10:55:46.999Z</time></trkpt><trkpt lat="44.5951805148075" lon="10.49373461621586"><ele>393.0</ele><time>2026-04-12T10:55:47.999Z</time></trkpt><trkpt lat="44.595239280199685" lon="10.49383691052248"><ele>393.0</ele><time>2026-04-12T10:55:48.999Z</time></trkpt><trkpt lat="44.595301481989104" lon="10.493908238743758"><ele>393.0</ele><time>2026-04-12T10:55:49.999Z</time></trkpt><trkpt lat="44.595359300796815" lon="10.4939669698122"><ele>392.6666666666667</ele><time>2026-04-12T10:55:50.999Z</time></trkpt><trkpt lat="44.59540909755523" lon="10.494025364396535"><ele>392.33333333333337</ele><time>2026-04-12T10:55:51.999Z</time></trkpt><trkpt lat="44.59547212381963" lon="10.494102426761254"><ele>392.0</ele><time>2026-04-12T10:55:52.999Z</time></trkpt><trkpt lat="44.59554064535107" lon="10.494176791592379"><ele>391.6666666666667</ele><time>2026-04-12T10:55:53.999Z</time></trkpt><trkpt lat="44.595607477314516" lon="10.494260632404444"><ele>391.33333333333337</ele><time>2026-04-12T10:55:54.999Z</time></trkpt><trkpt lat="44.59567360474405" lon="10.494319028421154"><ele>391.0</ele><time>2026-04-12T10:55:55.999Z</time></trkpt><trkpt lat="44.59573936450474" lon="10.494382338227748"><ele>391.00000000000006</ele><time>2026-04-12T10:55:56.999Z</time></trkpt><trkpt lat="44.5958066173799" lon="10.49443126454013"><ele>391.0</ele><time>2026-04-12T10:55:57.999Z</time></trkpt><trkpt lat="44.59587543006968" lon="10.494479733942407"><ele>391.0</ele><time>2026-04-12T10:55:58.999Z</time></trkpt><trkpt lat="44.59592975252933" lon="10.494547519866265"><ele>391.0</ele><time>2026-04-12T10:55:59.999Z</time></trkpt><trkpt lat="44.59599038190292" lon="10.494651008563606"><ele>391.00000000000006</ele><time>2026-04-12T10:56:00.999Z</time></trkpt><trkpt lat="44.59607112179982" lon="10.494713479841304"><ele>391.0</ele><time>2026-04-12T10:56:01.999Z</time></trkpt><trkpt lat="44.59616122615122" lon="10.494756574068147"><ele>391.83333333333337</ele><time>2026-04-12T10:56:02.999Z</time></trkpt><trkpt lat="44.59625105089572" lon="10.494782808604711"><ele>392.6666666666667</ele><time>2026-04-12T10:56:03.999Z</time></trkpt><trkpt lat="44.59631949029977" lon="10.494840605250246"><ele>393.5</ele><time>2026-04-12T10:56:04.999Z</time></trkpt><trkpt lat="44.59638320764671" lon="10.494886809794021"><ele>394.33333333333337</ele><time>2026-04-12T10:56:05.999Z</time></trkpt><trkpt lat="44.59644287224951" lon="10.494930939665672"><ele>395.1666666666667</ele><time>2026-04-12T10:56:06.999Z</time></trkpt><trkpt lat="44.59650005000851" lon="10.49496810393946"><ele>396.0</ele><time>2026-04-12T10:56:07.999Z</time></trkpt><trkpt lat="44.59660914226965" lon="10.49505913587706"><ele>396.0</ele><time>2026-04-12T10:56:09.999Z</time></trkpt><trkpt lat="44.59669397060868" lon="10.495141981478463"><ele>396.0</ele><time>2026-04-12T10:56:10.999Z</time></trkpt><trkpt lat="44.5968007945753" lon="10.495232671809564"><ele>396.0</ele><time>2026-04-12T10:56:11.999Z</time></trkpt><trkpt lat="44.59690974059872" lon="10.495294358439395"><ele>396.0</ele><time>2026-04-12T10:56:12.999Z</time></trkpt><trkpt lat="44.597000079082875" lon="10.495353672875726"><ele>396.0</ele><time>2026-04-12T10:56:13.999Z</time></trkpt><trkpt lat="44.59706666330829" lon="10.49541392589858"><ele>397.3333333333333</ele><time>2026-04-12T10:56:14.999Z</time></trkpt><trkpt lat="44.5971254992234" lon="10.495453541894921"><ele>398.66666666666663</ele><time>2026-04-12T10:56:15.999Z</time></trkpt><trkpt lat="44.59716477503249" lon="10.49553371624418"><ele>400.0</ele><time>2026-04-12T10:56:16.999Z</time></trkpt><trkpt lat="44.59719122918289" lon="10.495631719014868"><ele>401.3333333333333</ele><time>2026-04-12T10:56:17.999Z</time></trkpt><trkpt lat="44.59723799606348" lon="10.495702835673749"><ele>402.66666666666663</ele><time>2026-04-12T10:56:18.999Z</time></trkpt><trkpt lat="44.597312436232876" lon="10.495835763609081"><ele>404.0</ele><time>2026-04-12T10:56:20.999Z</time></trkpt><trkpt lat="44.59733874041859" lon="10.495932339768732"><ele>403.99999999999994</ele><time>2026-04-12T10:56:21.999Z</time></trkpt><trkpt lat="44.597365214244334" lon="10.496058707682366"><ele>404.0</ele><time>2026-04-12T10:56:22.999Z</time></trkpt><trkpt lat="44.59738972166774" lon="10.496188366135248"><ele>404.0</ele><time>2026-04-12T10:56:23.999Z</time></trkpt><trkpt lat="44.59741093228226" lon="10.49629519884979"><ele>404.0</ele><time>2026-04-12T10:56:24.999Z</time></trkpt><trkpt lat="44.59742798674466" lon="10.496405611900943"><ele>403.99999999999994</ele><time>2026-04-12T10:56:25.999Z</time></trkpt><trkpt lat="44.59742676611289" lon="10.496534841447717"><ele>404.0</ele><time>2026-04-12T10:56:26.999Z</time></trkpt><trkpt lat="44.59742419217529" lon="10.496672993829561"><ele>404.49999999999994</ele><time>2026-04-12T10:56:27.999Z</time></trkpt><trkpt lat="44.59742928079566" lon="10.49679805074478"><ele>405.0</ele><time>2026-04-12T10:56:28.999Z</time></trkpt><trkpt lat="44.59743621191412" lon="10.496888210158755"><ele>405.5</ele><time>2026-04-12T10:56:29.999Z</time></trkpt><trkpt lat="44.59744386923211" lon="10.496994563046675"><ele>406.0</ele><time>2026-04-12T10:56:30.999Z</time></trkpt><trkpt lat="44.59747772319492" lon="10.497094706309895"><ele>406.49999999999994</ele><time>2026-04-12T10:56:31.999Z</time></trkpt><trkpt lat="44.59751753730446" lon="10.497194539043003"><ele>407.0</ele><time>2026-04-12T10:56:32.999Z</time></trkpt><trkpt lat="44.597568565504325" lon="10.497290797919153"><ele>406.99999999999994</ele><time>2026-04-12T10:56:33.999Z</time></trkpt><trkpt lat="44.59761863902258" lon="10.497385526140256"><ele>407.0</ele><time>2026-04-12T10:56:34.999Z</time></trkpt><trkpt lat="44.597667205543026" lon="10.49746023047982"><ele>407.0</ele><time>2026-04-12T10:56:35.999Z</time></trkpt><trkpt lat="44.59771412749597" lon="10.49752256689004"><ele>407.0</ele><time>2026-04-12T10:56:36.999Z</time></trkpt><trkpt lat="44.59777330426597" lon="10.49764244076986"><ele>406.99999999999994</ele><time>2026-04-12T10:56:38.999Z</time></trkpt><trkpt lat="44.59782522333113" lon="10.497715643484884"><ele>407.0</ele><time>2026-04-12T10:56:39.999Z</time></trkpt><trkpt lat="44.597877858872295" lon="10.497768585547483"><ele>407.40000000000003</ele><time>2026-04-12T10:56:40.999Z</time></trkpt><trkpt lat="44.59797135888689" lon="10.49786713662987"><ele>407.8</ele><time>2026-04-12T10:56:42.999Z</time></trkpt><trkpt lat="44.59803895945166" lon="10.497889815031877"><ele>408.2</ele><time>2026-04-12T10:56:43.999Z</time></trkpt><trkpt lat="44.59811569316135" lon="10.49791108892487"><ele>408.6</ele><time>2026-04-12T10:56:44.999Z</time></trkpt><trkpt lat="44.598219112123815" lon="10.497934394086647"><ele>409.0</ele><time>2026-04-12T10:56:45.999Z</time></trkpt><trkpt lat="44.59830115883337" lon="10.497948149125024"><ele>409.00000000000006</ele><time>2026-04-12T10:56:46.999Z</time></trkpt><trkpt lat="44.59839414250818" lon="10.497939710513586"><ele>409.0</ele><time>2026-04-12T10:56:47.999Z</time></trkpt><trkpt lat="44.59848108952811" lon="10.497940523435286"><ele>409.0</ele><time>2026-04-12T10:56:48.999Z</time></trkpt><trkpt lat="44.59856032052083" lon="10.497944283395702"><ele>409.0</ele><time>2026-04-12T10:56:49.999Z</time></trkpt><trkpt lat="44.59862772199019" lon="10.497973160865415"><ele>409.00000000000006</ele><time>2026-04-12T10:56:50.999Z</time></trkpt><trkpt lat="44.59868730214525" lon="10.498013373107135"><ele>409.0</ele><time>2026-04-12T10:56:51.999Z</time></trkpt><trkpt lat="44.59875383557372" lon="10.498055693041023"><ele>409.4</ele><time>2026-04-12T10:56:53Z</time></trkpt><trkpt lat="44.598839823031405" lon="10.498092080931691"><ele>409.79999999999995</ele><time>2026-04-12T10:56:54Z</time></trkpt><trkpt lat="44.59892373853284" lon="10.498125874174942"><ele>410.20000000000005</ele><time>2026-04-12T10:56:55Z</time></trkpt><trkpt lat="44.59899066722806" lon="10.498160595436287"><ele>410.6</ele><time>2026-04-12T10:56:56Z</time></trkpt><trkpt lat="44.59908480795315" lon="10.498158004740002"><ele>411.0</ele><time>2026-04-12T10:56:58Z</time></trkpt><trkpt lat="44.599188805144436" lon="10.498113385280998"><ele>411.0</ele><time>2026-04-12T10:57:00Z</time></trkpt><trkpt lat="44.599309380118" lon="10.498070631483282"><ele>411.0</ele><time>2026-04-12T10:57:02Z</time></trkpt><trkpt lat="44.59941173336995" lon="10.49804747238414"><ele>411.0</ele><time>2026-04-12T10:57:04Z</time></trkpt><trkpt lat="44.59950447531649" lon="10.498010013174195"><ele>411.0</ele><time>2026-04-12T10:57:06Z</time></trkpt><trkpt lat="44.599596246150384" lon="10.497942736716329"><ele>411.0</ele><time>2026-04-12T10:57:08Z</time></trkpt><trkpt lat="44.59969398331429" lon="10.497844492885077"><ele>409.3333333333333</ele><time>2026-04-12T10:57:10Z</time></trkpt><trkpt lat="44.59976050006972" lon="10.497830337174086"><ele>407.66666666666663</ele><time>2026-04-12T10:57:11Z</time></trkpt><trkpt lat="44.599840615988775" lon="10.497791816123536"><ele>406.0</ele><time>2026-04-12T10:57:12Z</time></trkpt><trkpt lat="44.599915830121994" lon="10.497720742774106"><ele>404.3333333333333</ele><time>2026-04-12T10:57:13Z</time></trkpt><trkpt lat="44.599994540755574" lon="10.497649247941519"><ele>402.66666666666663</ele><time>2026-04-12T10:57:14Z</time></trkpt><trkpt lat="44.600080831507924" lon="10.497584455643555"><ele>401.0</ele><time>2026-04-12T10:57:15Z</time></trkpt><trkpt lat="44.60012595188924" lon="10.497521767814876"><ele>401.0</ele><time>2026-04-12T10:57:16Z</time></trkpt><trkpt lat="44.600170675147254" lon="10.497440157712917"><ele>401.0</ele><time>2026-04-12T10:57:18Z</time></trkpt><trkpt lat="44.60025040629476" lon="10.497414077188743"><ele>401.0</ele><time>2026-04-12T10:57:20Z</time></trkpt><trkpt lat="44.60040299332472" lon="10.49740758677402"><ele>401.0</ele><time>2026-04-12T10:57:22Z</time></trkpt><trkpt lat="44.600485521074354" lon="10.497365197874892"><ele>401.0</ele><time>2026-04-12T10:57:23Z</time></trkpt><trkpt lat="44.60056062680262" lon="10.497322947512293"><ele>400.3333333333333</ele><time>2026-04-12T10:57:24Z</time></trkpt><trkpt lat="44.60062747292025" lon="10.497291823416498"><ele>399.66666666666663</ele><time>2026-04-12T10:57:25Z</time></trkpt><trkpt lat="44.60069447198059" lon="10.497253081388394"><ele>399.0</ele><time>2026-04-12T10:57:26Z</time></trkpt><trkpt lat="44.600803363097405" lon="10.49723021204068"><ele>398.33333333333337</ele><time>2026-04-12T10:57:28Z</time></trkpt><trkpt lat="44.600877148443345" lon="10.497295148420209"><ele>397.6666666666667</ele><time>2026-04-12T10:57:30Z</time></trkpt><trkpt lat="44.600933477608805" lon="10.497391948691233"><ele>397.0</ele><time>2026-04-12T10:57:32Z</time></trkpt><trkpt lat="44.600983551350055" lon="10.497521441949793"><ele>397.0</ele><time>2026-04-12T10:57:34Z</time></trkpt><trkpt lat="44.6010316073193" lon="10.497672068979881"><ele>397.0</ele><time>2026-04-12T10:57:36Z</time></trkpt><trkpt lat="44.60106260207032" lon="10.497784659934657"><ele>397.0</ele><time>2026-04-12T10:57:37Z</time></trkpt><trkpt lat="44.601072273734246" lon="10.49797019581815"><ele>397.0</ele><time>2026-04-12T10:57:38Z</time></trkpt><trkpt lat="44.601095757293464" lon="10.498122237440173"><ele>397.0</ele><time>2026-04-12T10:57:39Z</time></trkpt><trkpt lat="44.60114381743604" lon="10.498216030741748"><ele>395.33333333333337</ele><time>2026-04-12T10:57:40Z</time></trkpt><trkpt lat="44.60122787208012" lon="10.49827665239733"><ele>393.6666666666667</ele><time>2026-04-12T10:57:41Z</time></trkpt><trkpt lat="44.60130558177286" lon="10.498336049299068"><ele>392.0</ele><time>2026-04-12T10:57:42Z</time></trkpt><trkpt lat="44.601366663310785" lon="10.498388608213299"><ele>390.33333333333337</ele><time>2026-04-12T10:57:43Z</time></trkpt><trkpt lat="44.6013902556808" lon="10.498474458575433"><ele>388.6666666666667</ele><time>2026-04-12T10:57:44Z</time></trkpt><trkpt lat="44.601429947624325" lon="10.498577536351736"><ele>387.0</ele><time>2026-04-12T10:57:45Z</time></trkpt><trkpt lat="44.60148209632344" lon="10.498649604158107"><ele>386.8</ele><time>2026-04-12T10:57:46Z</time></trkpt><trkpt lat="44.60155919891697" lon="10.498762649442682"><ele>386.6</ele><time>2026-04-12T10:57:48Z</time></trkpt><trkpt lat="44.60164929770882" lon="10.498871962285499"><ele>386.40000000000003</ele><time>2026-04-12T10:57:50Z</time></trkpt><trkpt lat="44.60173678353633" lon="10.4989172732384"><ele>386.20000000000005</ele><time>2026-04-12T10:57:52Z</time></trkpt><trkpt lat="44.601861839544675" lon="10.498916044415441"><ele>386.0</ele><time>2026-04-12T10:57:54Z</time></trkpt><trkpt lat="44.60192934552536" lon="10.498930046762736"><ele>385.20000000000005</ele><time>2026-04-12T10:57:55Z</time></trkpt><trkpt lat="44.60205480172445" lon="10.498972148410905"><ele>384.40000000000003</ele><time>2026-04-12T10:57:57Z</time></trkpt><trkpt lat="44.60211967006765" lon="10.498986330097152"><ele>383.6</ele><time>2026-04-12T10:57:57.999Z</time></trkpt><trkpt lat="44.602171148732786" lon="10.499045795588813"><ele>382.8</ele><time>2026-04-12T10:58:00.999Z</time></trkpt><trkpt lat="44.6022311289903" lon="10.499128392242028"><ele>382.0</ele><time>2026-04-12T11:00:05Z</time></trkpt><trkpt lat="44.60229102446613" lon="10.49924931630728"><ele>382.0</ele><time>2026-04-12T11:00:07Z</time></trkpt><trkpt lat="44.60231020302415" lon="10.499335835284965"><ele>382.0</ele><time>2026-04-12T11:00:08Z</time></trkpt><trkpt lat="44.60232090487813" lon="10.499466658555441"><ele>382.0</ele><time>2026-04-12T11:00:09Z</time></trkpt><trkpt lat="44.60233652369435" lon="10.499575157156105"><ele>382.0</ele><time>2026-04-12T11:00:10Z</time></trkpt><trkpt lat="44.602354449757776" lon="10.499671175746496"><ele>382.0</ele><time>2026-04-12T11:00:11Z</time></trkpt><trkpt lat="44.60236507648785" lon="10.499796796681778"><ele>382.0</ele><time>2026-04-12T11:00:12Z</time></trkpt><trkpt lat="44.60238078632453" lon="10.499917503940413"><ele>380.5</ele><time>2026-04-12T11:00:12.999Z</time></trkpt><trkpt lat="44.6023974533395" lon="10.500029218360947"><ele>379.0</ele><time>2026-04-12T11:00:13.999Z</time></trkpt><trkpt lat="44.6024124609583" lon="10.500122194662545"><ele>377.5</ele><time>2026-04-12T11:00:14.999Z</time></trkpt><trkpt lat="44.60243163177085" lon="10.500221892443514"><ele>376.0</ele><time>2026-04-12T11:00:15.999Z</time></trkpt><trkpt lat="44.602453481873916" lon="10.500336255134187"><ele>374.5</ele><time>2026-04-12T11:00:16.999Z</time></trkpt><trkpt lat="44.602474765041904" lon="10.500454868831849"><ele>373.0</ele><time>2026-04-12T11:00:17.999Z</time></trkpt><trkpt lat="44.602488701136686" lon="10.500569617476767"><ele>371.2</ele><time>2026-04-12T11:00:18.999Z</time></trkpt><trkpt lat="44.602507759954925" lon="10.500697221587702"><ele>369.4</ele><time>2026-04-12T11:00:19.999Z</time></trkpt><trkpt lat="44.60253486456747" lon="10.500837325057722"><ele>367.59999999999997</ele><time>2026-04-12T11:00:20.999Z</time></trkpt><trkpt lat="44.60256345156664" lon="10.500961328332723"><ele>365.79999999999995</ele><time>2026-04-12T11:00:21.999Z</time></trkpt><trkpt lat="44.602572848601795" lon="10.501075272929652"><ele>364.0</ele><time>2026-04-12T11:00:22.999Z</time></trkpt><trkpt lat="44.6025826810509" lon="10.501188977180185"><ele>362.6</ele><time>2026-04-12T11:00:23.999Z</time></trkpt><trkpt lat="44.602599304839096" lon="10.501325959983848"><ele>361.2</ele><time>2026-04-12T11:00:24.999Z</time></trkpt><trkpt lat="44.60261791093342" lon="10.50147139540834"><ele>359.8</ele><time>2026-04-12T11:00:25.999Z</time></trkpt><trkpt lat="44.60265585691815" lon="10.501630128832762"><ele>358.40000000000003</ele><time>2026-04-12T11:00:26.999Z</time></trkpt><trkpt lat="44.60268822350402" lon="10.501759179004432"><ele>357.0</ele><time>2026-04-12T11:00:27.999Z</time></trkpt><trkpt lat="44.60271606373871" lon="10.501888668020998"><ele>357.0</ele><time>2026-04-12T11:00:28.999Z</time></trkpt><trkpt lat="44.60275125229533" lon="10.50198638292044"><ele>357.0</ele><time>2026-04-12T11:00:29.999Z</time></trkpt><trkpt lat="44.60281838881278" lon="10.502089044735136"><ele>357.0</ele><time>2026-04-12T11:00:31.999Z</time></trkpt><trkpt lat="44.602912195897694" lon="10.502163485873183"><ele>357.0</ele><time>2026-04-12T11:00:33.999Z</time></trkpt><trkpt lat="44.60299260319018" lon="10.502232546176764"><ele>357.0</ele><time>2026-04-12T11:00:34.999Z</time></trkpt><trkpt lat="44.60306912010306" lon="10.502291926811521"><ele>355.0</ele><time>2026-04-12T11:00:35.999Z</time></trkpt><trkpt lat="44.603142319733195" lon="10.502351908943112"><ele>353.0</ele><time>2026-04-12T11:00:36.999Z</time></trkpt><trkpt lat="44.60321541635218" lon="10.502428075909723"><ele>351.0</ele><time>2026-04-12T11:00:37.999Z</time></trkpt><trkpt lat="44.60328683585515" lon="10.502514259244471"><ele>349.0</ele><time>2026-04-12T11:00:38.999Z</time></trkpt><trkpt lat="44.60336056406198" lon="10.502620183887654"><ele>347.0</ele><time>2026-04-12T11:00:39.999Z</time></trkpt><trkpt lat="44.603434140795684" lon="10.502726780723805"><ele>347.0</ele><time>2026-04-12T11:00:40.999Z</time></trkpt><trkpt lat="44.603499072929004" lon="10.502844103429325"><ele>347.0</ele><time>2026-04-12T11:00:41.999Z</time></trkpt><trkpt lat="44.60354848852478" lon="10.502977475358241"><ele>347.0</ele><time>2026-04-12T11:00:42.999Z</time></trkpt><trkpt lat="44.60359932821068" lon="10.503148780058572"><ele>347.0</ele><time>2026-04-12T11:00:43.999Z</time></trkpt><trkpt lat="44.60365933586537" lon="10.503329908884092"><ele>347.75</ele><time>2026-04-12T11:00:44.999Z</time></trkpt><trkpt lat="44.60373004936071" lon="10.503537571896269"><ele>348.5</ele><time>2026-04-12T11:00:45.999Z</time></trkpt><trkpt lat="44.603802092186704" lon="10.503705480845154"><ele>349.25</ele><time>2026-04-12T11:00:46.999Z</time></trkpt><trkpt lat="44.603861457724946" lon="10.503808940196958"><ele>350.0</ele><time>2026-04-12T11:00:47.999Z</time></trkpt><trkpt lat="44.60390584041934" lon="10.503910564809377"><ele>350.0</ele><time>2026-04-12T11:00:48.999Z</time></trkpt><trkpt lat="44.60396704017729" lon="10.50401673665027"><ele>350.0</ele><time>2026-04-12T11:00:49.999Z</time></trkpt><trkpt lat="44.604037594564524" lon="10.50410993777896"><ele>350.0</ele><time>2026-04-12T11:00:50.999Z</time></trkpt><trkpt lat="44.60410207671425" lon="10.50418842872044"><ele>350.0</ele><time>2026-04-12T11:00:51.999Z</time></trkpt><trkpt lat="44.60418534902635" lon="10.50425908580058"><ele>350.0</ele><time>2026-04-12T11:00:52.999Z</time></trkpt><trkpt lat="44.604288831791344" lon="10.504296087795865"><ele>350.0</ele><time>2026-04-12T11:00:53.999Z</time></trkpt><trkpt lat="44.60435134186964" lon="10.504342719520073"><ele>350.0</ele><time>2026-04-12T11:00:54.999Z</time></trkpt><trkpt lat="44.604409316878424" lon="10.504401767698202"><ele>350.0</ele><time>2026-04-12T11:00:55.999Z</time></trkpt><trkpt lat="44.604483237677215" lon="10.504457122561146"><ele>350.0</ele><time>2026-04-12T11:00:56.999Z</time></trkpt><trkpt lat="44.60457763971805" lon="10.504514199619809"><ele>350.0</ele><time>2026-04-12T11:00:57.999Z</time></trkpt><trkpt lat="44.604646099252506" lon="10.504580517461802"><ele>350.0</ele><time>2026-04-12T11:00:58.999Z</time></trkpt><trkpt lat="44.604708161584604" lon="10.504673612065737"><ele>349.0</ele><time>2026-04-12T11:00:59.999Z</time></trkpt><trkpt lat="44.6047341907974" lon="10.50481958583845"><ele>348.0</ele><time>2026-04-12T11:01:00.999Z</time></trkpt><trkpt lat="44.604779802536775" lon="10.50494905487354"><ele>347.0</ele><time>2026-04-12T11:01:01.999Z</time></trkpt><trkpt lat="44.604828554558594" lon="10.505067233882466"><ele>346.0</ele><time>2026-04-12T11:01:02.999Z</time></trkpt><trkpt lat="44.60488443749849" lon="10.505196480390515"><ele>345.0</ele><time>2026-04-12T11:01:03.999Z</time></trkpt><trkpt lat="44.604956245992156" lon="10.505349655283856"><ele>343.6666666666667</ele><time>2026-04-12T11:01:05Z</time></trkpt><trkpt lat="44.60503214425021" lon="10.50552964819758"><ele>342.33333333333337</ele><time>2026-04-12T11:01:06Z</time></trkpt><trkpt lat="44.605094405195814" lon="10.505720339511448"><ele>341.0</ele><time>2026-04-12T11:01:07Z</time></trkpt><trkpt lat="44.605147047018434" lon="10.50593208561359"><ele>341.0</ele><time>2026-04-12T11:01:08Z</time></trkpt><trkpt lat="44.60519808319104" lon="10.506173220341521"><ele>341.0</ele><time>2026-04-12T11:01:09Z</time></trkpt><trkpt lat="44.60523179800512" lon="10.506350292049916"><ele>341.0</ele><time>2026-04-12T11:01:10Z</time></trkpt><trkpt lat="44.60525545500469" lon="10.506456768066577"><ele>341.0</ele><time>2026-04-12T11:01:11Z</time></trkpt><trkpt lat="44.605322635248676" lon="10.506549061179355"><ele>342.4</ele><time>2026-04-12T11:01:13Z</time></trkpt><trkpt lat="44.60543482102111" lon="10.506516295525033"><ele>343.8</ele><time>2026-04-12T11:01:15Z</time></trkpt><trkpt lat="44.60551775270539" lon="10.506565218208477"><ele>345.2</ele><time>2026-04-12T11:01:16Z</time></trkpt><trkpt lat="44.60559846113558" lon="10.506643906288593"><ele>346.59999999999997</ele><time>2026-04-12T11:01:17Z</time></trkpt><trkpt lat="44.60567773169074" lon="10.50673585016695"><ele>348.0</ele><time>2026-04-12T11:01:18Z</time></trkpt><trkpt lat="44.60575201275327" lon="10.506872167251347"><ele>348.0</ele><time>2026-04-12T11:01:19Z</time></trkpt><trkpt lat="44.605801631329044" lon="10.506996284484696"><ele>348.0</ele><time>2026-04-12T11:01:20Z</time></trkpt><trkpt lat="44.605831490198874" lon="10.507102782189994"><ele>348.0</ele><time>2026-04-12T11:01:21Z</time></trkpt><trkpt lat="44.605902295391694" lon="10.507205332655612"><ele>348.0</ele><time>2026-04-12T11:01:23Z</time></trkpt><trkpt lat="44.605968516204655" lon="10.507195035689257"><ele>348.0</ele><time>2026-04-12T11:01:24Z</time></trkpt><trkpt lat="44.60604098436935" lon="10.507215538894556"><ele>348.0</ele><time>2026-04-12T11:01:25Z</time></trkpt><trkpt lat="44.606185438396906" lon="10.507210038675614"><ele>349.59999999999997</ele><time>2026-04-12T11:01:27Z</time></trkpt><trkpt lat="44.606279027140744" lon="10.507213725140275"><ele>351.2</ele><time>2026-04-12T11:01:28Z</time></trkpt><trkpt lat="44.606386335172424" lon="10.507219833708053"><ele>352.8</ele><time>2026-04-12T11:01:29Z</time></trkpt><trkpt lat="44.60647279652948" lon="10.50724141373125"><ele>354.4</ele><time>2026-04-12T11:01:30Z</time></trkpt><trkpt lat="44.60655870086014" lon="10.507295064959505"><ele>356.0</ele><time>2026-04-12T11:01:31Z</time></trkpt><trkpt lat="44.60663795915218" lon="10.507358490366421"><ele>356.0</ele><time>2026-04-12T11:01:32Z</time></trkpt><trkpt lat="44.606720083428364" lon="10.507432500344942"><ele>356.0</ele><time>2026-04-12T11:01:33Z</time></trkpt><trkpt lat="44.60679836122921" lon="10.507522262171703"><ele>356.0</ele><time>2026-04-12T11:01:34Z</time></trkpt><trkpt lat="44.60688037668729" lon="10.507662758835025"><ele>356.0</ele><time>2026-04-12T11:01:35Z</time></trkpt><trkpt lat="44.6069571070961" lon="10.507820920689092"><ele>355.0</ele><time>2026-04-12T11:01:36Z</time></trkpt><trkpt lat="44.60703199352677" lon="10.507954481465259"><ele>354.0</ele><time>2026-04-12T11:01:37Z</time></trkpt><trkpt lat="44.60710918482748" lon="10.508060825400195"><ele>353.0</ele><time>2026-04-12T11:01:38Z</time></trkpt><trkpt lat="44.607172954932444" lon="10.508206966367208"><ele>352.0</ele><time>2026-04-12T11:01:39Z</time></trkpt><trkpt lat="44.60720107413256" lon="10.508350332817583"><ele>352.0</ele><time>2026-04-12T11:01:40Z</time></trkpt><trkpt lat="44.607223208868554" lon="10.50848164868872"><ele>352.0</ele><time>2026-04-12T11:01:41Z</time></trkpt><trkpt lat="44.607247289050505" lon="10.508611872150164"><ele>352.0</ele><time>2026-04-12T11:01:42Z</time></trkpt><trkpt lat="44.60727472816258" lon="10.508741763779254"><ele>352.0</ele><time>2026-04-12T11:01:43Z</time></trkpt><trkpt lat="44.60729469956735" lon="10.508854766413297"><ele>352.0</ele><time>2026-04-12T11:01:44Z</time></trkpt><trkpt lat="44.607270923309834" lon="10.508958077799974"><ele>352.0</ele><time>2026-04-12T11:01:45Z</time></trkpt><trkpt lat="44.607255312702556" lon="10.50906758160458"><ele>350.8</ele><time>2026-04-12T11:01:46Z</time></trkpt><trkpt lat="44.607292424003674" lon="10.509154229340329"><ele>349.6</ele><time>2026-04-12T11:01:47Z</time></trkpt><trkpt lat="44.60735115055595" lon="10.509251250582434"><ele>348.40000000000003</ele><time>2026-04-12T11:01:48Z</time></trkpt><trkpt lat="44.607390848186554" lon="10.509369989168686"><ele>347.20000000000005</ele><time>2026-04-12T11:01:49Z</time></trkpt><trkpt lat="44.60742799124653" lon="10.5095111277775"><ele>346.0</ele><time>2026-04-12T11:01:50Z</time></trkpt><trkpt lat="44.607454208305626" lon="10.509640658927468"><ele>345.66666666666663</ele><time>2026-04-12T11:01:51Z</time></trkpt><trkpt lat="44.60748501872497" lon="10.509761057981324"><ele>345.3333333333333</ele><time>2026-04-12T11:01:52Z</time></trkpt><trkpt lat="44.60752072117752" lon="10.509868782666839"><ele>345.0</ele><time>2026-04-12T11:01:53Z</time></trkpt><trkpt lat="44.60756591382683" lon="10.509986834417264"><ele>344.6666666666667</ele><time>2026-04-12T11:01:54Z</time></trkpt><trkpt lat="44.6075965028203" lon="10.510100821727582"><ele>344.33333333333337</ele><time>2026-04-12T11:01:55Z</time></trkpt><trkpt lat="44.607622078840954" lon="10.510203254281292"><ele>344.0</ele><time>2026-04-12T11:01:56Z</time></trkpt><trkpt lat="44.6076521411175" lon="10.51030847932499"><ele>344.0</ele><time>2026-04-12T11:01:57Z</time></trkpt><trkpt lat="44.60768002228958" lon="10.510403822229533"><ele>344.0</ele><time>2026-04-12T11:01:58Z</time></trkpt><trkpt lat="44.607716665151735" lon="10.51049926195774"><ele>344.0</ele><time>2026-04-12T11:01:59Z</time></trkpt><trkpt lat="44.607747766076415" lon="10.510597726091362"><ele>344.0</ele><time>2026-04-12T11:02:00Z</time></trkpt><trkpt lat="44.60779519047963" lon="10.510683093305152"><ele>344.0</ele><time>2026-04-12T11:02:01Z</time></trkpt><trkpt lat="44.607843819854885" lon="10.510784488698928"><ele>344.0</ele><time>2026-04-12T11:02:02Z</time></trkpt><trkpt lat="44.60789118916485" lon="10.510867721458544"><ele>340.1666666666667</ele><time>2026-04-12T11:02:03Z</time></trkpt><trkpt lat="44.60795145522787" lon="10.510946013163544"><ele>336.33333333333337</ele><time>2026-04-12T11:02:04Z</time></trkpt><trkpt lat="44.60799455242597" lon="10.511023435906113"><ele>332.5</ele><time>2026-04-12T11:02:05Z</time></trkpt><trkpt lat="44.60802299101906" lon="10.51112281735936"><ele>328.6666666666667</ele><time>2026-04-12T11:02:06Z</time></trkpt><trkpt lat="44.60803171415501" lon="10.511255050326916"><ele>324.8333333333333</ele><time>2026-04-12T11:02:07Z</time></trkpt><trkpt lat="44.60805774234132" lon="10.511367621904393"><ele>321.0</ele><time>2026-04-12T11:02:08Z</time></trkpt><trkpt lat="44.60814976042285" lon="10.51146089728332"><ele>320.5</ele><time>2026-04-12T11:02:10Z</time></trkpt><trkpt lat="44.60825206377173" lon="10.511577059894677"><ele>320.0</ele><time>2026-04-12T11:02:12Z</time></trkpt><trkpt lat="44.60831821288389" lon="10.511673626751003"><ele>319.5</ele><time>2026-04-12T11:02:13Z</time></trkpt><trkpt lat="44.60841106012831" lon="10.511776507133508"><ele>319.0</ele><time>2026-04-12T11:02:14Z</time></trkpt><trkpt lat="44.608499530132235" lon="10.511880484732727"><ele>319.0</ele><time>2026-04-12T11:02:15Z</time></trkpt><trkpt lat="44.60856760479322" lon="10.511962461442737"><ele>319.0</ele><time>2026-04-12T11:02:16Z</time></trkpt><trkpt lat="44.60862252000531" lon="10.512059918901135"><ele>319.0</ele><time>2026-04-12T11:02:17Z</time></trkpt><trkpt lat="44.60867850135163" lon="10.512128290133273"><ele>319.0</ele><time>2026-04-12T11:02:18Z</time></trkpt><trkpt lat="44.60874487269753" lon="10.512260978622992"><ele>319.0</ele><time>2026-04-12T11:02:20Z</time></trkpt><trkpt lat="44.60882156972261" lon="10.512417168958839"><ele>317.8</ele><time>2026-04-12T11:02:21.999Z</time></trkpt><trkpt lat="44.6088453230175" lon="10.512516017662435"><ele>316.59999999999997</ele><time>2026-04-12T11:02:22.999Z</time></trkpt><trkpt lat="44.608918112706725" lon="10.512643625070647"><ele>315.4</ele><time>2026-04-12T11:02:24.999Z</time></trkpt><trkpt lat="44.608956009716486" lon="10.512728981680311"><ele>314.2</ele><time>2026-04-12T11:02:31.999Z</time></trkpt><trkpt lat="44.60902053618101" lon="10.512824998914057"><ele>313.0</ele><time>2026-04-12T11:02:34.999Z</time></trkpt><trkpt lat="44.60911433486388" lon="10.51291986759296"><ele>313.0</ele><time>2026-04-12T11:02:36.999Z</time></trkpt><trkpt lat="44.60917809849488" lon="10.51300987454092"><ele>313.0</ele><time>2026-04-12T11:02:37.999Z</time></trkpt><trkpt lat="44.609237537622114" lon="10.513106698741526"><ele>313.0</ele><time>2026-04-12T11:02:38.999Z</time></trkpt><trkpt lat="44.609295612220485" lon="10.513178405333836"><ele>313.0</ele><time>2026-04-12T11:02:39.999Z</time></trkpt><trkpt lat="44.60936250420452" lon="10.513213483380433"><ele>313.0</ele><time>2026-04-12T11:02:40.999Z</time></trkpt><trkpt lat="44.6094600428189" lon="10.513253883072064"><ele>313.0</ele><time>2026-04-12T11:02:41.999Z</time></trkpt><trkpt lat="44.60955287071601" lon="10.513288736745743"><ele>312.8</ele><time>2026-04-12T11:02:42.999Z</time></trkpt><trkpt lat="44.6096454129839" lon="10.513344544815592"><ele>312.6</ele><time>2026-04-12T11:02:43.999Z</time></trkpt><trkpt lat="44.60972668624909" lon="10.513409084444861"><ele>312.4</ele><time>2026-04-12T11:02:44.999Z</time></trkpt><trkpt lat="44.609762690526146" lon="10.513513645572228"><ele>312.2</ele><time>2026-04-12T11:04:50.999Z</time></trkpt><trkpt lat="44.609818726056425" lon="10.513655096789183"><ele>312.0</ele><time>2026-04-12T11:04:52.999Z</time></trkpt><trkpt lat="44.609849055853964" lon="10.513740195128701"><ele>312.0</ele><time>2026-04-12T11:04:53.999Z</time></trkpt><trkpt lat="44.6098665903365" lon="10.513830183315434"><ele>312.0</ele><time>2026-04-12T11:04:54.999Z</time></trkpt><trkpt lat="44.609881593501505" lon="10.514006878494513"><ele>312.0</ele><time>2026-04-12T11:04:56.999Z</time></trkpt><trkpt lat="44.609864481698004" lon="10.514110001168039"><ele>312.0</ele><time>2026-04-12T11:04:57.999Z</time></trkpt><trkpt lat="44.60984141022778" lon="10.514218531042221"><ele>312.0</ele><time>2026-04-12T11:04:58.999Z</time></trkpt><trkpt lat="44.609797082416236" lon="10.51432475614878"><ele>312.0</ele><time>2026-04-12T11:05:00.999Z</time></trkpt><trkpt lat="44.60971176260526" lon="10.514477310554158"><ele>311.2</ele><time>2026-04-12T11:05:02.999Z</time></trkpt><trkpt lat="44.6096565683919" lon="10.514571450491832"><ele>310.4</ele><time>2026-04-12T11:05:03.999Z</time></trkpt><trkpt lat="44.609594747368796" lon="10.514659134024463"><ele>309.6</ele><time>2026-04-12T11:05:04.999Z</time></trkpt><trkpt lat="44.60953176406197" lon="10.514761759903081"><ele>308.8</ele><time>2026-04-12T11:05:05.999Z</time></trkpt><trkpt lat="44.609465959539165" lon="10.514868867758208"><ele>308.0</ele><time>2026-04-12T11:05:06.999Z</time></trkpt><trkpt lat="44.60940734691806" lon="10.514972562267767"><ele>308.0</ele><time>2026-04-12T11:05:07.999Z</time></trkpt><trkpt lat="44.609348478118015" lon="10.515090925908085"><ele>308.0</ele><time>2026-04-12T11:05:08.999Z</time></trkpt><trkpt lat="44.60928270532502" lon="10.515241463452067"><ele>308.0</ele><time>2026-04-12T11:05:09.999Z</time></trkpt><trkpt lat="44.60923198918562" lon="10.515392448058192"><ele>308.0</ele><time>2026-04-12T11:05:10.999Z</time></trkpt><trkpt lat="44.6091747727309" lon="10.515531574580514"><ele>306.0</ele><time>2026-04-12T11:05:11.999Z</time></trkpt><trkpt lat="44.60911423622818" lon="10.515682995861017"><ele>304.0</ele><time>2026-04-12T11:05:12.999Z</time></trkpt><trkpt lat="44.60905173718623" lon="10.515831487975975"><ele>302.0</ele><time>2026-04-12T11:05:13.999Z</time></trkpt><trkpt lat="44.60899521395833" lon="10.515984477457652"><ele>300.0</ele><time>2026-04-12T11:05:14.999Z</time></trkpt><trkpt lat="44.608947920080304" lon="10.51612974540316"><ele>297.8</ele><time>2026-04-12T11:05:16Z</time></trkpt><trkpt lat="44.60890491111973" lon="10.51627049411859"><ele>295.6</ele><time>2026-04-12T11:05:17Z</time></trkpt><trkpt lat="44.60885497911907" lon="10.516411106796351"><ele>293.4</ele><time>2026-04-12T11:05:18Z</time></trkpt><trkpt lat="44.60880808505414" lon="10.516548492248393"><ele>291.2</ele><time>2026-04-12T11:05:19Z</time></trkpt><trkpt lat="44.60875287532615" lon="10.516687120784706"><ele>289.0</ele><time>2026-04-12T11:05:20Z</time></trkpt><trkpt lat="44.6087068048383" lon="10.516811808218018"><ele>289.8</ele><time>2026-04-12T11:05:21Z</time></trkpt><trkpt lat="44.60864530591864" lon="10.51689942064019"><ele>290.59999999999997</ele><time>2026-04-12T11:05:22Z</time></trkpt><trkpt lat="44.60858330199374" lon="10.516948698461665"><ele>291.4</ele><time>2026-04-12T11:05:23Z</time></trkpt><trkpt lat="44.60849908990482" lon="10.516988123548806"><ele>292.2</ele><time>2026-04-12T11:05:24Z</time></trkpt><trkpt lat="44.60841977757021" lon="10.517001106861386"><ele>293.0</ele><time>2026-04-12T11:05:26Z</time></trkpt><trkpt lat="44.60829735343695" lon="10.51707791183659"><ele>291.5</ele><time>2026-04-12T11:05:28Z</time></trkpt><trkpt lat="44.6082469963826" lon="10.517137879910115"><ele>290.0</ele><time>2026-04-12T11:05:29Z</time></trkpt><trkpt lat="44.60821981353557" lon="10.517230710290697"><ele>288.5</ele><time>2026-04-12T11:05:30Z</time></trkpt><trkpt lat="44.60822224963511" lon="10.517345438080552"><ele>287.0</ele><time>2026-04-12T11:05:31Z</time></trkpt><trkpt lat="44.60823282321955" lon="10.517444690317689"><ele>285.5</ele><time>2026-04-12T11:05:32Z</time></trkpt><trkpt lat="44.6082996239293" lon="10.517548829632574"><ele>284.0</ele><time>2026-04-12T11:05:33Z</time></trkpt><trkpt lat="44.608354909995896" lon="10.51768034204086"><ele>284.0</ele><time>2026-04-12T11:05:34Z</time></trkpt><trkpt lat="44.608414075040294" lon="10.51781620953023"><ele>284.0</ele><time>2026-04-12T11:05:35Z</time></trkpt><trkpt lat="44.60847185674323" lon="10.517948733304717"><ele>284.0</ele><time>2026-04-12T11:05:36Z</time></trkpt><trkpt lat="44.60854082202605" lon="10.518069222938143"><ele>284.0</ele><time>2026-04-12T11:05:37Z</time></trkpt><trkpt lat="44.60860640916212" lon="10.518203801065425"><ele>280.5</ele><time>2026-04-12T11:05:38Z</time></trkpt><trkpt lat="44.60865866111691" lon="10.518349055694829"><ele>277.0</ele><time>2026-04-12T11:05:39Z</time></trkpt><trkpt lat="44.60869632331096" lon="10.518500373977458"><ele>273.5</ele><time>2026-04-12T11:05:40Z</time></trkpt><trkpt lat="44.608723239436536" lon="10.518669126956805"><ele>270.0</ele><time>2026-04-12T11:05:41Z</time></trkpt><trkpt lat="44.60873576297065" lon="10.518825587796906"><ele>268.0</ele><time>2026-04-12T11:05:42Z</time></trkpt><trkpt lat="44.60875395812595" lon="10.518982626530878"><ele>266.0</ele><time>2026-04-12T11:05:43Z</time></trkpt><trkpt lat="44.60875738730203" lon="10.519129917030085"><ele>264.0</ele><time>2026-04-12T11:05:44Z</time></trkpt><trkpt lat="44.60876040135589" lon="10.519262249477448"><ele>262.0</ele><time>2026-04-12T11:05:45Z</time></trkpt><trkpt lat="44.60874028494727" lon="10.519383882305187"><ele>260.0</ele><time>2026-04-12T11:05:46Z</time></trkpt><trkpt lat="44.6087178380049" lon="10.519487093704221"><ele>259.5</ele><time>2026-04-12T11:05:47Z</time></trkpt><trkpt lat="44.60876248194776" lon="10.51963913690726"><ele>259.0</ele><time>2026-04-12T11:05:49Z</time></trkpt><trkpt lat="44.60882405394503" lon="10.519744057116048"><ele>258.5</ele><time>2026-04-12T11:05:50Z</time></trkpt><trkpt lat="44.60892339199105" lon="10.519877090897316"><ele>258.0</ele><time>2026-04-12T11:05:51Z</time></trkpt><trkpt lat="44.608996990737495" lon="10.520030671601669"><ele>258.0</ele><time>2026-04-12T11:05:52Z</time></trkpt><trkpt lat="44.60904952793348" lon="10.520182106283952"><ele>258.0</ele><time>2026-04-12T11:05:53Z</time></trkpt><trkpt lat="44.60909189935167" lon="10.5203396845283"><ele>258.0</ele><time>2026-04-12T11:05:54Z</time></trkpt><trkpt lat="44.60912956327315" lon="10.52050715944012"><ele>258.0</ele><time>2026-04-12T11:05:55Z</time></trkpt><trkpt lat="44.60916600957416" lon="10.520676218003299"><ele>256.25</ele><time>2026-04-12T11:05:56Z</time></trkpt><trkpt lat="44.60920215409918" lon="10.520851353140657"><ele>254.5</ele><time>2026-04-12T11:05:57Z</time></trkpt><trkpt lat="44.6092389418263" lon="10.521021764961143"><ele>252.75</ele><time>2026-04-12T11:05:58Z</time></trkpt><trkpt lat="44.609276279662566" lon="10.52117965527252"><ele>251.0</ele><time>2026-04-12T11:05:59Z</time></trkpt><trkpt lat="44.60929928842966" lon="10.521327478766652"><ele>250.5</ele><time>2026-04-12T11:06:00Z</time></trkpt><trkpt lat="44.60932910239552" lon="10.521482219005854"><ele>250.0</ele><time>2026-04-12T11:06:01Z</time></trkpt><trkpt lat="44.60940744167656" lon="10.521638931330942"><ele>249.5</ele><time>2026-04-12T11:06:02Z</time></trkpt><trkpt lat="44.609476594633335" lon="10.521845677100655"><ele>249.0</ele><time>2026-04-12T11:06:03Z</time></trkpt><trkpt lat="44.609550854595746" lon="10.522042554109026"><ele>250.2</ele><time>2026-04-12T11:06:04Z</time></trkpt><trkpt lat="44.60961202485691" lon="10.522186296966742"><ele>251.39999999999998</ele><time>2026-04-12T11:06:05Z</time></trkpt><trkpt lat="44.60967287808437" lon="10.52232532312979"><ele>252.6</ele><time>2026-04-12T11:06:06Z</time></trkpt><trkpt lat="44.60971016874806" lon="10.522461514864117"><ele>253.8</ele><time>2026-04-12T11:06:07Z</time></trkpt><trkpt lat="44.609740082577815" lon="10.522589973960898"><ele>255.0</ele><time>2026-04-12T11:06:08Z</time></trkpt><trkpt lat="44.609761839547176" lon="10.522695871380506"><ele>255.0</ele><time>2026-04-12T11:06:09Z</time></trkpt><trkpt lat="44.60978317337049" lon="10.522802233863434"><ele>255.0</ele><time>2026-04-12T11:06:10Z</time></trkpt><trkpt lat="44.60980467416732" lon="10.522908877536992"><ele>255.0</ele><time>2026-04-12T11:06:11Z</time></trkpt><trkpt lat="44.609827635783375" lon="10.523011464191857"><ele>255.0</ele><time>2026-04-12T11:06:12Z</time></trkpt><trkpt lat="44.60985312888609" lon="10.523116505385953"><ele>255.0</ele><time>2026-04-12T11:06:13Z</time></trkpt><trkpt lat="44.60988737469092" lon="10.523240791289911"><ele>255.0</ele><time>2026-04-12T11:06:14Z</time></trkpt><trkpt lat="44.6099312231395" lon="10.52338919133233"><ele>255.25</ele><time>2026-04-12T11:06:15Z</time></trkpt><trkpt lat="44.609982211310125" lon="10.523549525751447"><ele>255.5</ele><time>2026-04-12T11:06:16Z</time></trkpt><trkpt lat="44.61004806591966" lon="10.523752332295636"><ele>255.75</ele><time>2026-04-12T11:06:17Z</time></trkpt><trkpt lat="44.61011696442737" lon="10.5239638575326"><ele>256.0</ele><time>2026-04-12T11:06:18Z</time></trkpt><trkpt lat="44.610186345118734" lon="10.524159209486582"><ele>256.0</ele><time>2026-04-12T11:06:19Z</time></trkpt><trkpt lat="44.61026735904267" lon="10.524322706615145"><ele>256.0</ele><time>2026-04-12T11:06:20Z</time></trkpt><trkpt lat="44.61033275180209" lon="10.52452864851598"><ele>256.0</ele><time>2026-04-12T11:06:21Z</time></trkpt><trkpt lat="44.61039029094945" lon="10.524706451848012"><ele>256.0</ele><time>2026-04-12T11:06:22Z</time></trkpt><trkpt lat="44.61042751930905" lon="10.524870735367271"><ele>256.0</ele><time>2026-04-12T11:06:23Z</time></trkpt><trkpt lat="44.61045072782817" lon="10.525044829661748"><ele>256.0</ele><time>2026-04-12T11:06:24Z</time></trkpt><trkpt lat="44.61050378782955" lon="10.525219776656112"><ele>256.0</ele><time>2026-04-12T11:06:25Z</time></trkpt><trkpt lat="44.61055182010629" lon="10.525402682539168"><ele>256.0</ele><time>2026-04-12T11:06:26Z</time></trkpt><trkpt lat="44.61060126777009" lon="10.525596361576072"><ele>257.5</ele><time>2026-04-12T11:06:26.999Z</time></trkpt><trkpt lat="44.61063702443603" lon="10.525767683713656"><ele>259.0</ele><time>2026-04-12T11:06:27.999Z</time></trkpt><trkpt lat="44.61068008844281" lon="10.525955760682574"><ele>260.5</ele><time>2026-04-12T11:06:28.999Z</time></trkpt><trkpt lat="44.61074482789629" lon="10.526123684152218"><ele>262.0</ele><time>2026-04-12T11:06:29.999Z</time></trkpt><trkpt lat="44.610801687079835" lon="10.526275985456733"><ele>263.25</ele><time>2026-04-12T11:06:30.999Z</time></trkpt><trkpt lat="44.61086574879065" lon="10.526432041750343"><ele>264.5</ele><time>2026-04-12T11:06:31.999Z</time></trkpt><trkpt lat="44.61092837144377" lon="10.526567757664784"><ele>265.75</ele><time>2026-04-12T11:06:32.999Z</time></trkpt><trkpt lat="44.61100408639286" lon="10.526656595366468"><ele>267.0</ele><time>2026-04-12T11:06:33.999Z</time></trkpt><trkpt lat="44.61112308233911" lon="10.526726714837693"><ele>267.0</ele><time>2026-04-12T11:06:34.999Z</time></trkpt><trkpt lat="44.61125554178852" lon="10.526800097898617"><ele>267.0</ele><time>2026-04-12T11:06:35.999Z</time></trkpt><trkpt lat="44.61140156916027" lon="10.526884454688432"><ele>267.0</ele><time>2026-04-12T11:06:36.999Z</time></trkpt><trkpt lat="44.611511733674206" lon="10.526988344088993"><ele>267.0</ele><time>2026-04-12T11:06:37.999Z</time></trkpt><trkpt lat="44.61161869551272" lon="10.527076376989795"><ele>266.0</ele><time>2026-04-12T11:06:38.999Z</time></trkpt><trkpt lat="44.6117331146668" lon="10.527132492764686"><ele>265.0</ele><time>2026-04-12T11:06:39.999Z</time></trkpt><trkpt lat="44.61182581837055" lon="10.527221839483127"><ele>264.0</ele><time>2026-04-12T11:06:40.999Z</time></trkpt><trkpt lat="44.61193724072656" lon="10.527283885301172"><ele>263.0</ele><time>2026-04-12T11:06:41.999Z</time></trkpt><trkpt lat="44.612028963524274" lon="10.527358721626399"><ele>263.0</ele><time>2026-04-12T11:06:42.999Z</time></trkpt><trkpt lat="44.61210794872972" lon="10.527421457714246"><ele>263.0</ele><time>2026-04-12T11:06:43.999Z</time></trkpt><trkpt lat="44.61217827448859" lon="10.527507109689822"><ele>263.0</ele><time>2026-04-12T11:06:44.999Z</time></trkpt><trkpt lat="44.61222446225761" lon="10.527622898068591"><ele>263.0</ele><time>2026-04-12T11:06:45.999Z</time></trkpt><trkpt lat="44.61226881630769" lon="10.527748587888189"><ele>263.0</ele><time>2026-04-12T11:06:46.999Z</time></trkpt><trkpt lat="44.612331606686105" lon="10.527871455614333"><ele>263.2</ele><time>2026-04-12T11:06:47.999Z</time></trkpt><trkpt lat="44.61242005496257" lon="10.527958624527352"><ele>263.4</ele><time>2026-04-12T11:06:48.999Z</time></trkpt><trkpt lat="44.61245855437064" lon="10.528060883823592"><ele>263.59999999999997</ele><time>2026-04-12T11:06:49.999Z</time></trkpt><trkpt lat="44.61242559789587" lon="10.528189075649623"><ele>263.8</ele><time>2026-04-12T11:06:51.999Z</time></trkpt><trkpt lat="44.61242975265446" lon="10.52827864347771"><ele>264.0</ele><time>2026-04-12T11:06:52.999Z</time></trkpt><trkpt lat="44.61249595522883" lon="10.528419452342375"><ele>264.0</ele><time>2026-04-12T11:06:53.999Z</time></trkpt><trkpt lat="44.61254135205252" lon="10.528591696406725"><ele>264.0</ele><time>2026-04-12T11:06:54.999Z</time></trkpt><trkpt lat="44.612548495487296" lon="10.528753275326425"><ele>264.0</ele><time>2026-04-12T11:06:55.999Z</time></trkpt><trkpt lat="44.612567754389865" lon="10.52893322769534"><ele>264.0</ele><time>2026-04-12T11:06:56.999Z</time></trkpt><trkpt lat="44.61258704903105" lon="10.529115268972467"><ele>264.2</ele><time>2026-04-12T11:06:57.999Z</time></trkpt><trkpt lat="44.612604946050844" lon="10.529279821025652"><ele>264.4</ele><time>2026-04-12T11:06:58.999Z</time></trkpt><trkpt lat="44.612621807908795" lon="10.52943187782941"><ele>264.6</ele><time>2026-04-12T11:06:59.999Z</time></trkpt><trkpt lat="44.61264018401248" lon="10.529579291741312"><ele>264.8</ele><time>2026-04-12T11:07:00.999Z</time></trkpt><trkpt lat="44.61266485385841" lon="10.529734514159879"><ele>265.0</ele><time>2026-04-12T11:07:01.999Z</time></trkpt><trkpt lat="44.612677209176596" lon="10.529864974947573"><ele>265.2</ele><time>2026-04-12T11:07:02.999Z</time></trkpt><trkpt lat="44.61268359770198" lon="10.52999980421196"><ele>265.4</ele><time>2026-04-12T11:07:03.999Z</time></trkpt><trkpt lat="44.612688239527095" lon="10.530097769387776"><ele>265.6</ele><time>2026-04-12T11:07:04.999Z</time></trkpt><trkpt lat="44.61260303241663" lon="10.530183088172665"><ele>265.8</ele><time>2026-04-12T11:07:07.999Z</time></trkpt><trkpt lat="44.61254559018477" lon="10.53027856517719"><ele>266.0</ele><time>2026-04-12T11:07:08.999Z</time></trkpt><trkpt lat="44.6124850717075" lon="10.53037832544827"><ele>264.75</ele><time>2026-04-12T11:07:09.999Z</time></trkpt><trkpt lat="44.61241793802198" lon="10.530485483534665"><ele>263.5</ele><time>2026-04-12T11:07:10.999Z</time></trkpt><trkpt lat="44.61234627160759" lon="10.530602316685403"><ele>262.25</ele><time>2026-04-12T11:07:11.999Z</time></trkpt><trkpt lat="44.61225882737214" lon="10.53074648960017"><ele>261.0</ele><time>2026-04-12T11:07:12.999Z</time></trkpt><trkpt lat="44.612168040721485" lon="10.530900835726994"><ele>261.0</ele><time>2026-04-12T11:07:13.999Z</time></trkpt><trkpt lat="44.612091029983574" lon="10.53103215689777"><ele>261.0</ele><time>2026-04-12T11:07:14.999Z</time></trkpt><trkpt lat="44.61201900142627" lon="10.53112439052334"><ele>261.0</ele><time>2026-04-12T11:07:15.999Z</time></trkpt><trkpt lat="44.61192559273545" lon="10.531199080514135"><ele>261.0</ele><time>2026-04-12T11:07:16.999Z</time></trkpt><trkpt lat="44.61181387416474" lon="10.531252446376334"><ele>261.0</ele><time>2026-04-12T11:07:17.999Z</time></trkpt><trkpt lat="44.61169793559935" lon="10.531306495666696"><ele>261.75</ele><time>2026-04-12T11:07:18.999Z</time></trkpt><trkpt lat="44.61156737341772" lon="10.531372125926946"><ele>262.5</ele><time>2026-04-12T11:07:19.999Z</time></trkpt><trkpt lat="44.611466555593154" lon="10.53143945620907"><ele>263.25</ele><time>2026-04-12T11:07:20.999Z</time></trkpt><trkpt lat="44.61135888317988" lon="10.531557330090203"><ele>264.0</ele><time>2026-04-12T11:07:23Z</time></trkpt><trkpt lat="44.61129511300027" lon="10.531631033296206"><ele>264.0</ele><time>2026-04-12T11:07:24Z</time></trkpt><trkpt lat="44.61125562545567" lon="10.531700727784026"><ele>264.0</ele><time>2026-04-12T11:07:25Z</time></trkpt><trkpt lat="44.611201618268204" lon="10.531810376435494"><ele>264.0</ele><time>2026-04-12T11:07:26Z</time></trkpt><trkpt lat="44.611161911973305" lon="10.531958579329226"><ele>264.0</ele><time>2026-04-12T11:07:27Z</time></trkpt><trkpt lat="44.61112074604844" lon="10.532151716360435"><ele>264.0</ele><time>2026-04-12T11:07:28Z</time></trkpt><trkpt lat="44.61108919346601" lon="10.532335583920107"><ele>264.25</ele><time>2026-04-12T11:07:29Z</time></trkpt><trkpt lat="44.61104301263023" lon="10.532509922925426"><ele>264.5</ele><time>2026-04-12T11:07:30Z</time></trkpt><trkpt lat="44.611007714682444" lon="10.532667048389126"><ele>264.75</ele><time>2026-04-12T11:07:31Z</time></trkpt><trkpt lat="44.61098967420803" lon="10.532813503357412"><ele>265.0</ele><time>2026-04-12T11:07:32Z</time></trkpt><trkpt lat="44.61094758750712" lon="10.532959932000633"><ele>265.5</ele><time>2026-04-12T11:07:33Z</time></trkpt><trkpt lat="44.610915199251416" lon="10.533106921174216"><ele>266.0</ele><time>2026-04-12T11:07:34Z</time></trkpt><trkpt lat="44.61087147098398" lon="10.533205637607468"><ele>266.5</ele><time>2026-04-12T11:07:35Z</time></trkpt><trkpt lat="44.61084345293966" lon="10.533290349431622"><ele>267.0</ele><time>2026-04-12T11:07:36Z</time></trkpt><trkpt lat="44.610828117070625" lon="10.533394076726724"><ele>267.5</ele><time>2026-04-12T11:07:37Z</time></trkpt><trkpt lat="44.61079429244018" lon="10.533498253989057"><ele>268.0</ele><time>2026-04-12T11:07:38Z</time></trkpt><trkpt lat="44.61077483569372" lon="10.533615268859219"><ele>267.5</ele><time>2026-04-12T11:07:39Z</time></trkpt><trkpt lat="44.61075356422453" lon="10.53372430516799"><ele>267.0</ele><time>2026-04-12T11:07:40Z</time></trkpt><trkpt lat="44.61073340830156" lon="10.533834862193467"><ele>266.5</ele><time>2026-04-12T11:07:41Z</time></trkpt><trkpt lat="44.61072997667094" lon="10.53393740347288"><ele>266.0</ele><time>2026-04-12T11:07:42Z</time></trkpt><trkpt lat="44.610716014021975" lon="10.53405324995302"><ele>265.5</ele><time>2026-04-12T11:07:43Z</time></trkpt><trkpt lat="44.6107347082756" lon="10.534174620345437"><ele>265.0</ele><time>2026-04-12T11:07:44Z</time></trkpt><trkpt lat="44.61073760466742" lon="10.534297930100838"><ele>265.0</ele><time>2026-04-12T11:07:45Z</time></trkpt><trkpt lat="44.61074150646491" lon="10.534394585069995"><ele>265.0</ele><time>2026-04-12T11:07:46Z</time></trkpt><trkpt lat="44.61073471824023" lon="10.534487570192042"><ele>265.0</ele><time>2026-04-12T11:07:47Z</time></trkpt><trkpt lat="44.61070288008928" lon="10.534649321845421"><ele>265.0</ele><time>2026-04-12T11:07:48Z</time></trkpt><trkpt lat="44.61068599589342" lon="10.534793633872342"><ele>265.0</ele><time>2026-04-12T11:07:49Z</time></trkpt><trkpt lat="44.61067408963755" lon="10.534919104193142"><ele>265.0</ele><time>2026-04-12T11:07:50Z</time></trkpt><trkpt lat="44.610662150792265" lon="10.535034006002142"><ele>263.5</ele><time>2026-04-12T11:07:51Z</time></trkpt><trkpt lat="44.61064801147388" lon="10.535155820098154"><ele>262.0</ele><time>2026-04-12T11:07:52Z</time></trkpt><trkpt lat="44.61061328758193" lon="10.535265391273285"><ele>260.5</ele><time>2026-04-12T11:07:53Z</time></trkpt><trkpt lat="44.61058838937789" lon="10.535370758171068"><ele>259.0</ele><time>2026-04-12T11:07:54Z</time></trkpt><trkpt lat="44.61056321722674" lon="10.53546230930799"><ele>257.5</ele><time>2026-04-12T11:07:55Z</time></trkpt><trkpt lat="44.6105018488926" lon="10.535574163795616"><ele>256.0</ele><time>2026-04-12T11:07:56Z</time></trkpt><trkpt lat="44.61047174084536" lon="10.535678275027372"><ele>253.99999999999997</ele><time>2026-04-12T11:07:57Z</time></trkpt><trkpt lat="44.610439192031116" lon="10.535794484995998"><ele>252.0</ele><time>2026-04-12T11:07:58Z</time></trkpt><trkpt lat="44.61040879798322" lon="10.535911549993232"><ele>250.0</ele><time>2026-04-12T11:07:59Z</time></trkpt><trkpt lat="44.61040242174827" lon="10.536044476983863"><ele>248.0</ele><time>2026-04-12T11:08:00Z</time></trkpt><trkpt lat="44.610401401720445" lon="10.536145363343135"><ele>245.99999999999997</ele><time>2026-04-12T11:08:01Z</time></trkpt><trkpt lat="44.61037955760906" lon="10.53627218513275"><ele>244.0</ele><time>2026-04-12T11:08:02Z</time></trkpt><trkpt lat="44.610387691548645" lon="10.536414273201732"><ele>241.25</ele><time>2026-04-12T11:08:03Z</time></trkpt><trkpt lat="44.61036524296332" lon="10.536592425075831"><ele>238.5</ele><time>2026-04-12T11:08:04Z</time></trkpt><trkpt lat="44.61035842635106" lon="10.53675271516207"><ele>235.75</ele><time>2026-04-12T11:08:05Z</time></trkpt><trkpt lat="44.61035193925571" lon="10.536905257084"><ele>233.0</ele><time>2026-04-12T11:08:06Z</time></trkpt><trkpt lat="44.61034429968556" lon="10.5370666185097"><ele>231.25</ele><time>2026-04-12T11:08:07Z</time></trkpt><trkpt lat="44.61033654878592" lon="10.537223087401946"><ele>229.5</ele><time>2026-04-12T11:08:08Z</time></trkpt><trkpt lat="44.6103220128976" lon="10.537390800265577"><ele>227.75</ele><time>2026-04-12T11:08:09Z</time></trkpt><trkpt lat="44.610285739579155" lon="10.537534561203724"><ele>226.0</ele><time>2026-04-12T11:08:10Z</time></trkpt><trkpt lat="44.6102353442334" lon="10.537690787876539"><ele>225.5</ele><time>2026-04-12T11:08:11Z</time></trkpt><trkpt lat="44.610191284989305" lon="10.53786186852025"><ele>225.0</ele><time>2026-04-12T11:08:12Z</time></trkpt><trkpt lat="44.610203232903615" lon="10.53805507167891"><ele>224.5</ele><time>2026-04-12T11:08:13Z</time></trkpt><trkpt lat="44.610222025026125" lon="10.538242655152978"><ele>224.0</ele><time>2026-04-12T11:08:14Z</time></trkpt><trkpt lat="44.61026274631792" lon="10.538467135415228"><ele>222.0</ele><time>2026-04-12T11:08:15Z</time></trkpt><trkpt lat="44.61031400215368" lon="10.538692734067359"><ele>220.0</ele><time>2026-04-12T11:08:16Z</time></trkpt><trkpt lat="44.6103777473677" lon="10.538890864969783"><ele>218.0</ele><time>2026-04-12T11:08:17Z</time></trkpt><trkpt lat="44.61046661008437" lon="10.539046939669833"><ele>217.75</ele><time>2026-04-12T11:08:18Z</time></trkpt><trkpt lat="44.61052805102203" lon="10.53918095529537"><ele>217.5</ele><time>2026-04-12T11:08:19Z</time></trkpt><trkpt lat="44.61057334857411" lon="10.539327201984417"><ele>217.25</ele><time>2026-04-12T11:08:20Z</time></trkpt><trkpt lat="44.61065200896757" lon="10.539515342795685"><ele>217.0</ele><time>2026-04-12T11:08:21Z</time></trkpt><trkpt lat="44.61072638815189" lon="10.539730102726582"><ele>217.5</ele><time>2026-04-12T11:08:22Z</time></trkpt><trkpt lat="44.61078511577544" lon="10.53992254353311"><ele>218.0</ele><time>2026-04-12T11:08:23Z</time></trkpt><trkpt lat="44.61083826473818" lon="10.54011143985818"><ele>218.5</ele><time>2026-04-12T11:08:24Z</time></trkpt><trkpt lat="44.610911402962856" lon="10.540282417372934"><ele>219.0</ele><time>2026-04-12T11:08:25Z</time></trkpt><trkpt lat="44.61096013943172" lon="10.540496575684744"><ele>219.0</ele><time>2026-04-12T11:08:26Z</time></trkpt><trkpt lat="44.610991142970875" lon="10.54069809424727"><ele>219.0</ele><time>2026-04-12T11:08:27Z</time></trkpt><trkpt lat="44.61103860165878" lon="10.540891533262554"><ele>219.0</ele><time>2026-04-12T11:08:28Z</time></trkpt><trkpt lat="44.611059112027576" lon="10.54112282182691"><ele>218.0</ele><time>2026-04-12T11:08:29Z</time></trkpt><trkpt lat="44.61109590816893" lon="10.541366741707064"><ele>217.0</ele><time>2026-04-12T11:08:30Z</time></trkpt><trkpt lat="44.61113908119507" lon="10.541614587365821"><ele>216.0</ele><time>2026-04-12T11:08:31Z</time></trkpt><trkpt lat="44.61119586509175" lon="10.541841375049733"><ele>218.66666666666669</ele><time>2026-04-12T11:08:32Z</time></trkpt><trkpt lat="44.61127389842041" lon="10.542052274907725"><ele>221.33333333333334</ele><time>2026-04-12T11:08:33Z</time></trkpt><trkpt lat="44.61137314615753" lon="10.54225526606786"><ele>224.0</ele><time>2026-04-12T11:08:34Z</time></trkpt><trkpt lat="44.61149051471911" lon="10.542429801014329"><ele>224.0</ele><time>2026-04-12T11:08:35Z</time></trkpt><trkpt lat="44.61158286914311" lon="10.54258913118486"><ele>224.0</ele><time>2026-04-12T11:08:36Z</time></trkpt><trkpt lat="44.6116955555516" lon="10.542689721794545"><ele>224.0</ele><time>2026-04-12T11:08:37Z</time></trkpt><trkpt lat="44.61180494882722" lon="10.542790506626876"><ele>224.0</ele><time>2026-04-12T11:08:38Z</time></trkpt><trkpt lat="44.61191138837713" lon="10.542846724424347"><ele>223.79999999999998</ele><time>2026-04-12T11:08:38.999Z</time></trkpt><trkpt lat="44.61201375242743" lon="10.54284097901321"><ele>223.59999999999997</ele><time>2026-04-12T11:08:39.999Z</time></trkpt><trkpt lat="44.61212055670572" lon="10.54282575215129"><ele>223.4</ele><time>2026-04-12T11:08:40.999Z</time></trkpt><trkpt lat="44.61223206395695" lon="10.542823492763524"><ele>223.2</ele><time>2026-04-12T11:08:41.999Z</time></trkpt><trkpt lat="44.61234568647951" lon="10.542780427922343"><ele>223.0</ele><time>2026-04-12T11:08:42.999Z</time></trkpt><trkpt lat="44.61244524881605" lon="10.542733341858428"><ele>223.0</ele><time>2026-04-12T11:08:43.999Z</time></trkpt><trkpt lat="44.61251514825914" lon="10.542789838721507"><ele>223.0</ele><time>2026-04-12T11:08:44.999Z</time></trkpt><trkpt lat="44.61252726080704" lon="10.54299561237246"><ele>223.0</ele><time>2026-04-12T11:08:46.999Z</time></trkpt><trkpt lat="44.61251895724636" lon="10.543110896173326"><ele>223.0</ele><time>2026-04-12T11:08:47.999Z</time></trkpt><trkpt lat="44.6125259736781" lon="10.543263229683946"><ele>223.0</ele><time>2026-04-12T11:08:48.999Z</time></trkpt><trkpt lat="44.61254902195516" lon="10.54341634114575"><ele>222.8</ele><time>2026-04-12T11:08:49.999Z</time></trkpt><trkpt lat="44.61255939286203" lon="10.543526730856232"><ele>222.60000000000002</ele><time>2026-04-12T11:08:50.999Z</time></trkpt><trkpt lat="44.61258968459861" lon="10.543659199943725"><ele>222.39999999999998</ele><time>2026-04-12T11:08:51.999Z</time></trkpt><trkpt lat="44.61263471724546" lon="10.543799266928357"><ele>222.2</ele><time>2026-04-12T11:08:52.999Z</time></trkpt><trkpt lat="44.612672636720795" lon="10.543954026684116"><ele>222.0</ele><time>2026-04-12T11:08:53.999Z</time></trkpt><trkpt lat="44.612713515148286" lon="10.544135561004342"><ele>222.0</ele><time>2026-04-12T11:08:54.999Z</time></trkpt><trkpt lat="44.612760981822554" lon="10.54430503582988"><ele>222.0</ele><time>2026-04-12T11:08:55.999Z</time></trkpt><trkpt lat="44.612786479556846" lon="10.544443250028866"><ele>222.0</ele><time>2026-04-12T11:08:56.999Z</time></trkpt><trkpt lat="44.61280335663387" lon="10.544592753354548"><ele>222.0</ele><time>2026-04-12T11:08:57.999Z</time></trkpt><trkpt lat="44.61281959608495" lon="10.544784067753827"><ele>221.0</ele><time>2026-04-12T11:08:58.999Z</time></trkpt><trkpt lat="44.61285377847403" lon="10.544995063487697"><ele>220.0</ele><time>2026-04-12T11:08:59.999Z</time></trkpt><trkpt lat="44.612905152311285" lon="10.545153370802746"><ele>219.0</ele><time>2026-04-12T11:09:00.999Z</time></trkpt><trkpt lat="44.6129644437089" lon="10.545271622042236"><ele>218.0</ele><time>2026-04-12T11:09:01.999Z</time></trkpt><trkpt lat="44.612977982136215" lon="10.545387664541652"><ele>218.0</ele><time>2026-04-12T11:09:02.999Z</time></trkpt><trkpt lat="44.61297790755542" lon="10.545502208683324"><ele>218.0</ele><time>2026-04-12T11:09:03.999Z</time></trkpt><trkpt lat="44.61297183816209" lon="10.545649266830734"><ele>218.0</ele><time>2026-04-12T11:09:04.999Z</time></trkpt><trkpt lat="44.61297048198633" lon="10.545806822148935"><ele>218.0</ele><time>2026-04-12T11:09:05.999Z</time></trkpt><trkpt lat="44.61297528936744" lon="10.545993670483718"><ele>218.0</ele><time>2026-04-12T11:09:06.999Z</time></trkpt><trkpt lat="44.61301162965083" lon="10.546129046159356"><ele>218.4</ele><time>2026-04-12T11:09:07.999Z</time></trkpt><trkpt lat="44.613028749937236" lon="10.546247169735208"><ele>218.8</ele><time>2026-04-12T11:09:08.999Z</time></trkpt><trkpt lat="44.61306690245923" lon="10.546370314201448"><ele>219.2</ele><time>2026-04-12T11:09:09.999Z</time></trkpt><trkpt lat="44.613105859153166" lon="10.546486665983284"><ele>219.6</ele><time>2026-04-12T11:09:10.999Z</time></trkpt><trkpt lat="44.61315241730706" lon="10.54661904705263"><ele>220.0</ele><time>2026-04-12T11:09:11.999Z</time></trkpt><trkpt lat="44.61320293904587" lon="10.546759391632948"><ele>220.0</ele><time>2026-04-12T11:09:12.999Z</time></trkpt><trkpt lat="44.613244708866105" lon="10.546884536426662"><ele>220.0</ele><time>2026-04-12T11:09:13.999Z</time></trkpt><trkpt lat="44.61329380039608" lon="10.547038592514205"><ele>220.0</ele><time>2026-04-12T11:09:14.999Z</time></trkpt><trkpt lat="44.613363428823995" lon="10.547219444389167"><ele>220.0</ele><time>2026-04-12T11:09:15.999Z</time></trkpt><trkpt lat="44.6134572790027" lon="10.547323208403268"><ele>219.0</ele><time>2026-04-12T11:09:16.999Z</time></trkpt><trkpt lat="44.61356170453538" lon="10.547418417672317"><ele>218.0</ele><time>2026-04-12T11:09:17.999Z</time></trkpt><trkpt lat="44.61371495557257" lon="10.54749935314688"><ele>217.0</ele><time>2026-04-12T11:09:18.999Z</time></trkpt><trkpt lat="44.61385226811104" lon="10.547557061282097"><ele>216.0</ele><time>2026-04-12T11:09:19.999Z</time></trkpt><trkpt lat="44.613965907546856" lon="10.547616312534924"><ele>216.0</ele><time>2026-04-12T11:09:20.999Z</time></trkpt><trkpt lat="44.61406105752625" lon="10.547658600414584"><ele>216.00000000000003</ele><time>2026-04-12T11:09:21.999Z</time></trkpt><trkpt lat="44.61413881392237" lon="10.547730409266759"><ele>216.00000000000003</ele><time>2026-04-12T11:09:22.999Z</time></trkpt><trkpt lat="44.61422350309538" lon="10.547796018514616"><ele>216.0</ele><time>2026-04-12T11:09:23.999Z</time></trkpt><trkpt lat="44.6143221587271" lon="10.547864839872583"><ele>216.0</ele><time>2026-04-12T11:09:24.999Z</time></trkpt><trkpt lat="44.6144399781594" lon="10.547904805199918"><ele>214.0</ele><time>2026-04-12T11:09:25.999Z</time></trkpt><trkpt lat="44.614562830512" lon="10.547988164420454"><ele>212.0</ele><time>2026-04-12T11:09:27Z</time></trkpt><trkpt lat="44.61468517983038" lon="10.548052580742404"><ele>210.0</ele><time>2026-04-12T11:09:28Z</time></trkpt><trkpt lat="44.61479732015155" lon="10.548119000594786"><ele>208.0</ele><time>2026-04-12T11:09:29Z</time></trkpt><trkpt lat="44.61490583983111" lon="10.548184283386782"><ele>208.0</ele><time>2026-04-12T11:09:30Z</time></trkpt><trkpt lat="44.6149931370529" lon="10.548235777988861"><ele>208.0</ele><time>2026-04-12T11:09:31Z</time></trkpt><trkpt lat="44.61510243310689" lon="10.548297119104388"><ele>208.0</ele><time>2026-04-12T11:09:32Z</time></trkpt><trkpt lat="44.615214907780086" lon="10.54835898004925"><ele>208.0</ele><time>2026-04-12T11:09:33Z</time></trkpt><trkpt lat="44.61531578706894" lon="10.548413798126465"><ele>208.0</ele><time>2026-04-12T11:09:34Z</time></trkpt><trkpt lat="44.615419592492294" lon="10.54846958466549"><ele>205.25</ele><time>2026-04-12T11:09:35Z</time></trkpt><trkpt lat="44.61552545550605" lon="10.548523265140295"><ele>202.5</ele><time>2026-04-12T11:09:36Z</time></trkpt><trkpt lat="44.61564193841099" lon="10.548579926326655"><ele>199.75</ele><time>2026-04-12T11:09:37Z</time></trkpt><trkpt lat="44.61576127587765" lon="10.54863974278651"><ele>197.0</ele><time>2026-04-12T11:09:38Z</time></trkpt><trkpt lat="44.61587962038742" lon="10.548701881749427"><ele>196.25</ele><time>2026-04-12T11:09:39Z</time></trkpt><trkpt lat="44.61600160778121" lon="10.548766292017087"><ele>195.5</ele><time>2026-04-12T11:09:40Z</time></trkpt><trkpt lat="44.61611420625596" lon="10.54882733658114"><ele>194.75</ele><time>2026-04-12T11:09:41Z</time></trkpt><trkpt lat="44.61622498722343" lon="10.548863446534238"><ele>194.0</ele><time>2026-04-12T11:09:42Z</time></trkpt><trkpt lat="44.61633224288998" lon="10.54893067549878"><ele>194.0</ele><time>2026-04-12T11:09:43Z</time></trkpt><trkpt lat="44.61642882540918" lon="10.549009307670163"><ele>194.0</ele><time>2026-04-12T11:09:44Z</time></trkpt><trkpt lat="44.61649038018226" lon="10.549067382500352"><ele>194.0</ele><time>2026-04-12T11:09:45Z</time></trkpt><trkpt lat="44.61659873767531" lon="10.549112980120977"><ele>194.0</ele><time>2026-04-12T11:09:46Z</time></trkpt><trkpt lat="44.61669785092377" lon="10.549163425022762"><ele>194.0</ele><time>2026-04-12T11:09:47Z</time></trkpt><trkpt lat="44.61680666697245" lon="10.549222637886045"><ele>194.0</ele><time>2026-04-12T11:09:48Z</time></trkpt><trkpt lat="44.616934711727545" lon="10.549268480976371"><ele>194.0</ele><time>2026-04-12T11:09:49Z</time></trkpt><trkpt lat="44.61705817802262" lon="10.549359691655948"><ele>194.0</ele><time>2026-04-12T11:09:50Z</time></trkpt><trkpt lat="44.61718977321507" lon="10.549431696123852"><ele>194.0</ele><time>2026-04-12T11:09:51Z</time></trkpt><trkpt lat="44.6173237120013" lon="10.549505533251939"><ele>195.0</ele><time>2026-04-12T11:09:52Z</time></trkpt><trkpt lat="44.617475185458176" lon="10.549589036841184"><ele>196.0</ele><time>2026-04-12T11:09:53Z</time></trkpt><trkpt lat="44.617636811803635" lon="10.549678137521996"><ele>197.0</ele><time>2026-04-12T11:09:54Z</time></trkpt><trkpt lat="44.617782848317376" lon="10.549735165678193"><ele>198.25</ele><time>2026-04-12T11:09:55Z</time></trkpt><trkpt lat="44.617915611864206" lon="10.549814416405553"><ele>199.5</ele><time>2026-04-12T11:09:56Z</time></trkpt><trkpt lat="44.61804835966312" lon="10.549892793597168"><ele>200.75</ele><time>2026-04-12T11:09:57Z</time></trkpt><trkpt lat="44.61817852913091" lon="10.549960529855957"><ele>202.0</ele><time>2026-04-12T11:09:58Z</time></trkpt><trkpt lat="44.61829768297525" lon="10.550021171127819"><ele>202.0</ele><time>2026-04-12T11:09:59Z</time></trkpt><trkpt lat="44.618399521882175" lon="10.550079403090022"><ele>202.0</ele><time>2026-04-12T11:10:00Z</time></trkpt><trkpt lat="44.61849174032832" lon="10.550167649089012"><ele>202.0</ele><time>2026-04-12T11:10:01Z</time></trkpt><trkpt lat="44.618569018748495" lon="10.550254934687647"><ele>202.0</ele><time>2026-04-12T11:10:02Z</time></trkpt><trkpt lat="44.61863981186353" lon="10.550337501350375"><ele>202.0</ele><time>2026-04-12T11:10:03Z</time></trkpt><trkpt lat="44.6187091096769" lon="10.55044730715439"><ele>202.75</ele><time>2026-04-12T11:10:04Z</time></trkpt><trkpt lat="44.618775260222534" lon="10.550564994768518"><ele>203.5</ele><time>2026-04-12T11:10:05Z</time></trkpt><trkpt lat="44.618884526431714" lon="10.55073731913709"><ele>204.25</ele><time>2026-04-12T11:10:06Z</time></trkpt><trkpt lat="44.61897719219472" lon="10.55087956131673"><ele>205.0</ele><time>2026-04-12T11:10:07Z</time></trkpt><trkpt lat="44.61906386100504" lon="10.550989092499217"><ele>205.0</ele><time>2026-04-12T11:10:08Z</time></trkpt><trkpt lat="44.619145283718375" lon="10.551110343769231"><ele>205.0</ele><time>2026-04-12T11:10:09Z</time></trkpt><trkpt lat="44.61923686397623" lon="10.551232620191282"><ele>205.0</ele><time>2026-04-12T11:10:10Z</time></trkpt><trkpt lat="44.619326616939354" lon="10.551328226282507"><ele>205.0</ele><time>2026-04-12T11:10:11Z</time></trkpt><trkpt lat="44.6194005661223" lon="10.551375875521947"><ele>205.0</ele><time>2026-04-12T11:10:12Z</time></trkpt><trkpt lat="44.61946647960526" lon="10.551457069896982"><ele>203.6</ele><time>2026-04-12T11:10:13Z</time></trkpt><trkpt lat="44.619534771731544" lon="10.551541358238445"><ele>202.2</ele><time>2026-04-12T11:10:14Z</time></trkpt><trkpt lat="44.61961056606825" lon="10.551608140864612"><ele>200.8</ele><time>2026-04-12T11:10:15Z</time></trkpt><trkpt lat="44.6196821961594" lon="10.551708835194628"><ele>199.4</ele><time>2026-04-12T11:10:16Z</time></trkpt><trkpt lat="44.61975684357044" lon="10.551806022453352"><ele>198.0</ele><time>2026-04-12T11:10:17Z</time></trkpt><trkpt lat="44.61982474004225" lon="10.551900064612937"><ele>198.0</ele><time>2026-04-12T11:10:18Z</time></trkpt><trkpt lat="44.61989801101149" lon="10.55198305347233"><ele>198.0</ele><time>2026-04-12T11:10:19Z</time></trkpt><trkpt lat="44.61998273802228" lon="10.552045540413287"><ele>198.0</ele><time>2026-04-12T11:10:20Z</time></trkpt><trkpt lat="44.62007425726849" lon="10.55209070454597"><ele>198.0</ele><time>2026-04-12T11:10:21Z</time></trkpt><trkpt lat="44.62013504182758" lon="10.552169766679736"><ele>198.0</ele><time>2026-04-12T11:10:22Z</time></trkpt><trkpt lat="44.620198984656305" lon="10.552222375229572"><ele>198.0</ele><time>2026-04-12T11:10:23Z</time></trkpt><trkpt lat="44.62027800901503" lon="10.552262132460168"><ele>200.4</ele><time>2026-04-12T11:10:24Z</time></trkpt><trkpt lat="44.620353533791736" lon="10.552343104089589"><ele>202.8</ele><time>2026-04-12T11:10:25Z</time></trkpt><trkpt lat="44.620424352678256" lon="10.552417162120143"><ele>205.2</ele><time>2026-04-12T11:10:26Z</time></trkpt><trkpt lat="44.62049016802859" lon="10.552492132253379"><ele>207.6</ele><time>2026-04-12T11:10:27Z</time></trkpt><trkpt lat="44.62055862150377" lon="10.552571728225034"><ele>210.0</ele><time>2026-04-12T11:10:28Z</time></trkpt><trkpt lat="44.620635551641435" lon="10.552659535275469"><ele>210.0</ele><time>2026-04-12T11:10:29Z</time></trkpt><trkpt lat="44.62072350550639" lon="10.552728760913219"><ele>210.0</ele><time>2026-04-12T11:10:30Z</time></trkpt><trkpt lat="44.620804045364956" lon="10.552806321563274"><ele>210.0</ele><time>2026-04-12T11:10:31Z</time></trkpt><trkpt lat="44.62086909252115" lon="10.552889651606694"><ele>210.0</ele><time>2026-04-12T11:10:32Z</time></trkpt><trkpt lat="44.62092648409926" lon="10.552949632563728"><ele>210.0</ele><time>2026-04-12T11:10:34Z</time></trkpt><trkpt lat="44.62088427501341" lon="10.553057954102533"><ele>210.0</ele><time>2026-04-12T11:10:37Z</time></trkpt><trkpt lat="44.62082292884892" lon="10.55307981393341"><ele>210.8</ele><time>2026-04-12T11:10:38Z</time></trkpt><trkpt lat="44.62076631150685" lon="10.553151811103781"><ele>211.6</ele><time>2026-04-12T11:10:39Z</time></trkpt><trkpt lat="44.62078759805133" lon="10.553291669287812"><ele>212.39999999999998</ele><time>2026-04-12T11:10:40Z</time></trkpt><trkpt lat="44.620869979821926" lon="10.55341529012626"><ele>213.2</ele><time>2026-04-12T11:10:41Z</time></trkpt><trkpt lat="44.62092324285912" lon="10.553536447636557"><ele>214.0</ele><time>2026-04-12T11:10:42Z</time></trkpt><trkpt lat="44.620956159566795" lon="10.55365600759833"><ele>215.66666666666666</ele><time>2026-04-12T11:10:42.999Z</time></trkpt><trkpt lat="44.621000858245814" lon="10.55376107386567"><ele>217.33333333333331</ele><time>2026-04-12T11:10:43.999Z</time></trkpt><trkpt lat="44.621043510570004" lon="10.55386078191603"><ele>219.0</ele><time>2026-04-12T11:10:44.999Z</time></trkpt><trkpt lat="44.621091010613526" lon="10.553971227238797"><ele>220.66666666666669</ele><time>2026-04-12T11:10:45.999Z</time></trkpt><trkpt lat="44.62113903799897" lon="10.554082898236285"><ele>222.33333333333334</ele><time>2026-04-12T11:10:46.999Z</time></trkpt><trkpt lat="44.621187741075964" lon="10.554196140998346"><ele>224.0</ele><time>2026-04-12T11:10:47.999Z</time></trkpt><trkpt lat="44.621248881190056" lon="10.554297135009206"><ele>224.0</ele><time>2026-04-12T11:10:48.999Z</time></trkpt><trkpt lat="44.6212963444172" lon="10.554411439377407"><ele>223.99999999999997</ele><time>2026-04-12T11:10:49.999Z</time></trkpt><trkpt lat="44.62134771015412" lon="10.554524160200078"><ele>223.99999999999997</ele><time>2026-04-12T11:10:50.999Z</time></trkpt><trkpt lat="44.62138042622672" lon="10.554643590783515"><ele>224.0</ele><time>2026-04-12T11:10:51.999Z</time></trkpt><trkpt lat="44.621432427895755" lon="10.55476397856287"><ele>224.0</ele><time>2026-04-12T11:10:52.999Z</time></trkpt><trkpt lat="44.62149598169854" lon="10.554870657009698"><ele>220.6</ele><time>2026-04-12T11:10:53.999Z</time></trkpt><trkpt lat="44.62153112613096" lon="10.554995215648672"><ele>217.2</ele><time>2026-04-12T11:10:54.999Z</time></trkpt><trkpt lat="44.62158119484331" lon="10.555111919648322"><ele>213.79999999999998</ele><time>2026-04-12T11:10:55.999Z</time></trkpt><trkpt lat="44.62163449971397" lon="10.555221525845294"><ele>210.39999999999998</ele><time>2026-04-12T11:10:56.999Z</time></trkpt><trkpt lat="44.62170243466867" lon="10.555322333550075"><ele>207.0</ele><time>2026-04-12T11:10:57.999Z</time></trkpt><trkpt lat="44.62177322832689" lon="10.555432387023558"><ele>202.0</ele><time>2026-04-12T11:10:58.999Z</time></trkpt><trkpt lat="44.62185760203225" lon="10.555526430986632"><ele>197.0</ele><time>2026-04-12T11:10:59.999Z</time></trkpt><trkpt lat="44.62196516480078" lon="10.555599145066338"><ele>192.0</ele><time>2026-04-12T11:11:00.999Z</time></trkpt><trkpt lat="44.622085806979165" lon="10.555640932728203"><ele>187.0</ele><time>2026-04-12T11:11:01.999Z</time></trkpt><trkpt lat="44.622213631325025" lon="10.555692971209275"><ele>187.0</ele><time>2026-04-12T11:11:02.999Z</time></trkpt><trkpt lat="44.622322668235455" lon="10.555734636942134"><ele>187.0</ele><time>2026-04-12T11:11:03.999Z</time></trkpt><trkpt lat="44.622425391851564" lon="10.555755806505479"><ele>187.0</ele><time>2026-04-12T11:11:04.999Z</time></trkpt><trkpt lat="44.62255145797609" lon="10.555824895158516"><ele>187.0</ele><time>2026-04-12T11:11:05.999Z</time></trkpt><trkpt lat="44.622689328118334" lon="10.555864299413114"><ele>187.0</ele><time>2026-04-12T11:11:06.999Z</time></trkpt><trkpt lat="44.62280480898232" lon="10.55589545398307"><ele>187.0</ele><time>2026-04-12T11:11:07.999Z</time></trkpt><trkpt lat="44.62292299765401" lon="10.555964535934502"><ele>187.0</ele><time>2026-04-12T11:11:08.999Z</time></trkpt><trkpt lat="44.62303168641268" lon="10.555987335953148"><ele>187.0</ele><time>2026-04-12T11:11:09.999Z</time></trkpt><trkpt lat="44.623153167489136" lon="10.556038283076743"><ele>184.75</ele><time>2026-04-12T11:11:10.999Z</time></trkpt><trkpt lat="44.6232831552433" lon="10.556102441018822"><ele>182.5</ele><time>2026-04-12T11:11:11.999Z</time></trkpt><trkpt lat="44.62340122487684" lon="10.556132848204266"><ele>180.25</ele><time>2026-04-12T11:11:12.999Z</time></trkpt><trkpt lat="44.623520336209296" lon="10.556169825758259"><ele>178.0</ele><time>2026-04-12T11:11:13.999Z</time></trkpt><trkpt lat="44.6236374042558" lon="10.556213797306404"><ele>175.4</ele><time>2026-04-12T11:11:14.999Z</time></trkpt><trkpt lat="44.62374557744959" lon="10.556264395494"><ele>172.8</ele><time>2026-04-12T11:11:15.999Z</time></trkpt><trkpt lat="44.623840166057626" lon="10.55632478218797"><ele>170.2</ele><time>2026-04-12T11:11:16.999Z</time></trkpt><trkpt lat="44.62391364218548" lon="10.556394394799643"><ele>167.6</ele><time>2026-04-12T11:11:17.999Z</time></trkpt><trkpt lat="44.62393287238601" lon="10.556548191390805"><ele>165.0</ele><time>2026-04-12T11:11:18.999Z</time></trkpt><trkpt lat="44.62392276127053" lon="10.556656698164012"><ele>165.0</ele><time>2026-04-12T11:11:19.999Z</time></trkpt><trkpt lat="44.623924373953244" lon="10.556851768988384"><ele>165.0</ele><time>2026-04-12T11:11:20.999Z</time></trkpt><trkpt lat="44.623929732436146" lon="10.557047937996613"><ele>165.0</ele><time>2026-04-12T11:11:21.999Z</time></trkpt><trkpt lat="44.623934372341374" lon="10.55721780042486"><ele>165.0</ele><time>2026-04-12T11:11:22.999Z</time></trkpt><trkpt lat="44.62393977244399" lon="10.557371176341332"><ele>164.5</ele><time>2026-04-12T11:11:23.999Z</time></trkpt><trkpt lat="44.623961719627246" lon="10.557534196564239"><ele>164.0</ele><time>2026-04-12T11:11:24.999Z</time></trkpt><trkpt lat="44.623976694774605" lon="10.55770838741032"><ele>163.5</ele><time>2026-04-12T11:11:25.999Z</time></trkpt><trkpt lat="44.624004068946256" lon="10.557885540489318"><ele>163.0</ele><time>2026-04-12T11:11:26.999Z</time></trkpt><trkpt lat="44.62405418916068" lon="10.558040676151744"><ele>160.75</ele><time>2026-04-12T11:11:27.999Z</time></trkpt><trkpt lat="44.62412225498854" lon="10.558204166738285"><ele>158.5</ele><time>2026-04-12T11:11:28.999Z</time></trkpt><trkpt lat="44.624183490924935" lon="10.558345210820212"><ele>156.25</ele><time>2026-04-12T11:11:29.999Z</time></trkpt><trkpt lat="44.624248538298296" lon="10.558485931174932"><ele>154.0</ele><time>2026-04-12T11:11:30.999Z</time></trkpt><trkpt lat="44.6243031913962" lon="10.558604649887391"><ele>153.25</ele><time>2026-04-12T11:11:31.999Z</time></trkpt><trkpt lat="44.62437825053132" lon="10.55875692419416"><ele>152.5</ele><time>2026-04-12T11:11:33Z</time></trkpt><trkpt lat="44.62443779391151" lon="10.558888498583041"><ele>151.75</ele><time>2026-04-12T11:11:34Z</time></trkpt><trkpt lat="44.624501149114494" lon="10.559011554373464"><ele>151.0</ele><time>2026-04-12T11:11:35Z</time></trkpt><trkpt lat="44.62455741887531" lon="10.559149993782713"><ele>151.0</ele><time>2026-04-12T11:11:36Z</time></trkpt><trkpt lat="44.62461283615173" lon="10.559262102497948"><ele>151.0</ele><time>2026-04-12T11:11:37Z</time></trkpt><trkpt lat="44.62466500270691" lon="10.559376282919292"><ele>151.0</ele><time>2026-04-12T11:11:38Z</time></trkpt><trkpt lat="44.624713991332186" lon="10.559492099436687"><ele>151.0</ele><time>2026-04-12T11:11:39Z</time></trkpt><trkpt lat="44.62476537098086" lon="10.559600422851005"><ele>151.0</ele><time>2026-04-12T11:11:40Z</time></trkpt><trkpt lat="44.62481412827499" lon="10.559711173621384"><ele>150.33333333333334</ele><time>2026-04-12T11:11:41Z</time></trkpt><trkpt lat="44.62486436892694" lon="10.559818800875183"><ele>149.66666666666669</ele><time>2026-04-12T11:11:42Z</time></trkpt><trkpt lat="44.624910471438945" lon="10.559920551013297"><ele>149.0</ele><time>2026-04-12T11:11:43Z</time></trkpt><trkpt lat="44.624956357279665" lon="10.560019143709734"><ele>148.33333333333334</ele><time>2026-04-12T11:11:44Z</time></trkpt><trkpt lat="44.625002508056546" lon="10.560110792246265"><ele>147.66666666666666</ele><time>2026-04-12T11:11:45Z</time></trkpt><trkpt lat="44.62504668149021" lon="10.560202019795314"><ele>147.0</ele><time>2026-04-12T11:11:46Z</time></trkpt><trkpt lat="44.625083979773116" lon="10.560291136786773"><ele>146.66666666666666</ele><time>2026-04-12T11:11:47Z</time></trkpt><trkpt lat="44.62512620404785" lon="10.560372151665748"><ele>146.33333333333334</ele><time>2026-04-12T11:11:48Z</time></trkpt><trkpt lat="44.625163807868745" lon="10.560453380061178"><ele>146.0</ele><time>2026-04-12T11:11:49Z</time></trkpt><trkpt lat="44.62519884472978" lon="10.560535758547877"><ele>145.66666666666669</ele><time>2026-04-12T11:11:50Z</time></trkpt><trkpt lat="44.625264346774934" lon="10.56066658558713"><ele>145.33333333333334</ele><time>2026-04-12T11:11:52Z</time></trkpt><trkpt lat="44.62530741352828" lon="10.560778564884155"><ele>145.0</ele><time>2026-04-12T11:11:54Z</time></trkpt><trkpt lat="44.62527789729956" lon="10.560694355998118"><ele>145.0</ele><time>2026-04-12T11:13:23.999Z</time></trkpt><trkpt lat="44.625336247858165" lon="10.560750249446365"><ele>147.0</ele><time>2026-04-12T11:13:28.999Z</time></trkpt></trkseg></trk></gpx>